<?xml version="1.0" encoding="UTF-8" standalone="no" ?>
<gpx xmlns="http://www.topografix.com/GPX/1/1" xmlns:xsi="http://www.w3.org/2001/XMLSchema-instance" xsi:schemaLocation="http://www.topografix.com/GPX/1/1 http://www.topografix.com/GPX/1/1/gpx.xsd" version="1.1" creator="VisuGPX - https://www.visugpx.com">
  <metadata>
    <name>Port de Benasque</name>
    <desc><![CDATA[Environ la moitié du D+ se fait en portage/poussage...]]></desc>
  </metadata>
  <wpt lat="42.71267" lon="0.6852">
    <ele>2007.5</ele>
    <name><![CDATA[Pause à 30/06 11:51]]></name>
    <desc><![CDATA[Pause de 6min 34s]]></desc>
  </wpt>
  <wpt lat="42.70448" lon="0.6826">
    <ele>2104.1</ele>
    <name><![CDATA[Pause à 30/06 12:18]]></name>
    <desc><![CDATA[Pause de 4min 35s]]></desc>
  </wpt>
  <wpt lat="42.70344" lon="0.6776">
    <ele>2065.8</ele>
    <name><![CDATA[Pause à 30/06 12:24]]></name>
    <desc><![CDATA[Pause de 5min 1s]]></desc>
  </wpt>
  <wpt lat="42.69023" lon="0.67183">
    <ele>2427.9</ele>
    <name><![CDATA[Pause à 30/06 13:22]]></name>
    <desc><![CDATA[Pause de 8min 19s]]></desc>
  </wpt>
  <wpt lat="42.69001" lon="0.67141">
    <ele>2434.6</ele>
    <name><![CDATA[Pause à 30/06 13:30]]></name>
    <desc><![CDATA[Pause de 25min 41s]]></desc>
  </wpt>
  <wpt lat="42.68947" lon="0.66173">
    <ele>2449.1</ele>
    <name><![CDATA[Pause à 30/06 14:10]]></name>
    <desc><![CDATA[Pause de 3min 24s]]></desc>
  </wpt>
  <wpt lat="42.68936" lon="0.66089">
    <ele>2470</ele>
    <name><![CDATA[Pause à 30/06 14:14]]></name>
    <desc><![CDATA[Pause de 3min 38s]]></desc>
  </wpt>
  <wpt lat="42.69033" lon="0.64626">
    <ele>2312.5</ele>
    <name><![CDATA[Pause à 30/06 14:30]]></name>
    <desc><![CDATA[Pause de 3min 15s]]></desc>
  </wpt>
  <wpt lat="42.69031" lon="0.64571">
    <ele>2316.6</ele>
    <name><![CDATA[Pause à 30/06 14:34]]></name>
    <desc><![CDATA[Pause de 4min 15s]]></desc>
  </wpt>
  <wpt lat="42.69152" lon="0.64156">
    <ele>2368.5</ele>
    <name><![CDATA[Pause à 30/06 14:46]]></name>
    <desc><![CDATA[Pause de 3min 11s]]></desc>
  </wpt>
  <wpt lat="42.69167" lon="0.64105">
    <ele>2386.3</ele>
    <name><![CDATA[Pause à 30/06 14:50]]></name>
    <desc><![CDATA[Pause de 6min 50s]]></desc>
  </wpt>
  <wpt lat="42.69239" lon="0.64116">
    <ele>2430.9</ele>
    <name><![CDATA[Pause à 30/06 14:58]]></name>
    <desc><![CDATA[Pause de 3min 22s]]></desc>
  </wpt>
  <wpt lat="42.69282" lon="0.64117">
    <ele>2452.7</ele>
    <name><![CDATA[Pause à 30/06 15:01]]></name>
    <desc><![CDATA[Pause de 16min 27s]]></desc>
  </wpt>
  <wpt lat="42.69323" lon="0.64055">
    <ele>2397.5</ele>
    <name><![CDATA[Pause à 30/06 15:18]]></name>
    <desc><![CDATA[Pause de 3min 15s]]></desc>
  </wpt>
  <wpt lat="42.69975" lon="0.64254">
    <ele>2248</ele>
    <name><![CDATA[Pause à 30/06 15:26]]></name>
    <desc><![CDATA[Pause de 3min 8s]]></desc>
  </wpt>
  <wpt lat="42.70015" lon="0.64235">
    <ele>2249</ele>
    <name><![CDATA[Pause à 30/06 15:30]]></name>
    <desc><![CDATA[Pause de 10min 52s]]></desc>
  </wpt>
  <wpt lat="42.70015" lon="0.64235">
    <ele>2249</ele>
    <name><![CDATA[Pause à 30/06 15:41]]></name>
    <desc><![CDATA[Pause de 7min 40s]]></desc>
  </wpt>
  <wpt lat="42.70562" lon="0.64759">
    <ele>1912.3</ele>
    <name><![CDATA[Pause à 30/06 16:06]]></name>
    <desc><![CDATA[Pause de 5min 6s]]></desc>
  </wpt>
  <wpt lat="42.71263" lon="0.6498">
    <ele>1531.9</ele>
    <name><![CDATA[Pause à 30/06 16:28]]></name>
    <desc><![CDATA[Pause de 3min 23s]]></desc>
  </wpt>
  <trk>
    <name><![CDATA[Trace 1782806081000]]></name>
    <desc><![CDATA[]]></desc>
    <extensions>
      <line xmlns="http://www.topografix.com/GPX/gpx_style/0/2">
        <color>0000FF</color>
        <width>4</width>
      </line>
    </extensions>
    <trkseg>
      <trkpt lat="42.72288" lon="0.65289">
        <ele>1416</ele>
        <time>2026-06-30T07:54:41.000Z</time>
      </trkpt>
      <trkpt lat="42.72286" lon="0.65288">
        <ele>1419</ele>
        <time>2026-06-30T07:54:46.000Z</time>
      </trkpt>
      <trkpt lat="42.72279" lon="0.65282">
        <ele>1424</ele>
        <time>2026-06-30T07:54:51.000Z</time>
      </trkpt>
      <trkpt lat="42.7228" lon="0.65283">
        <ele>1421</ele>
        <time>2026-06-30T07:54:56.000Z</time>
      </trkpt>
      <trkpt lat="42.7228" lon="0.65284">
        <ele>1424</ele>
        <time>2026-06-30T07:55:01.000Z</time>
      </trkpt>
      <trkpt lat="42.72288" lon="0.6528">
        <ele>1426</ele>
        <time>2026-06-30T07:55:06.000Z</time>
      </trkpt>
      <trkpt lat="42.72293" lon="0.65271">
        <ele>1428</ele>
        <time>2026-06-30T07:55:11.000Z</time>
      </trkpt>
      <trkpt lat="42.72302" lon="0.65251">
        <ele>1431</ele>
        <time>2026-06-30T07:55:16.000Z</time>
      </trkpt>
      <trkpt lat="42.72315" lon="0.65221">
        <ele>1431</ele>
        <time>2026-06-30T07:55:21.000Z</time>
      </trkpt>
      <trkpt lat="42.72337" lon="0.65191">
        <ele>1429</ele>
        <time>2026-06-30T07:55:26.000Z</time>
      </trkpt>
      <trkpt lat="42.72344" lon="0.6514">
        <ele>1424</ele>
        <time>2026-06-30T07:55:31.000Z</time>
      </trkpt>
      <trkpt lat="42.72355" lon="0.6508">
        <ele>1421</ele>
        <time>2026-06-30T07:55:36.000Z</time>
      </trkpt>
      <trkpt lat="42.72377" lon="0.65029">
        <ele>1419</ele>
        <time>2026-06-30T07:55:41.000Z</time>
      </trkpt>
      <trkpt lat="42.7239" lon="0.64968">
        <ele>1416</ele>
        <time>2026-06-30T07:55:46.000Z</time>
      </trkpt>
      <trkpt lat="42.72409" lon="0.64909">
        <ele>1415</ele>
        <time>2026-06-30T07:55:51.000Z</time>
      </trkpt>
      <trkpt lat="42.72429" lon="0.64843">
        <ele>1409</ele>
        <time>2026-06-30T07:55:56.000Z</time>
      </trkpt>
      <trkpt lat="42.72448" lon="0.64807">
        <ele>1405</ele>
        <time>2026-06-30T07:56:01.000Z</time>
      </trkpt>
      <trkpt lat="42.72477" lon="0.64802">
        <ele>1399</ele>
        <time>2026-06-30T07:56:06.000Z</time>
      </trkpt>
      <trkpt lat="42.72482" lon="0.64761">
        <ele>1391</ele>
        <time>2026-06-30T07:56:11.000Z</time>
      </trkpt>
      <trkpt lat="42.72483" lon="0.64724">
        <ele>1380</ele>
        <time>2026-06-30T07:56:16.000Z</time>
      </trkpt>
      <trkpt lat="42.72502" lon="0.64682">
        <ele>1378</ele>
        <time>2026-06-30T07:56:21.000Z</time>
      </trkpt>
      <trkpt lat="42.72503" lon="0.64662">
        <ele>1378</ele>
        <time>2026-06-30T07:56:26.000Z</time>
      </trkpt>
      <trkpt lat="42.72505" lon="0.64651">
        <ele>1378</ele>
        <time>2026-06-30T07:56:31.000Z</time>
      </trkpt>
      <trkpt lat="42.7251" lon="0.6464">
        <ele>1377</ele>
        <time>2026-06-30T07:56:36.000Z</time>
      </trkpt>
      <trkpt lat="42.72515" lon="0.64635">
        <ele>1377</ele>
        <time>2026-06-30T07:56:41.000Z</time>
      </trkpt>
      <trkpt lat="42.72521" lon="0.64628">
        <ele>1377</ele>
        <time>2026-06-30T07:56:46.000Z</time>
      </trkpt>
      <trkpt lat="42.72527" lon="0.64622">
        <ele>1378</ele>
        <time>2026-06-30T07:56:51.000Z</time>
      </trkpt>
      <trkpt lat="42.72532" lon="0.64615">
        <ele>1379</ele>
        <time>2026-06-30T07:56:56.000Z</time>
      </trkpt>
      <trkpt lat="42.72536" lon="0.64604">
        <ele>1379</ele>
        <time>2026-06-30T07:57:01.000Z</time>
      </trkpt>
      <trkpt lat="42.72539" lon="0.64596">
        <ele>1380</ele>
        <time>2026-06-30T07:57:06.000Z</time>
      </trkpt>
      <trkpt lat="42.72544" lon="0.64587">
        <ele>1381</ele>
        <time>2026-06-30T07:57:11.000Z</time>
      </trkpt>
      <trkpt lat="42.72547" lon="0.64583">
        <ele>1382</ele>
        <time>2026-06-30T07:57:16.000Z</time>
      </trkpt>
      <trkpt lat="42.72548" lon="0.64573">
        <ele>1381</ele>
        <time>2026-06-30T07:57:21.000Z</time>
      </trkpt>
      <trkpt lat="42.7255" lon="0.64562">
        <ele>1382</ele>
        <time>2026-06-30T07:57:26.000Z</time>
      </trkpt>
      <trkpt lat="42.72554" lon="0.64551">
        <ele>1383</ele>
        <time>2026-06-30T07:57:31.000Z</time>
      </trkpt>
      <trkpt lat="42.72556" lon="0.64544">
        <ele>1383</ele>
        <time>2026-06-30T07:57:36.000Z</time>
      </trkpt>
      <trkpt lat="42.72559" lon="0.64534">
        <ele>1384</ele>
        <time>2026-06-30T07:57:41.000Z</time>
      </trkpt>
      <trkpt lat="42.72561" lon="0.64523">
        <ele>1383</ele>
        <time>2026-06-30T07:57:46.000Z</time>
      </trkpt>
      <trkpt lat="42.72563" lon="0.64515">
        <ele>1383</ele>
        <time>2026-06-30T07:57:51.000Z</time>
      </trkpt>
      <trkpt lat="42.72567" lon="0.64508">
        <ele>1382</ele>
        <time>2026-06-30T07:57:56.000Z</time>
      </trkpt>
      <trkpt lat="42.72571" lon="0.64501">
        <ele>1381</ele>
        <time>2026-06-30T07:58:01.000Z</time>
      </trkpt>
      <trkpt lat="42.72577" lon="0.64497">
        <ele>1382</ele>
        <time>2026-06-30T07:58:06.000Z</time>
      </trkpt>
      <trkpt lat="42.72583" lon="0.64494">
        <ele>1383</ele>
        <time>2026-06-30T07:58:11.000Z</time>
      </trkpt>
      <trkpt lat="42.72589" lon="0.6449">
        <ele>1386</ele>
        <time>2026-06-30T07:58:16.000Z</time>
      </trkpt>
      <trkpt lat="42.72596" lon="0.64489">
        <ele>1388</ele>
        <time>2026-06-30T07:58:21.000Z</time>
      </trkpt>
      <trkpt lat="42.72598" lon="0.64489">
        <ele>1389</ele>
        <time>2026-06-30T07:58:26.000Z</time>
      </trkpt>
      <trkpt lat="42.72604" lon="0.64487">
        <ele>1388</ele>
        <time>2026-06-30T07:58:31.000Z</time>
      </trkpt>
      <trkpt lat="42.72611" lon="0.64485">
        <ele>1390</ele>
        <time>2026-06-30T07:58:36.000Z</time>
      </trkpt>
      <trkpt lat="42.72617" lon="0.64482">
        <ele>1393</ele>
        <time>2026-06-30T07:58:41.000Z</time>
      </trkpt>
      <trkpt lat="42.72623" lon="0.6448">
        <ele>1395</ele>
        <time>2026-06-30T07:58:46.000Z</time>
      </trkpt>
      <trkpt lat="42.72629" lon="0.64479">
        <ele>1397</ele>
        <time>2026-06-30T07:58:51.000Z</time>
      </trkpt>
      <trkpt lat="42.72635" lon="0.64475">
        <ele>1397</ele>
        <time>2026-06-30T07:58:56.000Z</time>
      </trkpt>
      <trkpt lat="42.72642" lon="0.6447">
        <ele>1398</ele>
        <time>2026-06-30T07:59:01.000Z</time>
      </trkpt>
      <trkpt lat="42.72648" lon="0.64466">
        <ele>1400</ele>
        <time>2026-06-30T07:59:06.000Z</time>
      </trkpt>
      <trkpt lat="42.72653" lon="0.64461">
        <ele>1401</ele>
        <time>2026-06-30T07:59:11.000Z</time>
      </trkpt>
      <trkpt lat="42.72658" lon="0.64456">
        <ele>1402</ele>
        <time>2026-06-30T07:59:16.000Z</time>
      </trkpt>
      <trkpt lat="42.72664" lon="0.64451">
        <ele>1403</ele>
        <time>2026-06-30T07:59:21.000Z</time>
      </trkpt>
      <trkpt lat="42.72669" lon="0.64447">
        <ele>1406</ele>
        <time>2026-06-30T07:59:26.000Z</time>
      </trkpt>
      <trkpt lat="42.72675" lon="0.64444">
        <ele>1407</ele>
        <time>2026-06-30T07:59:31.000Z</time>
      </trkpt>
      <trkpt lat="42.72681" lon="0.6444">
        <ele>1406</ele>
        <time>2026-06-30T07:59:36.000Z</time>
      </trkpt>
      <trkpt lat="42.72686" lon="0.64437">
        <ele>1406</ele>
        <time>2026-06-30T07:59:41.000Z</time>
      </trkpt>
      <trkpt lat="42.72692" lon="0.64433">
        <ele>1407</ele>
        <time>2026-06-30T07:59:46.000Z</time>
      </trkpt>
      <trkpt lat="42.72698" lon="0.64428">
        <ele>1408</ele>
        <time>2026-06-30T07:59:51.000Z</time>
      </trkpt>
      <trkpt lat="42.72705" lon="0.64422">
        <ele>1409</ele>
        <time>2026-06-30T07:59:56.000Z</time>
      </trkpt>
      <trkpt lat="42.7271" lon="0.64415">
        <ele>1409</ele>
        <time>2026-06-30T08:00:01.000Z</time>
      </trkpt>
      <trkpt lat="42.72715" lon="0.64407">
        <ele>1410</ele>
        <time>2026-06-30T08:00:06.000Z</time>
      </trkpt>
      <trkpt lat="42.7272" lon="0.64402">
        <ele>1410</ele>
        <time>2026-06-30T08:00:11.000Z</time>
      </trkpt>
      <trkpt lat="42.72725" lon="0.644">
        <ele>1411</ele>
        <time>2026-06-30T08:00:16.000Z</time>
      </trkpt>
      <trkpt lat="42.72731" lon="0.64396">
        <ele>1413</ele>
        <time>2026-06-30T08:00:21.000Z</time>
      </trkpt>
      <trkpt lat="42.72737" lon="0.64394">
        <ele>1413</ele>
        <time>2026-06-30T08:00:26.000Z</time>
      </trkpt>
      <trkpt lat="42.72744" lon="0.64388">
        <ele>1413</ele>
        <time>2026-06-30T08:00:31.000Z</time>
      </trkpt>
      <trkpt lat="42.72749" lon="0.64382">
        <ele>1414</ele>
        <time>2026-06-30T08:00:36.000Z</time>
      </trkpt>
      <trkpt lat="42.72755" lon="0.64379">
        <ele>1417</ele>
        <time>2026-06-30T08:00:41.000Z</time>
      </trkpt>
      <trkpt lat="42.72761" lon="0.64375">
        <ele>1417</ele>
        <time>2026-06-30T08:00:46.000Z</time>
      </trkpt>
      <trkpt lat="42.72765" lon="0.64373">
        <ele>1417</ele>
        <time>2026-06-30T08:00:51.000Z</time>
      </trkpt>
      <trkpt lat="42.72771" lon="0.64368">
        <ele>1418</ele>
        <time>2026-06-30T08:00:56.000Z</time>
      </trkpt>
      <trkpt lat="42.72776" lon="0.64363">
        <ele>1420</ele>
        <time>2026-06-30T08:01:01.000Z</time>
      </trkpt>
      <trkpt lat="42.72782" lon="0.64358">
        <ele>1421</ele>
        <time>2026-06-30T08:01:06.000Z</time>
      </trkpt>
      <trkpt lat="42.72787" lon="0.64352">
        <ele>1423</ele>
        <time>2026-06-30T08:01:11.000Z</time>
      </trkpt>
      <trkpt lat="42.72792" lon="0.64346">
        <ele>1425</ele>
        <time>2026-06-30T08:01:16.000Z</time>
      </trkpt>
      <trkpt lat="42.72794" lon="0.64344">
        <ele>1426</ele>
        <time>2026-06-30T08:01:21.000Z</time>
      </trkpt>
      <trkpt lat="42.72798" lon="0.64337">
        <ele>1428</ele>
        <time>2026-06-30T08:01:26.000Z</time>
      </trkpt>
      <trkpt lat="42.72802" lon="0.64332">
        <ele>1428</ele>
        <time>2026-06-30T08:01:31.000Z</time>
      </trkpt>
      <trkpt lat="42.72806" lon="0.64327">
        <ele>1428</ele>
        <time>2026-06-30T08:01:36.000Z</time>
      </trkpt>
      <trkpt lat="42.7281" lon="0.6432">
        <ele>1430</ele>
        <time>2026-06-30T08:01:41.000Z</time>
      </trkpt>
      <trkpt lat="42.72813" lon="0.64313">
        <ele>1429</ele>
        <time>2026-06-30T08:01:46.000Z</time>
      </trkpt>
      <trkpt lat="42.72816" lon="0.64306">
        <ele>1431</ele>
        <time>2026-06-30T08:01:51.000Z</time>
      </trkpt>
      <trkpt lat="42.72818" lon="0.64299">
        <ele>1433</ele>
        <time>2026-06-30T08:01:56.000Z</time>
      </trkpt>
      <trkpt lat="42.7282" lon="0.64293">
        <ele>1435</ele>
        <time>2026-06-30T08:02:01.000Z</time>
      </trkpt>
      <trkpt lat="42.7282" lon="0.64285">
        <ele>1436</ele>
        <time>2026-06-30T08:02:06.000Z</time>
      </trkpt>
      <trkpt lat="42.7282" lon="0.64277">
        <ele>1437</ele>
        <time>2026-06-30T08:02:11.000Z</time>
      </trkpt>
      <trkpt lat="42.72822" lon="0.64268">
        <ele>1437</ele>
        <time>2026-06-30T08:02:16.000Z</time>
      </trkpt>
      <trkpt lat="42.72824" lon="0.64258">
        <ele>1438</ele>
        <time>2026-06-30T08:02:21.000Z</time>
      </trkpt>
      <trkpt lat="42.72826" lon="0.6425">
        <ele>1440</ele>
        <time>2026-06-30T08:02:26.000Z</time>
      </trkpt>
      <trkpt lat="42.72828" lon="0.64242">
        <ele>1441</ele>
        <time>2026-06-30T08:02:31.000Z</time>
      </trkpt>
      <trkpt lat="42.72832" lon="0.64234">
        <ele>1439</ele>
        <time>2026-06-30T08:02:36.000Z</time>
      </trkpt>
      <trkpt lat="42.72835" lon="0.64228">
        <ele>1437</ele>
        <time>2026-06-30T08:02:41.000Z</time>
      </trkpt>
      <trkpt lat="42.72836" lon="0.64219">
        <ele>1435</ele>
        <time>2026-06-30T08:02:46.000Z</time>
      </trkpt>
      <trkpt lat="42.72835" lon="0.64211">
        <ele>1434</ele>
        <time>2026-06-30T08:02:51.000Z</time>
      </trkpt>
      <trkpt lat="42.72836" lon="0.64203">
        <ele>1434</ele>
        <time>2026-06-30T08:02:56.000Z</time>
      </trkpt>
      <trkpt lat="42.72835" lon="0.64195">
        <ele>1433</ele>
        <time>2026-06-30T08:03:01.000Z</time>
      </trkpt>
      <trkpt lat="42.72834" lon="0.64188">
        <ele>1434</ele>
        <time>2026-06-30T08:03:06.000Z</time>
      </trkpt>
      <trkpt lat="42.72832" lon="0.6418">
        <ele>1433</ele>
        <time>2026-06-30T08:03:11.000Z</time>
      </trkpt>
      <trkpt lat="42.72832" lon="0.6417">
        <ele>1435</ele>
        <time>2026-06-30T08:03:17.000Z</time>
      </trkpt>
      <trkpt lat="42.72834" lon="0.6416">
        <ele>1434</ele>
        <time>2026-06-30T08:03:22.000Z</time>
      </trkpt>
      <trkpt lat="42.72834" lon="0.64153">
        <ele>1433</ele>
        <time>2026-06-30T08:03:27.000Z</time>
      </trkpt>
      <trkpt lat="42.72837" lon="0.64145">
        <ele>1432</ele>
        <time>2026-06-30T08:03:32.000Z</time>
      </trkpt>
      <trkpt lat="42.7284" lon="0.64135">
        <ele>1433</ele>
        <time>2026-06-30T08:03:37.000Z</time>
      </trkpt>
      <trkpt lat="42.72843" lon="0.64129">
        <ele>1435</ele>
        <time>2026-06-30T08:03:42.000Z</time>
      </trkpt>
      <trkpt lat="42.72847" lon="0.64123">
        <ele>1435</ele>
        <time>2026-06-30T08:03:47.000Z</time>
      </trkpt>
      <trkpt lat="42.72851" lon="0.64117">
        <ele>1436</ele>
        <time>2026-06-30T08:03:52.000Z</time>
      </trkpt>
      <trkpt lat="42.72855" lon="0.64111">
        <ele>1437</ele>
        <time>2026-06-30T08:03:57.000Z</time>
      </trkpt>
      <trkpt lat="42.7286" lon="0.64105">
        <ele>1437</ele>
        <time>2026-06-30T08:04:02.000Z</time>
      </trkpt>
      <trkpt lat="42.72863" lon="0.64098">
        <ele>1440</ele>
        <time>2026-06-30T08:04:07.000Z</time>
      </trkpt>
      <trkpt lat="42.72867" lon="0.6409">
        <ele>1442</ele>
        <time>2026-06-30T08:04:12.000Z</time>
      </trkpt>
      <trkpt lat="42.72871" lon="0.64082">
        <ele>1444</ele>
        <time>2026-06-30T08:04:17.000Z</time>
      </trkpt>
      <trkpt lat="42.72876" lon="0.64076">
        <ele>1447</ele>
        <time>2026-06-30T08:04:22.000Z</time>
      </trkpt>
      <trkpt lat="42.72879" lon="0.64068">
        <ele>1449</ele>
        <time>2026-06-30T08:04:27.000Z</time>
      </trkpt>
      <trkpt lat="42.72881" lon="0.64061">
        <ele>1450</ele>
        <time>2026-06-30T08:04:32.000Z</time>
      </trkpt>
      <trkpt lat="42.72884" lon="0.64052">
        <ele>1452</ele>
        <time>2026-06-30T08:04:37.000Z</time>
      </trkpt>
      <trkpt lat="42.72886" lon="0.64044">
        <ele>1453</ele>
        <time>2026-06-30T08:04:42.000Z</time>
      </trkpt>
      <trkpt lat="42.7289" lon="0.64037">
        <ele>1455</ele>
        <time>2026-06-30T08:04:47.000Z</time>
      </trkpt>
      <trkpt lat="42.72894" lon="0.6403">
        <ele>1457</ele>
        <time>2026-06-30T08:04:52.000Z</time>
      </trkpt>
      <trkpt lat="42.72898" lon="0.64024">
        <ele>1457</ele>
        <time>2026-06-30T08:04:57.000Z</time>
      </trkpt>
      <trkpt lat="42.72902" lon="0.64016">
        <ele>1458</ele>
        <time>2026-06-30T08:05:02.000Z</time>
      </trkpt>
      <trkpt lat="42.72904" lon="0.64007">
        <ele>1458</ele>
        <time>2026-06-30T08:05:07.000Z</time>
      </trkpt>
      <trkpt lat="42.72906" lon="0.63999">
        <ele>1460</ele>
        <time>2026-06-30T08:05:12.000Z</time>
      </trkpt>
      <trkpt lat="42.72908" lon="0.63991">
        <ele>1458</ele>
        <time>2026-06-30T08:05:17.000Z</time>
      </trkpt>
      <trkpt lat="42.7291" lon="0.63984">
        <ele>1458</ele>
        <time>2026-06-30T08:05:22.000Z</time>
      </trkpt>
      <trkpt lat="42.72911" lon="0.63976">
        <ele>1457</ele>
        <time>2026-06-30T08:05:27.000Z</time>
      </trkpt>
      <trkpt lat="42.72914" lon="0.63968">
        <ele>1457</ele>
        <time>2026-06-30T08:05:32.000Z</time>
      </trkpt>
      <trkpt lat="42.72918" lon="0.6396">
        <ele>1457</ele>
        <time>2026-06-30T08:05:37.000Z</time>
      </trkpt>
      <trkpt lat="42.72922" lon="0.63951">
        <ele>1458</ele>
        <time>2026-06-30T08:05:42.000Z</time>
      </trkpt>
      <trkpt lat="42.72926" lon="0.63944">
        <ele>1458</ele>
        <time>2026-06-30T08:05:47.000Z</time>
      </trkpt>
      <trkpt lat="42.72931" lon="0.63938">
        <ele>1458</ele>
        <time>2026-06-30T08:05:52.000Z</time>
      </trkpt>
      <trkpt lat="42.72936" lon="0.63931">
        <ele>1460</ele>
        <time>2026-06-30T08:05:57.000Z</time>
      </trkpt>
      <trkpt lat="42.72942" lon="0.63925">
        <ele>1461</ele>
        <time>2026-06-30T08:06:02.000Z</time>
      </trkpt>
      <trkpt lat="42.72949" lon="0.63918">
        <ele>1464</ele>
        <time>2026-06-30T08:06:07.000Z</time>
      </trkpt>
      <trkpt lat="42.72953" lon="0.63911">
        <ele>1466</ele>
        <time>2026-06-30T08:06:12.000Z</time>
      </trkpt>
      <trkpt lat="42.72957" lon="0.63905">
        <ele>1468</ele>
        <time>2026-06-30T08:06:17.000Z</time>
      </trkpt>
      <trkpt lat="42.7296" lon="0.63897">
        <ele>1470</ele>
        <time>2026-06-30T08:06:22.000Z</time>
      </trkpt>
      <trkpt lat="42.72964" lon="0.63888">
        <ele>1473</ele>
        <time>2026-06-30T08:06:27.000Z</time>
      </trkpt>
      <trkpt lat="42.72968" lon="0.63879">
        <ele>1474</ele>
        <time>2026-06-30T08:06:32.000Z</time>
      </trkpt>
      <trkpt lat="42.7297" lon="0.63872">
        <ele>1475</ele>
        <time>2026-06-30T08:06:37.000Z</time>
      </trkpt>
      <trkpt lat="42.72971" lon="0.63863">
        <ele>1477</ele>
        <time>2026-06-30T08:06:42.000Z</time>
      </trkpt>
      <trkpt lat="42.72974" lon="0.63854">
        <ele>1476</ele>
        <time>2026-06-30T08:06:47.000Z</time>
      </trkpt>
      <trkpt lat="42.72979" lon="0.63845">
        <ele>1474</ele>
        <time>2026-06-30T08:06:52.000Z</time>
      </trkpt>
      <trkpt lat="42.72985" lon="0.6384">
        <ele>1473</ele>
        <time>2026-06-30T08:06:57.000Z</time>
      </trkpt>
      <trkpt lat="42.7299" lon="0.63835">
        <ele>1473</ele>
        <time>2026-06-30T08:07:02.000Z</time>
      </trkpt>
      <trkpt lat="42.72996" lon="0.6383">
        <ele>1475</ele>
        <time>2026-06-30T08:07:07.000Z</time>
      </trkpt>
      <trkpt lat="42.72997" lon="0.6383">
        <ele>1476</ele>
        <time>2026-06-30T08:07:12.000Z</time>
      </trkpt>
      <trkpt lat="42.72995" lon="0.63832">
        <ele>1475</ele>
        <time>2026-06-30T08:07:17.000Z</time>
      </trkpt>
      <trkpt lat="42.72995" lon="0.63832">
        <ele>1475</ele>
        <time>2026-06-30T08:07:22.000Z</time>
      </trkpt>
      <trkpt lat="42.72995" lon="0.63832">
        <ele>1475</ele>
        <time>2026-06-30T08:07:27.000Z</time>
      </trkpt>
      <trkpt lat="42.72995" lon="0.63832">
        <ele>1475</ele>
        <time>2026-06-30T08:07:32.000Z</time>
      </trkpt>
      <trkpt lat="42.72994" lon="0.63834">
        <ele>1475</ele>
        <time>2026-06-30T08:07:37.000Z</time>
      </trkpt>
      <trkpt lat="42.72994" lon="0.63836">
        <ele>1475</ele>
        <time>2026-06-30T08:07:42.000Z</time>
      </trkpt>
      <trkpt lat="42.72994" lon="0.63836">
        <ele>1475</ele>
        <time>2026-06-30T08:07:47.000Z</time>
      </trkpt>
      <trkpt lat="42.72994" lon="0.63836">
        <ele>1475</ele>
        <time>2026-06-30T08:07:52.000Z</time>
      </trkpt>
      <trkpt lat="42.72994" lon="0.63836">
        <ele>1475</ele>
        <time>2026-06-30T08:07:57.000Z</time>
      </trkpt>
      <trkpt lat="42.72994" lon="0.63836">
        <ele>1475</ele>
        <time>2026-06-30T08:08:02.000Z</time>
      </trkpt>
      <trkpt lat="42.72994" lon="0.63836">
        <ele>1475</ele>
        <time>2026-06-30T08:08:07.000Z</time>
      </trkpt>
      <trkpt lat="42.72994" lon="0.63836">
        <ele>1475</ele>
        <time>2026-06-30T08:08:12.000Z</time>
      </trkpt>
      <trkpt lat="42.72995" lon="0.63834">
        <ele>1477</ele>
        <time>2026-06-30T08:08:17.000Z</time>
      </trkpt>
      <trkpt lat="42.72997" lon="0.63831">
        <ele>1480</ele>
        <time>2026-06-30T08:08:22.000Z</time>
      </trkpt>
      <trkpt lat="42.73003" lon="0.63824">
        <ele>1483</ele>
        <time>2026-06-30T08:08:27.000Z</time>
      </trkpt>
      <trkpt lat="42.73011" lon="0.63817">
        <ele>1485</ele>
        <time>2026-06-30T08:08:32.000Z</time>
      </trkpt>
      <trkpt lat="42.73018" lon="0.63812">
        <ele>1486</ele>
        <time>2026-06-30T08:08:37.000Z</time>
      </trkpt>
      <trkpt lat="42.73025" lon="0.63806">
        <ele>1485</ele>
        <time>2026-06-30T08:08:42.000Z</time>
      </trkpt>
      <trkpt lat="42.73033" lon="0.63801">
        <ele>1486</ele>
        <time>2026-06-30T08:08:47.000Z</time>
      </trkpt>
      <trkpt lat="42.73038" lon="0.63796">
        <ele>1488</ele>
        <time>2026-06-30T08:08:52.000Z</time>
      </trkpt>
      <trkpt lat="42.73043" lon="0.63789">
        <ele>1488</ele>
        <time>2026-06-30T08:08:57.000Z</time>
      </trkpt>
      <trkpt lat="42.73048" lon="0.63784">
        <ele>1491</ele>
        <time>2026-06-30T08:09:02.000Z</time>
      </trkpt>
      <trkpt lat="42.73054" lon="0.63778">
        <ele>1491</ele>
        <time>2026-06-30T08:09:07.000Z</time>
      </trkpt>
      <trkpt lat="42.7306" lon="0.63772">
        <ele>1492</ele>
        <time>2026-06-30T08:09:12.000Z</time>
      </trkpt>
      <trkpt lat="42.73068" lon="0.63769">
        <ele>1494</ele>
        <time>2026-06-30T08:09:17.000Z</time>
      </trkpt>
      <trkpt lat="42.73075" lon="0.63765">
        <ele>1495</ele>
        <time>2026-06-30T08:09:22.000Z</time>
      </trkpt>
      <trkpt lat="42.73082" lon="0.63762">
        <ele>1495</ele>
        <time>2026-06-30T08:09:27.000Z</time>
      </trkpt>
      <trkpt lat="42.73089" lon="0.63757">
        <ele>1496</ele>
        <time>2026-06-30T08:09:32.000Z</time>
      </trkpt>
      <trkpt lat="42.73096" lon="0.63752">
        <ele>1498</ele>
        <time>2026-06-30T08:09:37.000Z</time>
      </trkpt>
      <trkpt lat="42.73103" lon="0.63748">
        <ele>1500</ele>
        <time>2026-06-30T08:09:42.000Z</time>
      </trkpt>
      <trkpt lat="42.73109" lon="0.63745">
        <ele>1502</ele>
        <time>2026-06-30T08:09:47.000Z</time>
      </trkpt>
      <trkpt lat="42.73116" lon="0.6374">
        <ele>1502</ele>
        <time>2026-06-30T08:09:52.000Z</time>
      </trkpt>
      <trkpt lat="42.73124" lon="0.63739">
        <ele>1502</ele>
        <time>2026-06-30T08:09:57.000Z</time>
      </trkpt>
      <trkpt lat="42.7313" lon="0.63737">
        <ele>1504</ele>
        <time>2026-06-30T08:10:02.000Z</time>
      </trkpt>
      <trkpt lat="42.73137" lon="0.63736">
        <ele>1505</ele>
        <time>2026-06-30T08:10:07.000Z</time>
      </trkpt>
      <trkpt lat="42.73146" lon="0.63735">
        <ele>1506</ele>
        <time>2026-06-30T08:10:12.000Z</time>
      </trkpt>
      <trkpt lat="42.73154" lon="0.63735">
        <ele>1505</ele>
        <time>2026-06-30T08:10:17.000Z</time>
      </trkpt>
      <trkpt lat="42.73162" lon="0.63733">
        <ele>1507</ele>
        <time>2026-06-30T08:10:22.000Z</time>
      </trkpt>
      <trkpt lat="42.7317" lon="0.63731">
        <ele>1508</ele>
        <time>2026-06-30T08:10:27.000Z</time>
      </trkpt>
      <trkpt lat="42.73179" lon="0.63725">
        <ele>1508</ele>
        <time>2026-06-30T08:10:32.000Z</time>
      </trkpt>
      <trkpt lat="42.73186" lon="0.63718">
        <ele>1510</ele>
        <time>2026-06-30T08:10:37.000Z</time>
      </trkpt>
      <trkpt lat="42.73193" lon="0.63713">
        <ele>1510</ele>
        <time>2026-06-30T08:10:42.000Z</time>
      </trkpt>
      <trkpt lat="42.73198" lon="0.63706">
        <ele>1511</ele>
        <time>2026-06-30T08:10:47.000Z</time>
      </trkpt>
      <trkpt lat="42.73203" lon="0.63699">
        <ele>1512</ele>
        <time>2026-06-30T08:10:52.000Z</time>
      </trkpt>
      <trkpt lat="42.73209" lon="0.63692">
        <ele>1512</ele>
        <time>2026-06-30T08:10:57.000Z</time>
      </trkpt>
      <trkpt lat="42.73213" lon="0.63684">
        <ele>1512</ele>
        <time>2026-06-30T08:11:02.000Z</time>
      </trkpt>
      <trkpt lat="42.73218" lon="0.63676">
        <ele>1511</ele>
        <time>2026-06-30T08:11:07.000Z</time>
      </trkpt>
      <trkpt lat="42.73223" lon="0.63667">
        <ele>1512</ele>
        <time>2026-06-30T08:11:12.000Z</time>
      </trkpt>
      <trkpt lat="42.73228" lon="0.63661">
        <ele>1512</ele>
        <time>2026-06-30T08:11:17.000Z</time>
      </trkpt>
      <trkpt lat="42.73234" lon="0.63655">
        <ele>1513</ele>
        <time>2026-06-30T08:11:22.000Z</time>
      </trkpt>
      <trkpt lat="42.73239" lon="0.63648">
        <ele>1513</ele>
        <time>2026-06-30T08:11:27.000Z</time>
      </trkpt>
      <trkpt lat="42.73245" lon="0.63643">
        <ele>1514</ele>
        <time>2026-06-30T08:11:32.000Z</time>
      </trkpt>
      <trkpt lat="42.73251" lon="0.63637">
        <ele>1515</ele>
        <time>2026-06-30T08:11:37.000Z</time>
      </trkpt>
      <trkpt lat="42.73258" lon="0.63633">
        <ele>1515</ele>
        <time>2026-06-30T08:11:42.000Z</time>
      </trkpt>
      <trkpt lat="42.73263" lon="0.63628">
        <ele>1516</ele>
        <time>2026-06-30T08:11:47.000Z</time>
      </trkpt>
      <trkpt lat="42.73269" lon="0.63623">
        <ele>1517</ele>
        <time>2026-06-30T08:11:52.000Z</time>
      </trkpt>
      <trkpt lat="42.73274" lon="0.63622">
        <ele>1519</ele>
        <time>2026-06-30T08:11:57.000Z</time>
      </trkpt>
      <trkpt lat="42.7328" lon="0.63618">
        <ele>1520</ele>
        <time>2026-06-30T08:12:02.000Z</time>
      </trkpt>
      <trkpt lat="42.73286" lon="0.63613">
        <ele>1521</ele>
        <time>2026-06-30T08:12:07.000Z</time>
      </trkpt>
      <trkpt lat="42.73293" lon="0.63607">
        <ele>1521</ele>
        <time>2026-06-30T08:12:12.000Z</time>
      </trkpt>
      <trkpt lat="42.73298" lon="0.63603">
        <ele>1521</ele>
        <time>2026-06-30T08:12:17.000Z</time>
      </trkpt>
      <trkpt lat="42.73305" lon="0.63599">
        <ele>1522</ele>
        <time>2026-06-30T08:12:22.000Z</time>
      </trkpt>
      <trkpt lat="42.73311" lon="0.63594">
        <ele>1524</ele>
        <time>2026-06-30T08:12:27.000Z</time>
      </trkpt>
      <trkpt lat="42.73316" lon="0.6359">
        <ele>1525</ele>
        <time>2026-06-30T08:12:32.000Z</time>
      </trkpt>
      <trkpt lat="42.7332" lon="0.63587">
        <ele>1528</ele>
        <time>2026-06-30T08:12:37.000Z</time>
      </trkpt>
      <trkpt lat="42.73327" lon="0.63585">
        <ele>1530</ele>
        <time>2026-06-30T08:12:42.000Z</time>
      </trkpt>
      <trkpt lat="42.73334" lon="0.63581">
        <ele>1531</ele>
        <time>2026-06-30T08:12:47.000Z</time>
      </trkpt>
      <trkpt lat="42.7334" lon="0.63578">
        <ele>1532</ele>
        <time>2026-06-30T08:12:52.000Z</time>
      </trkpt>
      <trkpt lat="42.73347" lon="0.63576">
        <ele>1534</ele>
        <time>2026-06-30T08:12:57.000Z</time>
      </trkpt>
      <trkpt lat="42.73354" lon="0.63574">
        <ele>1535</ele>
        <time>2026-06-30T08:13:02.000Z</time>
      </trkpt>
      <trkpt lat="42.73361" lon="0.63571">
        <ele>1536</ele>
        <time>2026-06-30T08:13:07.000Z</time>
      </trkpt>
      <trkpt lat="42.73369" lon="0.6357">
        <ele>1536</ele>
        <time>2026-06-30T08:13:12.000Z</time>
      </trkpt>
      <trkpt lat="42.73376" lon="0.63569">
        <ele>1537</ele>
        <time>2026-06-30T08:13:17.000Z</time>
      </trkpt>
      <trkpt lat="42.73383" lon="0.63567">
        <ele>1538</ele>
        <time>2026-06-30T08:13:22.000Z</time>
      </trkpt>
      <trkpt lat="42.7339" lon="0.63568">
        <ele>1539</ele>
        <time>2026-06-30T08:13:27.000Z</time>
      </trkpt>
      <trkpt lat="42.73398" lon="0.63572">
        <ele>1536</ele>
        <time>2026-06-30T08:13:32.000Z</time>
      </trkpt>
      <trkpt lat="42.73399" lon="0.63578">
        <ele>1533</ele>
        <time>2026-06-30T08:13:37.000Z</time>
      </trkpt>
      <trkpt lat="42.73399" lon="0.63578">
        <ele>1533</ele>
        <time>2026-06-30T08:13:42.000Z</time>
      </trkpt>
      <trkpt lat="42.73399" lon="0.63578">
        <ele>1533</ele>
        <time>2026-06-30T08:13:47.000Z</time>
      </trkpt>
      <trkpt lat="42.73399" lon="0.63578">
        <ele>1533</ele>
        <time>2026-06-30T08:13:52.000Z</time>
      </trkpt>
      <trkpt lat="42.73399" lon="0.63578">
        <ele>1533</ele>
        <time>2026-06-30T08:13:57.000Z</time>
      </trkpt>
      <trkpt lat="42.73399" lon="0.63578">
        <ele>1533</ele>
        <time>2026-06-30T08:14:02.000Z</time>
      </trkpt>
      <trkpt lat="42.73399" lon="0.63578">
        <ele>1533</ele>
        <time>2026-06-30T08:14:07.000Z</time>
      </trkpt>
      <trkpt lat="42.734" lon="0.63579">
        <ele>1532</ele>
        <time>2026-06-30T08:14:12.000Z</time>
      </trkpt>
      <trkpt lat="42.734" lon="0.63579">
        <ele>1532</ele>
        <time>2026-06-30T08:14:17.000Z</time>
      </trkpt>
      <trkpt lat="42.734" lon="0.63579">
        <ele>1532</ele>
        <time>2026-06-30T08:14:22.000Z</time>
      </trkpt>
      <trkpt lat="42.734" lon="0.63579">
        <ele>1532</ele>
        <time>2026-06-30T08:14:27.000Z</time>
      </trkpt>
      <trkpt lat="42.734" lon="0.63579">
        <ele>1532</ele>
        <time>2026-06-30T08:14:32.000Z</time>
      </trkpt>
      <trkpt lat="42.734" lon="0.63579">
        <ele>1532</ele>
        <time>2026-06-30T08:14:37.000Z</time>
      </trkpt>
      <trkpt lat="42.734" lon="0.63579">
        <ele>1532</ele>
        <time>2026-06-30T08:14:42.000Z</time>
      </trkpt>
      <trkpt lat="42.734" lon="0.63579">
        <ele>1532</ele>
        <time>2026-06-30T08:14:47.000Z</time>
      </trkpt>
      <trkpt lat="42.734" lon="0.63579">
        <ele>1532</ele>
        <time>2026-06-30T08:14:52.000Z</time>
      </trkpt>
      <trkpt lat="42.73401" lon="0.6358">
        <ele>1530</ele>
        <time>2026-06-30T08:14:57.000Z</time>
      </trkpt>
      <trkpt lat="42.73401" lon="0.6358">
        <ele>1530</ele>
        <time>2026-06-30T08:15:02.000Z</time>
      </trkpt>
      <trkpt lat="42.73406" lon="0.63587">
        <ele>1528</ele>
        <time>2026-06-30T08:15:07.000Z</time>
      </trkpt>
      <trkpt lat="42.73408" lon="0.63596">
        <ele>1527</ele>
        <time>2026-06-30T08:15:12.000Z</time>
      </trkpt>
      <trkpt lat="42.73413" lon="0.63603">
        <ele>1527</ele>
        <time>2026-06-30T08:15:17.000Z</time>
      </trkpt>
      <trkpt lat="42.73416" lon="0.63608">
        <ele>1528</ele>
        <time>2026-06-30T08:15:22.000Z</time>
      </trkpt>
      <trkpt lat="42.73421" lon="0.63613">
        <ele>1529</ele>
        <time>2026-06-30T08:15:27.000Z</time>
      </trkpt>
      <trkpt lat="42.73428" lon="0.63616">
        <ele>1530</ele>
        <time>2026-06-30T08:15:32.000Z</time>
      </trkpt>
      <trkpt lat="42.73434" lon="0.63619">
        <ele>1533</ele>
        <time>2026-06-30T08:15:37.000Z</time>
      </trkpt>
      <trkpt lat="42.7344" lon="0.6362">
        <ele>1535</ele>
        <time>2026-06-30T08:15:42.000Z</time>
      </trkpt>
      <trkpt lat="42.73448" lon="0.63619">
        <ele>1536</ele>
        <time>2026-06-30T08:15:47.000Z</time>
      </trkpt>
      <trkpt lat="42.73454" lon="0.63622">
        <ele>1536</ele>
        <time>2026-06-30T08:15:52.000Z</time>
      </trkpt>
      <trkpt lat="42.73461" lon="0.63625">
        <ele>1537</ele>
        <time>2026-06-30T08:15:57.000Z</time>
      </trkpt>
      <trkpt lat="42.73469" lon="0.6363">
        <ele>1537</ele>
        <time>2026-06-30T08:16:02.000Z</time>
      </trkpt>
      <trkpt lat="42.73476" lon="0.63636">
        <ele>1536</ele>
        <time>2026-06-30T08:16:07.000Z</time>
      </trkpt>
      <trkpt lat="42.73482" lon="0.63642">
        <ele>1536</ele>
        <time>2026-06-30T08:16:12.000Z</time>
      </trkpt>
      <trkpt lat="42.73487" lon="0.63649">
        <ele>1537</ele>
        <time>2026-06-30T08:16:17.000Z</time>
      </trkpt>
      <trkpt lat="42.73492" lon="0.63656">
        <ele>1538</ele>
        <time>2026-06-30T08:16:22.000Z</time>
      </trkpt>
      <trkpt lat="42.73497" lon="0.63664">
        <ele>1538</ele>
        <time>2026-06-30T08:16:27.000Z</time>
      </trkpt>
      <trkpt lat="42.73502" lon="0.63672">
        <ele>1537</ele>
        <time>2026-06-30T08:16:32.000Z</time>
      </trkpt>
      <trkpt lat="42.73509" lon="0.6368">
        <ele>1537</ele>
        <time>2026-06-30T08:16:37.000Z</time>
      </trkpt>
      <trkpt lat="42.73514" lon="0.63689">
        <ele>1538</ele>
        <time>2026-06-30T08:16:42.000Z</time>
      </trkpt>
      <trkpt lat="42.73517" lon="0.63696">
        <ele>1539</ele>
        <time>2026-06-30T08:16:47.000Z</time>
      </trkpt>
      <trkpt lat="42.73519" lon="0.63705">
        <ele>1539</ele>
        <time>2026-06-30T08:16:52.000Z</time>
      </trkpt>
      <trkpt lat="42.73521" lon="0.63711">
        <ele>1540</ele>
        <time>2026-06-30T08:16:57.000Z</time>
      </trkpt>
      <trkpt lat="42.73523" lon="0.63719">
        <ele>1539</ele>
        <time>2026-06-30T08:17:02.000Z</time>
      </trkpt>
      <trkpt lat="42.73522" lon="0.63727">
        <ele>1539</ele>
        <time>2026-06-30T08:17:07.000Z</time>
      </trkpt>
      <trkpt lat="42.73522" lon="0.63734">
        <ele>1540</ele>
        <time>2026-06-30T08:17:12.000Z</time>
      </trkpt>
      <trkpt lat="42.73527" lon="0.63742">
        <ele>1540</ele>
        <time>2026-06-30T08:17:17.000Z</time>
      </trkpt>
      <trkpt lat="42.73532" lon="0.63748">
        <ele>1540</ele>
        <time>2026-06-30T08:17:22.000Z</time>
      </trkpt>
      <trkpt lat="42.73537" lon="0.63752">
        <ele>1540</ele>
        <time>2026-06-30T08:17:27.000Z</time>
      </trkpt>
      <trkpt lat="42.73543" lon="0.63754">
        <ele>1542</ele>
        <time>2026-06-30T08:17:32.000Z</time>
      </trkpt>
      <trkpt lat="42.73548" lon="0.63759">
        <ele>1543</ele>
        <time>2026-06-30T08:17:37.000Z</time>
      </trkpt>
      <trkpt lat="42.73553" lon="0.63763">
        <ele>1544</ele>
        <time>2026-06-30T08:17:42.000Z</time>
      </trkpt>
      <trkpt lat="42.73559" lon="0.63767">
        <ele>1543</ele>
        <time>2026-06-30T08:17:47.000Z</time>
      </trkpt>
      <trkpt lat="42.73565" lon="0.63772">
        <ele>1542</ele>
        <time>2026-06-30T08:17:52.000Z</time>
      </trkpt>
      <trkpt lat="42.73571" lon="0.63776">
        <ele>1541</ele>
        <time>2026-06-30T08:17:57.000Z</time>
      </trkpt>
      <trkpt lat="42.73577" lon="0.63781">
        <ele>1541</ele>
        <time>2026-06-30T08:18:02.000Z</time>
      </trkpt>
      <trkpt lat="42.73583" lon="0.63786">
        <ele>1543</ele>
        <time>2026-06-30T08:18:07.000Z</time>
      </trkpt>
      <trkpt lat="42.73589" lon="0.63793">
        <ele>1545</ele>
        <time>2026-06-30T08:18:12.000Z</time>
      </trkpt>
      <trkpt lat="42.73594" lon="0.638">
        <ele>1546</ele>
        <time>2026-06-30T08:18:17.000Z</time>
      </trkpt>
      <trkpt lat="42.736" lon="0.63808">
        <ele>1548</ele>
        <time>2026-06-30T08:18:22.000Z</time>
      </trkpt>
      <trkpt lat="42.73605" lon="0.63813">
        <ele>1549</ele>
        <time>2026-06-30T08:18:27.000Z</time>
      </trkpt>
      <trkpt lat="42.73609" lon="0.63818">
        <ele>1549</ele>
        <time>2026-06-30T08:18:32.000Z</time>
      </trkpt>
      <trkpt lat="42.73614" lon="0.63824">
        <ele>1549</ele>
        <time>2026-06-30T08:18:37.000Z</time>
      </trkpt>
      <trkpt lat="42.73617" lon="0.6383">
        <ele>1550</ele>
        <time>2026-06-30T08:18:42.000Z</time>
      </trkpt>
      <trkpt lat="42.73619" lon="0.63836">
        <ele>1551</ele>
        <time>2026-06-30T08:18:47.000Z</time>
      </trkpt>
      <trkpt lat="42.73619" lon="0.63844">
        <ele>1553</ele>
        <time>2026-06-30T08:18:52.000Z</time>
      </trkpt>
      <trkpt lat="42.73619" lon="0.63853">
        <ele>1554</ele>
        <time>2026-06-30T08:18:57.000Z</time>
      </trkpt>
      <trkpt lat="42.73619" lon="0.63862">
        <ele>1556</ele>
        <time>2026-06-30T08:19:02.000Z</time>
      </trkpt>
      <trkpt lat="42.73618" lon="0.63872">
        <ele>1557</ele>
        <time>2026-06-30T08:19:07.000Z</time>
      </trkpt>
      <trkpt lat="42.73618" lon="0.63881">
        <ele>1560</ele>
        <time>2026-06-30T08:19:12.000Z</time>
      </trkpt>
      <trkpt lat="42.73619" lon="0.6389">
        <ele>1561</ele>
        <time>2026-06-30T08:19:17.000Z</time>
      </trkpt>
      <trkpt lat="42.7362" lon="0.63899">
        <ele>1561</ele>
        <time>2026-06-30T08:19:22.000Z</time>
      </trkpt>
      <trkpt lat="42.7362" lon="0.63907">
        <ele>1563</ele>
        <time>2026-06-30T08:19:27.000Z</time>
      </trkpt>
      <trkpt lat="42.73623" lon="0.63914">
        <ele>1564</ele>
        <time>2026-06-30T08:19:32.000Z</time>
      </trkpt>
      <trkpt lat="42.73624" lon="0.6392">
        <ele>1565</ele>
        <time>2026-06-30T08:19:37.000Z</time>
      </trkpt>
      <trkpt lat="42.73625" lon="0.63927">
        <ele>1565</ele>
        <time>2026-06-30T08:19:42.000Z</time>
      </trkpt>
      <trkpt lat="42.73628" lon="0.63935">
        <ele>1566</ele>
        <time>2026-06-30T08:19:47.000Z</time>
      </trkpt>
      <trkpt lat="42.73629" lon="0.63944">
        <ele>1566</ele>
        <time>2026-06-30T08:19:52.000Z</time>
      </trkpt>
      <trkpt lat="42.73629" lon="0.63954">
        <ele>1566</ele>
        <time>2026-06-30T08:19:57.000Z</time>
      </trkpt>
      <trkpt lat="42.73628" lon="0.63962">
        <ele>1566</ele>
        <time>2026-06-30T08:20:02.000Z</time>
      </trkpt>
      <trkpt lat="42.73627" lon="0.63971">
        <ele>1567</ele>
        <time>2026-06-30T08:20:07.000Z</time>
      </trkpt>
      <trkpt lat="42.73625" lon="0.6398">
        <ele>1567</ele>
        <time>2026-06-30T08:20:12.000Z</time>
      </trkpt>
      <trkpt lat="42.73624" lon="0.63988">
        <ele>1568</ele>
        <time>2026-06-30T08:20:17.000Z</time>
      </trkpt>
      <trkpt lat="42.73624" lon="0.63998">
        <ele>1569</ele>
        <time>2026-06-30T08:20:22.000Z</time>
      </trkpt>
      <trkpt lat="42.73625" lon="0.64006">
        <ele>1571</ele>
        <time>2026-06-30T08:20:27.000Z</time>
      </trkpt>
      <trkpt lat="42.73627" lon="0.64014">
        <ele>1572</ele>
        <time>2026-06-30T08:20:32.000Z</time>
      </trkpt>
      <trkpt lat="42.73631" lon="0.64022">
        <ele>1573</ele>
        <time>2026-06-30T08:20:37.000Z</time>
      </trkpt>
      <trkpt lat="42.73635" lon="0.64029">
        <ele>1575</ele>
        <time>2026-06-30T08:20:42.000Z</time>
      </trkpt>
      <trkpt lat="42.7364" lon="0.64039">
        <ele>1575</ele>
        <time>2026-06-30T08:20:47.000Z</time>
      </trkpt>
      <trkpt lat="42.73642" lon="0.64047">
        <ele>1575</ele>
        <time>2026-06-30T08:20:52.000Z</time>
      </trkpt>
      <trkpt lat="42.73644" lon="0.64054">
        <ele>1576</ele>
        <time>2026-06-30T08:20:57.000Z</time>
      </trkpt>
      <trkpt lat="42.73648" lon="0.64062">
        <ele>1578</ele>
        <time>2026-06-30T08:21:02.000Z</time>
      </trkpt>
      <trkpt lat="42.7365" lon="0.64071">
        <ele>1580</ele>
        <time>2026-06-30T08:21:07.000Z</time>
      </trkpt>
      <trkpt lat="42.73653" lon="0.64081">
        <ele>1580</ele>
        <time>2026-06-30T08:21:12.000Z</time>
      </trkpt>
      <trkpt lat="42.73654" lon="0.64092">
        <ele>1579</ele>
        <time>2026-06-30T08:21:17.000Z</time>
      </trkpt>
      <trkpt lat="42.73653" lon="0.64102">
        <ele>1580</ele>
        <time>2026-06-30T08:21:22.000Z</time>
      </trkpt>
      <trkpt lat="42.73651" lon="0.64112">
        <ele>1581</ele>
        <time>2026-06-30T08:21:27.000Z</time>
      </trkpt>
      <trkpt lat="42.73648" lon="0.64123">
        <ele>1582</ele>
        <time>2026-06-30T08:21:32.000Z</time>
      </trkpt>
      <trkpt lat="42.73646" lon="0.64132">
        <ele>1582</ele>
        <time>2026-06-30T08:21:37.000Z</time>
      </trkpt>
      <trkpt lat="42.73643" lon="0.64141">
        <ele>1582</ele>
        <time>2026-06-30T08:21:42.000Z</time>
      </trkpt>
      <trkpt lat="42.73642" lon="0.64151">
        <ele>1582</ele>
        <time>2026-06-30T08:21:47.000Z</time>
      </trkpt>
      <trkpt lat="42.73639" lon="0.6416">
        <ele>1583</ele>
        <time>2026-06-30T08:21:52.000Z</time>
      </trkpt>
      <trkpt lat="42.73639" lon="0.64169">
        <ele>1583</ele>
        <time>2026-06-30T08:21:57.000Z</time>
      </trkpt>
      <trkpt lat="42.73638" lon="0.64179">
        <ele>1583</ele>
        <time>2026-06-30T08:22:02.000Z</time>
      </trkpt>
      <trkpt lat="42.73638" lon="0.64189">
        <ele>1584</ele>
        <time>2026-06-30T08:22:07.000Z</time>
      </trkpt>
      <trkpt lat="42.73638" lon="0.64199">
        <ele>1584</ele>
        <time>2026-06-30T08:22:12.000Z</time>
      </trkpt>
      <trkpt lat="42.73636" lon="0.64207">
        <ele>1585</ele>
        <time>2026-06-30T08:22:17.000Z</time>
      </trkpt>
      <trkpt lat="42.73634" lon="0.64216">
        <ele>1587</ele>
        <time>2026-06-30T08:22:22.000Z</time>
      </trkpt>
      <trkpt lat="42.73633" lon="0.64225">
        <ele>1588</ele>
        <time>2026-06-30T08:22:27.000Z</time>
      </trkpt>
      <trkpt lat="42.73632" lon="0.64233">
        <ele>1589</ele>
        <time>2026-06-30T08:22:32.000Z</time>
      </trkpt>
      <trkpt lat="42.73632" lon="0.64242">
        <ele>1590</ele>
        <time>2026-06-30T08:22:37.000Z</time>
      </trkpt>
      <trkpt lat="42.73632" lon="0.6425">
        <ele>1590</ele>
        <time>2026-06-30T08:22:42.000Z</time>
      </trkpt>
      <trkpt lat="42.73632" lon="0.64258">
        <ele>1590</ele>
        <time>2026-06-30T08:22:47.000Z</time>
      </trkpt>
      <trkpt lat="42.73632" lon="0.64268">
        <ele>1591</ele>
        <time>2026-06-30T08:22:52.000Z</time>
      </trkpt>
      <trkpt lat="42.73631" lon="0.64278">
        <ele>1592</ele>
        <time>2026-06-30T08:22:57.000Z</time>
      </trkpt>
      <trkpt lat="42.7363" lon="0.64288">
        <ele>1593</ele>
        <time>2026-06-30T08:23:02.000Z</time>
      </trkpt>
      <trkpt lat="42.73632" lon="0.64299">
        <ele>1592</ele>
        <time>2026-06-30T08:23:07.000Z</time>
      </trkpt>
      <trkpt lat="42.73634" lon="0.64308">
        <ele>1594</ele>
        <time>2026-06-30T08:23:12.000Z</time>
      </trkpt>
      <trkpt lat="42.73635" lon="0.64309">
        <ele>1593</ele>
        <time>2026-06-30T08:23:17.000Z</time>
      </trkpt>
      <trkpt lat="42.73635" lon="0.64309">
        <ele>1593</ele>
        <time>2026-06-30T08:23:22.000Z</time>
      </trkpt>
      <trkpt lat="42.73635" lon="0.64309">
        <ele>1593</ele>
        <time>2026-06-30T08:23:27.000Z</time>
      </trkpt>
      <trkpt lat="42.73635" lon="0.64309">
        <ele>1593</ele>
        <time>2026-06-30T08:23:32.000Z</time>
      </trkpt>
      <trkpt lat="42.73635" lon="0.64309">
        <ele>1593</ele>
        <time>2026-06-30T08:23:37.000Z</time>
      </trkpt>
      <trkpt lat="42.73638" lon="0.64308">
        <ele>1594</ele>
        <time>2026-06-30T08:23:42.000Z</time>
      </trkpt>
      <trkpt lat="42.73641" lon="0.64308">
        <ele>1594</ele>
        <time>2026-06-30T08:23:47.000Z</time>
      </trkpt>
      <trkpt lat="42.73641" lon="0.64308">
        <ele>1595</ele>
        <time>2026-06-30T08:23:52.000Z</time>
      </trkpt>
      <trkpt lat="42.73642" lon="0.64308">
        <ele>1595</ele>
        <time>2026-06-30T08:23:57.000Z</time>
      </trkpt>
      <trkpt lat="42.73642" lon="0.64309">
        <ele>1595</ele>
        <time>2026-06-30T08:24:02.000Z</time>
      </trkpt>
      <trkpt lat="42.73645" lon="0.64316">
        <ele>1596</ele>
        <time>2026-06-30T08:24:07.000Z</time>
      </trkpt>
      <trkpt lat="42.73646" lon="0.64325">
        <ele>1596</ele>
        <time>2026-06-30T08:24:12.000Z</time>
      </trkpt>
      <trkpt lat="42.73649" lon="0.64335">
        <ele>1597</ele>
        <time>2026-06-30T08:24:17.000Z</time>
      </trkpt>
      <trkpt lat="42.73651" lon="0.64344">
        <ele>1597</ele>
        <time>2026-06-30T08:24:22.000Z</time>
      </trkpt>
      <trkpt lat="42.73655" lon="0.64356">
        <ele>1599</ele>
        <time>2026-06-30T08:24:27.000Z</time>
      </trkpt>
      <trkpt lat="42.73656" lon="0.64367">
        <ele>1599</ele>
        <time>2026-06-30T08:24:32.000Z</time>
      </trkpt>
      <trkpt lat="42.73656" lon="0.64376">
        <ele>1601</ele>
        <time>2026-06-30T08:24:37.000Z</time>
      </trkpt>
      <trkpt lat="42.7366" lon="0.64385">
        <ele>1602</ele>
        <time>2026-06-30T08:24:42.000Z</time>
      </trkpt>
      <trkpt lat="42.73662" lon="0.64394">
        <ele>1603</ele>
        <time>2026-06-30T08:24:47.000Z</time>
      </trkpt>
      <trkpt lat="42.73662" lon="0.64405">
        <ele>1604</ele>
        <time>2026-06-30T08:24:52.000Z</time>
      </trkpt>
      <trkpt lat="42.73662" lon="0.64414">
        <ele>1606</ele>
        <time>2026-06-30T08:24:57.000Z</time>
      </trkpt>
      <trkpt lat="42.73664" lon="0.64425">
        <ele>1607</ele>
        <time>2026-06-30T08:25:02.000Z</time>
      </trkpt>
      <trkpt lat="42.73666" lon="0.64434">
        <ele>1608</ele>
        <time>2026-06-30T08:25:07.000Z</time>
      </trkpt>
      <trkpt lat="42.73667" lon="0.64444">
        <ele>1609</ele>
        <time>2026-06-30T08:25:12.000Z</time>
      </trkpt>
      <trkpt lat="42.73667" lon="0.64453">
        <ele>1610</ele>
        <time>2026-06-30T08:25:17.000Z</time>
      </trkpt>
      <trkpt lat="42.73667" lon="0.64463">
        <ele>1611</ele>
        <time>2026-06-30T08:25:22.000Z</time>
      </trkpt>
      <trkpt lat="42.73668" lon="0.64474">
        <ele>1613</ele>
        <time>2026-06-30T08:25:27.000Z</time>
      </trkpt>
      <trkpt lat="42.73668" lon="0.64483">
        <ele>1615</ele>
        <time>2026-06-30T08:25:32.000Z</time>
      </trkpt>
      <trkpt lat="42.73672" lon="0.64493">
        <ele>1615</ele>
        <time>2026-06-30T08:25:37.000Z</time>
      </trkpt>
      <trkpt lat="42.73675" lon="0.64504">
        <ele>1616</ele>
        <time>2026-06-30T08:25:42.000Z</time>
      </trkpt>
      <trkpt lat="42.73678" lon="0.64516">
        <ele>1616</ele>
        <time>2026-06-30T08:25:47.000Z</time>
      </trkpt>
      <trkpt lat="42.73681" lon="0.64525">
        <ele>1618</ele>
        <time>2026-06-30T08:25:52.000Z</time>
      </trkpt>
      <trkpt lat="42.73685" lon="0.64534">
        <ele>1619</ele>
        <time>2026-06-30T08:25:57.000Z</time>
      </trkpt>
      <trkpt lat="42.73692" lon="0.64542">
        <ele>1620</ele>
        <time>2026-06-30T08:26:02.000Z</time>
      </trkpt>
      <trkpt lat="42.73698" lon="0.64549">
        <ele>1620</ele>
        <time>2026-06-30T08:26:07.000Z</time>
      </trkpt>
      <trkpt lat="42.73704" lon="0.64556">
        <ele>1621</ele>
        <time>2026-06-30T08:26:12.000Z</time>
      </trkpt>
      <trkpt lat="42.7371" lon="0.64562">
        <ele>1621</ele>
        <time>2026-06-30T08:26:17.000Z</time>
      </trkpt>
      <trkpt lat="42.73714" lon="0.64565">
        <ele>1621</ele>
        <time>2026-06-30T08:26:22.000Z</time>
      </trkpt>
      <trkpt lat="42.73721" lon="0.64567">
        <ele>1625</ele>
        <time>2026-06-30T08:26:27.000Z</time>
      </trkpt>
      <trkpt lat="42.73727" lon="0.64564">
        <ele>1628</ele>
        <time>2026-06-30T08:26:32.000Z</time>
      </trkpt>
      <trkpt lat="42.73733" lon="0.64563">
        <ele>1630</ele>
        <time>2026-06-30T08:26:37.000Z</time>
      </trkpt>
      <trkpt lat="42.73738" lon="0.64562">
        <ele>1631</ele>
        <time>2026-06-30T08:26:42.000Z</time>
      </trkpt>
      <trkpt lat="42.73743" lon="0.64562">
        <ele>1633</ele>
        <time>2026-06-30T08:26:47.000Z</time>
      </trkpt>
      <trkpt lat="42.7375" lon="0.64563">
        <ele>1635</ele>
        <time>2026-06-30T08:26:52.000Z</time>
      </trkpt>
      <trkpt lat="42.73755" lon="0.64562">
        <ele>1639</ele>
        <time>2026-06-30T08:26:57.000Z</time>
      </trkpt>
      <trkpt lat="42.7376" lon="0.64566">
        <ele>1642</ele>
        <time>2026-06-30T08:27:02.000Z</time>
      </trkpt>
      <trkpt lat="42.73769" lon="0.64569">
        <ele>1644</ele>
        <time>2026-06-30T08:27:07.000Z</time>
      </trkpt>
      <trkpt lat="42.73778" lon="0.64573">
        <ele>1645</ele>
        <time>2026-06-30T08:27:12.000Z</time>
      </trkpt>
      <trkpt lat="42.73785" lon="0.6458">
        <ele>1644</ele>
        <time>2026-06-30T08:27:17.000Z</time>
      </trkpt>
      <trkpt lat="42.73794" lon="0.64589">
        <ele>1644</ele>
        <time>2026-06-30T08:27:22.000Z</time>
      </trkpt>
      <trkpt lat="42.738" lon="0.64598">
        <ele>1644</ele>
        <time>2026-06-30T08:27:27.000Z</time>
      </trkpt>
      <trkpt lat="42.73807" lon="0.64606">
        <ele>1645</ele>
        <time>2026-06-30T08:27:32.000Z</time>
      </trkpt>
      <trkpt lat="42.73811" lon="0.64613">
        <ele>1647</ele>
        <time>2026-06-30T08:27:37.000Z</time>
      </trkpt>
      <trkpt lat="42.73816" lon="0.64617">
        <ele>1651</ele>
        <time>2026-06-30T08:27:42.000Z</time>
      </trkpt>
      <trkpt lat="42.73822" lon="0.64621">
        <ele>1652</ele>
        <time>2026-06-30T08:27:47.000Z</time>
      </trkpt>
      <trkpt lat="42.73829" lon="0.6463">
        <ele>1652</ele>
        <time>2026-06-30T08:27:52.000Z</time>
      </trkpt>
      <trkpt lat="42.73837" lon="0.64639">
        <ele>1650</ele>
        <time>2026-06-30T08:27:57.000Z</time>
      </trkpt>
      <trkpt lat="42.73845" lon="0.64646">
        <ele>1649</ele>
        <time>2026-06-30T08:28:02.000Z</time>
      </trkpt>
      <trkpt lat="42.73852" lon="0.64653">
        <ele>1647</ele>
        <time>2026-06-30T08:28:07.000Z</time>
      </trkpt>
      <trkpt lat="42.73858" lon="0.64663">
        <ele>1646</ele>
        <time>2026-06-30T08:28:12.000Z</time>
      </trkpt>
      <trkpt lat="42.73862" lon="0.64673">
        <ele>1645</ele>
        <time>2026-06-30T08:28:17.000Z</time>
      </trkpt>
      <trkpt lat="42.73865" lon="0.64684">
        <ele>1644</ele>
        <time>2026-06-30T08:28:22.000Z</time>
      </trkpt>
      <trkpt lat="42.73864" lon="0.64696">
        <ele>1643</ele>
        <time>2026-06-30T08:28:27.000Z</time>
      </trkpt>
      <trkpt lat="42.73861" lon="0.64708">
        <ele>1643</ele>
        <time>2026-06-30T08:28:32.000Z</time>
      </trkpt>
      <trkpt lat="42.73857" lon="0.64718">
        <ele>1642</ele>
        <time>2026-06-30T08:28:37.000Z</time>
      </trkpt>
      <trkpt lat="42.7385" lon="0.64727">
        <ele>1642</ele>
        <time>2026-06-30T08:28:42.000Z</time>
      </trkpt>
      <trkpt lat="42.73841" lon="0.64735">
        <ele>1641</ele>
        <time>2026-06-30T08:28:47.000Z</time>
      </trkpt>
      <trkpt lat="42.73834" lon="0.64741">
        <ele>1642</ele>
        <time>2026-06-30T08:28:52.000Z</time>
      </trkpt>
      <trkpt lat="42.73829" lon="0.64748">
        <ele>1644</ele>
        <time>2026-06-30T08:28:57.000Z</time>
      </trkpt>
      <trkpt lat="42.73821" lon="0.64756">
        <ele>1645</ele>
        <time>2026-06-30T08:29:02.000Z</time>
      </trkpt>
      <trkpt lat="42.73815" lon="0.64765">
        <ele>1645</ele>
        <time>2026-06-30T08:29:07.000Z</time>
      </trkpt>
      <trkpt lat="42.73811" lon="0.64773">
        <ele>1645</ele>
        <time>2026-06-30T08:29:12.000Z</time>
      </trkpt>
      <trkpt lat="42.7381" lon="0.64781">
        <ele>1647</ele>
        <time>2026-06-30T08:29:17.000Z</time>
      </trkpt>
      <trkpt lat="42.73807" lon="0.64788">
        <ele>1649</ele>
        <time>2026-06-30T08:29:22.000Z</time>
      </trkpt>
      <trkpt lat="42.73803" lon="0.64798">
        <ele>1649</ele>
        <time>2026-06-30T08:29:27.000Z</time>
      </trkpt>
      <trkpt lat="42.73797" lon="0.64805">
        <ele>1648</ele>
        <time>2026-06-30T08:29:32.000Z</time>
      </trkpt>
      <trkpt lat="42.73791" lon="0.64815">
        <ele>1648</ele>
        <time>2026-06-30T08:29:37.000Z</time>
      </trkpt>
      <trkpt lat="42.73786" lon="0.64825">
        <ele>1648</ele>
        <time>2026-06-30T08:29:42.000Z</time>
      </trkpt>
      <trkpt lat="42.73782" lon="0.64835">
        <ele>1649</ele>
        <time>2026-06-30T08:29:47.000Z</time>
      </trkpt>
      <trkpt lat="42.7378" lon="0.64843">
        <ele>1650</ele>
        <time>2026-06-30T08:29:52.000Z</time>
      </trkpt>
      <trkpt lat="42.7378" lon="0.64853">
        <ele>1651</ele>
        <time>2026-06-30T08:29:57.000Z</time>
      </trkpt>
      <trkpt lat="42.73776" lon="0.64859">
        <ele>1652</ele>
        <time>2026-06-30T08:30:02.000Z</time>
      </trkpt>
      <trkpt lat="42.73773" lon="0.64869">
        <ele>1653</ele>
        <time>2026-06-30T08:30:07.000Z</time>
      </trkpt>
      <trkpt lat="42.73766" lon="0.64878">
        <ele>1655</ele>
        <time>2026-06-30T08:30:12.000Z</time>
      </trkpt>
      <trkpt lat="42.73762" lon="0.6489">
        <ele>1654</ele>
        <time>2026-06-30T08:30:17.000Z</time>
      </trkpt>
      <trkpt lat="42.73759" lon="0.64901">
        <ele>1653</ele>
        <time>2026-06-30T08:30:22.000Z</time>
      </trkpt>
      <trkpt lat="42.73757" lon="0.6491">
        <ele>1654</ele>
        <time>2026-06-30T08:30:27.000Z</time>
      </trkpt>
      <trkpt lat="42.73754" lon="0.64919">
        <ele>1654</ele>
        <time>2026-06-30T08:30:32.000Z</time>
      </trkpt>
      <trkpt lat="42.73751" lon="0.6493">
        <ele>1654</ele>
        <time>2026-06-30T08:30:37.000Z</time>
      </trkpt>
      <trkpt lat="42.73747" lon="0.64937">
        <ele>1655</ele>
        <time>2026-06-30T08:30:42.000Z</time>
      </trkpt>
      <trkpt lat="42.73739" lon="0.64944">
        <ele>1657</ele>
        <time>2026-06-30T08:30:47.000Z</time>
      </trkpt>
      <trkpt lat="42.73732" lon="0.6495">
        <ele>1659</ele>
        <time>2026-06-30T08:30:52.000Z</time>
      </trkpt>
      <trkpt lat="42.73724" lon="0.64957">
        <ele>1660</ele>
        <time>2026-06-30T08:30:57.000Z</time>
      </trkpt>
      <trkpt lat="42.73719" lon="0.64965">
        <ele>1660</ele>
        <time>2026-06-30T08:31:02.000Z</time>
      </trkpt>
      <trkpt lat="42.73715" lon="0.64974">
        <ele>1660</ele>
        <time>2026-06-30T08:31:07.000Z</time>
      </trkpt>
      <trkpt lat="42.73708" lon="0.6498">
        <ele>1659</ele>
        <time>2026-06-30T08:31:12.000Z</time>
      </trkpt>
      <trkpt lat="42.73701" lon="0.64987">
        <ele>1659</ele>
        <time>2026-06-30T08:31:17.000Z</time>
      </trkpt>
      <trkpt lat="42.73695" lon="0.64994">
        <ele>1661</ele>
        <time>2026-06-30T08:31:22.000Z</time>
      </trkpt>
      <trkpt lat="42.73689" lon="0.65002">
        <ele>1662</ele>
        <time>2026-06-30T08:31:27.000Z</time>
      </trkpt>
      <trkpt lat="42.73685" lon="0.6501">
        <ele>1662</ele>
        <time>2026-06-30T08:31:32.000Z</time>
      </trkpt>
      <trkpt lat="42.7368" lon="0.65017">
        <ele>1662</ele>
        <time>2026-06-30T08:31:37.000Z</time>
      </trkpt>
      <trkpt lat="42.73675" lon="0.65023">
        <ele>1661</ele>
        <time>2026-06-30T08:31:42.000Z</time>
      </trkpt>
      <trkpt lat="42.73669" lon="0.65028">
        <ele>1662</ele>
        <time>2026-06-30T08:31:47.000Z</time>
      </trkpt>
      <trkpt lat="42.73663" lon="0.65034">
        <ele>1664</ele>
        <time>2026-06-30T08:31:52.000Z</time>
      </trkpt>
      <trkpt lat="42.73657" lon="0.65039">
        <ele>1663</ele>
        <time>2026-06-30T08:31:57.000Z</time>
      </trkpt>
      <trkpt lat="42.73651" lon="0.65044">
        <ele>1664</ele>
        <time>2026-06-30T08:32:02.000Z</time>
      </trkpt>
      <trkpt lat="42.73645" lon="0.65049">
        <ele>1664</ele>
        <time>2026-06-30T08:32:07.000Z</time>
      </trkpt>
      <trkpt lat="42.73642" lon="0.65055">
        <ele>1666</ele>
        <time>2026-06-30T08:32:12.000Z</time>
      </trkpt>
      <trkpt lat="42.73637" lon="0.65062">
        <ele>1666</ele>
        <time>2026-06-30T08:32:17.000Z</time>
      </trkpt>
      <trkpt lat="42.73634" lon="0.65069">
        <ele>1666</ele>
        <time>2026-06-30T08:32:22.000Z</time>
      </trkpt>
      <trkpt lat="42.73629" lon="0.65076">
        <ele>1667</ele>
        <time>2026-06-30T08:32:27.000Z</time>
      </trkpt>
      <trkpt lat="42.73624" lon="0.65081">
        <ele>1666</ele>
        <time>2026-06-30T08:32:32.000Z</time>
      </trkpt>
      <trkpt lat="42.73619" lon="0.65086">
        <ele>1668</ele>
        <time>2026-06-30T08:32:37.000Z</time>
      </trkpt>
      <trkpt lat="42.73614" lon="0.6509">
        <ele>1670</ele>
        <time>2026-06-30T08:32:42.000Z</time>
      </trkpt>
      <trkpt lat="42.73609" lon="0.65094">
        <ele>1672</ele>
        <time>2026-06-30T08:32:47.000Z</time>
      </trkpt>
      <trkpt lat="42.73603" lon="0.65099">
        <ele>1673</ele>
        <time>2026-06-30T08:32:52.000Z</time>
      </trkpt>
      <trkpt lat="42.73599" lon="0.65106">
        <ele>1674</ele>
        <time>2026-06-30T08:32:57.000Z</time>
      </trkpt>
      <trkpt lat="42.73593" lon="0.65111">
        <ele>1675</ele>
        <time>2026-06-30T08:33:02.000Z</time>
      </trkpt>
      <trkpt lat="42.73588" lon="0.65115">
        <ele>1676</ele>
        <time>2026-06-30T08:33:07.000Z</time>
      </trkpt>
      <trkpt lat="42.73582" lon="0.65121">
        <ele>1676</ele>
        <time>2026-06-30T08:33:12.000Z</time>
      </trkpt>
      <trkpt lat="42.73577" lon="0.65126">
        <ele>1676</ele>
        <time>2026-06-30T08:33:17.000Z</time>
      </trkpt>
      <trkpt lat="42.73571" lon="0.65132">
        <ele>1677</ele>
        <time>2026-06-30T08:33:22.000Z</time>
      </trkpt>
      <trkpt lat="42.73565" lon="0.65136">
        <ele>1678</ele>
        <time>2026-06-30T08:33:27.000Z</time>
      </trkpt>
      <trkpt lat="42.73559" lon="0.6514">
        <ele>1679</ele>
        <time>2026-06-30T08:33:32.000Z</time>
      </trkpt>
      <trkpt lat="42.73552" lon="0.65143">
        <ele>1680</ele>
        <time>2026-06-30T08:33:37.000Z</time>
      </trkpt>
      <trkpt lat="42.73546" lon="0.65146">
        <ele>1680</ele>
        <time>2026-06-30T08:33:42.000Z</time>
      </trkpt>
      <trkpt lat="42.7354" lon="0.65147">
        <ele>1680</ele>
        <time>2026-06-30T08:33:47.000Z</time>
      </trkpt>
      <trkpt lat="42.73534" lon="0.65151">
        <ele>1680</ele>
        <time>2026-06-30T08:33:52.000Z</time>
      </trkpt>
      <trkpt lat="42.73528" lon="0.65156">
        <ele>1681</ele>
        <time>2026-06-30T08:33:57.000Z</time>
      </trkpt>
      <trkpt lat="42.73521" lon="0.6516">
        <ele>1682</ele>
        <time>2026-06-30T08:34:02.000Z</time>
      </trkpt>
      <trkpt lat="42.73516" lon="0.65164">
        <ele>1682</ele>
        <time>2026-06-30T08:34:07.000Z</time>
      </trkpt>
      <trkpt lat="42.7351" lon="0.65169">
        <ele>1683</ele>
        <time>2026-06-30T08:34:12.000Z</time>
      </trkpt>
      <trkpt lat="42.73505" lon="0.65173">
        <ele>1684</ele>
        <time>2026-06-30T08:34:17.000Z</time>
      </trkpt>
      <trkpt lat="42.73498" lon="0.65179">
        <ele>1686</ele>
        <time>2026-06-30T08:34:22.000Z</time>
      </trkpt>
      <trkpt lat="42.73493" lon="0.65186">
        <ele>1686</ele>
        <time>2026-06-30T08:34:27.000Z</time>
      </trkpt>
      <trkpt lat="42.73487" lon="0.65191">
        <ele>1687</ele>
        <time>2026-06-30T08:34:32.000Z</time>
      </trkpt>
      <trkpt lat="42.73481" lon="0.65196">
        <ele>1687</ele>
        <time>2026-06-30T08:34:37.000Z</time>
      </trkpt>
      <trkpt lat="42.73474" lon="0.652">
        <ele>1688</ele>
        <time>2026-06-30T08:34:42.000Z</time>
      </trkpt>
      <trkpt lat="42.73468" lon="0.65206">
        <ele>1688</ele>
        <time>2026-06-30T08:34:47.000Z</time>
      </trkpt>
      <trkpt lat="42.73462" lon="0.65211">
        <ele>1690</ele>
        <time>2026-06-30T08:34:52.000Z</time>
      </trkpt>
      <trkpt lat="42.73454" lon="0.65215">
        <ele>1690</ele>
        <time>2026-06-30T08:34:57.000Z</time>
      </trkpt>
      <trkpt lat="42.73447" lon="0.65217">
        <ele>1691</ele>
        <time>2026-06-30T08:35:02.000Z</time>
      </trkpt>
      <trkpt lat="42.73439" lon="0.65219">
        <ele>1692</ele>
        <time>2026-06-30T08:35:07.000Z</time>
      </trkpt>
      <trkpt lat="42.73431" lon="0.65219">
        <ele>1693</ele>
        <time>2026-06-30T08:35:12.000Z</time>
      </trkpt>
      <trkpt lat="42.73424" lon="0.65219">
        <ele>1694</ele>
        <time>2026-06-30T08:35:17.000Z</time>
      </trkpt>
      <trkpt lat="42.73417" lon="0.6522">
        <ele>1695</ele>
        <time>2026-06-30T08:35:22.000Z</time>
      </trkpt>
      <trkpt lat="42.7341" lon="0.65222">
        <ele>1695</ele>
        <time>2026-06-30T08:35:27.000Z</time>
      </trkpt>
      <trkpt lat="42.73406" lon="0.65227">
        <ele>1695</ele>
        <time>2026-06-30T08:35:32.000Z</time>
      </trkpt>
      <trkpt lat="42.73403" lon="0.65234">
        <ele>1695</ele>
        <time>2026-06-30T08:35:37.000Z</time>
      </trkpt>
      <trkpt lat="42.73401" lon="0.6524">
        <ele>1696</ele>
        <time>2026-06-30T08:35:42.000Z</time>
      </trkpt>
      <trkpt lat="42.73398" lon="0.65246">
        <ele>1698</ele>
        <time>2026-06-30T08:35:47.000Z</time>
      </trkpt>
      <trkpt lat="42.73393" lon="0.65242">
        <ele>1699</ele>
        <time>2026-06-30T08:35:52.000Z</time>
      </trkpt>
      <trkpt lat="42.73392" lon="0.65242">
        <ele>1699</ele>
        <time>2026-06-30T08:35:57.000Z</time>
      </trkpt>
      <trkpt lat="42.73392" lon="0.65242">
        <ele>1698</ele>
        <time>2026-06-30T08:36:02.000Z</time>
      </trkpt>
      <trkpt lat="42.73392" lon="0.65242">
        <ele>1698</ele>
        <time>2026-06-30T08:36:07.000Z</time>
      </trkpt>
      <trkpt lat="42.73392" lon="0.65242">
        <ele>1698</ele>
        <time>2026-06-30T08:36:12.000Z</time>
      </trkpt>
      <trkpt lat="42.73392" lon="0.65242">
        <ele>1698</ele>
        <time>2026-06-30T08:36:17.000Z</time>
      </trkpt>
      <trkpt lat="42.73392" lon="0.65242">
        <ele>1698</ele>
        <time>2026-06-30T08:36:22.000Z</time>
      </trkpt>
      <trkpt lat="42.73392" lon="0.65242">
        <ele>1698</ele>
        <time>2026-06-30T08:36:27.000Z</time>
      </trkpt>
      <trkpt lat="42.73392" lon="0.65242">
        <ele>1698</ele>
        <time>2026-06-30T08:36:32.000Z</time>
      </trkpt>
      <trkpt lat="42.73392" lon="0.65242">
        <ele>1698</ele>
        <time>2026-06-30T08:36:37.000Z</time>
      </trkpt>
      <trkpt lat="42.73392" lon="0.65242">
        <ele>1698</ele>
        <time>2026-06-30T08:36:42.000Z</time>
      </trkpt>
      <trkpt lat="42.73392" lon="0.65242">
        <ele>1698</ele>
        <time>2026-06-30T08:36:47.000Z</time>
      </trkpt>
      <trkpt lat="42.73392" lon="0.65242">
        <ele>1698</ele>
        <time>2026-06-30T08:36:52.000Z</time>
      </trkpt>
      <trkpt lat="42.73392" lon="0.65242">
        <ele>1698</ele>
        <time>2026-06-30T08:36:57.000Z</time>
      </trkpt>
      <trkpt lat="42.73392" lon="0.65242">
        <ele>1698</ele>
        <time>2026-06-30T08:37:02.000Z</time>
      </trkpt>
      <trkpt lat="42.73392" lon="0.65242">
        <ele>1698</ele>
        <time>2026-06-30T08:37:07.000Z</time>
      </trkpt>
      <trkpt lat="42.73392" lon="0.65242">
        <ele>1698</ele>
        <time>2026-06-30T08:37:12.000Z</time>
      </trkpt>
      <trkpt lat="42.73392" lon="0.65242">
        <ele>1698</ele>
        <time>2026-06-30T08:37:17.000Z</time>
      </trkpt>
      <trkpt lat="42.73392" lon="0.65242">
        <ele>1698</ele>
        <time>2026-06-30T08:37:22.000Z</time>
      </trkpt>
      <trkpt lat="42.73392" lon="0.65242">
        <ele>1698</ele>
        <time>2026-06-30T08:37:27.000Z</time>
      </trkpt>
      <trkpt lat="42.73392" lon="0.65242">
        <ele>1698</ele>
        <time>2026-06-30T08:37:32.000Z</time>
      </trkpt>
      <trkpt lat="42.73392" lon="0.65242">
        <ele>1698</ele>
        <time>2026-06-30T08:37:37.000Z</time>
      </trkpt>
      <trkpt lat="42.73392" lon="0.65242">
        <ele>1698</ele>
        <time>2026-06-30T08:37:42.000Z</time>
      </trkpt>
      <trkpt lat="42.73392" lon="0.65242">
        <ele>1698</ele>
        <time>2026-06-30T08:37:47.000Z</time>
      </trkpt>
      <trkpt lat="42.73392" lon="0.65242">
        <ele>1698</ele>
        <time>2026-06-30T08:37:52.000Z</time>
      </trkpt>
      <trkpt lat="42.73392" lon="0.65242">
        <ele>1698</ele>
        <time>2026-06-30T08:37:57.000Z</time>
      </trkpt>
      <trkpt lat="42.73392" lon="0.65242">
        <ele>1698</ele>
        <time>2026-06-30T08:38:02.000Z</time>
      </trkpt>
      <trkpt lat="42.73392" lon="0.65242">
        <ele>1698</ele>
        <time>2026-06-30T08:38:07.000Z</time>
      </trkpt>
      <trkpt lat="42.73392" lon="0.65242">
        <ele>1698</ele>
        <time>2026-06-30T08:38:12.000Z</time>
      </trkpt>
      <trkpt lat="42.73392" lon="0.65242">
        <ele>1698</ele>
        <time>2026-06-30T08:38:17.000Z</time>
      </trkpt>
      <trkpt lat="42.73392" lon="0.65242">
        <ele>1698</ele>
        <time>2026-06-30T08:38:22.000Z</time>
      </trkpt>
      <trkpt lat="42.73392" lon="0.65242">
        <ele>1698</ele>
        <time>2026-06-30T08:38:27.000Z</time>
      </trkpt>
      <trkpt lat="42.73392" lon="0.65242">
        <ele>1698</ele>
        <time>2026-06-30T08:38:32.000Z</time>
      </trkpt>
      <trkpt lat="42.73392" lon="0.65242">
        <ele>1698</ele>
        <time>2026-06-30T08:38:37.000Z</time>
      </trkpt>
      <trkpt lat="42.73392" lon="0.65242">
        <ele>1698</ele>
        <time>2026-06-30T08:38:42.000Z</time>
      </trkpt>
      <trkpt lat="42.73392" lon="0.65242">
        <ele>1698</ele>
        <time>2026-06-30T08:38:47.000Z</time>
      </trkpt>
      <trkpt lat="42.73392" lon="0.65242">
        <ele>1698</ele>
        <time>2026-06-30T08:38:52.000Z</time>
      </trkpt>
      <trkpt lat="42.73392" lon="0.65242">
        <ele>1698</ele>
        <time>2026-06-30T08:38:57.000Z</time>
      </trkpt>
      <trkpt lat="42.73392" lon="0.65242">
        <ele>1698</ele>
        <time>2026-06-30T08:39:02.000Z</time>
      </trkpt>
      <trkpt lat="42.73392" lon="0.65242">
        <ele>1698</ele>
        <time>2026-06-30T08:39:07.000Z</time>
      </trkpt>
      <trkpt lat="42.73392" lon="0.65242">
        <ele>1698</ele>
        <time>2026-06-30T08:39:12.000Z</time>
      </trkpt>
      <trkpt lat="42.73392" lon="0.65242">
        <ele>1698</ele>
        <time>2026-06-30T08:39:17.000Z</time>
      </trkpt>
      <trkpt lat="42.73392" lon="0.65242">
        <ele>1698</ele>
        <time>2026-06-30T08:39:22.000Z</time>
      </trkpt>
      <trkpt lat="42.73392" lon="0.65242">
        <ele>1698</ele>
        <time>2026-06-30T08:39:27.000Z</time>
      </trkpt>
      <trkpt lat="42.73392" lon="0.65242">
        <ele>1698</ele>
        <time>2026-06-30T08:39:32.000Z</time>
      </trkpt>
      <trkpt lat="42.73392" lon="0.65242">
        <ele>1698</ele>
        <time>2026-06-30T08:39:37.000Z</time>
      </trkpt>
      <trkpt lat="42.73392" lon="0.65242">
        <ele>1698</ele>
        <time>2026-06-30T08:39:42.000Z</time>
      </trkpt>
      <trkpt lat="42.73392" lon="0.65242">
        <ele>1698</ele>
        <time>2026-06-30T08:39:47.000Z</time>
      </trkpt>
      <trkpt lat="42.73392" lon="0.65242">
        <ele>1698</ele>
        <time>2026-06-30T08:39:52.000Z</time>
      </trkpt>
      <trkpt lat="42.73392" lon="0.65242">
        <ele>1698</ele>
        <time>2026-06-30T08:39:57.000Z</time>
      </trkpt>
      <trkpt lat="42.73392" lon="0.65242">
        <ele>1698</ele>
        <time>2026-06-30T08:40:02.000Z</time>
      </trkpt>
      <trkpt lat="42.73392" lon="0.65242">
        <ele>1698</ele>
        <time>2026-06-30T08:40:07.000Z</time>
      </trkpt>
      <trkpt lat="42.73392" lon="0.65242">
        <ele>1698</ele>
        <time>2026-06-30T08:40:12.000Z</time>
      </trkpt>
      <trkpt lat="42.73392" lon="0.65242">
        <ele>1698</ele>
        <time>2026-06-30T08:40:17.000Z</time>
      </trkpt>
      <trkpt lat="42.73392" lon="0.65242">
        <ele>1698</ele>
        <time>2026-06-30T08:40:22.000Z</time>
      </trkpt>
      <trkpt lat="42.73392" lon="0.65242">
        <ele>1698</ele>
        <time>2026-06-30T08:40:27.000Z</time>
      </trkpt>
      <trkpt lat="42.73392" lon="0.65242">
        <ele>1698</ele>
        <time>2026-06-30T08:40:32.000Z</time>
      </trkpt>
      <trkpt lat="42.73392" lon="0.65242">
        <ele>1698</ele>
        <time>2026-06-30T08:40:37.000Z</time>
      </trkpt>
      <trkpt lat="42.73392" lon="0.65242">
        <ele>1698</ele>
        <time>2026-06-30T08:40:42.000Z</time>
      </trkpt>
      <trkpt lat="42.73392" lon="0.65242">
        <ele>1698</ele>
        <time>2026-06-30T08:40:47.000Z</time>
      </trkpt>
      <trkpt lat="42.73392" lon="0.65242">
        <ele>1698</ele>
        <time>2026-06-30T08:40:52.000Z</time>
      </trkpt>
      <trkpt lat="42.73392" lon="0.65242">
        <ele>1698</ele>
        <time>2026-06-30T08:40:57.000Z</time>
      </trkpt>
      <trkpt lat="42.73392" lon="0.65242">
        <ele>1698</ele>
        <time>2026-06-30T08:41:02.000Z</time>
      </trkpt>
      <trkpt lat="42.73392" lon="0.65242">
        <ele>1698</ele>
        <time>2026-06-30T08:41:07.000Z</time>
      </trkpt>
      <trkpt lat="42.73392" lon="0.65242">
        <ele>1698</ele>
        <time>2026-06-30T08:41:12.000Z</time>
      </trkpt>
      <trkpt lat="42.73392" lon="0.65242">
        <ele>1698</ele>
        <time>2026-06-30T08:41:17.000Z</time>
      </trkpt>
      <trkpt lat="42.73392" lon="0.65242">
        <ele>1698</ele>
        <time>2026-06-30T08:41:22.000Z</time>
      </trkpt>
      <trkpt lat="42.73392" lon="0.65242">
        <ele>1698</ele>
        <time>2026-06-30T08:41:27.000Z</time>
      </trkpt>
      <trkpt lat="42.73392" lon="0.65242">
        <ele>1698</ele>
        <time>2026-06-30T08:41:32.000Z</time>
      </trkpt>
      <trkpt lat="42.73392" lon="0.65242">
        <ele>1698</ele>
        <time>2026-06-30T08:41:37.000Z</time>
      </trkpt>
      <trkpt lat="42.73392" lon="0.65242">
        <ele>1698</ele>
        <time>2026-06-30T08:41:42.000Z</time>
      </trkpt>
      <trkpt lat="42.73392" lon="0.65242">
        <ele>1698</ele>
        <time>2026-06-30T08:41:47.000Z</time>
      </trkpt>
      <trkpt lat="42.73392" lon="0.65242">
        <ele>1698</ele>
        <time>2026-06-30T08:41:52.000Z</time>
      </trkpt>
      <trkpt lat="42.73392" lon="0.65242">
        <ele>1698</ele>
        <time>2026-06-30T08:41:57.000Z</time>
      </trkpt>
      <trkpt lat="42.73392" lon="0.65242">
        <ele>1698</ele>
        <time>2026-06-30T08:42:02.000Z</time>
      </trkpt>
      <trkpt lat="42.73392" lon="0.65242">
        <ele>1698</ele>
        <time>2026-06-30T08:42:07.000Z</time>
      </trkpt>
      <trkpt lat="42.73392" lon="0.65242">
        <ele>1698</ele>
        <time>2026-06-30T08:42:12.000Z</time>
      </trkpt>
      <trkpt lat="42.73392" lon="0.65242">
        <ele>1698</ele>
        <time>2026-06-30T08:42:17.000Z</time>
      </trkpt>
      <trkpt lat="42.73392" lon="0.65242">
        <ele>1698</ele>
        <time>2026-06-30T08:42:22.000Z</time>
      </trkpt>
      <trkpt lat="42.73392" lon="0.65242">
        <ele>1698</ele>
        <time>2026-06-30T08:42:27.000Z</time>
      </trkpt>
      <trkpt lat="42.73392" lon="0.65242">
        <ele>1698</ele>
        <time>2026-06-30T08:42:32.000Z</time>
      </trkpt>
      <trkpt lat="42.73392" lon="0.65242">
        <ele>1698</ele>
        <time>2026-06-30T08:42:37.000Z</time>
      </trkpt>
      <trkpt lat="42.73392" lon="0.65242">
        <ele>1698</ele>
        <time>2026-06-30T08:42:42.000Z</time>
      </trkpt>
      <trkpt lat="42.73392" lon="0.65242">
        <ele>1698</ele>
        <time>2026-06-30T08:42:47.000Z</time>
      </trkpt>
      <trkpt lat="42.73392" lon="0.65242">
        <ele>1698</ele>
        <time>2026-06-30T08:42:52.000Z</time>
      </trkpt>
      <trkpt lat="42.73392" lon="0.65242">
        <ele>1698</ele>
        <time>2026-06-30T08:42:57.000Z</time>
      </trkpt>
      <trkpt lat="42.73392" lon="0.65242">
        <ele>1698</ele>
        <time>2026-06-30T08:43:02.000Z</time>
      </trkpt>
      <trkpt lat="42.73392" lon="0.65242">
        <ele>1698</ele>
        <time>2026-06-30T08:43:07.000Z</time>
      </trkpt>
      <trkpt lat="42.73392" lon="0.65242">
        <ele>1698</ele>
        <time>2026-06-30T08:43:12.000Z</time>
      </trkpt>
      <trkpt lat="42.73392" lon="0.65242">
        <ele>1698</ele>
        <time>2026-06-30T08:43:17.000Z</time>
      </trkpt>
      <trkpt lat="42.73392" lon="0.65242">
        <ele>1698</ele>
        <time>2026-06-30T08:43:22.000Z</time>
      </trkpt>
      <trkpt lat="42.73392" lon="0.65242">
        <ele>1698</ele>
        <time>2026-06-30T08:43:27.000Z</time>
      </trkpt>
      <trkpt lat="42.73392" lon="0.65242">
        <ele>1698</ele>
        <time>2026-06-30T08:43:32.000Z</time>
      </trkpt>
      <trkpt lat="42.73392" lon="0.65242">
        <ele>1698</ele>
        <time>2026-06-30T08:43:37.000Z</time>
      </trkpt>
      <trkpt lat="42.73392" lon="0.65242">
        <ele>1698</ele>
        <time>2026-06-30T08:43:42.000Z</time>
      </trkpt>
      <trkpt lat="42.73392" lon="0.65242">
        <ele>1698</ele>
        <time>2026-06-30T08:43:47.000Z</time>
      </trkpt>
      <trkpt lat="42.73392" lon="0.65242">
        <ele>1698</ele>
        <time>2026-06-30T08:43:52.000Z</time>
      </trkpt>
      <trkpt lat="42.73392" lon="0.65242">
        <ele>1698</ele>
        <time>2026-06-30T08:43:57.000Z</time>
      </trkpt>
      <trkpt lat="42.73392" lon="0.65242">
        <ele>1698</ele>
        <time>2026-06-30T08:44:02.000Z</time>
      </trkpt>
      <trkpt lat="42.73392" lon="0.65242">
        <ele>1698</ele>
        <time>2026-06-30T08:44:07.000Z</time>
      </trkpt>
      <trkpt lat="42.73392" lon="0.65242">
        <ele>1698</ele>
        <time>2026-06-30T08:44:12.000Z</time>
      </trkpt>
      <trkpt lat="42.73397" lon="0.65241">
        <ele>1700</ele>
        <time>2026-06-30T08:44:17.000Z</time>
      </trkpt>
      <trkpt lat="42.73397" lon="0.65245">
        <ele>1701</ele>
        <time>2026-06-30T08:44:22.000Z</time>
      </trkpt>
      <trkpt lat="42.73397" lon="0.65245">
        <ele>1701</ele>
        <time>2026-06-30T08:44:27.000Z</time>
      </trkpt>
      <trkpt lat="42.73398" lon="0.65245">
        <ele>1702</ele>
        <time>2026-06-30T08:44:32.000Z</time>
      </trkpt>
      <trkpt lat="42.73398" lon="0.65247">
        <ele>1701</ele>
        <time>2026-06-30T08:44:37.000Z</time>
      </trkpt>
      <trkpt lat="42.73395" lon="0.65251">
        <ele>1700</ele>
        <time>2026-06-30T08:44:42.000Z</time>
      </trkpt>
      <trkpt lat="42.73389" lon="0.65252">
        <ele>1701</ele>
        <time>2026-06-30T08:44:47.000Z</time>
      </trkpt>
      <trkpt lat="42.73383" lon="0.65253">
        <ele>1700</ele>
        <time>2026-06-30T08:44:52.000Z</time>
      </trkpt>
      <trkpt lat="42.73378" lon="0.65258">
        <ele>1700</ele>
        <time>2026-06-30T08:44:57.000Z</time>
      </trkpt>
      <trkpt lat="42.73374" lon="0.65263">
        <ele>1700</ele>
        <time>2026-06-30T08:45:02.000Z</time>
      </trkpt>
      <trkpt lat="42.7337" lon="0.65269">
        <ele>1701</ele>
        <time>2026-06-30T08:45:07.000Z</time>
      </trkpt>
      <trkpt lat="42.73365" lon="0.65274">
        <ele>1702</ele>
        <time>2026-06-30T08:45:12.000Z</time>
      </trkpt>
      <trkpt lat="42.73359" lon="0.65277">
        <ele>1703</ele>
        <time>2026-06-30T08:45:17.000Z</time>
      </trkpt>
      <trkpt lat="42.73355" lon="0.65282">
        <ele>1703</ele>
        <time>2026-06-30T08:45:22.000Z</time>
      </trkpt>
      <trkpt lat="42.73348" lon="0.65286">
        <ele>1704</ele>
        <time>2026-06-30T08:45:27.000Z</time>
      </trkpt>
      <trkpt lat="42.73344" lon="0.65292">
        <ele>1705</ele>
        <time>2026-06-30T08:45:32.000Z</time>
      </trkpt>
      <trkpt lat="42.73341" lon="0.65297">
        <ele>1705</ele>
        <time>2026-06-30T08:45:37.000Z</time>
      </trkpt>
      <trkpt lat="42.73341" lon="0.65298">
        <ele>1704</ele>
        <time>2026-06-30T08:45:42.000Z</time>
      </trkpt>
      <trkpt lat="42.73338" lon="0.65305">
        <ele>1704</ele>
        <time>2026-06-30T08:45:47.000Z</time>
      </trkpt>
      <trkpt lat="42.73334" lon="0.65312">
        <ele>1704</ele>
        <time>2026-06-30T08:45:52.000Z</time>
      </trkpt>
      <trkpt lat="42.7333" lon="0.65319">
        <ele>1705</ele>
        <time>2026-06-30T08:45:57.000Z</time>
      </trkpt>
      <trkpt lat="42.73325" lon="0.65325">
        <ele>1708</ele>
        <time>2026-06-30T08:46:02.000Z</time>
      </trkpt>
      <trkpt lat="42.7332" lon="0.65331">
        <ele>1708</ele>
        <time>2026-06-30T08:46:07.000Z</time>
      </trkpt>
      <trkpt lat="42.73316" lon="0.65337">
        <ele>1708</ele>
        <time>2026-06-30T08:46:12.000Z</time>
      </trkpt>
      <trkpt lat="42.73311" lon="0.65345">
        <ele>1709</ele>
        <time>2026-06-30T08:46:17.000Z</time>
      </trkpt>
      <trkpt lat="42.73307" lon="0.65352">
        <ele>1711</ele>
        <time>2026-06-30T08:46:22.000Z</time>
      </trkpt>
      <trkpt lat="42.73302" lon="0.65359">
        <ele>1712</ele>
        <time>2026-06-30T08:46:27.000Z</time>
      </trkpt>
      <trkpt lat="42.73298" lon="0.65365">
        <ele>1712</ele>
        <time>2026-06-30T08:46:32.000Z</time>
      </trkpt>
      <trkpt lat="42.73293" lon="0.65371">
        <ele>1713</ele>
        <time>2026-06-30T08:46:37.000Z</time>
      </trkpt>
      <trkpt lat="42.73287" lon="0.65377">
        <ele>1715</ele>
        <time>2026-06-30T08:46:42.000Z</time>
      </trkpt>
      <trkpt lat="42.73281" lon="0.65383">
        <ele>1714</ele>
        <time>2026-06-30T08:46:47.000Z</time>
      </trkpt>
      <trkpt lat="42.73275" lon="0.65389">
        <ele>1714</ele>
        <time>2026-06-30T08:46:52.000Z</time>
      </trkpt>
      <trkpt lat="42.73269" lon="0.65395">
        <ele>1714</ele>
        <time>2026-06-30T08:46:57.000Z</time>
      </trkpt>
      <trkpt lat="42.73264" lon="0.65401">
        <ele>1717</ele>
        <time>2026-06-30T08:47:02.000Z</time>
      </trkpt>
      <trkpt lat="42.73258" lon="0.65408">
        <ele>1717</ele>
        <time>2026-06-30T08:47:07.000Z</time>
      </trkpt>
      <trkpt lat="42.73252" lon="0.65412">
        <ele>1718</ele>
        <time>2026-06-30T08:47:12.000Z</time>
      </trkpt>
      <trkpt lat="42.73246" lon="0.65416">
        <ele>1719</ele>
        <time>2026-06-30T08:47:17.000Z</time>
      </trkpt>
      <trkpt lat="42.73239" lon="0.6542">
        <ele>1719</ele>
        <time>2026-06-30T08:47:22.000Z</time>
      </trkpt>
      <trkpt lat="42.73234" lon="0.65424">
        <ele>1719</ele>
        <time>2026-06-30T08:47:27.000Z</time>
      </trkpt>
      <trkpt lat="42.73228" lon="0.6543">
        <ele>1720</ele>
        <time>2026-06-30T08:47:32.000Z</time>
      </trkpt>
      <trkpt lat="42.73222" lon="0.65435">
        <ele>1722</ele>
        <time>2026-06-30T08:47:37.000Z</time>
      </trkpt>
      <trkpt lat="42.73217" lon="0.65441">
        <ele>1723</ele>
        <time>2026-06-30T08:47:42.000Z</time>
      </trkpt>
      <trkpt lat="42.73212" lon="0.65446">
        <ele>1725</ele>
        <time>2026-06-30T08:47:47.000Z</time>
      </trkpt>
      <trkpt lat="42.73207" lon="0.65453">
        <ele>1725</ele>
        <time>2026-06-30T08:47:52.000Z</time>
      </trkpt>
      <trkpt lat="42.73202" lon="0.65459">
        <ele>1727</ele>
        <time>2026-06-30T08:47:57.000Z</time>
      </trkpt>
      <trkpt lat="42.73197" lon="0.65467">
        <ele>1727</ele>
        <time>2026-06-30T08:48:02.000Z</time>
      </trkpt>
      <trkpt lat="42.73192" lon="0.65474">
        <ele>1727</ele>
        <time>2026-06-30T08:48:07.000Z</time>
      </trkpt>
      <trkpt lat="42.73186" lon="0.65482">
        <ele>1727</ele>
        <time>2026-06-30T08:48:12.000Z</time>
      </trkpt>
      <trkpt lat="42.73182" lon="0.65489">
        <ele>1729</ele>
        <time>2026-06-30T08:48:17.000Z</time>
      </trkpt>
      <trkpt lat="42.73177" lon="0.65498">
        <ele>1729</ele>
        <time>2026-06-30T08:48:22.000Z</time>
      </trkpt>
      <trkpt lat="42.73172" lon="0.65505">
        <ele>1730</ele>
        <time>2026-06-30T08:48:27.000Z</time>
      </trkpt>
      <trkpt lat="42.73167" lon="0.65515">
        <ele>1729</ele>
        <time>2026-06-30T08:48:32.000Z</time>
      </trkpt>
      <trkpt lat="42.7316" lon="0.65523">
        <ele>1730</ele>
        <time>2026-06-30T08:48:37.000Z</time>
      </trkpt>
      <trkpt lat="42.73155" lon="0.6553">
        <ele>1730</ele>
        <time>2026-06-30T08:48:42.000Z</time>
      </trkpt>
      <trkpt lat="42.7315" lon="0.6554">
        <ele>1731</ele>
        <time>2026-06-30T08:48:47.000Z</time>
      </trkpt>
      <trkpt lat="42.73144" lon="0.65548">
        <ele>1732</ele>
        <time>2026-06-30T08:48:52.000Z</time>
      </trkpt>
      <trkpt lat="42.73139" lon="0.65554">
        <ele>1733</ele>
        <time>2026-06-30T08:48:57.000Z</time>
      </trkpt>
      <trkpt lat="42.73133" lon="0.65562">
        <ele>1734</ele>
        <time>2026-06-30T08:49:02.000Z</time>
      </trkpt>
      <trkpt lat="42.73127" lon="0.6557">
        <ele>1735</ele>
        <time>2026-06-30T08:49:07.000Z</time>
      </trkpt>
      <trkpt lat="42.73121" lon="0.65577">
        <ele>1735</ele>
        <time>2026-06-30T08:49:12.000Z</time>
      </trkpt>
      <trkpt lat="42.73115" lon="0.65583">
        <ele>1736</ele>
        <time>2026-06-30T08:49:17.000Z</time>
      </trkpt>
      <trkpt lat="42.7311" lon="0.65591">
        <ele>1736</ele>
        <time>2026-06-30T08:49:22.000Z</time>
      </trkpt>
      <trkpt lat="42.73107" lon="0.65601">
        <ele>1738</ele>
        <time>2026-06-30T08:49:27.000Z</time>
      </trkpt>
      <trkpt lat="42.73102" lon="0.6561">
        <ele>1738</ele>
        <time>2026-06-30T08:49:32.000Z</time>
      </trkpt>
      <trkpt lat="42.73099" lon="0.65622">
        <ele>1739</ele>
        <time>2026-06-30T08:49:37.000Z</time>
      </trkpt>
      <trkpt lat="42.73094" lon="0.65631">
        <ele>1739</ele>
        <time>2026-06-30T08:49:42.000Z</time>
      </trkpt>
      <trkpt lat="42.73089" lon="0.65639">
        <ele>1740</ele>
        <time>2026-06-30T08:49:47.000Z</time>
      </trkpt>
      <trkpt lat="42.7308" lon="0.65646">
        <ele>1739</ele>
        <time>2026-06-30T08:49:52.000Z</time>
      </trkpt>
      <trkpt lat="42.73072" lon="0.65648">
        <ele>1739</ele>
        <time>2026-06-30T08:49:57.000Z</time>
      </trkpt>
      <trkpt lat="42.73065" lon="0.6565">
        <ele>1739</ele>
        <time>2026-06-30T08:50:02.000Z</time>
      </trkpt>
      <trkpt lat="42.73058" lon="0.65655">
        <ele>1740</ele>
        <time>2026-06-30T08:50:07.000Z</time>
      </trkpt>
      <trkpt lat="42.73052" lon="0.65662">
        <ele>1740</ele>
        <time>2026-06-30T08:50:12.000Z</time>
      </trkpt>
      <trkpt lat="42.73046" lon="0.65671">
        <ele>1741</ele>
        <time>2026-06-30T08:50:17.000Z</time>
      </trkpt>
      <trkpt lat="42.73042" lon="0.6568">
        <ele>1741</ele>
        <time>2026-06-30T08:50:22.000Z</time>
      </trkpt>
      <trkpt lat="42.73039" lon="0.65694">
        <ele>1742</ele>
        <time>2026-06-30T08:50:27.000Z</time>
      </trkpt>
      <trkpt lat="42.73038" lon="0.65707">
        <ele>1744</ele>
        <time>2026-06-30T08:50:32.000Z</time>
      </trkpt>
      <trkpt lat="42.73038" lon="0.6572">
        <ele>1747</ele>
        <time>2026-06-30T08:50:37.000Z</time>
      </trkpt>
      <trkpt lat="42.73036" lon="0.65735">
        <ele>1749</ele>
        <time>2026-06-30T08:50:42.000Z</time>
      </trkpt>
      <trkpt lat="42.73033" lon="0.65749">
        <ele>1751</ele>
        <time>2026-06-30T08:50:47.000Z</time>
      </trkpt>
      <trkpt lat="42.73025" lon="0.65756">
        <ele>1751</ele>
        <time>2026-06-30T08:50:52.000Z</time>
      </trkpt>
      <trkpt lat="42.73017" lon="0.65759">
        <ele>1750</ele>
        <time>2026-06-30T08:50:57.000Z</time>
      </trkpt>
      <trkpt lat="42.73008" lon="0.65763">
        <ele>1751</ele>
        <time>2026-06-30T08:51:02.000Z</time>
      </trkpt>
      <trkpt lat="42.73001" lon="0.65768">
        <ele>1752</ele>
        <time>2026-06-30T08:51:07.000Z</time>
      </trkpt>
      <trkpt lat="42.72993" lon="0.65776">
        <ele>1753</ele>
        <time>2026-06-30T08:51:12.000Z</time>
      </trkpt>
      <trkpt lat="42.72986" lon="0.65784">
        <ele>1753</ele>
        <time>2026-06-30T08:51:17.000Z</time>
      </trkpt>
      <trkpt lat="42.72979" lon="0.65792">
        <ele>1755</ele>
        <time>2026-06-30T08:51:22.000Z</time>
      </trkpt>
      <trkpt lat="42.72973" lon="0.65802">
        <ele>1755</ele>
        <time>2026-06-30T08:51:27.000Z</time>
      </trkpt>
      <trkpt lat="42.72967" lon="0.65816">
        <ele>1753</ele>
        <time>2026-06-30T08:51:32.000Z</time>
      </trkpt>
      <trkpt lat="42.72961" lon="0.6583">
        <ele>1754</ele>
        <time>2026-06-30T08:51:37.000Z</time>
      </trkpt>
      <trkpt lat="42.72952" lon="0.65841">
        <ele>1754</ele>
        <time>2026-06-30T08:51:42.000Z</time>
      </trkpt>
      <trkpt lat="42.72946" lon="0.65851">
        <ele>1755</ele>
        <time>2026-06-30T08:51:47.000Z</time>
      </trkpt>
      <trkpt lat="42.72938" lon="0.65864">
        <ele>1755</ele>
        <time>2026-06-30T08:51:52.000Z</time>
      </trkpt>
      <trkpt lat="42.72932" lon="0.65875">
        <ele>1755</ele>
        <time>2026-06-30T08:51:57.000Z</time>
      </trkpt>
      <trkpt lat="42.72925" lon="0.65886">
        <ele>1755</ele>
        <time>2026-06-30T08:52:02.000Z</time>
      </trkpt>
      <trkpt lat="42.7292" lon="0.65895">
        <ele>1758</ele>
        <time>2026-06-30T08:52:07.000Z</time>
      </trkpt>
      <trkpt lat="42.72913" lon="0.65904">
        <ele>1759</ele>
        <time>2026-06-30T08:52:12.000Z</time>
      </trkpt>
      <trkpt lat="42.72906" lon="0.65915">
        <ele>1760</ele>
        <time>2026-06-30T08:52:17.000Z</time>
      </trkpt>
      <trkpt lat="42.72898" lon="0.65927">
        <ele>1760</ele>
        <time>2026-06-30T08:52:22.000Z</time>
      </trkpt>
      <trkpt lat="42.72889" lon="0.65935">
        <ele>1761</ele>
        <time>2026-06-30T08:52:27.000Z</time>
      </trkpt>
      <trkpt lat="42.72882" lon="0.65946">
        <ele>1762</ele>
        <time>2026-06-30T08:52:32.000Z</time>
      </trkpt>
      <trkpt lat="42.72874" lon="0.65956">
        <ele>1762</ele>
        <time>2026-06-30T08:52:37.000Z</time>
      </trkpt>
      <trkpt lat="42.72865" lon="0.65968">
        <ele>1763</ele>
        <time>2026-06-30T08:52:42.000Z</time>
      </trkpt>
      <trkpt lat="42.72856" lon="0.6598">
        <ele>1761</ele>
        <time>2026-06-30T08:52:47.000Z</time>
      </trkpt>
      <trkpt lat="42.72846" lon="0.65991">
        <ele>1761</ele>
        <time>2026-06-30T08:52:52.000Z</time>
      </trkpt>
      <trkpt lat="42.72836" lon="0.66005">
        <ele>1761</ele>
        <time>2026-06-30T08:52:57.000Z</time>
      </trkpt>
      <trkpt lat="42.7283" lon="0.66021">
        <ele>1761</ele>
        <time>2026-06-30T08:53:02.000Z</time>
      </trkpt>
      <trkpt lat="42.72821" lon="0.66034">
        <ele>1763</ele>
        <time>2026-06-30T08:53:07.000Z</time>
      </trkpt>
      <trkpt lat="42.72812" lon="0.66039">
        <ele>1764</ele>
        <time>2026-06-30T08:53:12.000Z</time>
      </trkpt>
      <trkpt lat="42.72802" lon="0.66044">
        <ele>1765</ele>
        <time>2026-06-30T08:53:17.000Z</time>
      </trkpt>
      <trkpt lat="42.72794" lon="0.6605">
        <ele>1766</ele>
        <time>2026-06-30T08:53:22.000Z</time>
      </trkpt>
      <trkpt lat="42.72783" lon="0.66056">
        <ele>1765</ele>
        <time>2026-06-30T08:53:27.000Z</time>
      </trkpt>
      <trkpt lat="42.72775" lon="0.66063">
        <ele>1766</ele>
        <time>2026-06-30T08:53:32.000Z</time>
      </trkpt>
      <trkpt lat="42.72766" lon="0.6607">
        <ele>1765</ele>
        <time>2026-06-30T08:53:37.000Z</time>
      </trkpt>
      <trkpt lat="42.72758" lon="0.66079">
        <ele>1765</ele>
        <time>2026-06-30T08:53:42.000Z</time>
      </trkpt>
      <trkpt lat="42.72747" lon="0.66091">
        <ele>1766</ele>
        <time>2026-06-30T08:53:47.000Z</time>
      </trkpt>
      <trkpt lat="42.72735" lon="0.661">
        <ele>1767</ele>
        <time>2026-06-30T08:53:52.000Z</time>
      </trkpt>
      <trkpt lat="42.72726" lon="0.66108">
        <ele>1767</ele>
        <time>2026-06-30T08:53:57.000Z</time>
      </trkpt>
      <trkpt lat="42.72716" lon="0.66119">
        <ele>1768</ele>
        <time>2026-06-30T08:54:02.000Z</time>
      </trkpt>
      <trkpt lat="42.72703" lon="0.66129">
        <ele>1767</ele>
        <time>2026-06-30T08:54:07.000Z</time>
      </trkpt>
      <trkpt lat="42.72692" lon="0.66137">
        <ele>1767</ele>
        <time>2026-06-30T08:54:12.000Z</time>
      </trkpt>
      <trkpt lat="42.72681" lon="0.66142">
        <ele>1768</ele>
        <time>2026-06-30T08:54:17.000Z</time>
      </trkpt>
      <trkpt lat="42.72672" lon="0.66149">
        <ele>1768</ele>
        <time>2026-06-30T08:54:22.000Z</time>
      </trkpt>
      <trkpt lat="42.72661" lon="0.66156">
        <ele>1768</ele>
        <time>2026-06-30T08:54:27.000Z</time>
      </trkpt>
      <trkpt lat="42.72651" lon="0.66162">
        <ele>1768</ele>
        <time>2026-06-30T08:54:32.000Z</time>
      </trkpt>
      <trkpt lat="42.7264" lon="0.66165">
        <ele>1769</ele>
        <time>2026-06-30T08:54:37.000Z</time>
      </trkpt>
      <trkpt lat="42.72629" lon="0.6617">
        <ele>1770</ele>
        <time>2026-06-30T08:54:42.000Z</time>
      </trkpt>
      <trkpt lat="42.72618" lon="0.66173">
        <ele>1770</ele>
        <time>2026-06-30T08:54:47.000Z</time>
      </trkpt>
      <trkpt lat="42.72608" lon="0.66177">
        <ele>1771</ele>
        <time>2026-06-30T08:54:52.000Z</time>
      </trkpt>
      <trkpt lat="42.72596" lon="0.6618">
        <ele>1772</ele>
        <time>2026-06-30T08:54:57.000Z</time>
      </trkpt>
      <trkpt lat="42.72586" lon="0.66183">
        <ele>1774</ele>
        <time>2026-06-30T08:55:02.000Z</time>
      </trkpt>
      <trkpt lat="42.72577" lon="0.66188">
        <ele>1774</ele>
        <time>2026-06-30T08:55:07.000Z</time>
      </trkpt>
      <trkpt lat="42.72567" lon="0.66193">
        <ele>1774</ele>
        <time>2026-06-30T08:55:12.000Z</time>
      </trkpt>
      <trkpt lat="42.72557" lon="0.66198">
        <ele>1774</ele>
        <time>2026-06-30T08:55:17.000Z</time>
      </trkpt>
      <trkpt lat="42.72549" lon="0.66206">
        <ele>1774</ele>
        <time>2026-06-30T08:55:22.000Z</time>
      </trkpt>
      <trkpt lat="42.7254" lon="0.66216">
        <ele>1774</ele>
        <time>2026-06-30T08:55:27.000Z</time>
      </trkpt>
      <trkpt lat="42.72532" lon="0.66227">
        <ele>1775</ele>
        <time>2026-06-30T08:55:32.000Z</time>
      </trkpt>
      <trkpt lat="42.72525" lon="0.6624">
        <ele>1774</ele>
        <time>2026-06-30T08:55:37.000Z</time>
      </trkpt>
      <trkpt lat="42.72517" lon="0.66253">
        <ele>1774</ele>
        <time>2026-06-30T08:55:42.000Z</time>
      </trkpt>
      <trkpt lat="42.72508" lon="0.66266">
        <ele>1774</ele>
        <time>2026-06-30T08:55:47.000Z</time>
      </trkpt>
      <trkpt lat="42.72499" lon="0.6628">
        <ele>1776</ele>
        <time>2026-06-30T08:55:52.000Z</time>
      </trkpt>
      <trkpt lat="42.7249" lon="0.66293">
        <ele>1775</ele>
        <time>2026-06-30T08:55:57.000Z</time>
      </trkpt>
      <trkpt lat="42.7248" lon="0.66305">
        <ele>1775</ele>
        <time>2026-06-30T08:56:02.000Z</time>
      </trkpt>
      <trkpt lat="42.72469" lon="0.66317">
        <ele>1776</ele>
        <time>2026-06-30T08:56:07.000Z</time>
      </trkpt>
      <trkpt lat="42.72456" lon="0.66326">
        <ele>1775</ele>
        <time>2026-06-30T08:56:12.000Z</time>
      </trkpt>
      <trkpt lat="42.72447" lon="0.66333">
        <ele>1775</ele>
        <time>2026-06-30T08:56:17.000Z</time>
      </trkpt>
      <trkpt lat="42.72438" lon="0.6634">
        <ele>1775</ele>
        <time>2026-06-30T08:56:22.000Z</time>
      </trkpt>
      <trkpt lat="42.72431" lon="0.66347">
        <ele>1774</ele>
        <time>2026-06-30T08:56:27.000Z</time>
      </trkpt>
      <trkpt lat="42.72429" lon="0.66347">
        <ele>1775</ele>
        <time>2026-06-30T08:56:32.000Z</time>
      </trkpt>
      <trkpt lat="42.72429" lon="0.66347">
        <ele>1775</ele>
        <time>2026-06-30T08:56:37.000Z</time>
      </trkpt>
      <trkpt lat="42.72429" lon="0.66347">
        <ele>1775</ele>
        <time>2026-06-30T08:56:42.000Z</time>
      </trkpt>
      <trkpt lat="42.72429" lon="0.66347">
        <ele>1775</ele>
        <time>2026-06-30T08:56:47.000Z</time>
      </trkpt>
      <trkpt lat="42.72429" lon="0.66347">
        <ele>1775</ele>
        <time>2026-06-30T08:56:52.000Z</time>
      </trkpt>
      <trkpt lat="42.72429" lon="0.66347">
        <ele>1775</ele>
        <time>2026-06-30T08:56:57.000Z</time>
      </trkpt>
      <trkpt lat="42.72429" lon="0.66347">
        <ele>1775</ele>
        <time>2026-06-30T08:57:02.000Z</time>
      </trkpt>
      <trkpt lat="42.72429" lon="0.66347">
        <ele>1775</ele>
        <time>2026-06-30T08:57:07.000Z</time>
      </trkpt>
      <trkpt lat="42.72429" lon="0.66347">
        <ele>1775</ele>
        <time>2026-06-30T08:57:12.000Z</time>
      </trkpt>
      <trkpt lat="42.72429" lon="0.66347">
        <ele>1775</ele>
        <time>2026-06-30T08:57:17.000Z</time>
      </trkpt>
      <trkpt lat="42.72429" lon="0.66347">
        <ele>1775</ele>
        <time>2026-06-30T08:57:22.000Z</time>
      </trkpt>
      <trkpt lat="42.72429" lon="0.66347">
        <ele>1775</ele>
        <time>2026-06-30T08:57:27.000Z</time>
      </trkpt>
      <trkpt lat="42.72429" lon="0.66347">
        <ele>1775</ele>
        <time>2026-06-30T08:57:32.000Z</time>
      </trkpt>
      <trkpt lat="42.72429" lon="0.66348">
        <ele>1776</ele>
        <time>2026-06-30T08:57:37.000Z</time>
      </trkpt>
      <trkpt lat="42.72428" lon="0.6635">
        <ele>1777</ele>
        <time>2026-06-30T08:57:42.000Z</time>
      </trkpt>
      <trkpt lat="42.72418" lon="0.66358">
        <ele>1776</ele>
        <time>2026-06-30T08:57:47.000Z</time>
      </trkpt>
      <trkpt lat="42.72402" lon="0.66372">
        <ele>1776</ele>
        <time>2026-06-30T08:57:52.000Z</time>
      </trkpt>
      <trkpt lat="42.72385" lon="0.66389">
        <ele>1778</ele>
        <time>2026-06-30T08:57:57.000Z</time>
      </trkpt>
      <trkpt lat="42.72365" lon="0.66399">
        <ele>1778</ele>
        <time>2026-06-30T08:58:02.000Z</time>
      </trkpt>
      <trkpt lat="42.72348" lon="0.66405">
        <ele>1777</ele>
        <time>2026-06-30T08:58:07.000Z</time>
      </trkpt>
      <trkpt lat="42.72345" lon="0.66409">
        <ele>1777</ele>
        <time>2026-06-30T08:58:12.000Z</time>
      </trkpt>
      <trkpt lat="42.72345" lon="0.66409">
        <ele>1777</ele>
        <time>2026-06-30T08:58:17.000Z</time>
      </trkpt>
      <trkpt lat="42.72345" lon="0.66409">
        <ele>1777</ele>
        <time>2026-06-30T08:58:22.000Z</time>
      </trkpt>
      <trkpt lat="42.72345" lon="0.66409">
        <ele>1777</ele>
        <time>2026-06-30T08:58:27.000Z</time>
      </trkpt>
      <trkpt lat="42.72345" lon="0.66409">
        <ele>1777</ele>
        <time>2026-06-30T08:58:32.000Z</time>
      </trkpt>
      <trkpt lat="42.72345" lon="0.66409">
        <ele>1777</ele>
        <time>2026-06-30T08:58:37.000Z</time>
      </trkpt>
      <trkpt lat="42.72345" lon="0.66409">
        <ele>1777</ele>
        <time>2026-06-30T08:58:42.000Z</time>
      </trkpt>
      <trkpt lat="42.72345" lon="0.66409">
        <ele>1777</ele>
        <time>2026-06-30T08:58:47.000Z</time>
      </trkpt>
      <trkpt lat="42.72345" lon="0.66409">
        <ele>1777</ele>
        <time>2026-06-30T08:58:52.000Z</time>
      </trkpt>
      <trkpt lat="42.72345" lon="0.66409">
        <ele>1777</ele>
        <time>2026-06-30T08:58:57.000Z</time>
      </trkpt>
      <trkpt lat="42.72345" lon="0.66409">
        <ele>1777</ele>
        <time>2026-06-30T08:59:02.000Z</time>
      </trkpt>
      <trkpt lat="42.72345" lon="0.66409">
        <ele>1777</ele>
        <time>2026-06-30T08:59:07.000Z</time>
      </trkpt>
      <trkpt lat="42.72345" lon="0.66409">
        <ele>1777</ele>
        <time>2026-06-30T08:59:12.000Z</time>
      </trkpt>
      <trkpt lat="42.72345" lon="0.66409">
        <ele>1777</ele>
        <time>2026-06-30T08:59:17.000Z</time>
      </trkpt>
      <trkpt lat="42.72341" lon="0.66411">
        <ele>1776</ele>
        <time>2026-06-30T08:59:22.000Z</time>
      </trkpt>
      <trkpt lat="42.72332" lon="0.66416">
        <ele>1776</ele>
        <time>2026-06-30T08:59:27.000Z</time>
      </trkpt>
      <trkpt lat="42.7232" lon="0.66426">
        <ele>1775</ele>
        <time>2026-06-30T08:59:32.000Z</time>
      </trkpt>
      <trkpt lat="42.72306" lon="0.66436">
        <ele>1774</ele>
        <time>2026-06-30T08:59:37.000Z</time>
      </trkpt>
      <trkpt lat="42.72294" lon="0.66448">
        <ele>1774</ele>
        <time>2026-06-30T08:59:42.000Z</time>
      </trkpt>
      <trkpt lat="42.72279" lon="0.66454">
        <ele>1776</ele>
        <time>2026-06-30T08:59:47.000Z</time>
      </trkpt>
      <trkpt lat="42.72268" lon="0.6644">
        <ele>1778</ele>
        <time>2026-06-30T08:59:52.000Z</time>
      </trkpt>
      <trkpt lat="42.72259" lon="0.66431">
        <ele>1779</ele>
        <time>2026-06-30T08:59:57.000Z</time>
      </trkpt>
      <trkpt lat="42.72248" lon="0.66428">
        <ele>1779</ele>
        <time>2026-06-30T09:00:02.000Z</time>
      </trkpt>
      <trkpt lat="42.72239" lon="0.66429">
        <ele>1780</ele>
        <time>2026-06-30T09:00:07.000Z</time>
      </trkpt>
      <trkpt lat="42.72229" lon="0.66435">
        <ele>1780</ele>
        <time>2026-06-30T09:00:12.000Z</time>
      </trkpt>
      <trkpt lat="42.7222" lon="0.66442">
        <ele>1780</ele>
        <time>2026-06-30T09:00:17.000Z</time>
      </trkpt>
      <trkpt lat="42.72212" lon="0.66451">
        <ele>1780</ele>
        <time>2026-06-30T09:00:22.000Z</time>
      </trkpt>
      <trkpt lat="42.72206" lon="0.6646">
        <ele>1781</ele>
        <time>2026-06-30T09:00:27.000Z</time>
      </trkpt>
      <trkpt lat="42.72198" lon="0.66465">
        <ele>1782</ele>
        <time>2026-06-30T09:00:32.000Z</time>
      </trkpt>
      <trkpt lat="42.72191" lon="0.66469">
        <ele>1783</ele>
        <time>2026-06-30T09:00:37.000Z</time>
      </trkpt>
      <trkpt lat="42.72185" lon="0.66474">
        <ele>1784</ele>
        <time>2026-06-30T09:00:42.000Z</time>
      </trkpt>
      <trkpt lat="42.7218" lon="0.66476">
        <ele>1785</ele>
        <time>2026-06-30T09:00:47.000Z</time>
      </trkpt>
      <trkpt lat="42.72173" lon="0.6648">
        <ele>1786</ele>
        <time>2026-06-30T09:00:52.000Z</time>
      </trkpt>
      <trkpt lat="42.72168" lon="0.66485">
        <ele>1785</ele>
        <time>2026-06-30T09:00:57.000Z</time>
      </trkpt>
      <trkpt lat="42.72161" lon="0.66489">
        <ele>1786</ele>
        <time>2026-06-30T09:01:02.000Z</time>
      </trkpt>
      <trkpt lat="42.72154" lon="0.66493">
        <ele>1787</ele>
        <time>2026-06-30T09:01:07.000Z</time>
      </trkpt>
      <trkpt lat="42.72147" lon="0.66498">
        <ele>1788</ele>
        <time>2026-06-30T09:01:12.000Z</time>
      </trkpt>
      <trkpt lat="42.7214" lon="0.66503">
        <ele>1789</ele>
        <time>2026-06-30T09:01:17.000Z</time>
      </trkpt>
      <trkpt lat="42.72132" lon="0.66508">
        <ele>1789</ele>
        <time>2026-06-30T09:01:22.000Z</time>
      </trkpt>
      <trkpt lat="42.72125" lon="0.66513">
        <ele>1791</ele>
        <time>2026-06-30T09:01:27.000Z</time>
      </trkpt>
      <trkpt lat="42.72119" lon="0.66516">
        <ele>1794</ele>
        <time>2026-06-30T09:01:32.000Z</time>
      </trkpt>
      <trkpt lat="42.72113" lon="0.66521">
        <ele>1794</ele>
        <time>2026-06-30T09:01:37.000Z</time>
      </trkpt>
      <trkpt lat="42.72107" lon="0.66527">
        <ele>1794</ele>
        <time>2026-06-30T09:01:42.000Z</time>
      </trkpt>
      <trkpt lat="42.72102" lon="0.66532">
        <ele>1796</ele>
        <time>2026-06-30T09:01:47.000Z</time>
      </trkpt>
      <trkpt lat="42.72095" lon="0.66538">
        <ele>1798</ele>
        <time>2026-06-30T09:01:52.000Z</time>
      </trkpt>
      <trkpt lat="42.72088" lon="0.66547">
        <ele>1797</ele>
        <time>2026-06-30T09:01:57.000Z</time>
      </trkpt>
      <trkpt lat="42.72081" lon="0.66555">
        <ele>1797</ele>
        <time>2026-06-30T09:02:02.000Z</time>
      </trkpt>
      <trkpt lat="42.72073" lon="0.66561">
        <ele>1797</ele>
        <time>2026-06-30T09:02:07.000Z</time>
      </trkpt>
      <trkpt lat="42.72064" lon="0.66564">
        <ele>1798</ele>
        <time>2026-06-30T09:02:12.000Z</time>
      </trkpt>
      <trkpt lat="42.72057" lon="0.66568">
        <ele>1798</ele>
        <time>2026-06-30T09:02:17.000Z</time>
      </trkpt>
      <trkpt lat="42.7205" lon="0.66571">
        <ele>1800</ele>
        <time>2026-06-30T09:02:22.000Z</time>
      </trkpt>
      <trkpt lat="42.72043" lon="0.66574">
        <ele>1802</ele>
        <time>2026-06-30T09:02:27.000Z</time>
      </trkpt>
      <trkpt lat="42.72035" lon="0.66578">
        <ele>1804</ele>
        <time>2026-06-30T09:02:32.000Z</time>
      </trkpt>
      <trkpt lat="42.72029" lon="0.66582">
        <ele>1804</ele>
        <time>2026-06-30T09:02:37.000Z</time>
      </trkpt>
      <trkpt lat="42.72025" lon="0.66583">
        <ele>1804</ele>
        <time>2026-06-30T09:02:42.000Z</time>
      </trkpt>
      <trkpt lat="42.72025" lon="0.66583">
        <ele>1804</ele>
        <time>2026-06-30T09:02:47.000Z</time>
      </trkpt>
      <trkpt lat="42.72025" lon="0.66583">
        <ele>1804</ele>
        <time>2026-06-30T09:02:52.000Z</time>
      </trkpt>
      <trkpt lat="42.72025" lon="0.66583">
        <ele>1804</ele>
        <time>2026-06-30T09:02:57.000Z</time>
      </trkpt>
      <trkpt lat="42.72025" lon="0.66583">
        <ele>1804</ele>
        <time>2026-06-30T09:03:02.000Z</time>
      </trkpt>
      <trkpt lat="42.72025" lon="0.66583">
        <ele>1804</ele>
        <time>2026-06-30T09:03:07.000Z</time>
      </trkpt>
      <trkpt lat="42.72025" lon="0.66583">
        <ele>1804</ele>
        <time>2026-06-30T09:03:12.000Z</time>
      </trkpt>
      <trkpt lat="42.72025" lon="0.66583">
        <ele>1804</ele>
        <time>2026-06-30T09:03:17.000Z</time>
      </trkpt>
      <trkpt lat="42.72025" lon="0.66583">
        <ele>1804</ele>
        <time>2026-06-30T09:03:22.000Z</time>
      </trkpt>
      <trkpt lat="42.72025" lon="0.66583">
        <ele>1804</ele>
        <time>2026-06-30T09:03:27.000Z</time>
      </trkpt>
      <trkpt lat="42.72025" lon="0.66583">
        <ele>1804</ele>
        <time>2026-06-30T09:03:32.000Z</time>
      </trkpt>
      <trkpt lat="42.72025" lon="0.66583">
        <ele>1804</ele>
        <time>2026-06-30T09:03:37.000Z</time>
      </trkpt>
      <trkpt lat="42.72025" lon="0.66583">
        <ele>1804</ele>
        <time>2026-06-30T09:03:42.000Z</time>
      </trkpt>
      <trkpt lat="42.72025" lon="0.66583">
        <ele>1804</ele>
        <time>2026-06-30T09:03:47.000Z</time>
      </trkpt>
      <trkpt lat="42.72025" lon="0.66583">
        <ele>1804</ele>
        <time>2026-06-30T09:03:52.000Z</time>
      </trkpt>
      <trkpt lat="42.72025" lon="0.66583">
        <ele>1804</ele>
        <time>2026-06-30T09:03:57.000Z</time>
      </trkpt>
      <trkpt lat="42.72025" lon="0.66583">
        <ele>1804</ele>
        <time>2026-06-30T09:04:02.000Z</time>
      </trkpt>
      <trkpt lat="42.72025" lon="0.66583">
        <ele>1804</ele>
        <time>2026-06-30T09:04:07.000Z</time>
      </trkpt>
      <trkpt lat="42.72025" lon="0.66585">
        <ele>1805</ele>
        <time>2026-06-30T09:04:12.000Z</time>
      </trkpt>
      <trkpt lat="42.72026" lon="0.66586">
        <ele>1806</ele>
        <time>2026-06-30T09:04:17.000Z</time>
      </trkpt>
      <trkpt lat="42.72026" lon="0.66586">
        <ele>1806</ele>
        <time>2026-06-30T09:04:22.000Z</time>
      </trkpt>
      <trkpt lat="42.72026" lon="0.66586">
        <ele>1806</ele>
        <time>2026-06-30T09:04:27.000Z</time>
      </trkpt>
      <trkpt lat="42.72026" lon="0.66586">
        <ele>1806</ele>
        <time>2026-06-30T09:04:32.000Z</time>
      </trkpt>
      <trkpt lat="42.72026" lon="0.66586">
        <ele>1806</ele>
        <time>2026-06-30T09:04:37.000Z</time>
      </trkpt>
      <trkpt lat="42.72026" lon="0.66586">
        <ele>1806</ele>
        <time>2026-06-30T09:04:42.000Z</time>
      </trkpt>
      <trkpt lat="42.72026" lon="0.66586">
        <ele>1806</ele>
        <time>2026-06-30T09:04:47.000Z</time>
      </trkpt>
      <trkpt lat="42.72026" lon="0.66589">
        <ele>1808</ele>
        <time>2026-06-30T09:04:52.000Z</time>
      </trkpt>
      <trkpt lat="42.72027" lon="0.6659">
        <ele>1808</ele>
        <time>2026-06-30T09:04:57.000Z</time>
      </trkpt>
      <trkpt lat="42.72027" lon="0.6659">
        <ele>1808</ele>
        <time>2026-06-30T09:05:02.000Z</time>
      </trkpt>
      <trkpt lat="42.72027" lon="0.6659">
        <ele>1808</ele>
        <time>2026-06-30T09:05:07.000Z</time>
      </trkpt>
      <trkpt lat="42.72027" lon="0.6659">
        <ele>1808</ele>
        <time>2026-06-30T09:05:12.000Z</time>
      </trkpt>
      <trkpt lat="42.72027" lon="0.6659">
        <ele>1808</ele>
        <time>2026-06-30T09:05:17.000Z</time>
      </trkpt>
      <trkpt lat="42.72027" lon="0.6659">
        <ele>1808</ele>
        <time>2026-06-30T09:05:22.000Z</time>
      </trkpt>
      <trkpt lat="42.72027" lon="0.6659">
        <ele>1808</ele>
        <time>2026-06-30T09:05:27.000Z</time>
      </trkpt>
      <trkpt lat="42.72027" lon="0.6659">
        <ele>1808</ele>
        <time>2026-06-30T09:05:32.000Z</time>
      </trkpt>
      <trkpt lat="42.72027" lon="0.6659">
        <ele>1808</ele>
        <time>2026-06-30T09:05:37.000Z</time>
      </trkpt>
      <trkpt lat="42.72027" lon="0.6659">
        <ele>1808</ele>
        <time>2026-06-30T09:05:42.000Z</time>
      </trkpt>
      <trkpt lat="42.72027" lon="0.6659">
        <ele>1808</ele>
        <time>2026-06-30T09:05:47.000Z</time>
      </trkpt>
      <trkpt lat="42.72027" lon="0.6659">
        <ele>1808</ele>
        <time>2026-06-30T09:05:52.000Z</time>
      </trkpt>
      <trkpt lat="42.72027" lon="0.6659">
        <ele>1808</ele>
        <time>2026-06-30T09:05:57.000Z</time>
      </trkpt>
      <trkpt lat="42.72027" lon="0.6659">
        <ele>1808</ele>
        <time>2026-06-30T09:06:02.000Z</time>
      </trkpt>
      <trkpt lat="42.72027" lon="0.6659">
        <ele>1808</ele>
        <time>2026-06-30T09:06:07.000Z</time>
      </trkpt>
      <trkpt lat="42.72027" lon="0.6659">
        <ele>1808</ele>
        <time>2026-06-30T09:06:12.000Z</time>
      </trkpt>
      <trkpt lat="42.72027" lon="0.6659">
        <ele>1808</ele>
        <time>2026-06-30T09:06:17.000Z</time>
      </trkpt>
      <trkpt lat="42.72027" lon="0.6659">
        <ele>1808</ele>
        <time>2026-06-30T09:06:22.000Z</time>
      </trkpt>
      <trkpt lat="42.72027" lon="0.6659">
        <ele>1808</ele>
        <time>2026-06-30T09:06:27.000Z</time>
      </trkpt>
      <trkpt lat="42.72027" lon="0.6659">
        <ele>1808</ele>
        <time>2026-06-30T09:06:32.000Z</time>
      </trkpt>
      <trkpt lat="42.72027" lon="0.6659">
        <ele>1808</ele>
        <time>2026-06-30T09:06:37.000Z</time>
      </trkpt>
      <trkpt lat="42.72027" lon="0.6659">
        <ele>1808</ele>
        <time>2026-06-30T09:06:42.000Z</time>
      </trkpt>
      <trkpt lat="42.72027" lon="0.6659">
        <ele>1808</ele>
        <time>2026-06-30T09:06:47.000Z</time>
      </trkpt>
      <trkpt lat="42.72027" lon="0.6659">
        <ele>1808</ele>
        <time>2026-06-30T09:06:52.000Z</time>
      </trkpt>
      <trkpt lat="42.72027" lon="0.6659">
        <ele>1808</ele>
        <time>2026-06-30T09:06:57.000Z</time>
      </trkpt>
      <trkpt lat="42.72027" lon="0.6659">
        <ele>1808</ele>
        <time>2026-06-30T09:07:02.000Z</time>
      </trkpt>
      <trkpt lat="42.72027" lon="0.6659">
        <ele>1808</ele>
        <time>2026-06-30T09:07:07.000Z</time>
      </trkpt>
      <trkpt lat="42.72027" lon="0.6659">
        <ele>1808</ele>
        <time>2026-06-30T09:07:12.000Z</time>
      </trkpt>
      <trkpt lat="42.72027" lon="0.6659">
        <ele>1808</ele>
        <time>2026-06-30T09:07:17.000Z</time>
      </trkpt>
      <trkpt lat="42.72027" lon="0.6659">
        <ele>1808</ele>
        <time>2026-06-30T09:07:22.000Z</time>
      </trkpt>
      <trkpt lat="42.72027" lon="0.6659">
        <ele>1808</ele>
        <time>2026-06-30T09:07:27.000Z</time>
      </trkpt>
      <trkpt lat="42.72027" lon="0.6659">
        <ele>1808</ele>
        <time>2026-06-30T09:07:32.000Z</time>
      </trkpt>
      <trkpt lat="42.72027" lon="0.6659">
        <ele>1808</ele>
        <time>2026-06-30T09:07:37.000Z</time>
      </trkpt>
      <trkpt lat="42.72027" lon="0.6659">
        <ele>1808</ele>
        <time>2026-06-30T09:07:42.000Z</time>
      </trkpt>
      <trkpt lat="42.72027" lon="0.6659">
        <ele>1808</ele>
        <time>2026-06-30T09:07:47.000Z</time>
      </trkpt>
      <trkpt lat="42.72027" lon="0.6659">
        <ele>1808</ele>
        <time>2026-06-30T09:07:52.000Z</time>
      </trkpt>
      <trkpt lat="42.72027" lon="0.6659">
        <ele>1808</ele>
        <time>2026-06-30T09:07:57.000Z</time>
      </trkpt>
      <trkpt lat="42.72027" lon="0.6659">
        <ele>1808</ele>
        <time>2026-06-30T09:08:02.000Z</time>
      </trkpt>
      <trkpt lat="42.72027" lon="0.6659">
        <ele>1808</ele>
        <time>2026-06-30T09:08:07.000Z</time>
      </trkpt>
      <trkpt lat="42.72026" lon="0.66591">
        <ele>1807</ele>
        <time>2026-06-30T09:08:12.000Z</time>
      </trkpt>
      <trkpt lat="42.7202" lon="0.66596">
        <ele>1805</ele>
        <time>2026-06-30T09:08:17.000Z</time>
      </trkpt>
      <trkpt lat="42.72011" lon="0.66604">
        <ele>1806</ele>
        <time>2026-06-30T09:08:22.000Z</time>
      </trkpt>
      <trkpt lat="42.71997" lon="0.66617">
        <ele>1804</ele>
        <time>2026-06-30T09:08:27.000Z</time>
      </trkpt>
      <trkpt lat="42.71978" lon="0.6664">
        <ele>1801</ele>
        <time>2026-06-30T09:08:32.000Z</time>
      </trkpt>
      <trkpt lat="42.71955" lon="0.66667">
        <ele>1798</ele>
        <time>2026-06-30T09:08:37.000Z</time>
      </trkpt>
      <trkpt lat="42.71933" lon="0.66699">
        <ele>1796</ele>
        <time>2026-06-30T09:08:42.000Z</time>
      </trkpt>
      <trkpt lat="42.71907" lon="0.66729">
        <ele>1796</ele>
        <time>2026-06-30T09:08:47.000Z</time>
      </trkpt>
      <trkpt lat="42.71879" lon="0.66755">
        <ele>1797</ele>
        <time>2026-06-30T09:08:52.000Z</time>
      </trkpt>
      <trkpt lat="42.71857" lon="0.66766">
        <ele>1797</ele>
        <time>2026-06-30T09:08:57.000Z</time>
      </trkpt>
      <trkpt lat="42.71853" lon="0.66775">
        <ele>1797</ele>
        <time>2026-06-30T09:09:02.000Z</time>
      </trkpt>
      <trkpt lat="42.71853" lon="0.66785">
        <ele>1798</ele>
        <time>2026-06-30T09:09:07.000Z</time>
      </trkpt>
      <trkpt lat="42.71853" lon="0.66793">
        <ele>1798</ele>
        <time>2026-06-30T09:09:12.000Z</time>
      </trkpt>
      <trkpt lat="42.71854" lon="0.668">
        <ele>1799</ele>
        <time>2026-06-30T09:09:17.000Z</time>
      </trkpt>
      <trkpt lat="42.71854" lon="0.66808">
        <ele>1800</ele>
        <time>2026-06-30T09:09:22.000Z</time>
      </trkpt>
      <trkpt lat="42.71856" lon="0.66816">
        <ele>1800</ele>
        <time>2026-06-30T09:09:27.000Z</time>
      </trkpt>
      <trkpt lat="42.71856" lon="0.66818">
        <ele>1800</ele>
        <time>2026-06-30T09:09:32.000Z</time>
      </trkpt>
      <trkpt lat="42.71856" lon="0.66818">
        <ele>1800</ele>
        <time>2026-06-30T09:09:37.000Z</time>
      </trkpt>
      <trkpt lat="42.71855" lon="0.66827">
        <ele>1801</ele>
        <time>2026-06-30T09:09:42.000Z</time>
      </trkpt>
      <trkpt lat="42.71855" lon="0.66837">
        <ele>1802</ele>
        <time>2026-06-30T09:09:47.000Z</time>
      </trkpt>
      <trkpt lat="42.71856" lon="0.66847">
        <ele>1803</ele>
        <time>2026-06-30T09:09:52.000Z</time>
      </trkpt>
      <trkpt lat="42.71857" lon="0.66856">
        <ele>1803</ele>
        <time>2026-06-30T09:09:57.000Z</time>
      </trkpt>
      <trkpt lat="42.71857" lon="0.66866">
        <ele>1803</ele>
        <time>2026-06-30T09:10:02.000Z</time>
      </trkpt>
      <trkpt lat="42.71857" lon="0.66876">
        <ele>1803</ele>
        <time>2026-06-30T09:10:07.000Z</time>
      </trkpt>
      <trkpt lat="42.71855" lon="0.66886">
        <ele>1804</ele>
        <time>2026-06-30T09:10:12.000Z</time>
      </trkpt>
      <trkpt lat="42.71856" lon="0.66895">
        <ele>1804</ele>
        <time>2026-06-30T09:10:17.000Z</time>
      </trkpt>
      <trkpt lat="42.71857" lon="0.66906">
        <ele>1804</ele>
        <time>2026-06-30T09:10:22.000Z</time>
      </trkpt>
      <trkpt lat="42.71857" lon="0.66915">
        <ele>1805</ele>
        <time>2026-06-30T09:10:27.000Z</time>
      </trkpt>
      <trkpt lat="42.71857" lon="0.66923">
        <ele>1806</ele>
        <time>2026-06-30T09:10:32.000Z</time>
      </trkpt>
      <trkpt lat="42.71858" lon="0.66931">
        <ele>1807</ele>
        <time>2026-06-30T09:10:37.000Z</time>
      </trkpt>
      <trkpt lat="42.71858" lon="0.66939">
        <ele>1808</ele>
        <time>2026-06-30T09:10:42.000Z</time>
      </trkpt>
      <trkpt lat="42.71859" lon="0.66947">
        <ele>1808</ele>
        <time>2026-06-30T09:10:47.000Z</time>
      </trkpt>
      <trkpt lat="42.71859" lon="0.66955">
        <ele>1809</ele>
        <time>2026-06-30T09:10:52.000Z</time>
      </trkpt>
      <trkpt lat="42.71859" lon="0.66963">
        <ele>1810</ele>
        <time>2026-06-30T09:10:57.000Z</time>
      </trkpt>
      <trkpt lat="42.71859" lon="0.66972">
        <ele>1812</ele>
        <time>2026-06-30T09:11:02.000Z</time>
      </trkpt>
      <trkpt lat="42.71857" lon="0.66979">
        <ele>1813</ele>
        <time>2026-06-30T09:11:07.000Z</time>
      </trkpt>
      <trkpt lat="42.71856" lon="0.66987">
        <ele>1814</ele>
        <time>2026-06-30T09:11:12.000Z</time>
      </trkpt>
      <trkpt lat="42.71856" lon="0.66995">
        <ele>1816</ele>
        <time>2026-06-30T09:11:17.000Z</time>
      </trkpt>
      <trkpt lat="42.71855" lon="0.67003">
        <ele>1817</ele>
        <time>2026-06-30T09:11:22.000Z</time>
      </trkpt>
      <trkpt lat="42.71854" lon="0.6701">
        <ele>1818</ele>
        <time>2026-06-30T09:11:27.000Z</time>
      </trkpt>
      <trkpt lat="42.71853" lon="0.67017">
        <ele>1819</ele>
        <time>2026-06-30T09:11:32.000Z</time>
      </trkpt>
      <trkpt lat="42.71853" lon="0.67026">
        <ele>1820</ele>
        <time>2026-06-30T09:11:37.000Z</time>
      </trkpt>
      <trkpt lat="42.71854" lon="0.67034">
        <ele>1820</ele>
        <time>2026-06-30T09:11:42.000Z</time>
      </trkpt>
      <trkpt lat="42.71853" lon="0.67041">
        <ele>1820</ele>
        <time>2026-06-30T09:11:47.000Z</time>
      </trkpt>
      <trkpt lat="42.71853" lon="0.67039">
        <ele>1821</ele>
        <time>2026-06-30T09:11:52.000Z</time>
      </trkpt>
      <trkpt lat="42.71853" lon="0.67039">
        <ele>1821</ele>
        <time>2026-06-30T09:11:57.000Z</time>
      </trkpt>
      <trkpt lat="42.71853" lon="0.67039">
        <ele>1821</ele>
        <time>2026-06-30T09:12:02.000Z</time>
      </trkpt>
      <trkpt lat="42.71853" lon="0.67039">
        <ele>1821</ele>
        <time>2026-06-30T09:12:07.000Z</time>
      </trkpt>
      <trkpt lat="42.71852" lon="0.6704">
        <ele>1823</ele>
        <time>2026-06-30T09:12:12.000Z</time>
      </trkpt>
      <trkpt lat="42.71852" lon="0.67039">
        <ele>1823</ele>
        <time>2026-06-30T09:12:17.000Z</time>
      </trkpt>
      <trkpt lat="42.71852" lon="0.67041">
        <ele>1824</ele>
        <time>2026-06-30T09:12:22.000Z</time>
      </trkpt>
      <trkpt lat="42.71852" lon="0.67051">
        <ele>1824</ele>
        <time>2026-06-30T09:12:27.000Z</time>
      </trkpt>
      <trkpt lat="42.7185" lon="0.67061">
        <ele>1827</ele>
        <time>2026-06-30T09:12:32.000Z</time>
      </trkpt>
      <trkpt lat="42.71845" lon="0.67071">
        <ele>1829</ele>
        <time>2026-06-30T09:12:37.000Z</time>
      </trkpt>
      <trkpt lat="42.71842" lon="0.67078">
        <ele>1833</ele>
        <time>2026-06-30T09:12:42.000Z</time>
      </trkpt>
      <trkpt lat="42.7184" lon="0.67084">
        <ele>1836</ele>
        <time>2026-06-30T09:12:47.000Z</time>
      </trkpt>
      <trkpt lat="42.71837" lon="0.67091">
        <ele>1838</ele>
        <time>2026-06-30T09:12:52.000Z</time>
      </trkpt>
      <trkpt lat="42.71837" lon="0.67099">
        <ele>1841</ele>
        <time>2026-06-30T09:12:57.000Z</time>
      </trkpt>
      <trkpt lat="42.71837" lon="0.67099">
        <ele>1842</ele>
        <time>2026-06-30T09:13:02.000Z</time>
      </trkpt>
      <trkpt lat="42.71837" lon="0.67099">
        <ele>1842</ele>
        <time>2026-06-30T09:13:07.000Z</time>
      </trkpt>
      <trkpt lat="42.71837" lon="0.67099">
        <ele>1842</ele>
        <time>2026-06-30T09:13:12.000Z</time>
      </trkpt>
      <trkpt lat="42.71837" lon="0.67099">
        <ele>1842</ele>
        <time>2026-06-30T09:13:17.000Z</time>
      </trkpt>
      <trkpt lat="42.71837" lon="0.67099">
        <ele>1842</ele>
        <time>2026-06-30T09:13:22.000Z</time>
      </trkpt>
      <trkpt lat="42.71837" lon="0.67099">
        <ele>1842</ele>
        <time>2026-06-30T09:13:27.000Z</time>
      </trkpt>
      <trkpt lat="42.71837" lon="0.67099">
        <ele>1842</ele>
        <time>2026-06-30T09:13:32.000Z</time>
      </trkpt>
      <trkpt lat="42.71837" lon="0.67099">
        <ele>1842</ele>
        <time>2026-06-30T09:13:37.000Z</time>
      </trkpt>
      <trkpt lat="42.71837" lon="0.67099">
        <ele>1842</ele>
        <time>2026-06-30T09:13:42.000Z</time>
      </trkpt>
      <trkpt lat="42.71837" lon="0.67099">
        <ele>1842</ele>
        <time>2026-06-30T09:13:47.000Z</time>
      </trkpt>
      <trkpt lat="42.71837" lon="0.67099">
        <ele>1842</ele>
        <time>2026-06-30T09:13:52.000Z</time>
      </trkpt>
      <trkpt lat="42.71836" lon="0.67101">
        <ele>1843</ele>
        <time>2026-06-30T09:13:57.000Z</time>
      </trkpt>
      <trkpt lat="42.71837" lon="0.67101">
        <ele>1843</ele>
        <time>2026-06-30T09:14:02.000Z</time>
      </trkpt>
      <trkpt lat="42.71837" lon="0.67101">
        <ele>1843</ele>
        <time>2026-06-30T09:14:07.000Z</time>
      </trkpt>
      <trkpt lat="42.71837" lon="0.67101">
        <ele>1843</ele>
        <time>2026-06-30T09:14:12.000Z</time>
      </trkpt>
      <trkpt lat="42.71837" lon="0.67101">
        <ele>1843</ele>
        <time>2026-06-30T09:14:17.000Z</time>
      </trkpt>
      <trkpt lat="42.71837" lon="0.67101">
        <ele>1843</ele>
        <time>2026-06-30T09:14:22.000Z</time>
      </trkpt>
      <trkpt lat="42.71837" lon="0.67101">
        <ele>1843</ele>
        <time>2026-06-30T09:14:27.000Z</time>
      </trkpt>
      <trkpt lat="42.71837" lon="0.67101">
        <ele>1843</ele>
        <time>2026-06-30T09:14:32.000Z</time>
      </trkpt>
      <trkpt lat="42.71837" lon="0.67101">
        <ele>1843</ele>
        <time>2026-06-30T09:14:37.000Z</time>
      </trkpt>
      <trkpt lat="42.71837" lon="0.67101">
        <ele>1843</ele>
        <time>2026-06-30T09:14:42.000Z</time>
      </trkpt>
      <trkpt lat="42.71837" lon="0.67101">
        <ele>1843</ele>
        <time>2026-06-30T09:14:47.000Z</time>
      </trkpt>
      <trkpt lat="42.71837" lon="0.67101">
        <ele>1843</ele>
        <time>2026-06-30T09:14:52.000Z</time>
      </trkpt>
      <trkpt lat="42.71837" lon="0.67101">
        <ele>1843</ele>
        <time>2026-06-30T09:14:57.000Z</time>
      </trkpt>
      <trkpt lat="42.71837" lon="0.67101">
        <ele>1843</ele>
        <time>2026-06-30T09:15:02.000Z</time>
      </trkpt>
      <trkpt lat="42.71837" lon="0.67101">
        <ele>1843</ele>
        <time>2026-06-30T09:15:07.000Z</time>
      </trkpt>
      <trkpt lat="42.71837" lon="0.67101">
        <ele>1843</ele>
        <time>2026-06-30T09:15:12.000Z</time>
      </trkpt>
      <trkpt lat="42.71837" lon="0.67101">
        <ele>1843</ele>
        <time>2026-06-30T09:15:17.000Z</time>
      </trkpt>
      <trkpt lat="42.71837" lon="0.67101">
        <ele>1843</ele>
        <time>2026-06-30T09:15:22.000Z</time>
      </trkpt>
      <trkpt lat="42.71837" lon="0.67101">
        <ele>1843</ele>
        <time>2026-06-30T09:15:27.000Z</time>
      </trkpt>
      <trkpt lat="42.71837" lon="0.67101">
        <ele>1843</ele>
        <time>2026-06-30T09:15:32.000Z</time>
      </trkpt>
      <trkpt lat="42.71837" lon="0.67101">
        <ele>1843</ele>
        <time>2026-06-30T09:15:37.000Z</time>
      </trkpt>
      <trkpt lat="42.71837" lon="0.67101">
        <ele>1843</ele>
        <time>2026-06-30T09:15:42.000Z</time>
      </trkpt>
      <trkpt lat="42.71837" lon="0.67101">
        <ele>1843</ele>
        <time>2026-06-30T09:15:47.000Z</time>
      </trkpt>
      <trkpt lat="42.71837" lon="0.67101">
        <ele>1843</ele>
        <time>2026-06-30T09:15:52.000Z</time>
      </trkpt>
      <trkpt lat="42.71837" lon="0.67101">
        <ele>1843</ele>
        <time>2026-06-30T09:15:57.000Z</time>
      </trkpt>
      <trkpt lat="42.71837" lon="0.67101">
        <ele>1843</ele>
        <time>2026-06-30T09:16:02.000Z</time>
      </trkpt>
      <trkpt lat="42.71837" lon="0.67101">
        <ele>1843</ele>
        <time>2026-06-30T09:16:07.000Z</time>
      </trkpt>
      <trkpt lat="42.71837" lon="0.67101">
        <ele>1843</ele>
        <time>2026-06-30T09:16:12.000Z</time>
      </trkpt>
      <trkpt lat="42.71837" lon="0.67101">
        <ele>1843</ele>
        <time>2026-06-30T09:16:17.000Z</time>
      </trkpt>
      <trkpt lat="42.71837" lon="0.67101">
        <ele>1843</ele>
        <time>2026-06-30T09:16:22.000Z</time>
      </trkpt>
      <trkpt lat="42.71837" lon="0.67101">
        <ele>1843</ele>
        <time>2026-06-30T09:16:27.000Z</time>
      </trkpt>
      <trkpt lat="42.71837" lon="0.67101">
        <ele>1843</ele>
        <time>2026-06-30T09:16:32.000Z</time>
      </trkpt>
      <trkpt lat="42.71837" lon="0.67101">
        <ele>1843</ele>
        <time>2026-06-30T09:16:37.000Z</time>
      </trkpt>
      <trkpt lat="42.71837" lon="0.67101">
        <ele>1843</ele>
        <time>2026-06-30T09:16:42.000Z</time>
      </trkpt>
      <trkpt lat="42.71837" lon="0.67101">
        <ele>1843</ele>
        <time>2026-06-30T09:16:47.000Z</time>
      </trkpt>
      <trkpt lat="42.71837" lon="0.67101">
        <ele>1843</ele>
        <time>2026-06-30T09:16:52.000Z</time>
      </trkpt>
      <trkpt lat="42.71835" lon="0.67109">
        <ele>1845</ele>
        <time>2026-06-30T09:16:57.000Z</time>
      </trkpt>
      <trkpt lat="42.71833" lon="0.67119">
        <ele>1846</ele>
        <time>2026-06-30T09:17:02.000Z</time>
      </trkpt>
      <trkpt lat="42.71832" lon="0.67127">
        <ele>1847</ele>
        <time>2026-06-30T09:17:07.000Z</time>
      </trkpt>
      <trkpt lat="42.71831" lon="0.67135">
        <ele>1848</ele>
        <time>2026-06-30T09:17:12.000Z</time>
      </trkpt>
      <trkpt lat="42.7183" lon="0.67145">
        <ele>1849</ele>
        <time>2026-06-30T09:17:17.000Z</time>
      </trkpt>
      <trkpt lat="42.71829" lon="0.67153">
        <ele>1851</ele>
        <time>2026-06-30T09:17:22.000Z</time>
      </trkpt>
      <trkpt lat="42.71827" lon="0.67162">
        <ele>1853</ele>
        <time>2026-06-30T09:17:27.000Z</time>
      </trkpt>
      <trkpt lat="42.71824" lon="0.6717">
        <ele>1853</ele>
        <time>2026-06-30T09:17:32.000Z</time>
      </trkpt>
      <trkpt lat="42.71822" lon="0.67179">
        <ele>1854</ele>
        <time>2026-06-30T09:17:37.000Z</time>
      </trkpt>
      <trkpt lat="42.71818" lon="0.67187">
        <ele>1855</ele>
        <time>2026-06-30T09:17:42.000Z</time>
      </trkpt>
      <trkpt lat="42.71815" lon="0.67194">
        <ele>1855</ele>
        <time>2026-06-30T09:17:47.000Z</time>
      </trkpt>
      <trkpt lat="42.71812" lon="0.67205">
        <ele>1856</ele>
        <time>2026-06-30T09:17:52.000Z</time>
      </trkpt>
      <trkpt lat="42.71809" lon="0.67216">
        <ele>1857</ele>
        <time>2026-06-30T09:17:57.000Z</time>
      </trkpt>
      <trkpt lat="42.71805" lon="0.67224">
        <ele>1856</ele>
        <time>2026-06-30T09:18:02.000Z</time>
      </trkpt>
      <trkpt lat="42.71801" lon="0.67234">
        <ele>1857</ele>
        <time>2026-06-30T09:18:07.000Z</time>
      </trkpt>
      <trkpt lat="42.71797" lon="0.67243">
        <ele>1859</ele>
        <time>2026-06-30T09:18:12.000Z</time>
      </trkpt>
      <trkpt lat="42.71796" lon="0.67251">
        <ele>1861</ele>
        <time>2026-06-30T09:18:17.000Z</time>
      </trkpt>
      <trkpt lat="42.71795" lon="0.67259">
        <ele>1859</ele>
        <time>2026-06-30T09:18:22.000Z</time>
      </trkpt>
      <trkpt lat="42.7179" lon="0.67267">
        <ele>1860</ele>
        <time>2026-06-30T09:18:27.000Z</time>
      </trkpt>
      <trkpt lat="42.71786" lon="0.67275">
        <ele>1862</ele>
        <time>2026-06-30T09:18:32.000Z</time>
      </trkpt>
      <trkpt lat="42.71782" lon="0.67283">
        <ele>1863</ele>
        <time>2026-06-30T09:18:37.000Z</time>
      </trkpt>
      <trkpt lat="42.7178" lon="0.67291">
        <ele>1864</ele>
        <time>2026-06-30T09:18:42.000Z</time>
      </trkpt>
      <trkpt lat="42.7178" lon="0.67296">
        <ele>1865</ele>
        <time>2026-06-30T09:18:47.000Z</time>
      </trkpt>
      <trkpt lat="42.71779" lon="0.67303">
        <ele>1867</ele>
        <time>2026-06-30T09:18:52.000Z</time>
      </trkpt>
      <trkpt lat="42.71779" lon="0.67313">
        <ele>1867</ele>
        <time>2026-06-30T09:18:57.000Z</time>
      </trkpt>
      <trkpt lat="42.71779" lon="0.67321">
        <ele>1868</ele>
        <time>2026-06-30T09:19:02.000Z</time>
      </trkpt>
      <trkpt lat="42.71777" lon="0.67326">
        <ele>1869</ele>
        <time>2026-06-30T09:19:07.000Z</time>
      </trkpt>
      <trkpt lat="42.71777" lon="0.67327">
        <ele>1869</ele>
        <time>2026-06-30T09:19:12.000Z</time>
      </trkpt>
      <trkpt lat="42.71776" lon="0.67327">
        <ele>1869</ele>
        <time>2026-06-30T09:19:17.000Z</time>
      </trkpt>
      <trkpt lat="42.71776" lon="0.67327">
        <ele>1869</ele>
        <time>2026-06-30T09:19:22.000Z</time>
      </trkpt>
      <trkpt lat="42.71776" lon="0.67327">
        <ele>1869</ele>
        <time>2026-06-30T09:19:27.000Z</time>
      </trkpt>
      <trkpt lat="42.71776" lon="0.67327">
        <ele>1869</ele>
        <time>2026-06-30T09:19:32.000Z</time>
      </trkpt>
      <trkpt lat="42.71776" lon="0.67327">
        <ele>1869</ele>
        <time>2026-06-30T09:19:37.000Z</time>
      </trkpt>
      <trkpt lat="42.71776" lon="0.67327">
        <ele>1869</ele>
        <time>2026-06-30T09:19:42.000Z</time>
      </trkpt>
      <trkpt lat="42.71776" lon="0.67327">
        <ele>1869</ele>
        <time>2026-06-30T09:19:47.000Z</time>
      </trkpt>
      <trkpt lat="42.71774" lon="0.6733">
        <ele>1871</ele>
        <time>2026-06-30T09:19:52.000Z</time>
      </trkpt>
      <trkpt lat="42.7177" lon="0.67336">
        <ele>1872</ele>
        <time>2026-06-30T09:19:57.000Z</time>
      </trkpt>
      <trkpt lat="42.71766" lon="0.67344">
        <ele>1873</ele>
        <time>2026-06-30T09:20:02.000Z</time>
      </trkpt>
      <trkpt lat="42.71763" lon="0.67351">
        <ele>1874</ele>
        <time>2026-06-30T09:20:07.000Z</time>
      </trkpt>
      <trkpt lat="42.71761" lon="0.67359">
        <ele>1875</ele>
        <time>2026-06-30T09:20:12.000Z</time>
      </trkpt>
      <trkpt lat="42.71757" lon="0.67363">
        <ele>1876</ele>
        <time>2026-06-30T09:20:17.000Z</time>
      </trkpt>
      <trkpt lat="42.71753" lon="0.67369">
        <ele>1877</ele>
        <time>2026-06-30T09:20:22.000Z</time>
      </trkpt>
      <trkpt lat="42.7175" lon="0.67377">
        <ele>1879</ele>
        <time>2026-06-30T09:20:27.000Z</time>
      </trkpt>
      <trkpt lat="42.71746" lon="0.67383">
        <ele>1880</ele>
        <time>2026-06-30T09:20:32.000Z</time>
      </trkpt>
      <trkpt lat="42.71742" lon="0.67388">
        <ele>1881</ele>
        <time>2026-06-30T09:20:37.000Z</time>
      </trkpt>
      <trkpt lat="42.7174" lon="0.67394">
        <ele>1882</ele>
        <time>2026-06-30T09:20:42.000Z</time>
      </trkpt>
      <trkpt lat="42.71738" lon="0.67401">
        <ele>1883</ele>
        <time>2026-06-30T09:20:47.000Z</time>
      </trkpt>
      <trkpt lat="42.71734" lon="0.67407">
        <ele>1883</ele>
        <time>2026-06-30T09:20:52.000Z</time>
      </trkpt>
      <trkpt lat="42.7173" lon="0.67411">
        <ele>1883</ele>
        <time>2026-06-30T09:20:57.000Z</time>
      </trkpt>
      <trkpt lat="42.71726" lon="0.67416">
        <ele>1886</ele>
        <time>2026-06-30T09:21:02.000Z</time>
      </trkpt>
      <trkpt lat="42.71724" lon="0.67422">
        <ele>1888</ele>
        <time>2026-06-30T09:21:07.000Z</time>
      </trkpt>
      <trkpt lat="42.71721" lon="0.67429">
        <ele>1889</ele>
        <time>2026-06-30T09:21:12.000Z</time>
      </trkpt>
      <trkpt lat="42.71719" lon="0.67436">
        <ele>1890</ele>
        <time>2026-06-30T09:21:17.000Z</time>
      </trkpt>
      <trkpt lat="42.71717" lon="0.67443">
        <ele>1891</ele>
        <time>2026-06-30T09:21:22.000Z</time>
      </trkpt>
      <trkpt lat="42.71715" lon="0.67451">
        <ele>1892</ele>
        <time>2026-06-30T09:21:27.000Z</time>
      </trkpt>
      <trkpt lat="42.71714" lon="0.67457">
        <ele>1894</ele>
        <time>2026-06-30T09:21:32.000Z</time>
      </trkpt>
      <trkpt lat="42.71712" lon="0.67465">
        <ele>1894</ele>
        <time>2026-06-30T09:21:37.000Z</time>
      </trkpt>
      <trkpt lat="42.71709" lon="0.67471">
        <ele>1894</ele>
        <time>2026-06-30T09:21:42.000Z</time>
      </trkpt>
      <trkpt lat="42.71705" lon="0.67477">
        <ele>1893</ele>
        <time>2026-06-30T09:21:47.000Z</time>
      </trkpt>
      <trkpt lat="42.71701" lon="0.6748">
        <ele>1893</ele>
        <time>2026-06-30T09:21:52.000Z</time>
      </trkpt>
      <trkpt lat="42.71696" lon="0.67484">
        <ele>1894</ele>
        <time>2026-06-30T09:21:57.000Z</time>
      </trkpt>
      <trkpt lat="42.71691" lon="0.67486">
        <ele>1895</ele>
        <time>2026-06-30T09:22:02.000Z</time>
      </trkpt>
      <trkpt lat="42.71685" lon="0.6749">
        <ele>1894</ele>
        <time>2026-06-30T09:22:07.000Z</time>
      </trkpt>
      <trkpt lat="42.71681" lon="0.67493">
        <ele>1896</ele>
        <time>2026-06-30T09:22:12.000Z</time>
      </trkpt>
      <trkpt lat="42.71676" lon="0.67496">
        <ele>1897</ele>
        <time>2026-06-30T09:22:17.000Z</time>
      </trkpt>
      <trkpt lat="42.71669" lon="0.67498">
        <ele>1897</ele>
        <time>2026-06-30T09:22:22.000Z</time>
      </trkpt>
      <trkpt lat="42.71665" lon="0.675">
        <ele>1898</ele>
        <time>2026-06-30T09:22:27.000Z</time>
      </trkpt>
      <trkpt lat="42.71661" lon="0.67504">
        <ele>1898</ele>
        <time>2026-06-30T09:22:32.000Z</time>
      </trkpt>
      <trkpt lat="42.71659" lon="0.6751">
        <ele>1900</ele>
        <time>2026-06-30T09:22:37.000Z</time>
      </trkpt>
      <trkpt lat="42.71657" lon="0.67516">
        <ele>1902</ele>
        <time>2026-06-30T09:22:42.000Z</time>
      </trkpt>
      <trkpt lat="42.71654" lon="0.6752">
        <ele>1904</ele>
        <time>2026-06-30T09:22:47.000Z</time>
      </trkpt>
      <trkpt lat="42.71651" lon="0.67526">
        <ele>1905</ele>
        <time>2026-06-30T09:22:52.000Z</time>
      </trkpt>
      <trkpt lat="42.71649" lon="0.67532">
        <ele>1906</ele>
        <time>2026-06-30T09:22:57.000Z</time>
      </trkpt>
      <trkpt lat="42.71648" lon="0.67539">
        <ele>1908</ele>
        <time>2026-06-30T09:23:02.000Z</time>
      </trkpt>
      <trkpt lat="42.71646" lon="0.67544">
        <ele>1910</ele>
        <time>2026-06-30T09:23:07.000Z</time>
      </trkpt>
      <trkpt lat="42.71643" lon="0.6755">
        <ele>1912</ele>
        <time>2026-06-30T09:23:12.000Z</time>
      </trkpt>
      <trkpt lat="42.71641" lon="0.67558">
        <ele>1913</ele>
        <time>2026-06-30T09:23:17.000Z</time>
      </trkpt>
      <trkpt lat="42.71639" lon="0.67563">
        <ele>1913</ele>
        <time>2026-06-30T09:23:22.000Z</time>
      </trkpt>
      <trkpt lat="42.71635" lon="0.67568">
        <ele>1914</ele>
        <time>2026-06-30T09:23:27.000Z</time>
      </trkpt>
      <trkpt lat="42.71631" lon="0.67573">
        <ele>1915</ele>
        <time>2026-06-30T09:23:32.000Z</time>
      </trkpt>
      <trkpt lat="42.71627" lon="0.6758">
        <ele>1916</ele>
        <time>2026-06-30T09:23:37.000Z</time>
      </trkpt>
      <trkpt lat="42.71624" lon="0.67584">
        <ele>1917</ele>
        <time>2026-06-30T09:23:42.000Z</time>
      </trkpt>
      <trkpt lat="42.7162" lon="0.67586">
        <ele>1918</ele>
        <time>2026-06-30T09:23:47.000Z</time>
      </trkpt>
      <trkpt lat="42.71617" lon="0.67591">
        <ele>1919</ele>
        <time>2026-06-30T09:23:52.000Z</time>
      </trkpt>
      <trkpt lat="42.71612" lon="0.67596">
        <ele>1919</ele>
        <time>2026-06-30T09:23:57.000Z</time>
      </trkpt>
      <trkpt lat="42.71609" lon="0.67601">
        <ele>1919</ele>
        <time>2026-06-30T09:24:02.000Z</time>
      </trkpt>
      <trkpt lat="42.71606" lon="0.67608">
        <ele>1921</ele>
        <time>2026-06-30T09:24:07.000Z</time>
      </trkpt>
      <trkpt lat="42.71603" lon="0.67613">
        <ele>1921</ele>
        <time>2026-06-30T09:24:12.000Z</time>
      </trkpt>
      <trkpt lat="42.716" lon="0.67617">
        <ele>1922</ele>
        <time>2026-06-30T09:24:17.000Z</time>
      </trkpt>
      <trkpt lat="42.71597" lon="0.67622">
        <ele>1923</ele>
        <time>2026-06-30T09:24:22.000Z</time>
      </trkpt>
      <trkpt lat="42.71594" lon="0.67629">
        <ele>1924</ele>
        <time>2026-06-30T09:24:27.000Z</time>
      </trkpt>
      <trkpt lat="42.71592" lon="0.67637">
        <ele>1925</ele>
        <time>2026-06-30T09:24:32.000Z</time>
      </trkpt>
      <trkpt lat="42.71588" lon="0.67642">
        <ele>1926</ele>
        <time>2026-06-30T09:24:37.000Z</time>
      </trkpt>
      <trkpt lat="42.71587" lon="0.67648">
        <ele>1927</ele>
        <time>2026-06-30T09:24:42.000Z</time>
      </trkpt>
      <trkpt lat="42.71584" lon="0.67655">
        <ele>1928</ele>
        <time>2026-06-30T09:24:47.000Z</time>
      </trkpt>
      <trkpt lat="42.71581" lon="0.6766">
        <ele>1929</ele>
        <time>2026-06-30T09:24:52.000Z</time>
      </trkpt>
      <trkpt lat="42.71578" lon="0.67666">
        <ele>1930</ele>
        <time>2026-06-30T09:24:57.000Z</time>
      </trkpt>
      <trkpt lat="42.71574" lon="0.67673">
        <ele>1930</ele>
        <time>2026-06-30T09:25:02.000Z</time>
      </trkpt>
      <trkpt lat="42.71571" lon="0.6768">
        <ele>1930</ele>
        <time>2026-06-30T09:25:07.000Z</time>
      </trkpt>
      <trkpt lat="42.71569" lon="0.67687">
        <ele>1930</ele>
        <time>2026-06-30T09:25:12.000Z</time>
      </trkpt>
      <trkpt lat="42.71567" lon="0.67694">
        <ele>1932</ele>
        <time>2026-06-30T09:25:17.000Z</time>
      </trkpt>
      <trkpt lat="42.71566" lon="0.67703">
        <ele>1932</ele>
        <time>2026-06-30T09:25:22.000Z</time>
      </trkpt>
      <trkpt lat="42.71563" lon="0.67708">
        <ele>1932</ele>
        <time>2026-06-30T09:25:27.000Z</time>
      </trkpt>
      <trkpt lat="42.71561" lon="0.67714">
        <ele>1932</ele>
        <time>2026-06-30T09:25:32.000Z</time>
      </trkpt>
      <trkpt lat="42.71559" lon="0.67722">
        <ele>1933</ele>
        <time>2026-06-30T09:25:37.000Z</time>
      </trkpt>
      <trkpt lat="42.71558" lon="0.67728">
        <ele>1935</ele>
        <time>2026-06-30T09:25:42.000Z</time>
      </trkpt>
      <trkpt lat="42.71558" lon="0.67735">
        <ele>1934</ele>
        <time>2026-06-30T09:25:47.000Z</time>
      </trkpt>
      <trkpt lat="42.71557" lon="0.67736">
        <ele>1934</ele>
        <time>2026-06-30T09:25:52.000Z</time>
      </trkpt>
      <trkpt lat="42.71557" lon="0.67736">
        <ele>1934</ele>
        <time>2026-06-30T09:25:57.000Z</time>
      </trkpt>
      <trkpt lat="42.71557" lon="0.67736">
        <ele>1934</ele>
        <time>2026-06-30T09:26:02.000Z</time>
      </trkpt>
      <trkpt lat="42.71557" lon="0.67736">
        <ele>1934</ele>
        <time>2026-06-30T09:26:07.000Z</time>
      </trkpt>
      <trkpt lat="42.71557" lon="0.67736">
        <ele>1934</ele>
        <time>2026-06-30T09:26:12.000Z</time>
      </trkpt>
      <trkpt lat="42.71557" lon="0.67736">
        <ele>1934</ele>
        <time>2026-06-30T09:26:17.000Z</time>
      </trkpt>
      <trkpt lat="42.71557" lon="0.67736">
        <ele>1934</ele>
        <time>2026-06-30T09:26:22.000Z</time>
      </trkpt>
      <trkpt lat="42.71557" lon="0.67736">
        <ele>1934</ele>
        <time>2026-06-30T09:26:27.000Z</time>
      </trkpt>
      <trkpt lat="42.71557" lon="0.67736">
        <ele>1934</ele>
        <time>2026-06-30T09:26:32.000Z</time>
      </trkpt>
      <trkpt lat="42.71557" lon="0.67736">
        <ele>1934</ele>
        <time>2026-06-30T09:26:37.000Z</time>
      </trkpt>
      <trkpt lat="42.71557" lon="0.67736">
        <ele>1934</ele>
        <time>2026-06-30T09:26:42.000Z</time>
      </trkpt>
      <trkpt lat="42.71558" lon="0.67735">
        <ele>1934</ele>
        <time>2026-06-30T09:26:47.000Z</time>
      </trkpt>
      <trkpt lat="42.71558" lon="0.67735">
        <ele>1934</ele>
        <time>2026-06-30T09:26:52.000Z</time>
      </trkpt>
      <trkpt lat="42.71558" lon="0.67735">
        <ele>1934</ele>
        <time>2026-06-30T09:26:57.000Z</time>
      </trkpt>
      <trkpt lat="42.71558" lon="0.67735">
        <ele>1934</ele>
        <time>2026-06-30T09:27:02.000Z</time>
      </trkpt>
      <trkpt lat="42.71558" lon="0.67735">
        <ele>1934</ele>
        <time>2026-06-30T09:27:07.000Z</time>
      </trkpt>
      <trkpt lat="42.71558" lon="0.67735">
        <ele>1934</ele>
        <time>2026-06-30T09:27:12.000Z</time>
      </trkpt>
      <trkpt lat="42.71558" lon="0.67735">
        <ele>1934</ele>
        <time>2026-06-30T09:27:17.000Z</time>
      </trkpt>
      <trkpt lat="42.71558" lon="0.67735">
        <ele>1934</ele>
        <time>2026-06-30T09:27:22.000Z</time>
      </trkpt>
      <trkpt lat="42.71558" lon="0.67735">
        <ele>1934</ele>
        <time>2026-06-30T09:27:27.000Z</time>
      </trkpt>
      <trkpt lat="42.71558" lon="0.67735">
        <ele>1934</ele>
        <time>2026-06-30T09:27:32.000Z</time>
      </trkpt>
      <trkpt lat="42.71558" lon="0.67735">
        <ele>1934</ele>
        <time>2026-06-30T09:27:37.000Z</time>
      </trkpt>
      <trkpt lat="42.71558" lon="0.67735">
        <ele>1934</ele>
        <time>2026-06-30T09:27:42.000Z</time>
      </trkpt>
      <trkpt lat="42.71558" lon="0.67735">
        <ele>1934</ele>
        <time>2026-06-30T09:27:47.000Z</time>
      </trkpt>
      <trkpt lat="42.71558" lon="0.67735">
        <ele>1934</ele>
        <time>2026-06-30T09:27:52.000Z</time>
      </trkpt>
      <trkpt lat="42.71558" lon="0.67735">
        <ele>1934</ele>
        <time>2026-06-30T09:27:57.000Z</time>
      </trkpt>
      <trkpt lat="42.71558" lon="0.67735">
        <ele>1934</ele>
        <time>2026-06-30T09:28:02.000Z</time>
      </trkpt>
      <trkpt lat="42.71558" lon="0.67735">
        <ele>1934</ele>
        <time>2026-06-30T09:28:07.000Z</time>
      </trkpt>
      <trkpt lat="42.71558" lon="0.67735">
        <ele>1934</ele>
        <time>2026-06-30T09:28:12.000Z</time>
      </trkpt>
      <trkpt lat="42.71558" lon="0.67735">
        <ele>1934</ele>
        <time>2026-06-30T09:28:17.000Z</time>
      </trkpt>
      <trkpt lat="42.71558" lon="0.67735">
        <ele>1934</ele>
        <time>2026-06-30T09:28:22.000Z</time>
      </trkpt>
      <trkpt lat="42.71558" lon="0.67735">
        <ele>1934</ele>
        <time>2026-06-30T09:28:27.000Z</time>
      </trkpt>
      <trkpt lat="42.71558" lon="0.67735">
        <ele>1934</ele>
        <time>2026-06-30T09:28:32.000Z</time>
      </trkpt>
      <trkpt lat="42.71558" lon="0.67735">
        <ele>1934</ele>
        <time>2026-06-30T09:28:37.000Z</time>
      </trkpt>
      <trkpt lat="42.71558" lon="0.67735">
        <ele>1934</ele>
        <time>2026-06-30T09:28:42.000Z</time>
      </trkpt>
      <trkpt lat="42.71558" lon="0.67735">
        <ele>1934</ele>
        <time>2026-06-30T09:28:47.000Z</time>
      </trkpt>
      <trkpt lat="42.71558" lon="0.67735">
        <ele>1934</ele>
        <time>2026-06-30T09:28:52.000Z</time>
      </trkpt>
      <trkpt lat="42.71558" lon="0.67735">
        <ele>1934</ele>
        <time>2026-06-30T09:28:57.000Z</time>
      </trkpt>
      <trkpt lat="42.71562" lon="0.67741">
        <ele>1935</ele>
        <time>2026-06-30T09:29:02.000Z</time>
      </trkpt>
      <trkpt lat="42.71569" lon="0.67743">
        <ele>1936</ele>
        <time>2026-06-30T09:29:07.000Z</time>
      </trkpt>
      <trkpt lat="42.71575" lon="0.67743">
        <ele>1935</ele>
        <time>2026-06-30T09:29:12.000Z</time>
      </trkpt>
      <trkpt lat="42.7159" lon="0.67724">
        <ele>1934</ele>
        <time>2026-06-30T09:29:17.000Z</time>
      </trkpt>
      <trkpt lat="42.71608" lon="0.677">
        <ele>1933</ele>
        <time>2026-06-30T09:29:22.000Z</time>
      </trkpt>
      <trkpt lat="42.71618" lon="0.67687">
        <ele>1932</ele>
        <time>2026-06-30T09:29:27.000Z</time>
      </trkpt>
      <trkpt lat="42.71625" lon="0.67679">
        <ele>1931</ele>
        <time>2026-06-30T09:29:32.000Z</time>
      </trkpt>
      <trkpt lat="42.71629" lon="0.67666">
        <ele>1932</ele>
        <time>2026-06-30T09:29:37.000Z</time>
      </trkpt>
      <trkpt lat="42.71634" lon="0.67657">
        <ele>1932</ele>
        <time>2026-06-30T09:29:42.000Z</time>
      </trkpt>
      <trkpt lat="42.71641" lon="0.67653">
        <ele>1930</ele>
        <time>2026-06-30T09:29:47.000Z</time>
      </trkpt>
      <trkpt lat="42.71651" lon="0.67652">
        <ele>1928</ele>
        <time>2026-06-30T09:29:52.000Z</time>
      </trkpt>
      <trkpt lat="42.71664" lon="0.6766">
        <ele>1932</ele>
        <time>2026-06-30T09:29:57.000Z</time>
      </trkpt>
      <trkpt lat="42.71665" lon="0.67673">
        <ele>1932</ele>
        <time>2026-06-30T09:30:02.000Z</time>
      </trkpt>
      <trkpt lat="42.71663" lon="0.67682">
        <ele>1932</ele>
        <time>2026-06-30T09:30:07.000Z</time>
      </trkpt>
      <trkpt lat="42.71663" lon="0.67693">
        <ele>1933</ele>
        <time>2026-06-30T09:30:12.000Z</time>
      </trkpt>
      <trkpt lat="42.71661" lon="0.677">
        <ele>1933</ele>
        <time>2026-06-30T09:30:17.000Z</time>
      </trkpt>
      <trkpt lat="42.7166" lon="0.67707">
        <ele>1933</ele>
        <time>2026-06-30T09:30:22.000Z</time>
      </trkpt>
      <trkpt lat="42.71659" lon="0.67714">
        <ele>1933</ele>
        <time>2026-06-30T09:30:27.000Z</time>
      </trkpt>
      <trkpt lat="42.71657" lon="0.67721">
        <ele>1933</ele>
        <time>2026-06-30T09:30:32.000Z</time>
      </trkpt>
      <trkpt lat="42.71656" lon="0.67724">
        <ele>1933</ele>
        <time>2026-06-30T09:30:37.000Z</time>
      </trkpt>
      <trkpt lat="42.71654" lon="0.67729">
        <ele>1934</ele>
        <time>2026-06-30T09:30:42.000Z</time>
      </trkpt>
      <trkpt lat="42.71651" lon="0.67733">
        <ele>1934</ele>
        <time>2026-06-30T09:30:47.000Z</time>
      </trkpt>
      <trkpt lat="42.71645" lon="0.67739">
        <ele>1934</ele>
        <time>2026-06-30T09:30:52.000Z</time>
      </trkpt>
      <trkpt lat="42.7164" lon="0.67743">
        <ele>1935</ele>
        <time>2026-06-30T09:30:57.000Z</time>
      </trkpt>
      <trkpt lat="42.71639" lon="0.67745">
        <ele>1936</ele>
        <time>2026-06-30T09:31:02.000Z</time>
      </trkpt>
      <trkpt lat="42.71637" lon="0.6775">
        <ele>1936</ele>
        <time>2026-06-30T09:31:07.000Z</time>
      </trkpt>
      <trkpt lat="42.71638" lon="0.67756">
        <ele>1937</ele>
        <time>2026-06-30T09:31:12.000Z</time>
      </trkpt>
      <trkpt lat="42.71641" lon="0.67761">
        <ele>1938</ele>
        <time>2026-06-30T09:31:17.000Z</time>
      </trkpt>
      <trkpt lat="42.71643" lon="0.67764">
        <ele>1938</ele>
        <time>2026-06-30T09:31:22.000Z</time>
      </trkpt>
      <trkpt lat="42.71649" lon="0.67769">
        <ele>1940</ele>
        <time>2026-06-30T09:31:27.000Z</time>
      </trkpt>
      <trkpt lat="42.71656" lon="0.6777">
        <ele>1940</ele>
        <time>2026-06-30T09:31:32.000Z</time>
      </trkpt>
      <trkpt lat="42.71661" lon="0.6777">
        <ele>1942</ele>
        <time>2026-06-30T09:31:37.000Z</time>
      </trkpt>
      <trkpt lat="42.71666" lon="0.67769">
        <ele>1943</ele>
        <time>2026-06-30T09:31:42.000Z</time>
      </trkpt>
      <trkpt lat="42.7167" lon="0.67768">
        <ele>1944</ele>
        <time>2026-06-30T09:31:47.000Z</time>
      </trkpt>
      <trkpt lat="42.71676" lon="0.67767">
        <ele>1946</ele>
        <time>2026-06-30T09:31:52.000Z</time>
      </trkpt>
      <trkpt lat="42.71682" lon="0.67768">
        <ele>1947</ele>
        <time>2026-06-30T09:31:57.000Z</time>
      </trkpt>
      <trkpt lat="42.71684" lon="0.67779">
        <ele>1948</ele>
        <time>2026-06-30T09:32:02.000Z</time>
      </trkpt>
      <trkpt lat="42.71682" lon="0.67784">
        <ele>1948</ele>
        <time>2026-06-30T09:32:07.000Z</time>
      </trkpt>
      <trkpt lat="42.71678" lon="0.67794">
        <ele>1949</ele>
        <time>2026-06-30T09:32:12.000Z</time>
      </trkpt>
      <trkpt lat="42.71677" lon="0.67801">
        <ele>1950</ele>
        <time>2026-06-30T09:32:17.000Z</time>
      </trkpt>
      <trkpt lat="42.71677" lon="0.67809">
        <ele>1952</ele>
        <time>2026-06-30T09:32:22.000Z</time>
      </trkpt>
      <trkpt lat="42.71678" lon="0.67817">
        <ele>1954</ele>
        <time>2026-06-30T09:32:27.000Z</time>
      </trkpt>
      <trkpt lat="42.71679" lon="0.67824">
        <ele>1956</ele>
        <time>2026-06-30T09:32:32.000Z</time>
      </trkpt>
      <trkpt lat="42.71678" lon="0.6783">
        <ele>1959</ele>
        <time>2026-06-30T09:32:37.000Z</time>
      </trkpt>
      <trkpt lat="42.71677" lon="0.67839">
        <ele>1962</ele>
        <time>2026-06-30T09:32:42.000Z</time>
      </trkpt>
      <trkpt lat="42.71677" lon="0.67849">
        <ele>1964</ele>
        <time>2026-06-30T09:32:47.000Z</time>
      </trkpt>
      <trkpt lat="42.71676" lon="0.67855">
        <ele>1965</ele>
        <time>2026-06-30T09:32:52.000Z</time>
      </trkpt>
      <trkpt lat="42.71675" lon="0.67854">
        <ele>1966</ele>
        <time>2026-06-30T09:32:57.000Z</time>
      </trkpt>
      <trkpt lat="42.71675" lon="0.67854">
        <ele>1966</ele>
        <time>2026-06-30T09:33:02.000Z</time>
      </trkpt>
      <trkpt lat="42.71675" lon="0.67854">
        <ele>1966</ele>
        <time>2026-06-30T09:33:07.000Z</time>
      </trkpt>
      <trkpt lat="42.71675" lon="0.67854">
        <ele>1966</ele>
        <time>2026-06-30T09:33:12.000Z</time>
      </trkpt>
      <trkpt lat="42.71675" lon="0.67854">
        <ele>1966</ele>
        <time>2026-06-30T09:33:17.000Z</time>
      </trkpt>
      <trkpt lat="42.71675" lon="0.67854">
        <ele>1966</ele>
        <time>2026-06-30T09:33:22.000Z</time>
      </trkpt>
      <trkpt lat="42.71675" lon="0.67854">
        <ele>1966</ele>
        <time>2026-06-30T09:33:27.000Z</time>
      </trkpt>
      <trkpt lat="42.71675" lon="0.67854">
        <ele>1966</ele>
        <time>2026-06-30T09:33:32.000Z</time>
      </trkpt>
      <trkpt lat="42.71675" lon="0.67854">
        <ele>1965</ele>
        <time>2026-06-30T09:33:37.000Z</time>
      </trkpt>
      <trkpt lat="42.71675" lon="0.67865">
        <ele>1965</ele>
        <time>2026-06-30T09:33:42.000Z</time>
      </trkpt>
      <trkpt lat="42.71674" lon="0.67891">
        <ele>1963</ele>
        <time>2026-06-30T09:33:47.000Z</time>
      </trkpt>
      <trkpt lat="42.71669" lon="0.67928">
        <ele>1962</ele>
        <time>2026-06-30T09:33:52.000Z</time>
      </trkpt>
      <trkpt lat="42.71664" lon="0.67948">
        <ele>1962</ele>
        <time>2026-06-30T09:33:57.000Z</time>
      </trkpt>
      <trkpt lat="42.71663" lon="0.67958">
        <ele>1962</ele>
        <time>2026-06-30T09:34:02.000Z</time>
      </trkpt>
      <trkpt lat="42.71663" lon="0.67969">
        <ele>1962</ele>
        <time>2026-06-30T09:34:07.000Z</time>
      </trkpt>
      <trkpt lat="42.71661" lon="0.67981">
        <ele>1962</ele>
        <time>2026-06-30T09:34:12.000Z</time>
      </trkpt>
      <trkpt lat="42.71658" lon="0.67993">
        <ele>1961</ele>
        <time>2026-06-30T09:34:17.000Z</time>
      </trkpt>
      <trkpt lat="42.71654" lon="0.68004">
        <ele>1960</ele>
        <time>2026-06-30T09:34:22.000Z</time>
      </trkpt>
      <trkpt lat="42.71652" lon="0.68014">
        <ele>1959</ele>
        <time>2026-06-30T09:34:27.000Z</time>
      </trkpt>
      <trkpt lat="42.7165" lon="0.68025">
        <ele>1958</ele>
        <time>2026-06-30T09:34:32.000Z</time>
      </trkpt>
      <trkpt lat="42.71648" lon="0.68036">
        <ele>1959</ele>
        <time>2026-06-30T09:34:37.000Z</time>
      </trkpt>
      <trkpt lat="42.71646" lon="0.68045">
        <ele>1960</ele>
        <time>2026-06-30T09:34:42.000Z</time>
      </trkpt>
      <trkpt lat="42.71645" lon="0.68054">
        <ele>1960</ele>
        <time>2026-06-30T09:34:47.000Z</time>
      </trkpt>
      <trkpt lat="42.71644" lon="0.68063">
        <ele>1960</ele>
        <time>2026-06-30T09:34:52.000Z</time>
      </trkpt>
      <trkpt lat="42.71644" lon="0.68072">
        <ele>1961</ele>
        <time>2026-06-30T09:34:57.000Z</time>
      </trkpt>
      <trkpt lat="42.71646" lon="0.68081">
        <ele>1962</ele>
        <time>2026-06-30T09:35:02.000Z</time>
      </trkpt>
      <trkpt lat="42.71645" lon="0.68089">
        <ele>1964</ele>
        <time>2026-06-30T09:35:07.000Z</time>
      </trkpt>
      <trkpt lat="42.71646" lon="0.68098">
        <ele>1965</ele>
        <time>2026-06-30T09:35:12.000Z</time>
      </trkpt>
      <trkpt lat="42.71646" lon="0.68105">
        <ele>1965</ele>
        <time>2026-06-30T09:35:17.000Z</time>
      </trkpt>
      <trkpt lat="42.71647" lon="0.68113">
        <ele>1967</ele>
        <time>2026-06-30T09:35:22.000Z</time>
      </trkpt>
      <trkpt lat="42.71647" lon="0.68123">
        <ele>1968</ele>
        <time>2026-06-30T09:35:27.000Z</time>
      </trkpt>
      <trkpt lat="42.71647" lon="0.68131">
        <ele>1969</ele>
        <time>2026-06-30T09:35:32.000Z</time>
      </trkpt>
      <trkpt lat="42.71648" lon="0.6814">
        <ele>1969</ele>
        <time>2026-06-30T09:35:37.000Z</time>
      </trkpt>
      <trkpt lat="42.71648" lon="0.68147">
        <ele>1970</ele>
        <time>2026-06-30T09:35:42.000Z</time>
      </trkpt>
      <trkpt lat="42.71649" lon="0.68156">
        <ele>1971</ele>
        <time>2026-06-30T09:35:47.000Z</time>
      </trkpt>
      <trkpt lat="42.71649" lon="0.68164">
        <ele>1971</ele>
        <time>2026-06-30T09:35:52.000Z</time>
      </trkpt>
      <trkpt lat="42.71651" lon="0.68171">
        <ele>1971</ele>
        <time>2026-06-30T09:35:57.000Z</time>
      </trkpt>
      <trkpt lat="42.71651" lon="0.68178">
        <ele>1972</ele>
        <time>2026-06-30T09:36:02.000Z</time>
      </trkpt>
      <trkpt lat="42.71653" lon="0.68183">
        <ele>1974</ele>
        <time>2026-06-30T09:36:07.000Z</time>
      </trkpt>
      <trkpt lat="42.7165" lon="0.68191">
        <ele>1978</ele>
        <time>2026-06-30T09:36:12.000Z</time>
      </trkpt>
      <trkpt lat="42.7165" lon="0.68199">
        <ele>1980</ele>
        <time>2026-06-30T09:36:17.000Z</time>
      </trkpt>
      <trkpt lat="42.71649" lon="0.68203">
        <ele>1983</ele>
        <time>2026-06-30T09:36:22.000Z</time>
      </trkpt>
      <trkpt lat="42.71647" lon="0.6821">
        <ele>1986</ele>
        <time>2026-06-30T09:36:27.000Z</time>
      </trkpt>
      <trkpt lat="42.71647" lon="0.68216">
        <ele>1986</ele>
        <time>2026-06-30T09:36:32.000Z</time>
      </trkpt>
      <trkpt lat="42.71646" lon="0.68216">
        <ele>1985</ele>
        <time>2026-06-30T09:36:37.000Z</time>
      </trkpt>
      <trkpt lat="42.71646" lon="0.68217">
        <ele>1985</ele>
        <time>2026-06-30T09:36:42.000Z</time>
      </trkpt>
      <trkpt lat="42.71646" lon="0.68217">
        <ele>1985</ele>
        <time>2026-06-30T09:36:47.000Z</time>
      </trkpt>
      <trkpt lat="42.71643" lon="0.68212">
        <ele>1985</ele>
        <time>2026-06-30T09:36:52.000Z</time>
      </trkpt>
      <trkpt lat="42.71639" lon="0.68203">
        <ele>1985</ele>
        <time>2026-06-30T09:36:57.000Z</time>
      </trkpt>
      <trkpt lat="42.71635" lon="0.68194">
        <ele>1986</ele>
        <time>2026-06-30T09:37:02.000Z</time>
      </trkpt>
      <trkpt lat="42.7163" lon="0.6819">
        <ele>1986</ele>
        <time>2026-06-30T09:37:07.000Z</time>
      </trkpt>
      <trkpt lat="42.71625" lon="0.68191">
        <ele>1986</ele>
        <time>2026-06-30T09:37:12.000Z</time>
      </trkpt>
      <trkpt lat="42.71621" lon="0.68192">
        <ele>1988</ele>
        <time>2026-06-30T09:37:17.000Z</time>
      </trkpt>
      <trkpt lat="42.71622" lon="0.68193">
        <ele>1990</ele>
        <time>2026-06-30T09:37:22.000Z</time>
      </trkpt>
      <trkpt lat="42.71622" lon="0.68193">
        <ele>1989</ele>
        <time>2026-06-30T09:37:27.000Z</time>
      </trkpt>
      <trkpt lat="42.71622" lon="0.68193">
        <ele>1989</ele>
        <time>2026-06-30T09:37:32.000Z</time>
      </trkpt>
      <trkpt lat="42.71622" lon="0.68192">
        <ele>1989</ele>
        <time>2026-06-30T09:37:37.000Z</time>
      </trkpt>
      <trkpt lat="42.71622" lon="0.68192">
        <ele>1989</ele>
        <time>2026-06-30T09:37:42.000Z</time>
      </trkpt>
      <trkpt lat="42.71622" lon="0.68192">
        <ele>1989</ele>
        <time>2026-06-30T09:37:47.000Z</time>
      </trkpt>
      <trkpt lat="42.71622" lon="0.68192">
        <ele>1989</ele>
        <time>2026-06-30T09:37:52.000Z</time>
      </trkpt>
      <trkpt lat="42.71622" lon="0.68192">
        <ele>1989</ele>
        <time>2026-06-30T09:37:57.000Z</time>
      </trkpt>
      <trkpt lat="42.71622" lon="0.68192">
        <ele>1989</ele>
        <time>2026-06-30T09:38:02.000Z</time>
      </trkpt>
      <trkpt lat="42.71623" lon="0.68198">
        <ele>1993</ele>
        <time>2026-06-30T09:38:07.000Z</time>
      </trkpt>
      <trkpt lat="42.71624" lon="0.68202">
        <ele>1997</ele>
        <time>2026-06-30T09:38:12.000Z</time>
      </trkpt>
      <trkpt lat="42.71623" lon="0.68206">
        <ele>2000</ele>
        <time>2026-06-30T09:38:17.000Z</time>
      </trkpt>
      <trkpt lat="42.7162" lon="0.6821">
        <ele>2002</ele>
        <time>2026-06-30T09:38:22.000Z</time>
      </trkpt>
      <trkpt lat="42.71618" lon="0.68212">
        <ele>2002</ele>
        <time>2026-06-30T09:38:27.000Z</time>
      </trkpt>
      <trkpt lat="42.71616" lon="0.68216">
        <ele>2004</ele>
        <time>2026-06-30T09:38:32.000Z</time>
      </trkpt>
      <trkpt lat="42.71613" lon="0.68215">
        <ele>2003</ele>
        <time>2026-06-30T09:38:37.000Z</time>
      </trkpt>
      <trkpt lat="42.71609" lon="0.68218">
        <ele>2002</ele>
        <time>2026-06-30T09:38:42.000Z</time>
      </trkpt>
      <trkpt lat="42.71609" lon="0.68218">
        <ele>2001</ele>
        <time>2026-06-30T09:38:47.000Z</time>
      </trkpt>
      <trkpt lat="42.71606" lon="0.6822">
        <ele>2001</ele>
        <time>2026-06-30T09:38:52.000Z</time>
      </trkpt>
      <trkpt lat="42.71606" lon="0.6822">
        <ele>2000</ele>
        <time>2026-06-30T09:38:57.000Z</time>
      </trkpt>
      <trkpt lat="42.71603" lon="0.68223">
        <ele>2000</ele>
        <time>2026-06-30T09:39:02.000Z</time>
      </trkpt>
      <trkpt lat="42.71601" lon="0.68226">
        <ele>2001</ele>
        <time>2026-06-30T09:39:07.000Z</time>
      </trkpt>
      <trkpt lat="42.716" lon="0.6823">
        <ele>2002</ele>
        <time>2026-06-30T09:39:12.000Z</time>
      </trkpt>
      <trkpt lat="42.71599" lon="0.68233">
        <ele>2005</ele>
        <time>2026-06-30T09:39:17.000Z</time>
      </trkpt>
      <trkpt lat="42.71597" lon="0.68236">
        <ele>2008</ele>
        <time>2026-06-30T09:39:22.000Z</time>
      </trkpt>
      <trkpt lat="42.71595" lon="0.68239">
        <ele>2007</ele>
        <time>2026-06-30T09:39:27.000Z</time>
      </trkpt>
      <trkpt lat="42.71594" lon="0.68241">
        <ele>2010</ele>
        <time>2026-06-30T09:39:32.000Z</time>
      </trkpt>
      <trkpt lat="42.71593" lon="0.68244">
        <ele>2011</ele>
        <time>2026-06-30T09:39:37.000Z</time>
      </trkpt>
      <trkpt lat="42.7159" lon="0.68249">
        <ele>2013</ele>
        <time>2026-06-30T09:39:42.000Z</time>
      </trkpt>
      <trkpt lat="42.71586" lon="0.68254">
        <ele>2015</ele>
        <time>2026-06-30T09:39:47.000Z</time>
      </trkpt>
      <trkpt lat="42.71585" lon="0.68257">
        <ele>2016</ele>
        <time>2026-06-30T09:39:52.000Z</time>
      </trkpt>
      <trkpt lat="42.71584" lon="0.68262">
        <ele>2017</ele>
        <time>2026-06-30T09:39:57.000Z</time>
      </trkpt>
      <trkpt lat="42.71583" lon="0.68263">
        <ele>2015</ele>
        <time>2026-06-30T09:40:02.000Z</time>
      </trkpt>
      <trkpt lat="42.71583" lon="0.68264">
        <ele>2017</ele>
        <time>2026-06-30T09:40:07.000Z</time>
      </trkpt>
      <trkpt lat="42.71582" lon="0.68271">
        <ele>2018</ele>
        <time>2026-06-30T09:40:12.000Z</time>
      </trkpt>
      <trkpt lat="42.7158" lon="0.68278">
        <ele>2018</ele>
        <time>2026-06-30T09:40:17.000Z</time>
      </trkpt>
      <trkpt lat="42.71578" lon="0.68286">
        <ele>2019</ele>
        <time>2026-06-30T09:40:22.000Z</time>
      </trkpt>
      <trkpt lat="42.71576" lon="0.68292">
        <ele>2019</ele>
        <time>2026-06-30T09:40:27.000Z</time>
      </trkpt>
      <trkpt lat="42.71574" lon="0.68297">
        <ele>2020</ele>
        <time>2026-06-30T09:40:32.000Z</time>
      </trkpt>
      <trkpt lat="42.71571" lon="0.68302">
        <ele>2018</ele>
        <time>2026-06-30T09:40:37.000Z</time>
      </trkpt>
      <trkpt lat="42.71569" lon="0.68307">
        <ele>2020</ele>
        <time>2026-06-30T09:40:42.000Z</time>
      </trkpt>
      <trkpt lat="42.71566" lon="0.68313">
        <ele>2021</ele>
        <time>2026-06-30T09:40:47.000Z</time>
      </trkpt>
      <trkpt lat="42.71563" lon="0.68318">
        <ele>2021</ele>
        <time>2026-06-30T09:40:52.000Z</time>
      </trkpt>
      <trkpt lat="42.71561" lon="0.68324">
        <ele>2022</ele>
        <time>2026-06-30T09:40:57.000Z</time>
      </trkpt>
      <trkpt lat="42.71555" lon="0.68326">
        <ele>2023</ele>
        <time>2026-06-30T09:41:02.000Z</time>
      </trkpt>
      <trkpt lat="42.71549" lon="0.6833">
        <ele>2025</ele>
        <time>2026-06-30T09:41:07.000Z</time>
      </trkpt>
      <trkpt lat="42.71544" lon="0.68334">
        <ele>2026</ele>
        <time>2026-06-30T09:41:12.000Z</time>
      </trkpt>
      <trkpt lat="42.71539" lon="0.68336">
        <ele>2026</ele>
        <time>2026-06-30T09:41:17.000Z</time>
      </trkpt>
      <trkpt lat="42.71535" lon="0.68341">
        <ele>2026</ele>
        <time>2026-06-30T09:41:22.000Z</time>
      </trkpt>
      <trkpt lat="42.71532" lon="0.68345">
        <ele>2027</ele>
        <time>2026-06-30T09:41:27.000Z</time>
      </trkpt>
      <trkpt lat="42.71529" lon="0.68353">
        <ele>2027</ele>
        <time>2026-06-30T09:41:32.000Z</time>
      </trkpt>
      <trkpt lat="42.71528" lon="0.68359">
        <ele>2028</ele>
        <time>2026-06-30T09:41:37.000Z</time>
      </trkpt>
      <trkpt lat="42.71525" lon="0.68363">
        <ele>2030</ele>
        <time>2026-06-30T09:41:42.000Z</time>
      </trkpt>
      <trkpt lat="42.71523" lon="0.68369">
        <ele>2032</ele>
        <time>2026-06-30T09:41:47.000Z</time>
      </trkpt>
      <trkpt lat="42.71519" lon="0.68376">
        <ele>2031</ele>
        <time>2026-06-30T09:41:52.000Z</time>
      </trkpt>
      <trkpt lat="42.71516" lon="0.68384">
        <ele>2031</ele>
        <time>2026-06-30T09:41:57.000Z</time>
      </trkpt>
      <trkpt lat="42.71513" lon="0.68391">
        <ele>2033</ele>
        <time>2026-06-30T09:42:02.000Z</time>
      </trkpt>
      <trkpt lat="42.7151" lon="0.68398">
        <ele>2033</ele>
        <time>2026-06-30T09:42:07.000Z</time>
      </trkpt>
      <trkpt lat="42.71507" lon="0.68404">
        <ele>2033</ele>
        <time>2026-06-30T09:42:12.000Z</time>
      </trkpt>
      <trkpt lat="42.71502" lon="0.68409">
        <ele>2033</ele>
        <time>2026-06-30T09:42:17.000Z</time>
      </trkpt>
      <trkpt lat="42.71496" lon="0.68413">
        <ele>2034</ele>
        <time>2026-06-30T09:42:22.000Z</time>
      </trkpt>
      <trkpt lat="42.71489" lon="0.68414">
        <ele>2034</ele>
        <time>2026-06-30T09:42:27.000Z</time>
      </trkpt>
      <trkpt lat="42.71483" lon="0.68418">
        <ele>2034</ele>
        <time>2026-06-30T09:42:32.000Z</time>
      </trkpt>
      <trkpt lat="42.71477" lon="0.68423">
        <ele>2032</ele>
        <time>2026-06-30T09:42:37.000Z</time>
      </trkpt>
      <trkpt lat="42.71471" lon="0.68427">
        <ele>2032</ele>
        <time>2026-06-30T09:42:42.000Z</time>
      </trkpt>
      <trkpt lat="42.71467" lon="0.68433">
        <ele>2034</ele>
        <time>2026-06-30T09:42:47.000Z</time>
      </trkpt>
      <trkpt lat="42.7146" lon="0.68442">
        <ele>2033</ele>
        <time>2026-06-30T09:42:52.000Z</time>
      </trkpt>
      <trkpt lat="42.71454" lon="0.68442">
        <ele>2033</ele>
        <time>2026-06-30T09:42:57.000Z</time>
      </trkpt>
      <trkpt lat="42.71448" lon="0.68444">
        <ele>2033</ele>
        <time>2026-06-30T09:43:02.000Z</time>
      </trkpt>
      <trkpt lat="42.71441" lon="0.68443">
        <ele>2034</ele>
        <time>2026-06-30T09:43:07.000Z</time>
      </trkpt>
      <trkpt lat="42.71436" lon="0.68445">
        <ele>2036</ele>
        <time>2026-06-30T09:43:12.000Z</time>
      </trkpt>
      <trkpt lat="42.71429" lon="0.68445">
        <ele>2036</ele>
        <time>2026-06-30T09:43:17.000Z</time>
      </trkpt>
      <trkpt lat="42.71422" lon="0.6844">
        <ele>2036</ele>
        <time>2026-06-30T09:43:22.000Z</time>
      </trkpt>
      <trkpt lat="42.71416" lon="0.68436">
        <ele>2035</ele>
        <time>2026-06-30T09:43:27.000Z</time>
      </trkpt>
      <trkpt lat="42.71411" lon="0.68435">
        <ele>2036</ele>
        <time>2026-06-30T09:43:32.000Z</time>
      </trkpt>
      <trkpt lat="42.71406" lon="0.68434">
        <ele>2037</ele>
        <time>2026-06-30T09:43:37.000Z</time>
      </trkpt>
      <trkpt lat="42.71399" lon="0.68434">
        <ele>2038</ele>
        <time>2026-06-30T09:43:42.000Z</time>
      </trkpt>
      <trkpt lat="42.71395" lon="0.68436">
        <ele>2040</ele>
        <time>2026-06-30T09:43:47.000Z</time>
      </trkpt>
      <trkpt lat="42.71391" lon="0.68439">
        <ele>2041</ele>
        <time>2026-06-30T09:43:52.000Z</time>
      </trkpt>
      <trkpt lat="42.71387" lon="0.68443">
        <ele>2043</ele>
        <time>2026-06-30T09:43:57.000Z</time>
      </trkpt>
      <trkpt lat="42.71386" lon="0.68445">
        <ele>2043</ele>
        <time>2026-06-30T09:44:02.000Z</time>
      </trkpt>
      <trkpt lat="42.71386" lon="0.68445">
        <ele>2043</ele>
        <time>2026-06-30T09:44:07.000Z</time>
      </trkpt>
      <trkpt lat="42.71386" lon="0.68445">
        <ele>2043</ele>
        <time>2026-06-30T09:44:12.000Z</time>
      </trkpt>
      <trkpt lat="42.71386" lon="0.68445">
        <ele>2043</ele>
        <time>2026-06-30T09:44:17.000Z</time>
      </trkpt>
      <trkpt lat="42.71386" lon="0.68445">
        <ele>2043</ele>
        <time>2026-06-30T09:44:22.000Z</time>
      </trkpt>
      <trkpt lat="42.71386" lon="0.68445">
        <ele>2043</ele>
        <time>2026-06-30T09:44:27.000Z</time>
      </trkpt>
      <trkpt lat="42.71386" lon="0.68445">
        <ele>2043</ele>
        <time>2026-06-30T09:44:32.000Z</time>
      </trkpt>
      <trkpt lat="42.71385" lon="0.68448">
        <ele>2042</ele>
        <time>2026-06-30T09:44:37.000Z</time>
      </trkpt>
      <trkpt lat="42.71383" lon="0.68454">
        <ele>2043</ele>
        <time>2026-06-30T09:44:42.000Z</time>
      </trkpt>
      <trkpt lat="42.7138" lon="0.6846">
        <ele>2045</ele>
        <time>2026-06-30T09:44:47.000Z</time>
      </trkpt>
      <trkpt lat="42.71377" lon="0.68466">
        <ele>2046</ele>
        <time>2026-06-30T09:44:52.000Z</time>
      </trkpt>
      <trkpt lat="42.71374" lon="0.68471">
        <ele>2048</ele>
        <time>2026-06-30T09:44:57.000Z</time>
      </trkpt>
      <trkpt lat="42.71371" lon="0.68477">
        <ele>2049</ele>
        <time>2026-06-30T09:45:02.000Z</time>
      </trkpt>
      <trkpt lat="42.71365" lon="0.68481">
        <ele>2049</ele>
        <time>2026-06-30T09:45:07.000Z</time>
      </trkpt>
      <trkpt lat="42.71362" lon="0.68482">
        <ele>2047</ele>
        <time>2026-06-30T09:45:12.000Z</time>
      </trkpt>
      <trkpt lat="42.71361" lon="0.68483">
        <ele>2048</ele>
        <time>2026-06-30T09:45:17.000Z</time>
      </trkpt>
      <trkpt lat="42.71361" lon="0.68484">
        <ele>2048</ele>
        <time>2026-06-30T09:45:22.000Z</time>
      </trkpt>
      <trkpt lat="42.71358" lon="0.68485">
        <ele>2049</ele>
        <time>2026-06-30T09:45:27.000Z</time>
      </trkpt>
      <trkpt lat="42.71356" lon="0.68488">
        <ele>2051</ele>
        <time>2026-06-30T09:45:32.000Z</time>
      </trkpt>
      <trkpt lat="42.71354" lon="0.68492">
        <ele>2052</ele>
        <time>2026-06-30T09:45:37.000Z</time>
      </trkpt>
      <trkpt lat="42.71352" lon="0.68496">
        <ele>2053</ele>
        <time>2026-06-30T09:45:42.000Z</time>
      </trkpt>
      <trkpt lat="42.71349" lon="0.68499">
        <ele>2054</ele>
        <time>2026-06-30T09:45:47.000Z</time>
      </trkpt>
      <trkpt lat="42.71346" lon="0.68501">
        <ele>2055</ele>
        <time>2026-06-30T09:45:52.000Z</time>
      </trkpt>
      <trkpt lat="42.71342" lon="0.68501">
        <ele>2057</ele>
        <time>2026-06-30T09:45:57.000Z</time>
      </trkpt>
      <trkpt lat="42.71342" lon="0.685">
        <ele>2058</ele>
        <time>2026-06-30T09:46:02.000Z</time>
      </trkpt>
      <trkpt lat="42.71342" lon="0.685">
        <ele>2058</ele>
        <time>2026-06-30T09:46:07.000Z</time>
      </trkpt>
      <trkpt lat="42.71338" lon="0.68499">
        <ele>2058</ele>
        <time>2026-06-30T09:46:12.000Z</time>
      </trkpt>
      <trkpt lat="42.71337" lon="0.68497">
        <ele>2059</ele>
        <time>2026-06-30T09:46:17.000Z</time>
      </trkpt>
      <trkpt lat="42.71337" lon="0.68497">
        <ele>2059</ele>
        <time>2026-06-30T09:46:22.000Z</time>
      </trkpt>
      <trkpt lat="42.71332" lon="0.68501">
        <ele>2058</ele>
        <time>2026-06-30T09:46:27.000Z</time>
      </trkpt>
      <trkpt lat="42.71324" lon="0.68503">
        <ele>2059</ele>
        <time>2026-06-30T09:46:32.000Z</time>
      </trkpt>
      <trkpt lat="42.71318" lon="0.68507">
        <ele>2059</ele>
        <time>2026-06-30T09:46:37.000Z</time>
      </trkpt>
      <trkpt lat="42.71311" lon="0.68511">
        <ele>2059</ele>
        <time>2026-06-30T09:46:42.000Z</time>
      </trkpt>
      <trkpt lat="42.71305" lon="0.68512">
        <ele>2061</ele>
        <time>2026-06-30T09:46:47.000Z</time>
      </trkpt>
      <trkpt lat="42.71299" lon="0.68513">
        <ele>2063</ele>
        <time>2026-06-30T09:46:52.000Z</time>
      </trkpt>
      <trkpt lat="42.71294" lon="0.68514">
        <ele>2064</ele>
        <time>2026-06-30T09:46:57.000Z</time>
      </trkpt>
      <trkpt lat="42.71291" lon="0.68518">
        <ele>2066</ele>
        <time>2026-06-30T09:47:02.000Z</time>
      </trkpt>
      <trkpt lat="42.71287" lon="0.68518">
        <ele>2067</ele>
        <time>2026-06-30T09:47:07.000Z</time>
      </trkpt>
      <trkpt lat="42.71282" lon="0.68519">
        <ele>2069</ele>
        <time>2026-06-30T09:47:12.000Z</time>
      </trkpt>
      <trkpt lat="42.71277" lon="0.68517">
        <ele>2070</ele>
        <time>2026-06-30T09:47:17.000Z</time>
      </trkpt>
      <trkpt lat="42.71271" lon="0.68515">
        <ele>2069</ele>
        <time>2026-06-30T09:47:22.000Z</time>
      </trkpt>
      <trkpt lat="42.71269" lon="0.68512">
        <ele>2070</ele>
        <time>2026-06-30T09:47:27.000Z</time>
      </trkpt>
      <trkpt lat="42.71269" lon="0.68512">
        <ele>2070</ele>
        <time>2026-06-30T09:47:32.000Z</time>
      </trkpt>
      <trkpt lat="42.71269" lon="0.68512">
        <ele>2070</ele>
        <time>2026-06-30T09:47:37.000Z</time>
      </trkpt>
      <trkpt lat="42.71269" lon="0.68512">
        <ele>2070</ele>
        <time>2026-06-30T09:47:42.000Z</time>
      </trkpt>
      <trkpt lat="42.71269" lon="0.68512">
        <ele>2070</ele>
        <time>2026-06-30T09:47:47.000Z</time>
      </trkpt>
      <trkpt lat="42.71269" lon="0.68512">
        <ele>2070</ele>
        <time>2026-06-30T09:47:52.000Z</time>
      </trkpt>
      <trkpt lat="42.71269" lon="0.68512">
        <ele>2068</ele>
        <time>2026-06-30T09:47:57.000Z</time>
      </trkpt>
      <trkpt lat="42.71269" lon="0.6851">
        <ele>2068</ele>
        <time>2026-06-30T09:48:02.000Z</time>
      </trkpt>
      <trkpt lat="42.71269" lon="0.68509">
        <ele>2068</ele>
        <time>2026-06-30T09:48:07.000Z</time>
      </trkpt>
      <trkpt lat="42.71269" lon="0.68509">
        <ele>2068</ele>
        <time>2026-06-30T09:48:12.000Z</time>
      </trkpt>
      <trkpt lat="42.71271" lon="0.68509">
        <ele>2069</ele>
        <time>2026-06-30T09:48:17.000Z</time>
      </trkpt>
      <trkpt lat="42.7127" lon="0.68509">
        <ele>2068</ele>
        <time>2026-06-30T09:48:22.000Z</time>
      </trkpt>
      <trkpt lat="42.71267" lon="0.68507">
        <ele>2007.4</ele>
        <time>2026-06-30T09:51:35Z</time>
      </trkpt>
      <trkpt lat="42.71252" lon="0.68456">
        <ele>2062</ele>
        <time>2026-06-30T09:55:11Z</time>
      </trkpt>
      <trkpt lat="42.71243" lon="0.68448">
        <ele>2063</ele>
        <time>2026-06-30T09:55:16Z</time>
      </trkpt>
      <trkpt lat="42.71238" lon="0.68443">
        <ele>2063</ele>
        <time>2026-06-30T09:55:21Z</time>
      </trkpt>
      <trkpt lat="42.71235" lon="0.68433">
        <ele>2064</ele>
        <time>2026-06-30T09:55:26Z</time>
      </trkpt>
      <trkpt lat="42.71233" lon="0.68423">
        <ele>2064</ele>
        <time>2026-06-30T09:55:31Z</time>
      </trkpt>
      <trkpt lat="42.7123" lon="0.68414">
        <ele>2064</ele>
        <time>2026-06-30T09:55:36Z</time>
      </trkpt>
      <trkpt lat="42.71227" lon="0.68402">
        <ele>2064</ele>
        <time>2026-06-30T09:55:41Z</time>
      </trkpt>
      <trkpt lat="42.71223" lon="0.68393">
        <ele>2064</ele>
        <time>2026-06-30T09:55:46Z</time>
      </trkpt>
      <trkpt lat="42.7122" lon="0.68382">
        <ele>2064</ele>
        <time>2026-06-30T09:55:51Z</time>
      </trkpt>
      <trkpt lat="42.7122" lon="0.68374">
        <ele>2064</ele>
        <time>2026-06-30T09:55:56Z</time>
      </trkpt>
      <trkpt lat="42.71215" lon="0.68364">
        <ele>2064</ele>
        <time>2026-06-30T09:56:01Z</time>
      </trkpt>
      <trkpt lat="42.71211" lon="0.68356">
        <ele>2065</ele>
        <time>2026-06-30T09:56:06Z</time>
      </trkpt>
      <trkpt lat="42.71206" lon="0.6835">
        <ele>2065</ele>
        <time>2026-06-30T09:56:11Z</time>
      </trkpt>
      <trkpt lat="42.71202" lon="0.68341">
        <ele>2066</ele>
        <time>2026-06-30T09:56:16Z</time>
      </trkpt>
      <trkpt lat="42.71197" lon="0.68332">
        <ele>2066</ele>
        <time>2026-06-30T09:56:21Z</time>
      </trkpt>
      <trkpt lat="42.7119" lon="0.68331">
        <ele>2067</ele>
        <time>2026-06-30T09:56:26Z</time>
      </trkpt>
      <trkpt lat="42.71182" lon="0.68332">
        <ele>2067</ele>
        <time>2026-06-30T09:56:31Z</time>
      </trkpt>
      <trkpt lat="42.71173" lon="0.6833">
        <ele>2068</ele>
        <time>2026-06-30T09:56:36Z</time>
      </trkpt>
      <trkpt lat="42.71167" lon="0.68326">
        <ele>2068</ele>
        <time>2026-06-30T09:56:41Z</time>
      </trkpt>
      <trkpt lat="42.71161" lon="0.68318">
        <ele>2069</ele>
        <time>2026-06-30T09:56:46Z</time>
      </trkpt>
      <trkpt lat="42.71154" lon="0.68309">
        <ele>2070</ele>
        <time>2026-06-30T09:56:51Z</time>
      </trkpt>
      <trkpt lat="42.71149" lon="0.68308">
        <ele>2072</ele>
        <time>2026-06-30T09:56:57Z</time>
      </trkpt>
      <trkpt lat="42.71141" lon="0.68306">
        <ele>2073</ele>
        <time>2026-06-30T09:57:02Z</time>
      </trkpt>
      <trkpt lat="42.71135" lon="0.68304">
        <ele>2075</ele>
        <time>2026-06-30T09:57:16Z</time>
      </trkpt>
      <trkpt lat="42.7113" lon="0.68304">
        <ele>2076</ele>
        <time>2026-06-30T09:57:22Z</time>
      </trkpt>
      <trkpt lat="42.71125" lon="0.68305">
        <ele>2077</ele>
        <time>2026-06-30T09:57:33Z</time>
      </trkpt>
      <trkpt lat="42.71121" lon="0.68303">
        <ele>2078</ele>
        <time>2026-06-30T09:57:43Z</time>
      </trkpt>
      <trkpt lat="42.71115" lon="0.68304">
        <ele>2078</ele>
        <time>2026-06-30T09:57:48Z</time>
      </trkpt>
      <trkpt lat="42.71112" lon="0.6831">
        <ele>2078</ele>
        <time>2026-06-30T09:57:54Z</time>
      </trkpt>
      <trkpt lat="42.71104" lon="0.68316">
        <ele>2077</ele>
        <time>2026-06-30T09:57:59Z</time>
      </trkpt>
      <trkpt lat="42.71094" lon="0.68319">
        <ele>2076</ele>
        <time>2026-06-30T09:58:04Z</time>
      </trkpt>
      <trkpt lat="42.71089" lon="0.68322">
        <ele>2075</ele>
        <time>2026-06-30T09:58:13Z</time>
      </trkpt>
      <trkpt lat="42.71084" lon="0.68323">
        <ele>2075</ele>
        <time>2026-06-30T09:58:37Z</time>
      </trkpt>
      <trkpt lat="42.71079" lon="0.68325">
        <ele>2076</ele>
        <time>2026-06-30T09:58:42Z</time>
      </trkpt>
      <trkpt lat="42.71074" lon="0.68327">
        <ele>2077</ele>
        <time>2026-06-30T09:58:50Z</time>
      </trkpt>
      <trkpt lat="42.71069" lon="0.6833">
        <ele>2078</ele>
        <time>2026-06-30T09:58:56Z</time>
      </trkpt>
      <trkpt lat="42.71064" lon="0.68332">
        <ele>2079</ele>
        <time>2026-06-30T09:59:02Z</time>
      </trkpt>
      <trkpt lat="42.71059" lon="0.68333">
        <ele>2082</ele>
        <time>2026-06-30T09:59:07Z</time>
      </trkpt>
      <trkpt lat="42.71055" lon="0.68336">
        <ele>2083</ele>
        <time>2026-06-30T09:59:13Z</time>
      </trkpt>
      <trkpt lat="42.71051" lon="0.68339">
        <ele>2084</ele>
        <time>2026-06-30T09:59:18Z</time>
      </trkpt>
      <trkpt lat="42.71047" lon="0.68343">
        <ele>2085</ele>
        <time>2026-06-30T09:59:23Z</time>
      </trkpt>
      <trkpt lat="42.71043" lon="0.68345">
        <ele>2086</ele>
        <time>2026-06-30T09:59:30Z</time>
      </trkpt>
      <trkpt lat="42.71039" lon="0.68348">
        <ele>2085</ele>
        <time>2026-06-30T09:59:38Z</time>
      </trkpt>
      <trkpt lat="42.71038" lon="0.68354">
        <ele>2085</ele>
        <time>2026-06-30T09:59:53Z</time>
      </trkpt>
      <trkpt lat="42.71037" lon="0.68361">
        <ele>2084</ele>
        <time>2026-06-30T10:00:00Z</time>
      </trkpt>
      <trkpt lat="42.71034" lon="0.68366">
        <ele>2084</ele>
        <time>2026-06-30T10:00:07Z</time>
      </trkpt>
      <trkpt lat="42.7103" lon="0.68369">
        <ele>2083</ele>
        <time>2026-06-30T10:00:15Z</time>
      </trkpt>
      <trkpt lat="42.71026" lon="0.68374">
        <ele>2084</ele>
        <time>2026-06-30T10:00:25Z</time>
      </trkpt>
      <trkpt lat="42.71022" lon="0.68376">
        <ele>2085</ele>
        <time>2026-06-30T10:00:32Z</time>
      </trkpt>
      <trkpt lat="42.71017" lon="0.68376">
        <ele>2088</ele>
        <time>2026-06-30T10:00:40Z</time>
      </trkpt>
      <trkpt lat="42.71013" lon="0.68378">
        <ele>2091</ele>
        <time>2026-06-30T10:00:49Z</time>
      </trkpt>
      <trkpt lat="42.71008" lon="0.68377">
        <ele>2094</ele>
        <time>2026-06-30T10:00:57Z</time>
      </trkpt>
      <trkpt lat="42.71003" lon="0.68378">
        <ele>2096</ele>
        <time>2026-06-30T10:01:03Z</time>
      </trkpt>
      <trkpt lat="42.70999" lon="0.68377">
        <ele>2097</ele>
        <time>2026-06-30T10:01:10Z</time>
      </trkpt>
      <trkpt lat="42.70997" lon="0.68377">
        <ele>2099</ele>
        <time>2026-06-30T10:01:26Z</time>
      </trkpt>
      <trkpt lat="42.70996" lon="0.68377">
        <ele>2100</ele>
        <time>2026-06-30T10:01:27Z</time>
      </trkpt>
      <trkpt lat="42.70987" lon="0.68381">
        <ele>2101</ele>
        <time>2026-06-30T10:01:32Z</time>
      </trkpt>
      <trkpt lat="42.70981" lon="0.68387">
        <ele>2103</ele>
        <time>2026-06-30T10:01:37Z</time>
      </trkpt>
      <trkpt lat="42.70976" lon="0.68394">
        <ele>2104</ele>
        <time>2026-06-30T10:01:42Z</time>
      </trkpt>
      <trkpt lat="42.70971" lon="0.68399">
        <ele>2105</ele>
        <time>2026-06-30T10:01:47Z</time>
      </trkpt>
      <trkpt lat="42.70961" lon="0.68403">
        <ele>2106</ele>
        <time>2026-06-30T10:01:52Z</time>
      </trkpt>
      <trkpt lat="42.70954" lon="0.68407">
        <ele>2106</ele>
        <time>2026-06-30T10:01:57Z</time>
      </trkpt>
      <trkpt lat="42.7095" lon="0.68412">
        <ele>2106</ele>
        <time>2026-06-30T10:02:02Z</time>
      </trkpt>
      <trkpt lat="42.70948" lon="0.68418">
        <ele>2106</ele>
        <time>2026-06-30T10:02:09Z</time>
      </trkpt>
      <trkpt lat="42.70945" lon="0.68423">
        <ele>2107</ele>
        <time>2026-06-30T10:02:17Z</time>
      </trkpt>
      <trkpt lat="42.70939" lon="0.68429">
        <ele>2107</ele>
        <time>2026-06-30T10:02:22Z</time>
      </trkpt>
      <trkpt lat="42.70932" lon="0.68436">
        <ele>2108</ele>
        <time>2026-06-30T10:02:27Z</time>
      </trkpt>
      <trkpt lat="42.70927" lon="0.68444">
        <ele>2109</ele>
        <time>2026-06-30T10:02:32Z</time>
      </trkpt>
      <trkpt lat="42.70923" lon="0.68446">
        <ele>2110</ele>
        <time>2026-06-30T10:02:40Z</time>
      </trkpt>
      <trkpt lat="42.70922" lon="0.68452">
        <ele>2110</ele>
        <time>2026-06-30T10:02:49Z</time>
      </trkpt>
      <trkpt lat="42.7092" lon="0.68455">
        <ele>2111</ele>
        <time>2026-06-30T10:03:11Z</time>
      </trkpt>
      <trkpt lat="42.7092" lon="0.68455">
        <ele>2112</ele>
        <time>2026-06-30T10:03:12Z</time>
      </trkpt>
      <trkpt lat="42.70915" lon="0.68456">
        <ele>2112</ele>
        <time>2026-06-30T10:03:19Z</time>
      </trkpt>
      <trkpt lat="42.7091" lon="0.68459">
        <ele>2111</ele>
        <time>2026-06-30T10:03:25Z</time>
      </trkpt>
      <trkpt lat="42.70906" lon="0.68463">
        <ele>2110</ele>
        <time>2026-06-30T10:03:30Z</time>
      </trkpt>
      <trkpt lat="42.70902" lon="0.68466">
        <ele>2108</ele>
        <time>2026-06-30T10:03:37Z</time>
      </trkpt>
      <trkpt lat="42.70898" lon="0.6847">
        <ele>2107</ele>
        <time>2026-06-30T10:03:42Z</time>
      </trkpt>
      <trkpt lat="42.70894" lon="0.68473">
        <ele>2106</ele>
        <time>2026-06-30T10:03:48Z</time>
      </trkpt>
      <trkpt lat="42.7089" lon="0.68479">
        <ele>2107</ele>
        <time>2026-06-30T10:03:54Z</time>
      </trkpt>
      <trkpt lat="42.70887" lon="0.68484">
        <ele>2107</ele>
        <time>2026-06-30T10:04:02Z</time>
      </trkpt>
      <trkpt lat="42.70885" lon="0.68489">
        <ele>2108</ele>
        <time>2026-06-30T10:04:09Z</time>
      </trkpt>
      <trkpt lat="42.70883" lon="0.68497">
        <ele>2109</ele>
        <time>2026-06-30T10:04:17Z</time>
      </trkpt>
      <trkpt lat="42.70881" lon="0.68502">
        <ele>2110</ele>
        <time>2026-06-30T10:04:22Z</time>
      </trkpt>
      <trkpt lat="42.70878" lon="0.68507">
        <ele>2110</ele>
        <time>2026-06-30T10:04:28Z</time>
      </trkpt>
      <trkpt lat="42.70874" lon="0.6851">
        <ele>2111</ele>
        <time>2026-06-30T10:04:33Z</time>
      </trkpt>
      <trkpt lat="42.7087" lon="0.68514">
        <ele>2111</ele>
        <time>2026-06-30T10:04:38Z</time>
      </trkpt>
      <trkpt lat="42.70867" lon="0.68519">
        <ele>2111</ele>
        <time>2026-06-30T10:04:43Z</time>
      </trkpt>
      <trkpt lat="42.70862" lon="0.68523">
        <ele>2111</ele>
        <time>2026-06-30T10:04:49Z</time>
      </trkpt>
      <trkpt lat="42.70859" lon="0.68528">
        <ele>2111</ele>
        <time>2026-06-30T10:04:55Z</time>
      </trkpt>
      <trkpt lat="42.70856" lon="0.68534">
        <ele>2111</ele>
        <time>2026-06-30T10:05:02Z</time>
      </trkpt>
      <trkpt lat="42.70852" lon="0.68538">
        <ele>2111</ele>
        <time>2026-06-30T10:05:10Z</time>
      </trkpt>
      <trkpt lat="42.70849" lon="0.68542">
        <ele>2112</ele>
        <time>2026-06-30T10:05:16Z</time>
      </trkpt>
      <trkpt lat="42.70844" lon="0.68541">
        <ele>2113</ele>
        <time>2026-06-30T10:05:25Z</time>
      </trkpt>
      <trkpt lat="42.70839" lon="0.6854">
        <ele>2114</ele>
        <time>2026-06-30T10:05:33Z</time>
      </trkpt>
      <trkpt lat="42.70834" lon="0.68537">
        <ele>2114</ele>
        <time>2026-06-30T10:05:48Z</time>
      </trkpt>
      <trkpt lat="42.70834" lon="0.68534">
        <ele>2115</ele>
        <time>2026-06-30T10:06:14Z</time>
      </trkpt>
      <trkpt lat="42.7083" lon="0.68533">
        <ele>2117</ele>
        <time>2026-06-30T10:06:17Z</time>
      </trkpt>
      <trkpt lat="42.70831" lon="0.68527">
        <ele>2117</ele>
        <time>2026-06-30T10:06:24Z</time>
      </trkpt>
      <trkpt lat="42.70827" lon="0.68523">
        <ele>2115</ele>
        <time>2026-06-30T10:06:29Z</time>
      </trkpt>
      <trkpt lat="42.70823" lon="0.68518">
        <ele>2114</ele>
        <time>2026-06-30T10:06:35Z</time>
      </trkpt>
      <trkpt lat="42.7082" lon="0.68512">
        <ele>2112</ele>
        <time>2026-06-30T10:06:43Z</time>
      </trkpt>
      <trkpt lat="42.70818" lon="0.68505">
        <ele>2109</ele>
        <time>2026-06-30T10:06:48Z</time>
      </trkpt>
      <trkpt lat="42.70816" lon="0.68494">
        <ele>2107</ele>
        <time>2026-06-30T10:06:53Z</time>
      </trkpt>
      <trkpt lat="42.7081" lon="0.68478">
        <ele>2106</ele>
        <time>2026-06-30T10:06:58Z</time>
      </trkpt>
      <trkpt lat="42.70807" lon="0.68473">
        <ele>2105</ele>
        <time>2026-06-30T10:07:03Z</time>
      </trkpt>
      <trkpt lat="42.70804" lon="0.68468">
        <ele>2106</ele>
        <time>2026-06-30T10:07:24Z</time>
      </trkpt>
      <trkpt lat="42.70807" lon="0.68463">
        <ele>2108</ele>
        <time>2026-06-30T10:07:38Z</time>
      </trkpt>
      <trkpt lat="42.70806" lon="0.68457">
        <ele>2111</ele>
        <time>2026-06-30T10:07:49Z</time>
      </trkpt>
      <trkpt lat="42.70808" lon="0.68451">
        <ele>2114</ele>
        <time>2026-06-30T10:07:58Z</time>
      </trkpt>
      <trkpt lat="42.70808" lon="0.68445">
        <ele>2118</ele>
        <time>2026-06-30T10:08:07Z</time>
      </trkpt>
      <trkpt lat="42.70808" lon="0.68438">
        <ele>2121</ele>
        <time>2026-06-30T10:08:25Z</time>
      </trkpt>
      <trkpt lat="42.70806" lon="0.68433">
        <ele>2123</ele>
        <time>2026-06-30T10:08:41Z</time>
      </trkpt>
      <trkpt lat="42.70807" lon="0.68426">
        <ele>2125</ele>
        <time>2026-06-30T10:08:59Z</time>
      </trkpt>
      <trkpt lat="42.70804" lon="0.6842">
        <ele>2126</ele>
        <time>2026-06-30T10:09:08Z</time>
      </trkpt>
      <trkpt lat="42.708" lon="0.68416">
        <ele>2127</ele>
        <time>2026-06-30T10:09:19Z</time>
      </trkpt>
      <trkpt lat="42.70804" lon="0.68412">
        <ele>2128</ele>
        <time>2026-06-30T10:09:35Z</time>
      </trkpt>
      <trkpt lat="42.70803" lon="0.68406">
        <ele>2129</ele>
        <time>2026-06-30T10:09:40Z</time>
      </trkpt>
      <trkpt lat="42.70804" lon="0.68399">
        <ele>2132</ele>
        <time>2026-06-30T10:09:58Z</time>
      </trkpt>
      <trkpt lat="42.708" lon="0.68397">
        <ele>2135</ele>
        <time>2026-06-30T10:10:15Z</time>
      </trkpt>
      <trkpt lat="42.70795" lon="0.68397">
        <ele>2138</ele>
        <time>2026-06-30T10:10:23Z</time>
      </trkpt>
      <trkpt lat="42.7079" lon="0.68401">
        <ele>2141</ele>
        <time>2026-06-30T10:10:38Z</time>
      </trkpt>
      <trkpt lat="42.70785" lon="0.68403">
        <ele>2144</ele>
        <time>2026-06-30T10:10:43Z</time>
      </trkpt>
      <trkpt lat="42.70781" lon="0.68406">
        <ele>2146</ele>
        <time>2026-06-30T10:10:48Z</time>
      </trkpt>
      <trkpt lat="42.70776" lon="0.68407">
        <ele>2148</ele>
        <time>2026-06-30T10:10:55Z</time>
      </trkpt>
      <trkpt lat="42.70771" lon="0.68409">
        <ele>2149</ele>
        <time>2026-06-30T10:11:03Z</time>
      </trkpt>
      <trkpt lat="42.70767" lon="0.68412">
        <ele>2150</ele>
        <time>2026-06-30T10:11:09Z</time>
      </trkpt>
      <trkpt lat="42.70762" lon="0.68415">
        <ele>2151</ele>
        <time>2026-06-30T10:11:16Z</time>
      </trkpt>
      <trkpt lat="42.70758" lon="0.68417">
        <ele>2152</ele>
        <time>2026-06-30T10:11:23Z</time>
      </trkpt>
      <trkpt lat="42.70754" lon="0.68415">
        <ele>2153</ele>
        <time>2026-06-30T10:11:33Z</time>
      </trkpt>
      <trkpt lat="42.70751" lon="0.68409">
        <ele>2153</ele>
        <time>2026-06-30T10:11:42Z</time>
      </trkpt>
      <trkpt lat="42.70753" lon="0.68409">
        <ele>2154</ele>
        <time>2026-06-30T10:12:02Z</time>
      </trkpt>
      <trkpt lat="42.7076" lon="0.68425">
        <ele>2153</ele>
        <time>2026-06-30T10:12:04Z</time>
      </trkpt>
      <trkpt lat="42.70755" lon="0.68409">
        <ele>2152</ele>
        <time>2026-06-30T10:12:08Z</time>
      </trkpt>
      <trkpt lat="42.70754" lon="0.68409">
        <ele>2150</ele>
        <time>2026-06-30T10:12:33Z</time>
      </trkpt>
      <trkpt lat="42.70748" lon="0.68411">
        <ele>2151</ele>
        <time>2026-06-30T10:12:36Z</time>
      </trkpt>
      <trkpt lat="42.70751" lon="0.68405">
        <ele>2148</ele>
        <time>2026-06-30T10:12:40Z</time>
      </trkpt>
      <trkpt lat="42.7075" lon="0.68396">
        <ele>2147</ele>
        <time>2026-06-30T10:12:52Z</time>
      </trkpt>
      <trkpt lat="42.70748" lon="0.68384">
        <ele>2147</ele>
        <time>2026-06-30T10:12:57Z</time>
      </trkpt>
      <trkpt lat="42.70745" lon="0.68371">
        <ele>2147</ele>
        <time>2026-06-30T10:13:02Z</time>
      </trkpt>
      <trkpt lat="42.70741" lon="0.68357">
        <ele>2145</ele>
        <time>2026-06-30T10:13:07Z</time>
      </trkpt>
      <trkpt lat="42.70737" lon="0.68346">
        <ele>2145</ele>
        <time>2026-06-30T10:13:12Z</time>
      </trkpt>
      <trkpt lat="42.70732" lon="0.68335">
        <ele>2146</ele>
        <time>2026-06-30T10:13:17Z</time>
      </trkpt>
      <trkpt lat="42.70729" lon="0.68325">
        <ele>2147</ele>
        <time>2026-06-30T10:13:22Z</time>
      </trkpt>
      <trkpt lat="42.70725" lon="0.68312">
        <ele>2147</ele>
        <time>2026-06-30T10:13:27Z</time>
      </trkpt>
      <trkpt lat="42.70724" lon="0.68301">
        <ele>2147</ele>
        <time>2026-06-30T10:13:32Z</time>
      </trkpt>
      <trkpt lat="42.70719" lon="0.68286">
        <ele>2147</ele>
        <time>2026-06-30T10:13:37Z</time>
      </trkpt>
      <trkpt lat="42.70714" lon="0.68273">
        <ele>2146</ele>
        <time>2026-06-30T10:13:42Z</time>
      </trkpt>
      <trkpt lat="42.70708" lon="0.68261">
        <ele>2145</ele>
        <time>2026-06-30T10:13:47Z</time>
      </trkpt>
      <trkpt lat="42.70701" lon="0.68254">
        <ele>2145</ele>
        <time>2026-06-30T10:13:52Z</time>
      </trkpt>
      <trkpt lat="42.70692" lon="0.68244">
        <ele>2145</ele>
        <time>2026-06-30T10:13:57Z</time>
      </trkpt>
      <trkpt lat="42.70683" lon="0.68235">
        <ele>2145</ele>
        <time>2026-06-30T10:14:02Z</time>
      </trkpt>
      <trkpt lat="42.70673" lon="0.68227">
        <ele>2145</ele>
        <time>2026-06-30T10:14:07Z</time>
      </trkpt>
      <trkpt lat="42.70665" lon="0.68219">
        <ele>2146</ele>
        <time>2026-06-30T10:14:12Z</time>
      </trkpt>
      <trkpt lat="42.70657" lon="0.68212">
        <ele>2147</ele>
        <time>2026-06-30T10:14:17Z</time>
      </trkpt>
      <trkpt lat="42.70649" lon="0.682">
        <ele>2147</ele>
        <time>2026-06-30T10:14:22Z</time>
      </trkpt>
      <trkpt lat="42.70643" lon="0.6819">
        <ele>2147</ele>
        <time>2026-06-30T10:14:27Z</time>
      </trkpt>
      <trkpt lat="42.7063" lon="0.68178">
        <ele>2148</ele>
        <time>2026-06-30T10:14:32Z</time>
      </trkpt>
      <trkpt lat="42.70616" lon="0.68167">
        <ele>2148</ele>
        <time>2026-06-30T10:14:37Z</time>
      </trkpt>
      <trkpt lat="42.70592" lon="0.68162">
        <ele>2149</ele>
        <time>2026-06-30T10:14:42Z</time>
      </trkpt>
      <trkpt lat="42.70579" lon="0.68166">
        <ele>2150</ele>
        <time>2026-06-30T10:14:47Z</time>
      </trkpt>
      <trkpt lat="42.70571" lon="0.6817">
        <ele>2152</ele>
        <time>2026-06-30T10:14:52Z</time>
      </trkpt>
      <trkpt lat="42.70562" lon="0.68174">
        <ele>2153</ele>
        <time>2026-06-30T10:14:57Z</time>
      </trkpt>
      <trkpt lat="42.70554" lon="0.68177">
        <ele>2154</ele>
        <time>2026-06-30T10:15:02Z</time>
      </trkpt>
      <trkpt lat="42.70544" lon="0.68186">
        <ele>2154</ele>
        <time>2026-06-30T10:15:07Z</time>
      </trkpt>
      <trkpt lat="42.70521" lon="0.68203">
        <ele>2154</ele>
        <time>2026-06-30T10:15:12Z</time>
      </trkpt>
      <trkpt lat="42.70504" lon="0.68218">
        <ele>2154</ele>
        <time>2026-06-30T10:15:17Z</time>
      </trkpt>
      <trkpt lat="42.70485" lon="0.68223">
        <ele>2153</ele>
        <time>2026-06-30T10:15:22Z</time>
      </trkpt>
      <trkpt lat="42.70468" lon="0.68236">
        <ele>2153</ele>
        <time>2026-06-30T10:15:27Z</time>
      </trkpt>
      <trkpt lat="42.70453" lon="0.68255">
        <ele>2153</ele>
        <time>2026-06-30T10:15:32Z</time>
      </trkpt>
      <trkpt lat="42.70448" lon="0.6826">
        <ele>2153</ele>
        <time>2026-06-30T10:15:37Z</time>
      </trkpt>
      <trkpt lat="42.70448" lon="0.68262">
        <ele>2153</ele>
        <time>2026-06-30T10:15:58Z</time>
      </trkpt>
      <trkpt lat="42.70447" lon="0.68269">
        <ele>2161</ele>
        <time>2026-06-30T10:16:00Z</time>
      </trkpt>
      <trkpt lat="42.70449" lon="0.68264">
        <ele>2163</ele>
        <time>2026-06-30T10:16:05Z</time>
      </trkpt>
      <trkpt lat="42.70448" lon="0.68266">
        <ele>2163</ele>
        <time>2026-06-30T10:16:30Z</time>
      </trkpt>
      <trkpt lat="42.70458" lon="0.68276">
        <ele>2161</ele>
        <time>2026-06-30T10:16:33Z</time>
      </trkpt>
      <trkpt lat="42.70446" lon="0.68267">
        <ele>2163</ele>
        <time>2026-06-30T10:16:37Z</time>
      </trkpt>
      <trkpt lat="42.70446" lon="0.68267">
        <ele>2158</ele>
        <time>2026-06-30T10:17:01Z</time>
      </trkpt>
      <trkpt lat="42.70438" lon="0.68276">
        <ele>2161</ele>
        <time>2026-06-30T10:17:04Z</time>
      </trkpt>
      <trkpt lat="42.70448" lon="0.68266">
        <ele>2161</ele>
        <time>2026-06-30T10:17:08Z</time>
      </trkpt>
      <trkpt lat="42.70448" lon="0.68267">
        <ele>2165</ele>
        <time>2026-06-30T10:17:33Z</time>
      </trkpt>
      <trkpt lat="42.70448" lon="0.68275">
        <ele>2163</ele>
        <time>2026-06-30T10:17:36Z</time>
      </trkpt>
      <trkpt lat="42.70447" lon="0.68266">
        <ele>2163</ele>
        <time>2026-06-30T10:17:40Z</time>
      </trkpt>
      <trkpt lat="42.70448" lon="0.68266">
        <ele>2160</ele>
        <time>2026-06-30T10:18:05Z</time>
      </trkpt>
      <trkpt lat="42.70433" lon="0.68262">
        <ele>2165</ele>
        <time>2026-06-30T10:18:08Z</time>
      </trkpt>
      <trkpt lat="42.70445" lon="0.68266">
        <ele>2165</ele>
        <time>2026-06-30T10:18:12Z</time>
      </trkpt>
      <trkpt lat="42.70399" lon="0.68202">
        <ele>2156</ele>
        <time>2026-06-30T10:20:12Z</time>
      </trkpt>
      <trkpt lat="42.70389" lon="0.68176">
        <ele>2152</ele>
        <time>2026-06-30T10:20:17Z</time>
      </trkpt>
      <trkpt lat="42.70384" lon="0.68154">
        <ele>2151</ele>
        <time>2026-06-30T10:20:22Z</time>
      </trkpt>
      <trkpt lat="42.70381" lon="0.68131">
        <ele>2150</ele>
        <time>2026-06-30T10:20:27Z</time>
      </trkpt>
      <trkpt lat="42.70382" lon="0.68112">
        <ele>2149</ele>
        <time>2026-06-30T10:20:32Z</time>
      </trkpt>
      <trkpt lat="42.70384" lon="0.68093">
        <ele>2148</ele>
        <time>2026-06-30T10:20:37Z</time>
      </trkpt>
      <trkpt lat="42.7038" lon="0.68058">
        <ele>2146</ele>
        <time>2026-06-30T10:20:42Z</time>
      </trkpt>
      <trkpt lat="42.70376" lon="0.68025">
        <ele>2144</ele>
        <time>2026-06-30T10:20:47Z</time>
      </trkpt>
      <trkpt lat="42.70371" lon="0.67983">
        <ele>2141</ele>
        <time>2026-06-30T10:20:52Z</time>
      </trkpt>
      <trkpt lat="42.70362" lon="0.67952">
        <ele>2137</ele>
        <time>2026-06-30T10:20:57Z</time>
      </trkpt>
      <trkpt lat="42.70362" lon="0.67928">
        <ele>2134</ele>
        <time>2026-06-30T10:21:02Z</time>
      </trkpt>
      <trkpt lat="42.70361" lon="0.67915">
        <ele>2131</ele>
        <time>2026-06-30T10:21:07Z</time>
      </trkpt>
      <trkpt lat="42.7036" lon="0.67888">
        <ele>2129</ele>
        <time>2026-06-30T10:21:12Z</time>
      </trkpt>
      <trkpt lat="42.70364" lon="0.67855">
        <ele>2127</ele>
        <time>2026-06-30T10:21:17Z</time>
      </trkpt>
      <trkpt lat="42.70361" lon="0.67826">
        <ele>2126</ele>
        <time>2026-06-30T10:21:22Z</time>
      </trkpt>
      <trkpt lat="42.70357" lon="0.67814">
        <ele>2125</ele>
        <time>2026-06-30T10:21:27Z</time>
      </trkpt>
      <trkpt lat="42.70349" lon="0.67796">
        <ele>2123</ele>
        <time>2026-06-30T10:21:32Z</time>
      </trkpt>
      <trkpt lat="42.70346" lon="0.67775">
        <ele>2122</ele>
        <time>2026-06-30T10:21:37Z</time>
      </trkpt>
      <trkpt lat="42.70344" lon="0.6776">
        <ele>2121</ele>
        <time>2026-06-30T10:21:42Z</time>
      </trkpt>
      <trkpt lat="42.70345" lon="0.6776">
        <ele>2119</ele>
        <time>2026-06-30T10:22:09Z</time>
      </trkpt>
      <trkpt lat="42.70343" lon="0.67762">
        <ele>2118</ele>
        <time>2026-06-30T10:22:12Z</time>
      </trkpt>
      <trkpt lat="42.70345" lon="0.67763">
        <ele>2117</ele>
        <time>2026-06-30T10:22:40Z</time>
      </trkpt>
      <trkpt lat="42.70345" lon="0.6776">
        <ele>2118</ele>
        <time>2026-06-30T10:22:43Z</time>
      </trkpt>
      <trkpt lat="42.70344" lon="0.67762">
        <ele>2118</ele>
        <time>2026-06-30T10:23:13Z</time>
      </trkpt>
      <trkpt lat="42.70338" lon="0.67766">
        <ele>2111</ele>
        <time>2026-06-30T10:23:15Z</time>
      </trkpt>
      <trkpt lat="42.70344" lon="0.67756">
        <ele>2112</ele>
        <time>2026-06-30T10:23:20Z</time>
      </trkpt>
      <trkpt lat="42.70345" lon="0.67756">
        <ele>2112</ele>
        <time>2026-06-30T10:23:45Z</time>
      </trkpt>
      <trkpt lat="42.7033" lon="0.67766">
        <ele>2107</ele>
        <time>2026-06-30T10:23:47Z</time>
      </trkpt>
      <trkpt lat="42.70345" lon="0.67762">
        <ele>2106</ele>
        <time>2026-06-30T10:23:52Z</time>
      </trkpt>
      <trkpt lat="42.70346" lon="0.67761">
        <ele>2114</ele>
        <time>2026-06-30T10:24:17Z</time>
      </trkpt>
      <trkpt lat="42.70347" lon="0.67768">
        <ele>2109</ele>
        <time>2026-06-30T10:24:20Z</time>
      </trkpt>
      <trkpt lat="42.70347" lon="0.67759">
        <ele>2110</ele>
        <time>2026-06-30T10:24:24Z</time>
      </trkpt>
      <trkpt lat="42.70326" lon="0.67701">
        <ele>2130</ele>
        <time>2026-06-30T10:26:43Z</time>
      </trkpt>
      <trkpt lat="42.70327" lon="0.67694">
        <ele>2130</ele>
        <time>2026-06-30T10:26:51Z</time>
      </trkpt>
      <trkpt lat="42.70328" lon="0.67688">
        <ele>2130</ele>
        <time>2026-06-30T10:26:56Z</time>
      </trkpt>
      <trkpt lat="42.7033" lon="0.67682">
        <ele>2131</ele>
        <time>2026-06-30T10:27:01Z</time>
      </trkpt>
      <trkpt lat="42.70332" lon="0.67675">
        <ele>2132</ele>
        <time>2026-06-30T10:27:06Z</time>
      </trkpt>
      <trkpt lat="42.70332" lon="0.67669">
        <ele>2133</ele>
        <time>2026-06-30T10:27:11Z</time>
      </trkpt>
      <trkpt lat="42.70334" lon="0.67663">
        <ele>2134</ele>
        <time>2026-06-30T10:27:17Z</time>
      </trkpt>
      <trkpt lat="42.70335" lon="0.67657">
        <ele>2135</ele>
        <time>2026-06-30T10:27:24Z</time>
      </trkpt>
      <trkpt lat="42.70336" lon="0.6765">
        <ele>2136</ele>
        <time>2026-06-30T10:27:34Z</time>
      </trkpt>
      <trkpt lat="42.70338" lon="0.67644">
        <ele>2139</ele>
        <time>2026-06-30T10:27:41Z</time>
      </trkpt>
      <trkpt lat="42.70339" lon="0.67637">
        <ele>2142</ele>
        <time>2026-06-30T10:27:47Z</time>
      </trkpt>
      <trkpt lat="42.7034" lon="0.67631">
        <ele>2145</ele>
        <time>2026-06-30T10:27:56Z</time>
      </trkpt>
      <trkpt lat="42.70341" lon="0.67623">
        <ele>2148</ele>
        <time>2026-06-30T10:28:01Z</time>
      </trkpt>
      <trkpt lat="42.70341" lon="0.67616">
        <ele>2151</ele>
        <time>2026-06-30T10:28:06Z</time>
      </trkpt>
      <trkpt lat="42.7034" lon="0.6761">
        <ele>2152</ele>
        <time>2026-06-30T10:28:13Z</time>
      </trkpt>
      <trkpt lat="42.70338" lon="0.67604">
        <ele>2153</ele>
        <time>2026-06-30T10:28:18Z</time>
      </trkpt>
      <trkpt lat="42.70333" lon="0.67602">
        <ele>2154</ele>
        <time>2026-06-30T10:28:26Z</time>
      </trkpt>
      <trkpt lat="42.7033" lon="0.67607">
        <ele>2155</ele>
        <time>2026-06-30T10:28:47Z</time>
      </trkpt>
      <trkpt lat="42.70325" lon="0.67607">
        <ele>2155</ele>
        <time>2026-06-30T10:29:03Z</time>
      </trkpt>
      <trkpt lat="42.70322" lon="0.67612">
        <ele>2156</ele>
        <time>2026-06-30T10:29:11Z</time>
      </trkpt>
      <trkpt lat="42.70318" lon="0.67608">
        <ele>2158</ele>
        <time>2026-06-30T10:29:20Z</time>
      </trkpt>
      <trkpt lat="42.70314" lon="0.67605">
        <ele>2159</ele>
        <time>2026-06-30T10:29:27Z</time>
      </trkpt>
      <trkpt lat="42.70309" lon="0.67602">
        <ele>2160</ele>
        <time>2026-06-30T10:29:39Z</time>
      </trkpt>
      <trkpt lat="42.70306" lon="0.67599">
        <ele>2162</ele>
        <time>2026-06-30T10:29:46Z</time>
      </trkpt>
      <trkpt lat="42.70301" lon="0.67596">
        <ele>2164</ele>
        <time>2026-06-30T10:29:54Z</time>
      </trkpt>
      <trkpt lat="42.70298" lon="0.67593">
        <ele>2165</ele>
        <time>2026-06-30T10:30:03Z</time>
      </trkpt>
      <trkpt lat="42.70294" lon="0.67589">
        <ele>2166</ele>
        <time>2026-06-30T10:30:14Z</time>
      </trkpt>
      <trkpt lat="42.7029" lon="0.67585">
        <ele>2167</ele>
        <time>2026-06-30T10:30:22Z</time>
      </trkpt>
      <trkpt lat="42.70286" lon="0.67583">
        <ele>2168</ele>
        <time>2026-06-30T10:30:34Z</time>
      </trkpt>
      <trkpt lat="42.70282" lon="0.67579">
        <ele>2169</ele>
        <time>2026-06-30T10:30:47Z</time>
      </trkpt>
      <trkpt lat="42.70277" lon="0.6758">
        <ele>2171</ele>
        <time>2026-06-30T10:31:14Z</time>
      </trkpt>
      <trkpt lat="42.70274" lon="0.67583">
        <ele>2172</ele>
        <time>2026-06-30T10:31:17Z</time>
      </trkpt>
      <trkpt lat="42.70271" lon="0.67577">
        <ele>2173</ele>
        <time>2026-06-30T10:31:31Z</time>
      </trkpt>
      <trkpt lat="42.70267" lon="0.67579">
        <ele>2174</ele>
        <time>2026-06-30T10:31:45Z</time>
      </trkpt>
      <trkpt lat="42.70261" lon="0.67579">
        <ele>2174</ele>
        <time>2026-06-30T10:31:56Z</time>
      </trkpt>
      <trkpt lat="42.70257" lon="0.67576">
        <ele>2175</ele>
        <time>2026-06-30T10:32:16Z</time>
      </trkpt>
      <trkpt lat="42.70253" lon="0.67573">
        <ele>2177</ele>
        <time>2026-06-30T10:32:24Z</time>
      </trkpt>
      <trkpt lat="42.70248" lon="0.67571">
        <ele>2179</ele>
        <time>2026-06-30T10:32:36Z</time>
      </trkpt>
      <trkpt lat="42.70247" lon="0.6757">
        <ele>2181</ele>
        <time>2026-06-30T10:32:52Z</time>
      </trkpt>
      <trkpt lat="42.70243" lon="0.67568">
        <ele>2181</ele>
        <time>2026-06-30T10:32:54Z</time>
      </trkpt>
      <trkpt lat="42.70239" lon="0.67567">
        <ele>2183</ele>
        <time>2026-06-30T10:33:08Z</time>
      </trkpt>
      <trkpt lat="42.70235" lon="0.67563">
        <ele>2185</ele>
        <time>2026-06-30T10:33:11Z</time>
      </trkpt>
      <trkpt lat="42.70231" lon="0.67565">
        <ele>2187</ele>
        <time>2026-06-30T10:33:25Z</time>
      </trkpt>
      <trkpt lat="42.70227" lon="0.67562">
        <ele>2189</ele>
        <time>2026-06-30T10:33:34Z</time>
      </trkpt>
      <trkpt lat="42.70223" lon="0.67561">
        <ele>2192</ele>
        <time>2026-06-30T10:33:43Z</time>
      </trkpt>
      <trkpt lat="42.70218" lon="0.67561">
        <ele>2193</ele>
        <time>2026-06-30T10:33:53Z</time>
      </trkpt>
      <trkpt lat="42.70213" lon="0.67559">
        <ele>2194</ele>
        <time>2026-06-30T10:34:02Z</time>
      </trkpt>
      <trkpt lat="42.70209" lon="0.67562">
        <ele>2194</ele>
        <time>2026-06-30T10:34:12Z</time>
      </trkpt>
      <trkpt lat="42.70204" lon="0.67562">
        <ele>2195</ele>
        <time>2026-06-30T10:34:21Z</time>
      </trkpt>
      <trkpt lat="42.702" lon="0.67558">
        <ele>2196</ele>
        <time>2026-06-30T10:34:43Z</time>
      </trkpt>
      <trkpt lat="42.70197" lon="0.67553">
        <ele>2197</ele>
        <time>2026-06-30T10:34:51Z</time>
      </trkpt>
      <trkpt lat="42.70192" lon="0.67551">
        <ele>2198</ele>
        <time>2026-06-30T10:35:04Z</time>
      </trkpt>
      <trkpt lat="42.70187" lon="0.67549">
        <ele>2199</ele>
        <time>2026-06-30T10:35:13Z</time>
      </trkpt>
      <trkpt lat="42.70182" lon="0.67547">
        <ele>2201</ele>
        <time>2026-06-30T10:35:28Z</time>
      </trkpt>
      <trkpt lat="42.70178" lon="0.67548">
        <ele>2203</ele>
        <time>2026-06-30T10:35:41Z</time>
      </trkpt>
      <trkpt lat="42.70175" lon="0.67543">
        <ele>2205</ele>
        <time>2026-06-30T10:35:46Z</time>
      </trkpt>
      <trkpt lat="42.70171" lon="0.67538">
        <ele>2207</ele>
        <time>2026-06-30T10:35:55Z</time>
      </trkpt>
      <trkpt lat="42.70167" lon="0.67535">
        <ele>2209</ele>
        <time>2026-06-30T10:36:06Z</time>
      </trkpt>
      <trkpt lat="42.70162" lon="0.67533">
        <ele>2210</ele>
        <time>2026-06-30T10:36:17Z</time>
      </trkpt>
      <trkpt lat="42.70157" lon="0.67533">
        <ele>2211</ele>
        <time>2026-06-30T10:36:29Z</time>
      </trkpt>
      <trkpt lat="42.70153" lon="0.67532">
        <ele>2213</ele>
        <time>2026-06-30T10:36:39Z</time>
      </trkpt>
      <trkpt lat="42.70148" lon="0.67529">
        <ele>2215</ele>
        <time>2026-06-30T10:36:49Z</time>
      </trkpt>
      <trkpt lat="42.70144" lon="0.67525">
        <ele>2217</ele>
        <time>2026-06-30T10:36:57Z</time>
      </trkpt>
      <trkpt lat="42.70142" lon="0.67519">
        <ele>2218</ele>
        <time>2026-06-30T10:37:15Z</time>
      </trkpt>
      <trkpt lat="42.70138" lon="0.67516">
        <ele>2219</ele>
        <time>2026-06-30T10:37:24Z</time>
      </trkpt>
      <trkpt lat="42.70134" lon="0.67519">
        <ele>2219</ele>
        <time>2026-06-30T10:37:33Z</time>
      </trkpt>
      <trkpt lat="42.7013" lon="0.67514">
        <ele>2220</ele>
        <time>2026-06-30T10:37:54Z</time>
      </trkpt>
      <trkpt lat="42.70127" lon="0.67509">
        <ele>2222</ele>
        <time>2026-06-30T10:38:02Z</time>
      </trkpt>
      <trkpt lat="42.70122" lon="0.67508">
        <ele>2223</ele>
        <time>2026-06-30T10:38:11Z</time>
      </trkpt>
      <trkpt lat="42.70117" lon="0.67505">
        <ele>2224</ele>
        <time>2026-06-30T10:38:24Z</time>
      </trkpt>
      <trkpt lat="42.70113" lon="0.67502">
        <ele>2226</ele>
        <time>2026-06-30T10:38:36Z</time>
      </trkpt>
      <trkpt lat="42.70107" lon="0.675">
        <ele>2228</ele>
        <time>2026-06-30T10:38:48Z</time>
      </trkpt>
      <trkpt lat="42.70103" lon="0.67498">
        <ele>2229</ele>
        <time>2026-06-30T10:39:01Z</time>
      </trkpt>
      <trkpt lat="42.70099" lon="0.67494">
        <ele>2230</ele>
        <time>2026-06-30T10:39:07Z</time>
      </trkpt>
      <trkpt lat="42.70095" lon="0.6749">
        <ele>2232</ele>
        <time>2026-06-30T10:39:20Z</time>
      </trkpt>
      <trkpt lat="42.70091" lon="0.67489">
        <ele>2233</ele>
        <time>2026-06-30T10:39:37Z</time>
      </trkpt>
      <trkpt lat="42.7009" lon="0.67478">
        <ele>2235</ele>
        <time>2026-06-30T10:39:40Z</time>
      </trkpt>
      <trkpt lat="42.7009" lon="0.67487">
        <ele>2235</ele>
        <time>2026-06-30T10:39:44Z</time>
      </trkpt>
      <trkpt lat="42.70085" lon="0.67487">
        <ele>2236</ele>
        <time>2026-06-30T10:39:59Z</time>
      </trkpt>
      <trkpt lat="42.7008" lon="0.67486">
        <ele>2237</ele>
        <time>2026-06-30T10:40:09Z</time>
      </trkpt>
      <trkpt lat="42.70076" lon="0.67482">
        <ele>2238</ele>
        <time>2026-06-30T10:40:20Z</time>
      </trkpt>
      <trkpt lat="42.70072" lon="0.67481">
        <ele>2238</ele>
        <time>2026-06-30T10:40:35Z</time>
      </trkpt>
      <trkpt lat="42.70067" lon="0.67479">
        <ele>2239</ele>
        <time>2026-06-30T10:40:47Z</time>
      </trkpt>
      <trkpt lat="42.70063" lon="0.67477">
        <ele>2240</ele>
        <time>2026-06-30T10:40:54Z</time>
      </trkpt>
      <trkpt lat="42.70058" lon="0.67476">
        <ele>2240</ele>
        <time>2026-06-30T10:41:04Z</time>
      </trkpt>
      <trkpt lat="42.70054" lon="0.67473">
        <ele>2241</ele>
        <time>2026-06-30T10:41:14Z</time>
      </trkpt>
      <trkpt lat="42.7005" lon="0.67471">
        <ele>2242</ele>
        <time>2026-06-30T10:41:26Z</time>
      </trkpt>
      <trkpt lat="42.70045" lon="0.67472">
        <ele>2243</ele>
        <time>2026-06-30T10:41:44Z</time>
      </trkpt>
      <trkpt lat="42.7004" lon="0.67471">
        <ele>2245</ele>
        <time>2026-06-30T10:42:00Z</time>
      </trkpt>
      <trkpt lat="42.70036" lon="0.67471">
        <ele>2246</ele>
        <time>2026-06-30T10:42:18Z</time>
      </trkpt>
      <trkpt lat="42.70032" lon="0.6747">
        <ele>2248</ele>
        <time>2026-06-30T10:42:36Z</time>
      </trkpt>
      <trkpt lat="42.70023" lon="0.67472">
        <ele>2246</ele>
        <time>2026-06-30T10:42:39Z</time>
      </trkpt>
      <trkpt lat="42.70028" lon="0.67465">
        <ele>2247</ele>
        <time>2026-06-30T10:42:43Z</time>
      </trkpt>
      <trkpt lat="42.70023" lon="0.67465">
        <ele>2249</ele>
        <time>2026-06-30T10:43:03Z</time>
      </trkpt>
      <trkpt lat="42.70019" lon="0.67462">
        <ele>2250</ele>
        <time>2026-06-30T10:43:20Z</time>
      </trkpt>
      <trkpt lat="42.70015" lon="0.67459">
        <ele>2252</ele>
        <time>2026-06-30T10:43:37Z</time>
      </trkpt>
      <trkpt lat="42.70011" lon="0.67455">
        <ele>2256</ele>
        <time>2026-06-30T10:43:51Z</time>
      </trkpt>
      <trkpt lat="42.70008" lon="0.6745">
        <ele>2259</ele>
        <time>2026-06-30T10:43:59Z</time>
      </trkpt>
      <trkpt lat="42.70004" lon="0.67445">
        <ele>2260</ele>
        <time>2026-06-30T10:44:06Z</time>
      </trkpt>
      <trkpt lat="42.70001" lon="0.6744">
        <ele>2261</ele>
        <time>2026-06-30T10:44:14Z</time>
      </trkpt>
      <trkpt lat="42.69998" lon="0.67435">
        <ele>2262</ele>
        <time>2026-06-30T10:44:24Z</time>
      </trkpt>
      <trkpt lat="42.69995" lon="0.6743">
        <ele>2264</ele>
        <time>2026-06-30T10:44:31Z</time>
      </trkpt>
      <trkpt lat="42.69991" lon="0.67425">
        <ele>2265</ele>
        <time>2026-06-30T10:44:41Z</time>
      </trkpt>
      <trkpt lat="42.69989" lon="0.6742">
        <ele>2266</ele>
        <time>2026-06-30T10:44:48Z</time>
      </trkpt>
      <trkpt lat="42.69986" lon="0.67414">
        <ele>2267</ele>
        <time>2026-06-30T10:44:57Z</time>
      </trkpt>
      <trkpt lat="42.69983" lon="0.6741">
        <ele>2269</ele>
        <time>2026-06-30T10:45:05Z</time>
      </trkpt>
      <trkpt lat="42.69979" lon="0.67407">
        <ele>2270</ele>
        <time>2026-06-30T10:45:14Z</time>
      </trkpt>
      <trkpt lat="42.69975" lon="0.67404">
        <ele>2271</ele>
        <time>2026-06-30T10:45:22Z</time>
      </trkpt>
      <trkpt lat="42.6997" lon="0.674">
        <ele>2272</ele>
        <time>2026-06-30T10:45:34Z</time>
      </trkpt>
      <trkpt lat="42.69967" lon="0.67397">
        <ele>2273</ele>
        <time>2026-06-30T10:45:48Z</time>
      </trkpt>
      <trkpt lat="42.69963" lon="0.67393">
        <ele>2275</ele>
        <time>2026-06-30T10:45:56Z</time>
      </trkpt>
      <trkpt lat="42.69959" lon="0.67393">
        <ele>2276</ele>
        <time>2026-06-30T10:46:05Z</time>
      </trkpt>
      <trkpt lat="42.69954" lon="0.6739">
        <ele>2276</ele>
        <time>2026-06-30T10:46:16Z</time>
      </trkpt>
      <trkpt lat="42.69949" lon="0.6739">
        <ele>2277</ele>
        <time>2026-06-30T10:46:26Z</time>
      </trkpt>
      <trkpt lat="42.69944" lon="0.67391">
        <ele>2277</ele>
        <time>2026-06-30T10:46:34Z</time>
      </trkpt>
      <trkpt lat="42.6994" lon="0.67391">
        <ele>2278</ele>
        <time>2026-06-30T10:46:47Z</time>
      </trkpt>
      <trkpt lat="42.69935" lon="0.67389">
        <ele>2278</ele>
        <time>2026-06-30T10:46:55Z</time>
      </trkpt>
      <trkpt lat="42.6993" lon="0.6739">
        <ele>2278</ele>
        <time>2026-06-30T10:47:03Z</time>
      </trkpt>
      <trkpt lat="42.69927" lon="0.67387">
        <ele>2279</ele>
        <time>2026-06-30T10:47:26Z</time>
      </trkpt>
      <trkpt lat="42.69926" lon="0.67385">
        <ele>2280</ele>
        <time>2026-06-30T10:47:28Z</time>
      </trkpt>
      <trkpt lat="42.69921" lon="0.67387">
        <ele>2280</ele>
        <time>2026-06-30T10:47:49Z</time>
      </trkpt>
      <trkpt lat="42.69916" lon="0.67388">
        <ele>2280</ele>
        <time>2026-06-30T10:47:58Z</time>
      </trkpt>
      <trkpt lat="42.69912" lon="0.6739">
        <ele>2281</ele>
        <time>2026-06-30T10:48:07Z</time>
      </trkpt>
      <trkpt lat="42.69907" lon="0.6739">
        <ele>2281</ele>
        <time>2026-06-30T10:48:17Z</time>
      </trkpt>
      <trkpt lat="42.69902" lon="0.6739">
        <ele>2281</ele>
        <time>2026-06-30T10:48:25Z</time>
      </trkpt>
      <trkpt lat="42.69898" lon="0.6739">
        <ele>2283</ele>
        <time>2026-06-30T10:48:40Z</time>
      </trkpt>
      <trkpt lat="42.69893" lon="0.67391">
        <ele>2284</ele>
        <time>2026-06-30T10:48:50Z</time>
      </trkpt>
      <trkpt lat="42.69889" lon="0.67391">
        <ele>2285</ele>
        <time>2026-06-30T10:49:01Z</time>
      </trkpt>
      <trkpt lat="42.69884" lon="0.6739">
        <ele>2286</ele>
        <time>2026-06-30T10:49:12Z</time>
      </trkpt>
      <trkpt lat="42.69879" lon="0.67388">
        <ele>2287</ele>
        <time>2026-06-30T10:49:25Z</time>
      </trkpt>
      <trkpt lat="42.69874" lon="0.67389">
        <ele>2289</ele>
        <time>2026-06-30T10:49:38Z</time>
      </trkpt>
      <trkpt lat="42.6987" lon="0.67388">
        <ele>2290</ele>
        <time>2026-06-30T10:49:48Z</time>
      </trkpt>
      <trkpt lat="42.69865" lon="0.67386">
        <ele>2293</ele>
        <time>2026-06-30T10:50:03Z</time>
      </trkpt>
      <trkpt lat="42.69861" lon="0.67386">
        <ele>2295</ele>
        <time>2026-06-30T10:50:13Z</time>
      </trkpt>
      <trkpt lat="42.69856" lon="0.67385">
        <ele>2297</ele>
        <time>2026-06-30T10:50:22Z</time>
      </trkpt>
      <trkpt lat="42.69851" lon="0.67387">
        <ele>2299</ele>
        <time>2026-06-30T10:50:31Z</time>
      </trkpt>
      <trkpt lat="42.69846" lon="0.67388">
        <ele>2301</ele>
        <time>2026-06-30T10:50:39Z</time>
      </trkpt>
      <trkpt lat="42.69841" lon="0.67389">
        <ele>2302</ele>
        <time>2026-06-30T10:50:52Z</time>
      </trkpt>
      <trkpt lat="42.69838" lon="0.67392">
        <ele>2304</ele>
        <time>2026-06-30T10:51:04Z</time>
      </trkpt>
      <trkpt lat="42.69833" lon="0.67392">
        <ele>2305</ele>
        <time>2026-06-30T10:51:16Z</time>
      </trkpt>
      <trkpt lat="42.69833" lon="0.67393">
        <ele>2307</ele>
        <time>2026-06-30T10:51:41Z</time>
      </trkpt>
      <trkpt lat="42.69834" lon="0.67398">
        <ele>2307</ele>
        <time>2026-06-30T10:51:45Z</time>
      </trkpt>
      <trkpt lat="42.69829" lon="0.67399">
        <ele>2307</ele>
        <time>2026-06-30T10:52:12Z</time>
      </trkpt>
      <trkpt lat="42.69824" lon="0.67399">
        <ele>2307</ele>
        <time>2026-06-30T10:52:19Z</time>
      </trkpt>
      <trkpt lat="42.69819" lon="0.674">
        <ele>2307</ele>
        <time>2026-06-30T10:52:26Z</time>
      </trkpt>
      <trkpt lat="42.69814" lon="0.674">
        <ele>2307</ele>
        <time>2026-06-30T10:52:32Z</time>
      </trkpt>
      <trkpt lat="42.69809" lon="0.67401">
        <ele>2308</ele>
        <time>2026-06-30T10:52:38Z</time>
      </trkpt>
      <trkpt lat="42.69804" lon="0.67401">
        <ele>2309</ele>
        <time>2026-06-30T10:52:48Z</time>
      </trkpt>
      <trkpt lat="42.698" lon="0.67402">
        <ele>2310</ele>
        <time>2026-06-30T10:52:58Z</time>
      </trkpt>
      <trkpt lat="42.69795" lon="0.67403">
        <ele>2310</ele>
        <time>2026-06-30T10:53:08Z</time>
      </trkpt>
      <trkpt lat="42.6979" lon="0.67402">
        <ele>2311</ele>
        <time>2026-06-30T10:53:14Z</time>
      </trkpt>
      <trkpt lat="42.69785" lon="0.674">
        <ele>2312</ele>
        <time>2026-06-30T10:53:21Z</time>
      </trkpt>
      <trkpt lat="42.69781" lon="0.67397">
        <ele>2312</ele>
        <time>2026-06-30T10:53:29Z</time>
      </trkpt>
      <trkpt lat="42.69776" lon="0.67396">
        <ele>2313</ele>
        <time>2026-06-30T10:53:35Z</time>
      </trkpt>
      <trkpt lat="42.69771" lon="0.67394">
        <ele>2314</ele>
        <time>2026-06-30T10:53:42Z</time>
      </trkpt>
      <trkpt lat="42.69766" lon="0.67392">
        <ele>2315</ele>
        <time>2026-06-30T10:53:48Z</time>
      </trkpt>
      <trkpt lat="42.69762" lon="0.67391">
        <ele>2316</ele>
        <time>2026-06-30T10:54:05Z</time>
      </trkpt>
      <trkpt lat="42.69761" lon="0.67388">
        <ele>2318</ele>
        <time>2026-06-30T10:54:07Z</time>
      </trkpt>
      <trkpt lat="42.69769" lon="0.67394">
        <ele>2317</ele>
        <time>2026-06-30T10:54:12Z</time>
      </trkpt>
      <trkpt lat="42.69764" lon="0.67393">
        <ele>2316</ele>
        <time>2026-06-30T10:54:19Z</time>
      </trkpt>
      <trkpt lat="42.69758" lon="0.67389">
        <ele>2315</ele>
        <time>2026-06-30T10:54:24Z</time>
      </trkpt>
      <trkpt lat="42.69752" lon="0.67389">
        <ele>2314</ele>
        <time>2026-06-30T10:54:29Z</time>
      </trkpt>
      <trkpt lat="42.69746" lon="0.67386">
        <ele>2312</ele>
        <time>2026-06-30T10:54:34Z</time>
      </trkpt>
      <trkpt lat="42.69741" lon="0.67384">
        <ele>2313</ele>
        <time>2026-06-30T10:54:47Z</time>
      </trkpt>
      <trkpt lat="42.69733" lon="0.67385">
        <ele>2313</ele>
        <time>2026-06-30T10:54:52Z</time>
      </trkpt>
      <trkpt lat="42.69729" lon="0.67384">
        <ele>2314</ele>
        <time>2026-06-30T10:54:57Z</time>
      </trkpt>
      <trkpt lat="42.69723" lon="0.67384">
        <ele>2315</ele>
        <time>2026-06-30T10:55:02Z</time>
      </trkpt>
      <trkpt lat="42.69718" lon="0.67385">
        <ele>2316</ele>
        <time>2026-06-30T10:55:08Z</time>
      </trkpt>
      <trkpt lat="42.69713" lon="0.67388">
        <ele>2317</ele>
        <time>2026-06-30T10:55:21Z</time>
      </trkpt>
      <trkpt lat="42.69708" lon="0.67389">
        <ele>2319</ele>
        <time>2026-06-30T10:55:27Z</time>
      </trkpt>
      <trkpt lat="42.69703" lon="0.67391">
        <ele>2320</ele>
        <time>2026-06-30T10:55:32Z</time>
      </trkpt>
      <trkpt lat="42.69698" lon="0.67393">
        <ele>2323</ele>
        <time>2026-06-30T10:55:46Z</time>
      </trkpt>
      <trkpt lat="42.69694" lon="0.67396">
        <ele>2325</ele>
        <time>2026-06-30T10:55:51Z</time>
      </trkpt>
      <trkpt lat="42.6969" lon="0.674">
        <ele>2327</ele>
        <time>2026-06-30T10:55:58Z</time>
      </trkpt>
      <trkpt lat="42.69686" lon="0.67398">
        <ele>2329</ele>
        <time>2026-06-30T10:56:11Z</time>
      </trkpt>
      <trkpt lat="42.69681" lon="0.67398">
        <ele>2332</ele>
        <time>2026-06-30T10:56:18Z</time>
      </trkpt>
      <trkpt lat="42.69676" lon="0.67399">
        <ele>2334</ele>
        <time>2026-06-30T10:56:27Z</time>
      </trkpt>
      <trkpt lat="42.69672" lon="0.67402">
        <ele>2336</ele>
        <time>2026-06-30T10:56:46Z</time>
      </trkpt>
      <trkpt lat="42.69685" lon="0.67404">
        <ele>2338</ele>
        <time>2026-06-30T10:56:48Z</time>
      </trkpt>
      <trkpt lat="42.69677" lon="0.67403">
        <ele>2338</ele>
        <time>2026-06-30T10:56:53Z</time>
      </trkpt>
      <trkpt lat="42.69673" lon="0.67405">
        <ele>2338</ele>
        <time>2026-06-30T10:57:16Z</time>
      </trkpt>
      <trkpt lat="42.69665" lon="0.67409">
        <ele>2338</ele>
        <time>2026-06-30T10:57:19Z</time>
      </trkpt>
      <trkpt lat="42.69661" lon="0.6741">
        <ele>2338</ele>
        <time>2026-06-30T10:57:42Z</time>
      </trkpt>
      <trkpt lat="42.69656" lon="0.67412">
        <ele>2338</ele>
        <time>2026-06-30T10:57:52Z</time>
      </trkpt>
      <trkpt lat="42.69653" lon="0.67417">
        <ele>2340</ele>
        <time>2026-06-30T10:58:00Z</time>
      </trkpt>
      <trkpt lat="42.69648" lon="0.67419">
        <ele>2341</ele>
        <time>2026-06-30T10:58:08Z</time>
      </trkpt>
      <trkpt lat="42.69643" lon="0.67419">
        <ele>2343</ele>
        <time>2026-06-30T10:58:19Z</time>
      </trkpt>
      <trkpt lat="42.69643" lon="0.67418">
        <ele>2344</ele>
        <time>2026-06-30T10:58:49Z</time>
      </trkpt>
      <trkpt lat="42.69641" lon="0.67416">
        <ele>2347</ele>
        <time>2026-06-30T10:58:51Z</time>
      </trkpt>
      <trkpt lat="42.69637" lon="0.67417">
        <ele>2348</ele>
        <time>2026-06-30T10:59:02Z</time>
      </trkpt>
      <trkpt lat="42.69632" lon="0.67417">
        <ele>2349</ele>
        <time>2026-06-30T10:59:12Z</time>
      </trkpt>
      <trkpt lat="42.69627" lon="0.67418">
        <ele>2350</ele>
        <time>2026-06-30T10:59:26Z</time>
      </trkpt>
      <trkpt lat="42.69622" lon="0.67418">
        <ele>2352</ele>
        <time>2026-06-30T10:59:32Z</time>
      </trkpt>
      <trkpt lat="42.69617" lon="0.67419">
        <ele>2351</ele>
        <time>2026-06-30T10:59:42Z</time>
      </trkpt>
      <trkpt lat="42.69612" lon="0.67419">
        <ele>2352</ele>
        <time>2026-06-30T10:59:56Z</time>
      </trkpt>
      <trkpt lat="42.69608" lon="0.67422">
        <ele>2352</ele>
        <time>2026-06-30T11:00:05Z</time>
      </trkpt>
      <trkpt lat="42.69605" lon="0.67427">
        <ele>2353</ele>
        <time>2026-06-30T11:00:13Z</time>
      </trkpt>
      <trkpt lat="42.69601" lon="0.6743">
        <ele>2354</ele>
        <time>2026-06-30T11:00:18Z</time>
      </trkpt>
      <trkpt lat="42.69597" lon="0.67433">
        <ele>2354</ele>
        <time>2026-06-30T11:00:24Z</time>
      </trkpt>
      <trkpt lat="42.69594" lon="0.67438">
        <ele>2355</ele>
        <time>2026-06-30T11:00:29Z</time>
      </trkpt>
      <trkpt lat="42.6959" lon="0.67441">
        <ele>2356</ele>
        <time>2026-06-30T11:00:38Z</time>
      </trkpt>
      <trkpt lat="42.69586" lon="0.67436">
        <ele>2356</ele>
        <time>2026-06-30T11:00:46Z</time>
      </trkpt>
      <trkpt lat="42.69581" lon="0.67433">
        <ele>2357</ele>
        <time>2026-06-30T11:00:52Z</time>
      </trkpt>
      <trkpt lat="42.69577" lon="0.6743">
        <ele>2359</ele>
        <time>2026-06-30T11:00:57Z</time>
      </trkpt>
      <trkpt lat="42.69573" lon="0.67428">
        <ele>2361</ele>
        <time>2026-06-30T11:01:06Z</time>
      </trkpt>
      <trkpt lat="42.69568" lon="0.67428">
        <ele>2363</ele>
        <time>2026-06-30T11:01:13Z</time>
      </trkpt>
      <trkpt lat="42.69564" lon="0.67428">
        <ele>2365</ele>
        <time>2026-06-30T11:01:18Z</time>
      </trkpt>
      <trkpt lat="42.6956" lon="0.67425">
        <ele>2367</ele>
        <time>2026-06-30T11:01:26Z</time>
      </trkpt>
      <trkpt lat="42.69555" lon="0.67423">
        <ele>2369</ele>
        <time>2026-06-30T11:01:35Z</time>
      </trkpt>
      <trkpt lat="42.69549" lon="0.67423">
        <ele>2370</ele>
        <time>2026-06-30T11:01:41Z</time>
      </trkpt>
      <trkpt lat="42.69544" lon="0.6742">
        <ele>2371</ele>
        <time>2026-06-30T11:01:49Z</time>
      </trkpt>
      <trkpt lat="42.6954" lon="0.6742">
        <ele>2372</ele>
        <time>2026-06-30T11:01:54Z</time>
      </trkpt>
      <trkpt lat="42.69534" lon="0.6742">
        <ele>2372</ele>
        <time>2026-06-30T11:02:00Z</time>
      </trkpt>
      <trkpt lat="42.69529" lon="0.67421">
        <ele>2372</ele>
        <time>2026-06-30T11:02:06Z</time>
      </trkpt>
      <trkpt lat="42.69525" lon="0.67424">
        <ele>2373</ele>
        <time>2026-06-30T11:02:11Z</time>
      </trkpt>
      <trkpt lat="42.6952" lon="0.67426">
        <ele>2373</ele>
        <time>2026-06-30T11:02:17Z</time>
      </trkpt>
      <trkpt lat="42.69515" lon="0.67428">
        <ele>2374</ele>
        <time>2026-06-30T11:02:23Z</time>
      </trkpt>
      <trkpt lat="42.69511" lon="0.67431">
        <ele>2375</ele>
        <time>2026-06-30T11:02:37Z</time>
      </trkpt>
      <trkpt lat="42.69504" lon="0.67434">
        <ele>2375</ele>
        <time>2026-06-30T11:02:42Z</time>
      </trkpt>
      <trkpt lat="42.69498" lon="0.67438">
        <ele>2375</ele>
        <time>2026-06-30T11:02:47Z</time>
      </trkpt>
      <trkpt lat="42.69494" lon="0.67441">
        <ele>2376</ele>
        <time>2026-06-30T11:02:52Z</time>
      </trkpt>
      <trkpt lat="42.6949" lon="0.67445">
        <ele>2377</ele>
        <time>2026-06-30T11:02:57Z</time>
      </trkpt>
      <trkpt lat="42.69485" lon="0.67448">
        <ele>2377</ele>
        <time>2026-06-30T11:03:02Z</time>
      </trkpt>
      <trkpt lat="42.6948" lon="0.6745">
        <ele>2378</ele>
        <time>2026-06-30T11:03:07Z</time>
      </trkpt>
      <trkpt lat="42.69476" lon="0.67454">
        <ele>2379</ele>
        <time>2026-06-30T11:03:12Z</time>
      </trkpt>
      <trkpt lat="42.69471" lon="0.67456">
        <ele>2379</ele>
        <time>2026-06-30T11:03:24Z</time>
      </trkpt>
      <trkpt lat="42.69466" lon="0.67456">
        <ele>2379</ele>
        <time>2026-06-30T11:03:29Z</time>
      </trkpt>
      <trkpt lat="42.69461" lon="0.67455">
        <ele>2380</ele>
        <time>2026-06-30T11:03:34Z</time>
      </trkpt>
      <trkpt lat="42.69457" lon="0.67451">
        <ele>2381</ele>
        <time>2026-06-30T11:03:45Z</time>
      </trkpt>
      <trkpt lat="42.69452" lon="0.67451">
        <ele>2382</ele>
        <time>2026-06-30T11:03:52Z</time>
      </trkpt>
      <trkpt lat="42.69447" lon="0.67449">
        <ele>2383</ele>
        <time>2026-06-30T11:03:58Z</time>
      </trkpt>
      <trkpt lat="42.69442" lon="0.67448">
        <ele>2384</ele>
        <time>2026-06-30T11:04:04Z</time>
      </trkpt>
      <trkpt lat="42.69438" lon="0.67445">
        <ele>2386</ele>
        <time>2026-06-30T11:04:12Z</time>
      </trkpt>
      <trkpt lat="42.69433" lon="0.67443">
        <ele>2387</ele>
        <time>2026-06-30T11:04:22Z</time>
      </trkpt>
      <trkpt lat="42.69429" lon="0.6744">
        <ele>2388</ele>
        <time>2026-06-30T11:04:31Z</time>
      </trkpt>
      <trkpt lat="42.69423" lon="0.6744">
        <ele>2389</ele>
        <time>2026-06-30T11:04:39Z</time>
      </trkpt>
      <trkpt lat="42.69419" lon="0.67439">
        <ele>2390</ele>
        <time>2026-06-30T11:04:51Z</time>
      </trkpt>
      <trkpt lat="42.69414" lon="0.67441">
        <ele>2391</ele>
        <time>2026-06-30T11:04:57Z</time>
      </trkpt>
      <trkpt lat="42.6941" lon="0.67441">
        <ele>2391</ele>
        <time>2026-06-30T11:05:04Z</time>
      </trkpt>
      <trkpt lat="42.69405" lon="0.67439">
        <ele>2392</ele>
        <time>2026-06-30T11:05:15Z</time>
      </trkpt>
      <trkpt lat="42.69403" lon="0.67433">
        <ele>2393</ele>
        <time>2026-06-30T11:05:25Z</time>
      </trkpt>
      <trkpt lat="42.69402" lon="0.67427">
        <ele>2394</ele>
        <time>2026-06-30T11:05:35Z</time>
      </trkpt>
      <trkpt lat="42.69399" lon="0.67421">
        <ele>2395</ele>
        <time>2026-06-30T11:05:42Z</time>
      </trkpt>
      <trkpt lat="42.69396" lon="0.67414">
        <ele>2397</ele>
        <time>2026-06-30T11:05:54Z</time>
      </trkpt>
      <trkpt lat="42.69392" lon="0.67411">
        <ele>2398</ele>
        <time>2026-06-30T11:06:02Z</time>
      </trkpt>
      <trkpt lat="42.69387" lon="0.67409">
        <ele>2399</ele>
        <time>2026-06-30T11:06:14Z</time>
      </trkpt>
      <trkpt lat="42.69382" lon="0.67411">
        <ele>2401</ele>
        <time>2026-06-30T11:06:34Z</time>
      </trkpt>
      <trkpt lat="42.69377" lon="0.67413">
        <ele>2402</ele>
        <time>2026-06-30T11:06:45Z</time>
      </trkpt>
      <trkpt lat="42.69372" lon="0.67414">
        <ele>2403</ele>
        <time>2026-06-30T11:06:54Z</time>
      </trkpt>
      <trkpt lat="42.69367" lon="0.67415">
        <ele>2404</ele>
        <time>2026-06-30T11:07:12Z</time>
      </trkpt>
      <trkpt lat="42.69363" lon="0.67415">
        <ele>2405</ele>
        <time>2026-06-30T11:07:20Z</time>
      </trkpt>
      <trkpt lat="42.69358" lon="0.67414">
        <ele>2406</ele>
        <time>2026-06-30T11:07:27Z</time>
      </trkpt>
      <trkpt lat="42.69354" lon="0.67416">
        <ele>2407</ele>
        <time>2026-06-30T11:07:34Z</time>
      </trkpt>
      <trkpt lat="42.69349" lon="0.67419">
        <ele>2408</ele>
        <time>2026-06-30T11:07:42Z</time>
      </trkpt>
      <trkpt lat="42.69344" lon="0.67419">
        <ele>2409</ele>
        <time>2026-06-30T11:07:51Z</time>
      </trkpt>
      <trkpt lat="42.69339" lon="0.67419">
        <ele>2411</ele>
        <time>2026-06-30T11:08:07Z</time>
      </trkpt>
      <trkpt lat="42.69334" lon="0.67419">
        <ele>2413</ele>
        <time>2026-06-30T11:08:15Z</time>
      </trkpt>
      <trkpt lat="42.6933" lon="0.6742">
        <ele>2414</ele>
        <time>2026-06-30T11:08:21Z</time>
      </trkpt>
      <trkpt lat="42.69325" lon="0.67422">
        <ele>2416</ele>
        <time>2026-06-30T11:08:29Z</time>
      </trkpt>
      <trkpt lat="42.6932" lon="0.67424">
        <ele>2417</ele>
        <time>2026-06-30T11:08:39Z</time>
      </trkpt>
      <trkpt lat="42.69315" lon="0.67422">
        <ele>2418</ele>
        <time>2026-06-30T11:08:44Z</time>
      </trkpt>
      <trkpt lat="42.69312" lon="0.67419">
        <ele>2419</ele>
        <time>2026-06-30T11:08:49Z</time>
      </trkpt>
      <trkpt lat="42.69309" lon="0.67414">
        <ele>2419</ele>
        <time>2026-06-30T11:08:54Z</time>
      </trkpt>
      <trkpt lat="42.69304" lon="0.6741">
        <ele>2420</ele>
        <time>2026-06-30T11:08:59Z</time>
      </trkpt>
      <trkpt lat="42.69301" lon="0.67406">
        <ele>2420</ele>
        <time>2026-06-30T11:09:04Z</time>
      </trkpt>
      <trkpt lat="42.69297" lon="0.67401">
        <ele>2421</ele>
        <time>2026-06-30T11:09:09Z</time>
      </trkpt>
      <trkpt lat="42.69293" lon="0.67401">
        <ele>2421</ele>
        <time>2026-06-30T11:09:16Z</time>
      </trkpt>
      <trkpt lat="42.69288" lon="0.67403">
        <ele>2422</ele>
        <time>2026-06-30T11:09:31Z</time>
      </trkpt>
      <trkpt lat="42.69283" lon="0.67405">
        <ele>2423</ele>
        <time>2026-06-30T11:09:37Z</time>
      </trkpt>
      <trkpt lat="42.69279" lon="0.67406">
        <ele>2425</ele>
        <time>2026-06-30T11:09:43Z</time>
      </trkpt>
      <trkpt lat="42.69275" lon="0.67408">
        <ele>2426</ele>
        <time>2026-06-30T11:09:52Z</time>
      </trkpt>
      <trkpt lat="42.6927" lon="0.67411">
        <ele>2428</ele>
        <time>2026-06-30T11:09:59Z</time>
      </trkpt>
      <trkpt lat="42.69265" lon="0.67412">
        <ele>2429</ele>
        <time>2026-06-30T11:10:05Z</time>
      </trkpt>
      <trkpt lat="42.6926" lon="0.67411">
        <ele>2430</ele>
        <time>2026-06-30T11:10:11Z</time>
      </trkpt>
      <trkpt lat="42.69255" lon="0.67414">
        <ele>2431</ele>
        <time>2026-06-30T11:10:17Z</time>
      </trkpt>
      <trkpt lat="42.69251" lon="0.67417">
        <ele>2432</ele>
        <time>2026-06-30T11:10:23Z</time>
      </trkpt>
      <trkpt lat="42.69246" lon="0.67418">
        <ele>2432</ele>
        <time>2026-06-30T11:10:41Z</time>
      </trkpt>
      <trkpt lat="42.69241" lon="0.67419">
        <ele>2433</ele>
        <time>2026-06-30T11:10:46Z</time>
      </trkpt>
      <trkpt lat="42.69237" lon="0.67416">
        <ele>2433</ele>
        <time>2026-06-30T11:10:53Z</time>
      </trkpt>
      <trkpt lat="42.69234" lon="0.67411">
        <ele>2434</ele>
        <time>2026-06-30T11:10:58Z</time>
      </trkpt>
      <trkpt lat="42.69228" lon="0.67408">
        <ele>2433</ele>
        <time>2026-06-30T11:11:03Z</time>
      </trkpt>
      <trkpt lat="42.69222" lon="0.67404">
        <ele>2433</ele>
        <time>2026-06-30T11:11:08Z</time>
      </trkpt>
      <trkpt lat="42.69216" lon="0.674">
        <ele>2432</ele>
        <time>2026-06-30T11:11:13Z</time>
      </trkpt>
      <trkpt lat="42.69209" lon="0.67397">
        <ele>2431</ele>
        <time>2026-06-30T11:11:18Z</time>
      </trkpt>
      <trkpt lat="42.69204" lon="0.67393">
        <ele>2430</ele>
        <time>2026-06-30T11:11:23Z</time>
      </trkpt>
      <trkpt lat="42.69195" lon="0.67385">
        <ele>2430</ele>
        <time>2026-06-30T11:11:28Z</time>
      </trkpt>
      <trkpt lat="42.69188" lon="0.67376">
        <ele>2429</ele>
        <time>2026-06-30T11:11:33Z</time>
      </trkpt>
      <trkpt lat="42.69179" lon="0.67367">
        <ele>2429</ele>
        <time>2026-06-30T11:11:38Z</time>
      </trkpt>
      <trkpt lat="42.69174" lon="0.67365">
        <ele>2429</ele>
        <time>2026-06-30T11:11:43Z</time>
      </trkpt>
      <trkpt lat="42.69171" lon="0.6736">
        <ele>2430</ele>
        <time>2026-06-30T11:12:04Z</time>
      </trkpt>
      <trkpt lat="42.69166" lon="0.67354">
        <ele>2431</ele>
        <time>2026-06-30T11:12:12Z</time>
      </trkpt>
      <trkpt lat="42.69162" lon="0.6735">
        <ele>2433</ele>
        <time>2026-06-30T11:12:19Z</time>
      </trkpt>
      <trkpt lat="42.69158" lon="0.67347">
        <ele>2436</ele>
        <time>2026-06-30T11:12:27Z</time>
      </trkpt>
      <trkpt lat="42.69153" lon="0.67345">
        <ele>2439</ele>
        <time>2026-06-30T11:12:42Z</time>
      </trkpt>
      <trkpt lat="42.69149" lon="0.67341">
        <ele>2442</ele>
        <time>2026-06-30T11:12:54Z</time>
      </trkpt>
      <trkpt lat="42.69145" lon="0.67343">
        <ele>2444</ele>
        <time>2026-06-30T11:13:18Z</time>
      </trkpt>
      <trkpt lat="42.6914" lon="0.67344">
        <ele>2447</ele>
        <time>2026-06-30T11:13:31Z</time>
      </trkpt>
      <trkpt lat="42.69136" lon="0.67339">
        <ele>2449</ele>
        <time>2026-06-30T11:13:41Z</time>
      </trkpt>
      <trkpt lat="42.69132" lon="0.67338">
        <ele>2451</ele>
        <time>2026-06-30T11:13:52Z</time>
      </trkpt>
      <trkpt lat="42.69128" lon="0.67334">
        <ele>2453</ele>
        <time>2026-06-30T11:14:10Z</time>
      </trkpt>
      <trkpt lat="42.69127" lon="0.67334">
        <ele>2454</ele>
        <time>2026-06-30T11:14:12Z</time>
      </trkpt>
      <trkpt lat="42.69124" lon="0.6733">
        <ele>2454</ele>
        <time>2026-06-30T11:14:37Z</time>
      </trkpt>
      <trkpt lat="42.69119" lon="0.67327">
        <ele>2454</ele>
        <time>2026-06-30T11:14:49Z</time>
      </trkpt>
      <trkpt lat="42.69116" lon="0.67322">
        <ele>2453</ele>
        <time>2026-06-30T11:14:59Z</time>
      </trkpt>
      <trkpt lat="42.69111" lon="0.67319">
        <ele>2453</ele>
        <time>2026-06-30T11:15:13Z</time>
      </trkpt>
      <trkpt lat="42.69107" lon="0.67316">
        <ele>2454</ele>
        <time>2026-06-30T11:15:23Z</time>
      </trkpt>
      <trkpt lat="42.69103" lon="0.67314">
        <ele>2455</ele>
        <time>2026-06-30T11:15:38Z</time>
      </trkpt>
      <trkpt lat="42.69099" lon="0.6731">
        <ele>2456</ele>
        <time>2026-06-30T11:15:46Z</time>
      </trkpt>
      <trkpt lat="42.69096" lon="0.67305">
        <ele>2458</ele>
        <time>2026-06-30T11:15:55Z</time>
      </trkpt>
      <trkpt lat="42.69092" lon="0.673">
        <ele>2459</ele>
        <time>2026-06-30T11:16:07Z</time>
      </trkpt>
      <trkpt lat="42.69088" lon="0.67297">
        <ele>2461</ele>
        <time>2026-06-30T11:16:14Z</time>
      </trkpt>
      <trkpt lat="42.69085" lon="0.67292">
        <ele>2463</ele>
        <time>2026-06-30T11:16:21Z</time>
      </trkpt>
      <trkpt lat="42.69081" lon="0.67288">
        <ele>2465</ele>
        <time>2026-06-30T11:16:28Z</time>
      </trkpt>
      <trkpt lat="42.69078" lon="0.67283">
        <ele>2468</ele>
        <time>2026-06-30T11:16:36Z</time>
      </trkpt>
      <trkpt lat="42.69074" lon="0.67279">
        <ele>2470</ele>
        <time>2026-06-30T11:16:46Z</time>
      </trkpt>
      <trkpt lat="42.69071" lon="0.67274">
        <ele>2473</ele>
        <time>2026-06-30T11:16:54Z</time>
      </trkpt>
      <trkpt lat="42.69067" lon="0.67271">
        <ele>2475</ele>
        <time>2026-06-30T11:17:07Z</time>
      </trkpt>
      <trkpt lat="42.69063" lon="0.67267">
        <ele>2476</ele>
        <time>2026-06-30T11:17:16Z</time>
      </trkpt>
      <trkpt lat="42.69064" lon="0.6726">
        <ele>2478</ele>
        <time>2026-06-30T11:17:24Z</time>
      </trkpt>
      <trkpt lat="42.69064" lon="0.67256">
        <ele>2478</ele>
        <time>2026-06-30T11:17:48Z</time>
      </trkpt>
      <trkpt lat="42.69064" lon="0.67249">
        <ele>2482</ele>
        <time>2026-06-30T11:17:50Z</time>
      </trkpt>
      <trkpt lat="42.69069" lon="0.67255">
        <ele>2480</ele>
        <time>2026-06-30T11:17:55Z</time>
      </trkpt>
      <trkpt lat="42.69066" lon="0.67248">
        <ele>2476</ele>
        <time>2026-06-30T11:18:00Z</time>
      </trkpt>
      <trkpt lat="42.69062" lon="0.67241">
        <ele>2473</ele>
        <time>2026-06-30T11:18:05Z</time>
      </trkpt>
      <trkpt lat="42.69058" lon="0.67235">
        <ele>2470</ele>
        <time>2026-06-30T11:18:10Z</time>
      </trkpt>
      <trkpt lat="42.69052" lon="0.6723">
        <ele>2463</ele>
        <time>2026-06-30T11:18:15Z</time>
      </trkpt>
      <trkpt lat="42.69048" lon="0.67226">
        <ele>2463</ele>
        <time>2026-06-30T11:18:20Z</time>
      </trkpt>
      <trkpt lat="42.69043" lon="0.67222">
        <ele>2463</ele>
        <time>2026-06-30T11:18:25Z</time>
      </trkpt>
      <trkpt lat="42.69039" lon="0.67218">
        <ele>2464</ele>
        <time>2026-06-30T11:18:30Z</time>
      </trkpt>
      <trkpt lat="42.69035" lon="0.67211">
        <ele>2464</ele>
        <time>2026-06-30T11:18:35Z</time>
      </trkpt>
      <trkpt lat="42.69032" lon="0.67205">
        <ele>2465</ele>
        <time>2026-06-30T11:18:57Z</time>
      </trkpt>
      <trkpt lat="42.69029" lon="0.672">
        <ele>2466</ele>
        <time>2026-06-30T11:19:02Z</time>
      </trkpt>
      <trkpt lat="42.69025" lon="0.67191">
        <ele>2466</ele>
        <time>2026-06-30T11:19:07Z</time>
      </trkpt>
      <trkpt lat="42.69023" lon="0.67183">
        <ele>2467</ele>
        <time>2026-06-30T11:19:12Z</time>
      </trkpt>
      <trkpt lat="42.69019" lon="0.67176">
        <ele>2467</ele>
        <time>2026-06-30T11:19:17Z</time>
      </trkpt>
      <trkpt lat="42.69016" lon="0.6717">
        <ele>2468</ele>
        <time>2026-06-30T11:19:22Z</time>
      </trkpt>
      <trkpt lat="42.69014" lon="0.67162">
        <ele>2469</ele>
        <time>2026-06-30T11:19:27Z</time>
      </trkpt>
      <trkpt lat="42.69012" lon="0.67155">
        <ele>2470</ele>
        <time>2026-06-30T11:19:32Z</time>
      </trkpt>
      <trkpt lat="42.69011" lon="0.67148">
        <ele>2471</ele>
        <time>2026-06-30T11:19:37Z</time>
      </trkpt>
      <trkpt lat="42.69008" lon="0.67143">
        <ele>2472</ele>
        <time>2026-06-30T11:19:43Z</time>
      </trkpt>
      <trkpt lat="42.69005" lon="0.67139">
        <ele>2473</ele>
        <time>2026-06-30T11:19:48Z</time>
      </trkpt>
      <trkpt lat="42.69005" lon="0.67137">
        <ele>2475</ele>
        <time>2026-06-30T11:20:06Z</time>
      </trkpt>
      <trkpt lat="42.69002" lon="0.67131">
        <ele>2481</ele>
        <time>2026-06-30T11:20:08Z</time>
      </trkpt>
      <trkpt lat="42.69002" lon="0.67137">
        <ele>2484</ele>
        <time>2026-06-30T11:20:13Z</time>
      </trkpt>
      <trkpt lat="42.69003" lon="0.67138">
        <ele>2486</ele>
        <time>2026-06-30T11:20:37Z</time>
      </trkpt>
      <trkpt lat="42.6901" lon="0.67142">
        <ele>2493</ele>
        <time>2026-06-30T11:20:39Z</time>
      </trkpt>
      <trkpt lat="42.69005" lon="0.67141">
        <ele>2493</ele>
        <time>2026-06-30T11:20:44Z</time>
      </trkpt>
      <trkpt lat="42.69006" lon="0.67141">
        <ele>2487</ele>
        <time>2026-06-30T11:21:08Z</time>
      </trkpt>
      <trkpt lat="42.69022" lon="0.67149">
        <ele>2489</ele>
        <time>2026-06-30T11:21:11Z</time>
      </trkpt>
      <trkpt lat="42.69002" lon="0.67142">
        <ele>2487</ele>
        <time>2026-06-30T11:21:15Z</time>
      </trkpt>
      <trkpt lat="42.69003" lon="0.67143">
        <ele>2481</ele>
        <time>2026-06-30T11:21:40Z</time>
      </trkpt>
      <trkpt lat="42.68998" lon="0.67129">
        <ele>2481</ele>
        <time>2026-06-30T11:21:42Z</time>
      </trkpt>
      <trkpt lat="42.69002" lon="0.6714">
        <ele>2484</ele>
        <time>2026-06-30T11:21:47Z</time>
      </trkpt>
      <trkpt lat="42.68993" lon="0.67135">
        <ele>2491</ele>
        <time>2026-06-30T11:27:32Z</time>
      </trkpt>
      <trkpt lat="42.69001" lon="0.67141">
        <ele>2489</ele>
        <time>2026-06-30T11:27:37Z</time>
      </trkpt>
      <trkpt lat="42.69001" lon="0.67141">
        <ele>2489</ele>
        <time>2026-06-30T11:28:03Z</time>
      </trkpt>
      <trkpt lat="42.68996" lon="0.67133">
        <ele>2490</ele>
        <time>2026-06-30T11:28:05Z</time>
      </trkpt>
      <trkpt lat="42.69001" lon="0.67141">
        <ele>2491</ele>
        <time>2026-06-30T11:28:09Z</time>
      </trkpt>
      <trkpt lat="42.69001" lon="0.67141">
        <ele>2487</ele>
        <time>2026-06-30T11:28:36Z</time>
      </trkpt>
      <trkpt lat="42.68992" lon="0.67144">
        <ele>2491</ele>
        <time>2026-06-30T11:28:39Z</time>
      </trkpt>
      <trkpt lat="42.69001" lon="0.67139">
        <ele>2491</ele>
        <time>2026-06-30T11:28:43Z</time>
      </trkpt>
      <trkpt lat="42.69001" lon="0.67138">
        <ele>2488</ele>
        <time>2026-06-30T11:29:10Z</time>
      </trkpt>
      <trkpt lat="42.68998" lon="0.67136">
        <ele>2490</ele>
        <time>2026-06-30T11:29:12Z</time>
      </trkpt>
      <trkpt lat="42.69003" lon="0.6714">
        <ele>2490</ele>
        <time>2026-06-30T11:29:17Z</time>
      </trkpt>
      <trkpt lat="42.69003" lon="0.6714">
        <ele>2487</ele>
        <time>2026-06-30T11:29:42Z</time>
      </trkpt>
      <trkpt lat="42.68997" lon="0.67138">
        <ele>2490</ele>
        <time>2026-06-30T11:29:44Z</time>
      </trkpt>
      <trkpt lat="42.69002" lon="0.67134">
        <ele>2491</ele>
        <time>2026-06-30T11:29:49Z</time>
      </trkpt>
      <trkpt lat="42.69002" lon="0.67134">
        <ele>2489</ele>
        <time>2026-06-30T11:30:15Z</time>
      </trkpt>
      <trkpt lat="42.68999" lon="0.67132">
        <ele>2493</ele>
        <time>2026-06-30T11:30:17Z</time>
      </trkpt>
      <trkpt lat="42.69001" lon="0.67138">
        <ele>2493</ele>
        <time>2026-06-30T11:30:31Z</time>
      </trkpt>
      <trkpt lat="42.68995" lon="0.67133">
        <ele>2495</ele>
        <time>2026-06-30T11:30:34Z</time>
      </trkpt>
      <trkpt lat="42.68985" lon="0.67075">
        <ele>2477</ele>
        <time>2026-06-30T11:53:18Z</time>
      </trkpt>
      <trkpt lat="42.68977" lon="0.67062">
        <ele>2474</ele>
        <time>2026-06-30T11:53:23Z</time>
      </trkpt>
      <trkpt lat="42.68964" lon="0.67037">
        <ele>2471</ele>
        <time>2026-06-30T11:53:28Z</time>
      </trkpt>
      <trkpt lat="42.6896" lon="0.67025">
        <ele>2469</ele>
        <time>2026-06-30T11:53:33Z</time>
      </trkpt>
      <trkpt lat="42.68958" lon="0.67017">
        <ele>2467</ele>
        <time>2026-06-30T11:53:39Z</time>
      </trkpt>
      <trkpt lat="42.68953" lon="0.6701">
        <ele>2464</ele>
        <time>2026-06-30T11:53:44Z</time>
      </trkpt>
      <trkpt lat="42.68952" lon="0.67003">
        <ele>2463</ele>
        <time>2026-06-30T11:53:57Z</time>
      </trkpt>
      <trkpt lat="42.68949" lon="0.66997">
        <ele>2461</ele>
        <time>2026-06-30T11:54:11Z</time>
      </trkpt>
      <trkpt lat="42.68948" lon="0.66989">
        <ele>2459</ele>
        <time>2026-06-30T11:54:25Z</time>
      </trkpt>
      <trkpt lat="42.68943" lon="0.66975">
        <ele>2458</ele>
        <time>2026-06-30T11:54:30Z</time>
      </trkpt>
      <trkpt lat="42.68939" lon="0.66961">
        <ele>2456</ele>
        <time>2026-06-30T11:54:35Z</time>
      </trkpt>
      <trkpt lat="42.68937" lon="0.66956">
        <ele>2454</ele>
        <time>2026-06-30T11:54:40Z</time>
      </trkpt>
      <trkpt lat="42.68937" lon="0.66949">
        <ele>2453</ele>
        <time>2026-06-30T11:54:50Z</time>
      </trkpt>
      <trkpt lat="42.68935" lon="0.66941">
        <ele>2451</ele>
        <time>2026-06-30T11:54:58Z</time>
      </trkpt>
      <trkpt lat="42.68925" lon="0.66925">
        <ele>2449</ele>
        <time>2026-06-30T11:55:03Z</time>
      </trkpt>
      <trkpt lat="42.68915" lon="0.66913">
        <ele>2447</ele>
        <time>2026-06-30T11:55:08Z</time>
      </trkpt>
      <trkpt lat="42.68911" lon="0.66901">
        <ele>2445</ele>
        <time>2026-06-30T11:55:13Z</time>
      </trkpt>
      <trkpt lat="42.68908" lon="0.6689">
        <ele>2443</ele>
        <time>2026-06-30T11:55:18Z</time>
      </trkpt>
      <trkpt lat="42.68905" lon="0.6688">
        <ele>2442</ele>
        <time>2026-06-30T11:55:23Z</time>
      </trkpt>
      <trkpt lat="42.68903" lon="0.66875">
        <ele>2440</ele>
        <time>2026-06-30T11:55:28Z</time>
      </trkpt>
      <trkpt lat="42.68897" lon="0.66865">
        <ele>2439</ele>
        <time>2026-06-30T11:55:33Z</time>
      </trkpt>
      <trkpt lat="42.68892" lon="0.66857">
        <ele>2438</ele>
        <time>2026-06-30T11:55:38Z</time>
      </trkpt>
      <trkpt lat="42.68886" lon="0.66842">
        <ele>2437</ele>
        <time>2026-06-30T11:55:43Z</time>
      </trkpt>
      <trkpt lat="42.68881" lon="0.66825">
        <ele>2436</ele>
        <time>2026-06-30T11:55:48Z</time>
      </trkpt>
      <trkpt lat="42.6888" lon="0.66813">
        <ele>2436</ele>
        <time>2026-06-30T11:55:53Z</time>
      </trkpt>
      <trkpt lat="42.68881" lon="0.66801">
        <ele>2435</ele>
        <time>2026-06-30T11:55:58Z</time>
      </trkpt>
      <trkpt lat="42.6888" lon="0.66788">
        <ele>2434</ele>
        <time>2026-06-30T11:56:03Z</time>
      </trkpt>
      <trkpt lat="42.68881" lon="0.66773">
        <ele>2433</ele>
        <time>2026-06-30T11:56:08Z</time>
      </trkpt>
      <trkpt lat="42.68884" lon="0.6676">
        <ele>2432</ele>
        <time>2026-06-30T11:56:13Z</time>
      </trkpt>
      <trkpt lat="42.68889" lon="0.6675">
        <ele>2431</ele>
        <time>2026-06-30T11:56:18Z</time>
      </trkpt>
      <trkpt lat="42.68893" lon="0.66741">
        <ele>2430</ele>
        <time>2026-06-30T11:56:23Z</time>
      </trkpt>
      <trkpt lat="42.68897" lon="0.66737">
        <ele>2430</ele>
        <time>2026-06-30T11:56:36Z</time>
      </trkpt>
      <trkpt lat="42.68898" lon="0.66733">
        <ele>2429</ele>
        <time>2026-06-30T11:56:51Z</time>
      </trkpt>
      <trkpt lat="42.68889" lon="0.66737">
        <ele>2431</ele>
        <time>2026-06-30T11:56:55Z</time>
      </trkpt>
      <trkpt lat="42.68895" lon="0.6673">
        <ele>2432</ele>
        <time>2026-06-30T11:56:59Z</time>
      </trkpt>
      <trkpt lat="42.68895" lon="0.6673">
        <ele>2432</ele>
        <time>2026-06-30T11:57:23Z</time>
      </trkpt>
      <trkpt lat="42.68895" lon="0.66727">
        <ele>2436</ele>
        <time>2026-06-30T11:57:26Z</time>
      </trkpt>
      <trkpt lat="42.68898" lon="0.6673">
        <ele>2437</ele>
        <time>2026-06-30T11:57:45Z</time>
      </trkpt>
      <trkpt lat="42.68902" lon="0.66725">
        <ele>2435</ele>
        <time>2026-06-30T11:57:52Z</time>
      </trkpt>
      <trkpt lat="42.68905" lon="0.66719">
        <ele>2436</ele>
        <time>2026-06-30T11:57:59Z</time>
      </trkpt>
      <trkpt lat="42.68906" lon="0.66712">
        <ele>2436</ele>
        <time>2026-06-30T11:58:06Z</time>
      </trkpt>
      <trkpt lat="42.68906" lon="0.66705">
        <ele>2433</ele>
        <time>2026-06-30T11:58:13Z</time>
      </trkpt>
      <trkpt lat="42.68905" lon="0.66698">
        <ele>2433</ele>
        <time>2026-06-30T11:58:20Z</time>
      </trkpt>
      <trkpt lat="42.68905" lon="0.66692">
        <ele>2433</ele>
        <time>2026-06-30T11:58:25Z</time>
      </trkpt>
      <trkpt lat="42.68902" lon="0.66684">
        <ele>2434</ele>
        <time>2026-06-30T11:58:36Z</time>
      </trkpt>
      <trkpt lat="42.689" lon="0.66672">
        <ele>2434</ele>
        <time>2026-06-30T11:58:41Z</time>
      </trkpt>
      <trkpt lat="42.68898" lon="0.6666">
        <ele>2435</ele>
        <time>2026-06-30T11:58:46Z</time>
      </trkpt>
      <trkpt lat="42.68897" lon="0.66646">
        <ele>2436</ele>
        <time>2026-06-30T11:58:51Z</time>
      </trkpt>
      <trkpt lat="42.68897" lon="0.66639">
        <ele>2437</ele>
        <time>2026-06-30T11:58:58Z</time>
      </trkpt>
      <trkpt lat="42.68896" lon="0.66633">
        <ele>2438</ele>
        <time>2026-06-30T11:59:04Z</time>
      </trkpt>
      <trkpt lat="42.68897" lon="0.66627">
        <ele>2437</ele>
        <time>2026-06-30T11:59:13Z</time>
      </trkpt>
      <trkpt lat="42.68898" lon="0.66621">
        <ele>2438</ele>
        <time>2026-06-30T11:59:22Z</time>
      </trkpt>
      <trkpt lat="42.68898" lon="0.66615">
        <ele>2438</ele>
        <time>2026-06-30T11:59:28Z</time>
      </trkpt>
      <trkpt lat="42.68898" lon="0.66607">
        <ele>2438</ele>
        <time>2026-06-30T11:59:35Z</time>
      </trkpt>
      <trkpt lat="42.68899" lon="0.66601">
        <ele>2439</ele>
        <time>2026-06-30T11:59:42Z</time>
      </trkpt>
      <trkpt lat="42.68901" lon="0.66594">
        <ele>2440</ele>
        <time>2026-06-30T11:59:50Z</time>
      </trkpt>
      <trkpt lat="42.68902" lon="0.66588">
        <ele>2441</ele>
        <time>2026-06-30T11:59:55Z</time>
      </trkpt>
      <trkpt lat="42.68904" lon="0.66582">
        <ele>2442</ele>
        <time>2026-06-30T12:00:03Z</time>
      </trkpt>
      <trkpt lat="42.68905" lon="0.66574">
        <ele>2444</ele>
        <time>2026-06-30T12:00:08Z</time>
      </trkpt>
      <trkpt lat="42.68907" lon="0.66567">
        <ele>2445</ele>
        <time>2026-06-30T12:00:13Z</time>
      </trkpt>
      <trkpt lat="42.68909" lon="0.6656">
        <ele>2445</ele>
        <time>2026-06-30T12:00:20Z</time>
      </trkpt>
      <trkpt lat="42.68913" lon="0.66557">
        <ele>2446</ele>
        <time>2026-06-30T12:00:27Z</time>
      </trkpt>
      <trkpt lat="42.68915" lon="0.66551">
        <ele>2446</ele>
        <time>2026-06-30T12:00:33Z</time>
      </trkpt>
      <trkpt lat="42.68919" lon="0.66547">
        <ele>2447</ele>
        <time>2026-06-30T12:00:40Z</time>
      </trkpt>
      <trkpt lat="42.6892" lon="0.6654">
        <ele>2447</ele>
        <time>2026-06-30T12:00:47Z</time>
      </trkpt>
      <trkpt lat="42.68922" lon="0.66534">
        <ele>2447</ele>
        <time>2026-06-30T12:00:53Z</time>
      </trkpt>
      <trkpt lat="42.68925" lon="0.66527">
        <ele>2448</ele>
        <time>2026-06-30T12:01:08Z</time>
      </trkpt>
      <trkpt lat="42.68927" lon="0.66517">
        <ele>2448</ele>
        <time>2026-06-30T12:01:13Z</time>
      </trkpt>
      <trkpt lat="42.6893" lon="0.66507">
        <ele>2449</ele>
        <time>2026-06-30T12:01:18Z</time>
      </trkpt>
      <trkpt lat="42.68932" lon="0.665">
        <ele>2449</ele>
        <time>2026-06-30T12:01:23Z</time>
      </trkpt>
      <trkpt lat="42.68935" lon="0.66495">
        <ele>2450</ele>
        <time>2026-06-30T12:01:29Z</time>
      </trkpt>
      <trkpt lat="42.68936" lon="0.66489">
        <ele>2452</ele>
        <time>2026-06-30T12:01:34Z</time>
      </trkpt>
      <trkpt lat="42.68937" lon="0.66479">
        <ele>2453</ele>
        <time>2026-06-30T12:01:39Z</time>
      </trkpt>
      <trkpt lat="42.68938" lon="0.66473">
        <ele>2453</ele>
        <time>2026-06-30T12:01:45Z</time>
      </trkpt>
      <trkpt lat="42.6894" lon="0.66467">
        <ele>2454</ele>
        <time>2026-06-30T12:01:51Z</time>
      </trkpt>
      <trkpt lat="42.68942" lon="0.6646">
        <ele>2455</ele>
        <time>2026-06-30T12:01:56Z</time>
      </trkpt>
      <trkpt lat="42.68943" lon="0.66453">
        <ele>2455</ele>
        <time>2026-06-30T12:02:02Z</time>
      </trkpt>
      <trkpt lat="42.68945" lon="0.66446">
        <ele>2455</ele>
        <time>2026-06-30T12:02:07Z</time>
      </trkpt>
      <trkpt lat="42.68946" lon="0.6644">
        <ele>2456</ele>
        <time>2026-06-30T12:02:16Z</time>
      </trkpt>
      <trkpt lat="42.68947" lon="0.66432">
        <ele>2457</ele>
        <time>2026-06-30T12:02:21Z</time>
      </trkpt>
      <trkpt lat="42.68948" lon="0.66425">
        <ele>2458</ele>
        <time>2026-06-30T12:02:26Z</time>
      </trkpt>
      <trkpt lat="42.68949" lon="0.66419">
        <ele>2459</ele>
        <time>2026-06-30T12:02:31Z</time>
      </trkpt>
      <trkpt lat="42.6895" lon="0.66412">
        <ele>2460</ele>
        <time>2026-06-30T12:02:45Z</time>
      </trkpt>
      <trkpt lat="42.68951" lon="0.66396">
        <ele>2460</ele>
        <time>2026-06-30T12:02:50Z</time>
      </trkpt>
      <trkpt lat="42.68952" lon="0.66385">
        <ele>2461</ele>
        <time>2026-06-30T12:02:55Z</time>
      </trkpt>
      <trkpt lat="42.68953" lon="0.66373">
        <ele>2461</ele>
        <time>2026-06-30T12:03:00Z</time>
      </trkpt>
      <trkpt lat="42.68953" lon="0.66363">
        <ele>2462</ele>
        <time>2026-06-30T12:03:05Z</time>
      </trkpt>
      <trkpt lat="42.68956" lon="0.66355">
        <ele>2463</ele>
        <time>2026-06-30T12:03:10Z</time>
      </trkpt>
      <trkpt lat="42.68957" lon="0.66346">
        <ele>2464</ele>
        <time>2026-06-30T12:03:15Z</time>
      </trkpt>
      <trkpt lat="42.68958" lon="0.66337">
        <ele>2465</ele>
        <time>2026-06-30T12:03:20Z</time>
      </trkpt>
      <trkpt lat="42.68961" lon="0.66329">
        <ele>2466</ele>
        <time>2026-06-30T12:03:25Z</time>
      </trkpt>
      <trkpt lat="42.68962" lon="0.66319">
        <ele>2466</ele>
        <time>2026-06-30T12:03:30Z</time>
      </trkpt>
      <trkpt lat="42.68962" lon="0.66311">
        <ele>2467</ele>
        <time>2026-06-30T12:03:35Z</time>
      </trkpt>
      <trkpt lat="42.68962" lon="0.66301">
        <ele>2467</ele>
        <time>2026-06-30T12:03:40Z</time>
      </trkpt>
      <trkpt lat="42.68963" lon="0.66297">
        <ele>2468</ele>
        <time>2026-06-30T12:04:05Z</time>
      </trkpt>
      <trkpt lat="42.68955" lon="0.6631">
        <ele>2472</ele>
        <time>2026-06-30T12:04:09Z</time>
      </trkpt>
      <trkpt lat="42.68965" lon="0.66308">
        <ele>2474</ele>
        <time>2026-06-30T12:04:13Z</time>
      </trkpt>
      <trkpt lat="42.68961" lon="0.66302">
        <ele>2475</ele>
        <time>2026-06-30T12:04:32Z</time>
      </trkpt>
      <trkpt lat="42.68958" lon="0.66296">
        <ele>2477</ele>
        <time>2026-06-30T12:04:37Z</time>
      </trkpt>
      <trkpt lat="42.68957" lon="0.66289">
        <ele>2478</ele>
        <time>2026-06-30T12:04:48Z</time>
      </trkpt>
      <trkpt lat="42.68955" lon="0.66283">
        <ele>2477</ele>
        <time>2026-06-30T12:04:55Z</time>
      </trkpt>
      <trkpt lat="42.68956" lon="0.66277">
        <ele>2477</ele>
        <time>2026-06-30T12:05:03Z</time>
      </trkpt>
      <trkpt lat="42.68955" lon="0.66271">
        <ele>2478</ele>
        <time>2026-06-30T12:05:08Z</time>
      </trkpt>
      <trkpt lat="42.68956" lon="0.66264">
        <ele>2477</ele>
        <time>2026-06-30T12:05:16Z</time>
      </trkpt>
      <trkpt lat="42.68954" lon="0.66258">
        <ele>2478</ele>
        <time>2026-06-30T12:05:21Z</time>
      </trkpt>
      <trkpt lat="42.68953" lon="0.66252">
        <ele>2478</ele>
        <time>2026-06-30T12:05:27Z</time>
      </trkpt>
      <trkpt lat="42.68953" lon="0.66246">
        <ele>2478</ele>
        <time>2026-06-30T12:05:34Z</time>
      </trkpt>
      <trkpt lat="42.68955" lon="0.6624">
        <ele>2479</ele>
        <time>2026-06-30T12:05:42Z</time>
      </trkpt>
      <trkpt lat="42.68955" lon="0.66233">
        <ele>2481</ele>
        <time>2026-06-30T12:05:53Z</time>
      </trkpt>
      <trkpt lat="42.68953" lon="0.66226">
        <ele>2482</ele>
        <time>2026-06-30T12:06:01Z</time>
      </trkpt>
      <trkpt lat="42.68954" lon="0.6622">
        <ele>2483</ele>
        <time>2026-06-30T12:06:07Z</time>
      </trkpt>
      <trkpt lat="42.68953" lon="0.66215">
        <ele>2484</ele>
        <time>2026-06-30T12:06:29Z</time>
      </trkpt>
      <trkpt lat="42.68955" lon="0.66215">
        <ele>2492</ele>
        <time>2026-06-30T12:06:31Z</time>
      </trkpt>
      <trkpt lat="42.68947" lon="0.66217">
        <ele>2494</ele>
        <time>2026-06-30T12:06:36Z</time>
      </trkpt>
      <trkpt lat="42.68949" lon="0.66211">
        <ele>2495</ele>
        <time>2026-06-30T12:06:41Z</time>
      </trkpt>
      <trkpt lat="42.68948" lon="0.66205">
        <ele>2497</ele>
        <time>2026-06-30T12:06:53Z</time>
      </trkpt>
      <trkpt lat="42.68947" lon="0.66198">
        <ele>2499</ele>
        <time>2026-06-30T12:07:02Z</time>
      </trkpt>
      <trkpt lat="42.68946" lon="0.66192">
        <ele>2493</ele>
        <time>2026-06-30T12:07:09Z</time>
      </trkpt>
      <trkpt lat="42.68947" lon="0.66185">
        <ele>2493</ele>
        <time>2026-06-30T12:07:17Z</time>
      </trkpt>
      <trkpt lat="42.68947" lon="0.66181">
        <ele>2493</ele>
        <time>2026-06-30T12:07:33Z</time>
      </trkpt>
      <trkpt lat="42.68947" lon="0.66173">
        <ele>2494</ele>
        <time>2026-06-30T12:07:36Z</time>
      </trkpt>
      <trkpt lat="42.68946" lon="0.66167">
        <ele>2494</ele>
        <time>2026-06-30T12:08:00Z</time>
      </trkpt>
      <trkpt lat="42.68945" lon="0.6616">
        <ele>2495</ele>
        <time>2026-06-30T12:08:16Z</time>
      </trkpt>
      <trkpt lat="42.68945" lon="0.66154">
        <ele>2497</ele>
        <time>2026-06-30T12:08:25Z</time>
      </trkpt>
      <trkpt lat="42.68944" lon="0.66147">
        <ele>2498</ele>
        <time>2026-06-30T12:08:40Z</time>
      </trkpt>
      <trkpt lat="42.68947" lon="0.66141">
        <ele>2497</ele>
        <time>2026-06-30T12:09:05Z</time>
      </trkpt>
      <trkpt lat="42.68945" lon="0.66135">
        <ele>2498</ele>
        <time>2026-06-30T12:09:16Z</time>
      </trkpt>
      <trkpt lat="42.68942" lon="0.66131">
        <ele>2498</ele>
        <time>2026-06-30T12:09:26Z</time>
      </trkpt>
      <trkpt lat="42.68939" lon="0.66125">
        <ele>2499</ele>
        <time>2026-06-30T12:09:42Z</time>
      </trkpt>
      <trkpt lat="42.68941" lon="0.66119">
        <ele>2500</ele>
        <time>2026-06-30T12:09:52Z</time>
      </trkpt>
      <trkpt lat="42.68939" lon="0.66113">
        <ele>2502</ele>
        <time>2026-06-30T12:10:05Z</time>
      </trkpt>
      <trkpt lat="42.68935" lon="0.66108">
        <ele>2505</ele>
        <time>2026-06-30T12:10:19Z</time>
      </trkpt>
      <trkpt lat="42.68936" lon="0.66102">
        <ele>2509</ele>
        <time>2026-06-30T12:10:27Z</time>
      </trkpt>
      <trkpt lat="42.68937" lon="0.66099">
        <ele>2513</ele>
        <time>2026-06-30T12:10:48Z</time>
      </trkpt>
      <trkpt lat="42.6894" lon="0.66095">
        <ele>2517</ele>
        <time>2026-06-30T12:10:50Z</time>
      </trkpt>
      <trkpt lat="42.68937" lon="0.66101">
        <ele>2520</ele>
        <time>2026-06-30T12:11:00Z</time>
      </trkpt>
      <trkpt lat="42.68935" lon="0.66095">
        <ele>2520</ele>
        <time>2026-06-30T12:11:06Z</time>
      </trkpt>
      <trkpt lat="42.68936" lon="0.66089">
        <ele>2519</ele>
        <time>2026-06-30T12:11:14Z</time>
      </trkpt>
      <trkpt lat="42.68935" lon="0.66083">
        <ele>2519</ele>
        <time>2026-06-30T12:11:31Z</time>
      </trkpt>
      <trkpt lat="42.68934" lon="0.66077">
        <ele>2519</ele>
        <time>2026-06-30T12:11:37Z</time>
      </trkpt>
      <trkpt lat="42.68934" lon="0.6607">
        <ele>2520</ele>
        <time>2026-06-30T12:11:48Z</time>
      </trkpt>
      <trkpt lat="42.68934" lon="0.66064">
        <ele>2522</ele>
        <time>2026-06-30T12:11:59Z</time>
      </trkpt>
      <trkpt lat="42.68932" lon="0.66058">
        <ele>2523</ele>
        <time>2026-06-30T12:12:05Z</time>
      </trkpt>
      <trkpt lat="42.68929" lon="0.66052">
        <ele>2524</ele>
        <time>2026-06-30T12:12:13Z</time>
      </trkpt>
      <trkpt lat="42.68926" lon="0.66046">
        <ele>2525</ele>
        <time>2026-06-30T12:12:19Z</time>
      </trkpt>
      <trkpt lat="42.68923" lon="0.66043">
        <ele>2524</ele>
        <time>2026-06-30T12:12:39Z</time>
      </trkpt>
      <trkpt lat="42.68922" lon="0.66054">
        <ele>2530</ele>
        <time>2026-06-30T12:12:41Z</time>
      </trkpt>
      <trkpt lat="42.68927" lon="0.66059">
        <ele>2531</ele>
        <time>2026-06-30T12:12:46Z</time>
      </trkpt>
      <trkpt lat="42.68927" lon="0.66059">
        <ele>2533</ele>
        <time>2026-06-30T12:13:11Z</time>
      </trkpt>
      <trkpt lat="42.68931" lon="0.66039">
        <ele>2539</ele>
        <time>2026-06-30T12:13:14Z</time>
      </trkpt>
      <trkpt lat="42.68918" lon="0.66042">
        <ele>2541</ele>
        <time>2026-06-30T12:13:18Z</time>
      </trkpt>
      <trkpt lat="42.68921" lon="0.66044">
        <ele>2537</ele>
        <time>2026-06-30T12:13:43Z</time>
      </trkpt>
      <trkpt lat="42.6891" lon="0.6603">
        <ele>2546</ele>
        <time>2026-06-30T12:13:46Z</time>
      </trkpt>
      <trkpt lat="42.6892" lon="0.66045">
        <ele>2547</ele>
        <time>2026-06-30T12:13:50Z</time>
      </trkpt>
      <trkpt lat="42.68924" lon="0.66028">
        <ele>2528</ele>
        <time>2026-06-30T12:14:53Z</time>
      </trkpt>
      <trkpt lat="42.68924" lon="0.66039">
        <ele>2526</ele>
        <time>2026-06-30T12:14:58Z</time>
      </trkpt>
      <trkpt lat="42.68924" lon="0.66039">
        <ele>2526</ele>
        <time>2026-06-30T12:15:24Z</time>
      </trkpt>
      <trkpt lat="42.68927" lon="0.66029">
        <ele>2530</ele>
        <time>2026-06-30T12:15:27Z</time>
      </trkpt>
      <trkpt lat="42.68922" lon="0.66037">
        <ele>2531</ele>
        <time>2026-06-30T12:15:31Z</time>
      </trkpt>
      <trkpt lat="42.68921" lon="0.66038">
        <ele>2534</ele>
        <time>2026-06-30T12:15:57Z</time>
      </trkpt>
      <trkpt lat="42.6893" lon="0.66047">
        <ele>2537</ele>
        <time>2026-06-30T12:15:59Z</time>
      </trkpt>
      <trkpt lat="42.68923" lon="0.6604">
        <ele>2536</ele>
        <time>2026-06-30T12:16:04Z</time>
      </trkpt>
      <trkpt lat="42.68923" lon="0.66039">
        <ele>2530</ele>
        <time>2026-06-30T12:16:30Z</time>
      </trkpt>
      <trkpt lat="42.68918" lon="0.66037">
        <ele>2530</ele>
        <time>2026-06-30T12:16:33Z</time>
      </trkpt>
      <trkpt lat="42.68924" lon="0.6604">
        <ele>2528</ele>
        <time>2026-06-30T12:16:38Z</time>
      </trkpt>
      <trkpt lat="42.68924" lon="0.6604">
        <ele>2523</ele>
        <time>2026-06-30T12:17:02Z</time>
      </trkpt>
      <trkpt lat="42.68921" lon="0.66037">
        <ele>2524</ele>
        <time>2026-06-30T12:17:06Z</time>
      </trkpt>
      <trkpt lat="42.68923" lon="0.66039">
        <ele>2523</ele>
        <time>2026-06-30T12:17:35Z</time>
      </trkpt>
      <trkpt lat="42.68926" lon="0.6603">
        <ele>2525</ele>
        <time>2026-06-30T12:17:38Z</time>
      </trkpt>
      <trkpt lat="42.68924" lon="0.66041">
        <ele>2524</ele>
        <time>2026-06-30T12:17:42Z</time>
      </trkpt>
      <trkpt lat="42.68925" lon="0.66024">
        <ele>2524</ele>
        <time>2026-06-30T12:17:47Z</time>
      </trkpt>
      <trkpt lat="42.68929" lon="0.66004">
        <ele>2522</ele>
        <time>2026-06-30T12:17:52Z</time>
      </trkpt>
      <trkpt lat="42.68919" lon="0.65988">
        <ele>2522</ele>
        <time>2026-06-30T12:17:57Z</time>
      </trkpt>
      <trkpt lat="42.68928" lon="0.65974">
        <ele>2516</ele>
        <time>2026-06-30T12:18:02Z</time>
      </trkpt>
      <trkpt lat="42.68932" lon="0.65959">
        <ele>2514</ele>
        <time>2026-06-30T12:18:07Z</time>
      </trkpt>
      <trkpt lat="42.68932" lon="0.65938">
        <ele>2511</ele>
        <time>2026-06-30T12:18:12Z</time>
      </trkpt>
      <trkpt lat="42.68926" lon="0.6592">
        <ele>2508</ele>
        <time>2026-06-30T12:18:17Z</time>
      </trkpt>
      <trkpt lat="42.68924" lon="0.65896">
        <ele>2506</ele>
        <time>2026-06-30T12:18:22Z</time>
      </trkpt>
      <trkpt lat="42.68924" lon="0.65876">
        <ele>2503</ele>
        <time>2026-06-30T12:18:27Z</time>
      </trkpt>
      <trkpt lat="42.68929" lon="0.65852">
        <ele>2500</ele>
        <time>2026-06-30T12:18:32Z</time>
      </trkpt>
      <trkpt lat="42.68937" lon="0.65827">
        <ele>2497</ele>
        <time>2026-06-30T12:18:37Z</time>
      </trkpt>
      <trkpt lat="42.68938" lon="0.65804">
        <ele>2494</ele>
        <time>2026-06-30T12:18:42Z</time>
      </trkpt>
      <trkpt lat="42.68936" lon="0.65786">
        <ele>2491</ele>
        <time>2026-06-30T12:18:47Z</time>
      </trkpt>
      <trkpt lat="42.68935" lon="0.6577">
        <ele>2487</ele>
        <time>2026-06-30T12:18:52Z</time>
      </trkpt>
      <trkpt lat="42.6894" lon="0.65745">
        <ele>2483</ele>
        <time>2026-06-30T12:18:57Z</time>
      </trkpt>
      <trkpt lat="42.68942" lon="0.65727">
        <ele>2479</ele>
        <time>2026-06-30T12:19:02Z</time>
      </trkpt>
      <trkpt lat="42.68951" lon="0.65704">
        <ele>2475</ele>
        <time>2026-06-30T12:19:07Z</time>
      </trkpt>
      <trkpt lat="42.68952" lon="0.6568">
        <ele>2471</ele>
        <time>2026-06-30T12:19:12Z</time>
      </trkpt>
      <trkpt lat="42.68951" lon="0.6566">
        <ele>2466</ele>
        <time>2026-06-30T12:19:17Z</time>
      </trkpt>
      <trkpt lat="42.68948" lon="0.6563">
        <ele>2461</ele>
        <time>2026-06-30T12:19:22Z</time>
      </trkpt>
      <trkpt lat="42.68947" lon="0.65609">
        <ele>2457</ele>
        <time>2026-06-30T12:19:27Z</time>
      </trkpt>
      <trkpt lat="42.6895" lon="0.65601">
        <ele>2453</ele>
        <time>2026-06-30T12:19:32Z</time>
      </trkpt>
      <trkpt lat="42.68954" lon="0.65578">
        <ele>2449</ele>
        <time>2026-06-30T12:19:37Z</time>
      </trkpt>
      <trkpt lat="42.6895" lon="0.65557">
        <ele>2445</ele>
        <time>2026-06-30T12:19:42Z</time>
      </trkpt>
      <trkpt lat="42.68951" lon="0.65541">
        <ele>2441</ele>
        <time>2026-06-30T12:19:47Z</time>
      </trkpt>
      <trkpt lat="42.68958" lon="0.65523">
        <ele>2438</ele>
        <time>2026-06-30T12:19:52Z</time>
      </trkpt>
      <trkpt lat="42.6896" lon="0.65495">
        <ele>2435</ele>
        <time>2026-06-30T12:19:57Z</time>
      </trkpt>
      <trkpt lat="42.68967" lon="0.6547">
        <ele>2431</ele>
        <time>2026-06-30T12:20:02Z</time>
      </trkpt>
      <trkpt lat="42.68969" lon="0.65443">
        <ele>2428</ele>
        <time>2026-06-30T12:20:07Z</time>
      </trkpt>
      <trkpt lat="42.68973" lon="0.65414">
        <ele>2425</ele>
        <time>2026-06-30T12:20:12Z</time>
      </trkpt>
      <trkpt lat="42.68979" lon="0.65392">
        <ele>2422</ele>
        <time>2026-06-30T12:20:17Z</time>
      </trkpt>
      <trkpt lat="42.68981" lon="0.65386">
        <ele>2419</ele>
        <time>2026-06-30T12:20:39Z</time>
      </trkpt>
      <trkpt lat="42.68981" lon="0.65383">
        <ele>2416</ele>
        <time>2026-06-30T12:21:02Z</time>
      </trkpt>
      <trkpt lat="42.68977" lon="0.65386">
        <ele>2416</ele>
        <time>2026-06-30T12:21:05Z</time>
      </trkpt>
      <trkpt lat="42.68983" lon="0.6539">
        <ele>2415</ele>
        <time>2026-06-30T12:21:09Z</time>
      </trkpt>
      <trkpt lat="42.68983" lon="0.65384">
        <ele>2411</ele>
        <time>2026-06-30T12:21:26Z</time>
      </trkpt>
      <trkpt lat="42.68985" lon="0.65377">
        <ele>2409</ele>
        <time>2026-06-30T12:21:33Z</time>
      </trkpt>
      <trkpt lat="42.68987" lon="0.65368">
        <ele>2408</ele>
        <time>2026-06-30T12:21:41Z</time>
      </trkpt>
      <trkpt lat="42.68992" lon="0.65356">
        <ele>2403</ele>
        <time>2026-06-30T12:21:46Z</time>
      </trkpt>
      <trkpt lat="42.68994" lon="0.65344">
        <ele>2400</ele>
        <time>2026-06-30T12:21:51Z</time>
      </trkpt>
      <trkpt lat="42.68989" lon="0.65319">
        <ele>2399</ele>
        <time>2026-06-30T12:21:56Z</time>
      </trkpt>
      <trkpt lat="42.68988" lon="0.65299">
        <ele>2398</ele>
        <time>2026-06-30T12:22:01Z</time>
      </trkpt>
      <trkpt lat="42.68988" lon="0.65292">
        <ele>2397</ele>
        <time>2026-06-30T12:22:19Z</time>
      </trkpt>
      <trkpt lat="42.68985" lon="0.65276">
        <ele>2396</ele>
        <time>2026-06-30T12:22:24Z</time>
      </trkpt>
      <trkpt lat="42.68984" lon="0.65255">
        <ele>2396</ele>
        <time>2026-06-30T12:22:29Z</time>
      </trkpt>
      <trkpt lat="42.68981" lon="0.65235">
        <ele>2395</ele>
        <time>2026-06-30T12:22:34Z</time>
      </trkpt>
      <trkpt lat="42.68976" lon="0.65219">
        <ele>2395</ele>
        <time>2026-06-30T12:22:39Z</time>
      </trkpt>
      <trkpt lat="42.68975" lon="0.65209">
        <ele>2396</ele>
        <time>2026-06-30T12:22:44Z</time>
      </trkpt>
      <trkpt lat="42.6897" lon="0.65199">
        <ele>2396</ele>
        <time>2026-06-30T12:22:49Z</time>
      </trkpt>
      <trkpt lat="42.68967" lon="0.65185">
        <ele>2396</ele>
        <time>2026-06-30T12:22:54Z</time>
      </trkpt>
      <trkpt lat="42.68971" lon="0.6517">
        <ele>2395</ele>
        <time>2026-06-30T12:22:59Z</time>
      </trkpt>
      <trkpt lat="42.68974" lon="0.65157">
        <ele>2395</ele>
        <time>2026-06-30T12:23:04Z</time>
      </trkpt>
      <trkpt lat="42.68974" lon="0.65149">
        <ele>2394</ele>
        <time>2026-06-30T12:23:18Z</time>
      </trkpt>
      <trkpt lat="42.68971" lon="0.65144">
        <ele>2393</ele>
        <time>2026-06-30T12:23:29Z</time>
      </trkpt>
      <trkpt lat="42.68972" lon="0.65137">
        <ele>2393</ele>
        <time>2026-06-30T12:23:37Z</time>
      </trkpt>
      <trkpt lat="42.68972" lon="0.65131">
        <ele>2392</ele>
        <time>2026-06-30T12:23:46Z</time>
      </trkpt>
      <trkpt lat="42.6897" lon="0.65125">
        <ele>2391</ele>
        <time>2026-06-30T12:23:56Z</time>
      </trkpt>
      <trkpt lat="42.68973" lon="0.65111">
        <ele>2391</ele>
        <time>2026-06-30T12:24:01Z</time>
      </trkpt>
      <trkpt lat="42.68977" lon="0.65106">
        <ele>2390</ele>
        <time>2026-06-30T12:24:11Z</time>
      </trkpt>
      <trkpt lat="42.68981" lon="0.65104">
        <ele>2390</ele>
        <time>2026-06-30T12:24:18Z</time>
      </trkpt>
      <trkpt lat="42.68983" lon="0.65098">
        <ele>2390</ele>
        <time>2026-06-30T12:24:26Z</time>
      </trkpt>
      <trkpt lat="42.68985" lon="0.65091">
        <ele>2390</ele>
        <time>2026-06-30T12:24:45Z</time>
      </trkpt>
      <trkpt lat="42.68986" lon="0.65084">
        <ele>2390</ele>
        <time>2026-06-30T12:24:52Z</time>
      </trkpt>
      <trkpt lat="42.68986" lon="0.65077">
        <ele>2391</ele>
        <time>2026-06-30T12:25:00Z</time>
      </trkpt>
      <trkpt lat="42.68985" lon="0.65069">
        <ele>2391</ele>
        <time>2026-06-30T12:25:12Z</time>
      </trkpt>
      <trkpt lat="42.68984" lon="0.65056">
        <ele>2391</ele>
        <time>2026-06-30T12:25:17Z</time>
      </trkpt>
      <trkpt lat="42.6898" lon="0.6504">
        <ele>2391</ele>
        <time>2026-06-30T12:25:22Z</time>
      </trkpt>
      <trkpt lat="42.68979" lon="0.65025">
        <ele>2391</ele>
        <time>2026-06-30T12:25:27Z</time>
      </trkpt>
      <trkpt lat="42.68978" lon="0.65011">
        <ele>2390</ele>
        <time>2026-06-30T12:25:32Z</time>
      </trkpt>
      <trkpt lat="42.68977" lon="0.64993">
        <ele>2390</ele>
        <time>2026-06-30T12:25:37Z</time>
      </trkpt>
      <trkpt lat="42.68978" lon="0.64977">
        <ele>2390</ele>
        <time>2026-06-30T12:25:42Z</time>
      </trkpt>
      <trkpt lat="42.68986" lon="0.64961">
        <ele>2390</ele>
        <time>2026-06-30T12:25:47Z</time>
      </trkpt>
      <trkpt lat="42.68996" lon="0.64936">
        <ele>2389</ele>
        <time>2026-06-30T12:25:52Z</time>
      </trkpt>
      <trkpt lat="42.69001" lon="0.64918">
        <ele>2388</ele>
        <time>2026-06-30T12:25:57Z</time>
      </trkpt>
      <trkpt lat="42.69001" lon="0.64909">
        <ele>2387</ele>
        <time>2026-06-30T12:26:02Z</time>
      </trkpt>
      <trkpt lat="42.69002" lon="0.64897">
        <ele>2385</ele>
        <time>2026-06-30T12:26:07Z</time>
      </trkpt>
      <trkpt lat="42.69001" lon="0.64888">
        <ele>2383</ele>
        <time>2026-06-30T12:26:12Z</time>
      </trkpt>
      <trkpt lat="42.69" lon="0.64872">
        <ele>2382</ele>
        <time>2026-06-30T12:26:17Z</time>
      </trkpt>
      <trkpt lat="42.68998" lon="0.64854">
        <ele>2381</ele>
        <time>2026-06-30T12:26:22Z</time>
      </trkpt>
      <trkpt lat="42.69" lon="0.64833">
        <ele>2380</ele>
        <time>2026-06-30T12:26:27Z</time>
      </trkpt>
      <trkpt lat="42.69009" lon="0.64827">
        <ele>2380</ele>
        <time>2026-06-30T12:26:32Z</time>
      </trkpt>
      <trkpt lat="42.69014" lon="0.64819">
        <ele>2379</ele>
        <time>2026-06-30T12:26:37Z</time>
      </trkpt>
      <trkpt lat="42.69021" lon="0.64799">
        <ele>2378</ele>
        <time>2026-06-30T12:26:42Z</time>
      </trkpt>
      <trkpt lat="42.69023" lon="0.64771">
        <ele>2377</ele>
        <time>2026-06-30T12:26:47Z</time>
      </trkpt>
      <trkpt lat="42.69022" lon="0.64742">
        <ele>2376</ele>
        <time>2026-06-30T12:26:52Z</time>
      </trkpt>
      <trkpt lat="42.69021" lon="0.64729">
        <ele>2375</ele>
        <time>2026-06-30T12:26:57Z</time>
      </trkpt>
      <trkpt lat="42.69021" lon="0.6472">
        <ele>2375</ele>
        <time>2026-06-30T12:27:02Z</time>
      </trkpt>
      <trkpt lat="42.69019" lon="0.64711">
        <ele>2374</ele>
        <time>2026-06-30T12:27:07Z</time>
      </trkpt>
      <trkpt lat="42.69017" lon="0.64699">
        <ele>2373</ele>
        <time>2026-06-30T12:27:12Z</time>
      </trkpt>
      <trkpt lat="42.69019" lon="0.64683">
        <ele>2372</ele>
        <time>2026-06-30T12:27:17Z</time>
      </trkpt>
      <trkpt lat="42.69024" lon="0.64668">
        <ele>2370</ele>
        <time>2026-06-30T12:27:22Z</time>
      </trkpt>
      <trkpt lat="42.69027" lon="0.64658">
        <ele>2368</ele>
        <time>2026-06-30T12:27:27Z</time>
      </trkpt>
      <trkpt lat="42.69028" lon="0.64644">
        <ele>2367</ele>
        <time>2026-06-30T12:27:32Z</time>
      </trkpt>
      <trkpt lat="42.69028" lon="0.64634">
        <ele>2366</ele>
        <time>2026-06-30T12:27:37Z</time>
      </trkpt>
      <trkpt lat="42.69033" lon="0.64626">
        <ele>2365</ele>
        <time>2026-06-30T12:27:42Z</time>
      </trkpt>
      <trkpt lat="42.69033" lon="0.64626">
        <ele>2365</ele>
        <time>2026-06-30T12:27:59Z</time>
      </trkpt>
      <trkpt lat="42.69045" lon="0.64624">
        <ele>2372</ele>
        <time>2026-06-30T12:28:01Z</time>
      </trkpt>
      <trkpt lat="42.69034" lon="0.64622">
        <ele>2373</ele>
        <time>2026-06-30T12:28:05Z</time>
      </trkpt>
      <trkpt lat="42.69033" lon="0.64616">
        <ele>2372</ele>
        <time>2026-06-30T12:28:26Z</time>
      </trkpt>
      <trkpt lat="42.69034" lon="0.64609">
        <ele>2372</ele>
        <time>2026-06-30T12:28:31Z</time>
      </trkpt>
      <trkpt lat="42.69031" lon="0.64604">
        <ele>2373</ele>
        <time>2026-06-30T12:28:38Z</time>
      </trkpt>
      <trkpt lat="42.69029" lon="0.64594">
        <ele>2365</ele>
        <time>2026-06-30T12:28:43Z</time>
      </trkpt>
      <trkpt lat="42.6903" lon="0.64582">
        <ele>2364</ele>
        <time>2026-06-30T12:28:48Z</time>
      </trkpt>
      <trkpt lat="42.6903" lon="0.64572">
        <ele>2365</ele>
        <time>2026-06-30T12:28:53Z</time>
      </trkpt>
      <trkpt lat="42.6903" lon="0.64565">
        <ele>2365</ele>
        <time>2026-06-30T12:28:58Z</time>
      </trkpt>
      <trkpt lat="42.69031" lon="0.64565">
        <ele>2365</ele>
        <time>2026-06-30T12:29:19Z</time>
      </trkpt>
      <trkpt lat="42.69033" lon="0.64553">
        <ele>2364</ele>
        <time>2026-06-30T12:29:22Z</time>
      </trkpt>
      <trkpt lat="42.6903" lon="0.64564">
        <ele>2362</ele>
        <time>2026-06-30T12:29:27Z</time>
      </trkpt>
      <trkpt lat="42.6903" lon="0.64564">
        <ele>2361</ele>
        <time>2026-06-30T12:29:50Z</time>
      </trkpt>
      <trkpt lat="42.69033" lon="0.64565">
        <ele>2363</ele>
        <time>2026-06-30T12:29:53Z</time>
      </trkpt>
      <trkpt lat="42.69026" lon="0.6457">
        <ele>2364</ele>
        <time>2026-06-30T12:29:58Z</time>
      </trkpt>
      <trkpt lat="42.69027" lon="0.64569">
        <ele>2365</ele>
        <time>2026-06-30T12:30:23Z</time>
      </trkpt>
      <trkpt lat="42.6904" lon="0.64562">
        <ele>2371</ele>
        <time>2026-06-30T12:30:25Z</time>
      </trkpt>
      <trkpt lat="42.69031" lon="0.64566">
        <ele>2373</ele>
        <time>2026-06-30T12:30:30Z</time>
      </trkpt>
      <trkpt lat="42.69023" lon="0.64566">
        <ele>2373</ele>
        <time>2026-06-30T12:30:58Z</time>
      </trkpt>
      <trkpt lat="42.69031" lon="0.64571">
        <ele>2373</ele>
        <time>2026-06-30T12:31:02Z</time>
      </trkpt>
      <trkpt lat="42.69032" lon="0.6457">
        <ele>2370</ele>
        <time>2026-06-30T12:31:29Z</time>
      </trkpt>
      <trkpt lat="42.69031" lon="0.64565">
        <ele>2370</ele>
        <time>2026-06-30T12:31:32Z</time>
      </trkpt>
      <trkpt lat="42.69027" lon="0.64568">
        <ele>2370</ele>
        <time>2026-06-30T12:32:01Z</time>
      </trkpt>
      <trkpt lat="42.69035" lon="0.64562">
        <ele>2369</ele>
        <time>2026-06-30T12:32:04Z</time>
      </trkpt>
      <trkpt lat="42.6903" lon="0.64563">
        <ele>2371</ele>
        <time>2026-06-30T12:32:09Z</time>
      </trkpt>
      <trkpt lat="42.6903" lon="0.64563">
        <ele>2372</ele>
        <time>2026-06-30T12:32:34Z</time>
      </trkpt>
      <trkpt lat="42.69043" lon="0.64565">
        <ele>2375</ele>
        <time>2026-06-30T12:32:36Z</time>
      </trkpt>
      <trkpt lat="42.6903" lon="0.64566">
        <ele>2378</ele>
        <time>2026-06-30T12:32:41Z</time>
      </trkpt>
      <trkpt lat="42.69029" lon="0.64566">
        <ele>2379</ele>
        <time>2026-06-30T12:33:07Z</time>
      </trkpt>
      <trkpt lat="42.69018" lon="0.64562">
        <ele>2372</ele>
        <time>2026-06-30T12:33:09Z</time>
      </trkpt>
      <trkpt lat="42.69029" lon="0.64567">
        <ele>2370</ele>
        <time>2026-06-30T12:33:13Z</time>
      </trkpt>
      <trkpt lat="42.69033" lon="0.64568">
        <ele>2365</ele>
        <time>2026-06-30T12:33:35Z</time>
      </trkpt>
      <trkpt lat="42.69035" lon="0.64562">
        <ele>2362</ele>
        <time>2026-06-30T12:33:43Z</time>
      </trkpt>
      <trkpt lat="42.69037" lon="0.64556">
        <ele>2359</ele>
        <time>2026-06-30T12:33:49Z</time>
      </trkpt>
      <trkpt lat="42.69048" lon="0.64514">
        <ele>2366</ele>
        <time>2026-06-30T12:35:17Z</time>
      </trkpt>
      <trkpt lat="42.6905" lon="0.64507">
        <ele>2369</ele>
        <time>2026-06-30T12:35:26Z</time>
      </trkpt>
      <trkpt lat="42.69052" lon="0.64502">
        <ele>2372</ele>
        <time>2026-06-30T12:35:39Z</time>
      </trkpt>
      <trkpt lat="42.69051" lon="0.64495">
        <ele>2376</ele>
        <time>2026-06-30T12:35:47Z</time>
      </trkpt>
      <trkpt lat="42.69055" lon="0.64491">
        <ele>2377</ele>
        <time>2026-06-30T12:36:01Z</time>
      </trkpt>
      <trkpt lat="42.69057" lon="0.64486">
        <ele>2380</ele>
        <time>2026-06-30T12:36:09Z</time>
      </trkpt>
      <trkpt lat="42.69058" lon="0.64479">
        <ele>2383</ele>
        <time>2026-06-30T12:36:16Z</time>
      </trkpt>
      <trkpt lat="42.69062" lon="0.64475">
        <ele>2385</ele>
        <time>2026-06-30T12:36:22Z</time>
      </trkpt>
      <trkpt lat="42.69066" lon="0.6447">
        <ele>2387</ele>
        <time>2026-06-30T12:36:28Z</time>
      </trkpt>
      <trkpt lat="42.69069" lon="0.64464">
        <ele>2390</ele>
        <time>2026-06-30T12:36:34Z</time>
      </trkpt>
      <trkpt lat="42.69072" lon="0.6446">
        <ele>2392</ele>
        <time>2026-06-30T12:36:43Z</time>
      </trkpt>
      <trkpt lat="42.69075" lon="0.64455">
        <ele>2394</ele>
        <time>2026-06-30T12:36:53Z</time>
      </trkpt>
      <trkpt lat="42.69079" lon="0.64452">
        <ele>2395</ele>
        <time>2026-06-30T12:37:01Z</time>
      </trkpt>
      <trkpt lat="42.69081" lon="0.64445">
        <ele>2397</ele>
        <time>2026-06-30T12:37:07Z</time>
      </trkpt>
      <trkpt lat="42.69085" lon="0.64441">
        <ele>2398</ele>
        <time>2026-06-30T12:37:14Z</time>
      </trkpt>
      <trkpt lat="42.69088" lon="0.64436">
        <ele>2400</ele>
        <time>2026-06-30T12:37:26Z</time>
      </trkpt>
      <trkpt lat="42.6909" lon="0.64431">
        <ele>2401</ele>
        <time>2026-06-30T12:37:32Z</time>
      </trkpt>
      <trkpt lat="42.69094" lon="0.64428">
        <ele>2402</ele>
        <time>2026-06-30T12:37:47Z</time>
      </trkpt>
      <trkpt lat="42.69098" lon="0.64424">
        <ele>2403</ele>
        <time>2026-06-30T12:37:54Z</time>
      </trkpt>
      <trkpt lat="42.69102" lon="0.6442">
        <ele>2404</ele>
        <time>2026-06-30T12:38:00Z</time>
      </trkpt>
      <trkpt lat="42.69103" lon="0.64412">
        <ele>2405</ele>
        <time>2026-06-30T12:38:08Z</time>
      </trkpt>
      <trkpt lat="42.69104" lon="0.64405">
        <ele>2405</ele>
        <time>2026-06-30T12:38:15Z</time>
      </trkpt>
      <trkpt lat="42.69107" lon="0.644">
        <ele>2405</ele>
        <time>2026-06-30T12:38:21Z</time>
      </trkpt>
      <trkpt lat="42.69111" lon="0.64395">
        <ele>2406</ele>
        <time>2026-06-30T12:38:27Z</time>
      </trkpt>
      <trkpt lat="42.69112" lon="0.64388">
        <ele>2405</ele>
        <time>2026-06-30T12:38:32Z</time>
      </trkpt>
      <trkpt lat="42.69114" lon="0.64381">
        <ele>2405</ele>
        <time>2026-06-30T12:38:39Z</time>
      </trkpt>
      <trkpt lat="42.69114" lon="0.64375">
        <ele>2404</ele>
        <time>2026-06-30T12:38:45Z</time>
      </trkpt>
      <trkpt lat="42.69117" lon="0.64368">
        <ele>2403</ele>
        <time>2026-06-30T12:38:52Z</time>
      </trkpt>
      <trkpt lat="42.69117" lon="0.64362">
        <ele>2402</ele>
        <time>2026-06-30T12:38:58Z</time>
      </trkpt>
      <trkpt lat="42.69119" lon="0.64356">
        <ele>2402</ele>
        <time>2026-06-30T12:39:03Z</time>
      </trkpt>
      <trkpt lat="42.69119" lon="0.64349">
        <ele>2401</ele>
        <time>2026-06-30T12:39:15Z</time>
      </trkpt>
      <trkpt lat="42.69119" lon="0.64343">
        <ele>2399</ele>
        <time>2026-06-30T12:39:22Z</time>
      </trkpt>
      <trkpt lat="42.6912" lon="0.64337">
        <ele>2400</ele>
        <time>2026-06-30T12:39:28Z</time>
      </trkpt>
      <trkpt lat="42.69122" lon="0.64331">
        <ele>2400</ele>
        <time>2026-06-30T12:39:33Z</time>
      </trkpt>
      <trkpt lat="42.69122" lon="0.64331">
        <ele>2400</ele>
        <time>2026-06-30T12:39:48Z</time>
      </trkpt>
      <trkpt lat="42.69126" lon="0.64328">
        <ele>2401</ele>
        <time>2026-06-30T12:39:52Z</time>
      </trkpt>
      <trkpt lat="42.69125" lon="0.64314">
        <ele>2400</ele>
        <time>2026-06-30T12:39:56Z</time>
      </trkpt>
      <trkpt lat="42.69132" lon="0.64301">
        <ele>2400</ele>
        <time>2026-06-30T12:40:01Z</time>
      </trkpt>
      <trkpt lat="42.69133" lon="0.64292">
        <ele>2399</ele>
        <time>2026-06-30T12:40:06Z</time>
      </trkpt>
      <trkpt lat="42.69136" lon="0.64286">
        <ele>2398</ele>
        <time>2026-06-30T12:40:16Z</time>
      </trkpt>
      <trkpt lat="42.6914" lon="0.64281">
        <ele>2396</ele>
        <time>2026-06-30T12:40:29Z</time>
      </trkpt>
      <trkpt lat="42.69141" lon="0.64277">
        <ele>2396</ele>
        <time>2026-06-30T12:40:52Z</time>
      </trkpt>
      <trkpt lat="42.69144" lon="0.64275">
        <ele>2398</ele>
        <time>2026-06-30T12:40:55Z</time>
      </trkpt>
      <trkpt lat="42.69144" lon="0.64272">
        <ele>2396</ele>
        <time>2026-06-30T12:41:09Z</time>
      </trkpt>
      <trkpt lat="42.69132" lon="0.64266">
        <ele>2400</ele>
        <time>2026-06-30T12:41:11Z</time>
      </trkpt>
      <trkpt lat="42.69146" lon="0.64259">
        <ele>2399</ele>
        <time>2026-06-30T12:41:16Z</time>
      </trkpt>
      <trkpt lat="42.69144" lon="0.64252">
        <ele>2397</ele>
        <time>2026-06-30T12:41:37Z</time>
      </trkpt>
      <trkpt lat="42.69145" lon="0.64246">
        <ele>2395</ele>
        <time>2026-06-30T12:41:46Z</time>
      </trkpt>
      <trkpt lat="42.69143" lon="0.6424">
        <ele>2395</ele>
        <time>2026-06-30T12:41:53Z</time>
      </trkpt>
      <trkpt lat="42.69145" lon="0.64234">
        <ele>2391</ele>
        <time>2026-06-30T12:42:07Z</time>
      </trkpt>
      <trkpt lat="42.69149" lon="0.6423">
        <ele>2393</ele>
        <time>2026-06-30T12:42:16Z</time>
      </trkpt>
      <trkpt lat="42.69151" lon="0.64223">
        <ele>2397</ele>
        <time>2026-06-30T12:42:21Z</time>
      </trkpt>
      <trkpt lat="42.69153" lon="0.64217">
        <ele>2400</ele>
        <time>2026-06-30T12:42:27Z</time>
      </trkpt>
      <trkpt lat="42.69154" lon="0.6421">
        <ele>2404</ele>
        <time>2026-06-30T12:42:34Z</time>
      </trkpt>
      <trkpt lat="42.69156" lon="0.64204">
        <ele>2408</ele>
        <time>2026-06-30T12:42:39Z</time>
      </trkpt>
      <trkpt lat="42.69157" lon="0.64197">
        <ele>2410</ele>
        <time>2026-06-30T12:42:45Z</time>
      </trkpt>
      <trkpt lat="42.69155" lon="0.64191">
        <ele>2411</ele>
        <time>2026-06-30T12:42:51Z</time>
      </trkpt>
      <trkpt lat="42.69153" lon="0.64186">
        <ele>2412</ele>
        <time>2026-06-30T12:42:56Z</time>
      </trkpt>
      <trkpt lat="42.69153" lon="0.64179">
        <ele>2412</ele>
        <time>2026-06-30T12:43:05Z</time>
      </trkpt>
      <trkpt lat="42.69152" lon="0.64173">
        <ele>2413</ele>
        <time>2026-06-30T12:43:15Z</time>
      </trkpt>
      <trkpt lat="42.69154" lon="0.64168">
        <ele>2413</ele>
        <time>2026-06-30T12:43:27Z</time>
      </trkpt>
      <trkpt lat="42.69154" lon="0.64162">
        <ele>2415</ele>
        <time>2026-06-30T12:43:36Z</time>
      </trkpt>
      <trkpt lat="42.69152" lon="0.64156">
        <ele>2417</ele>
        <time>2026-06-30T12:43:42Z</time>
      </trkpt>
      <trkpt lat="42.69151" lon="0.6415">
        <ele>2419</ele>
        <time>2026-06-30T12:43:52Z</time>
      </trkpt>
      <trkpt lat="42.69149" lon="0.64144">
        <ele>2421</ele>
        <time>2026-06-30T12:44:01Z</time>
      </trkpt>
      <trkpt lat="42.69147" lon="0.64138">
        <ele>2423</ele>
        <time>2026-06-30T12:44:11Z</time>
      </trkpt>
      <trkpt lat="42.69147" lon="0.64132">
        <ele>2424</ele>
        <time>2026-06-30T12:44:17Z</time>
      </trkpt>
      <trkpt lat="42.69147" lon="0.64126">
        <ele>2426</ele>
        <time>2026-06-30T12:44:27Z</time>
      </trkpt>
      <trkpt lat="42.69146" lon="0.6412">
        <ele>2427</ele>
        <time>2026-06-30T12:44:34Z</time>
      </trkpt>
      <trkpt lat="42.69151" lon="0.64121">
        <ele>2428</ele>
        <time>2026-06-30T12:44:47Z</time>
      </trkpt>
      <trkpt lat="42.69153" lon="0.64114">
        <ele>2429</ele>
        <time>2026-06-30T12:44:57Z</time>
      </trkpt>
      <trkpt lat="42.69153" lon="0.64108">
        <ele>2431</ele>
        <time>2026-06-30T12:45:06Z</time>
      </trkpt>
      <trkpt lat="42.69154" lon="0.64101">
        <ele>2433</ele>
        <time>2026-06-30T12:45:16Z</time>
      </trkpt>
      <trkpt lat="42.69154" lon="0.64094">
        <ele>2435</ele>
        <time>2026-06-30T12:45:28Z</time>
      </trkpt>
      <trkpt lat="42.69154" lon="0.64088">
        <ele>2437</ele>
        <time>2026-06-30T12:45:42Z</time>
      </trkpt>
      <trkpt lat="42.69167" lon="0.6407">
        <ele>2445</ele>
        <time>2026-06-30T12:45:45Z</time>
      </trkpt>
      <trkpt lat="42.69153" lon="0.6409">
        <ele>2444</ele>
        <time>2026-06-30T12:45:49Z</time>
      </trkpt>
      <trkpt lat="42.69158" lon="0.6409">
        <ele>2443</ele>
        <time>2026-06-30T12:46:08Z</time>
      </trkpt>
      <trkpt lat="42.69161" lon="0.64095">
        <ele>2441</ele>
        <time>2026-06-30T12:46:20Z</time>
      </trkpt>
      <trkpt lat="42.69165" lon="0.64094">
        <ele>2438</ele>
        <time>2026-06-30T12:46:47Z</time>
      </trkpt>
      <trkpt lat="42.69165" lon="0.64091">
        <ele>2424</ele>
        <time>2026-06-30T12:46:53Z</time>
      </trkpt>
      <trkpt lat="42.69164" lon="0.64093">
        <ele>2423</ele>
        <time>2026-06-30T12:47:20Z</time>
      </trkpt>
      <trkpt lat="42.69167" lon="0.64105">
        <ele>2429</ele>
        <time>2026-06-30T12:47:22Z</time>
      </trkpt>
      <trkpt lat="42.69166" lon="0.64091">
        <ele>2430</ele>
        <time>2026-06-30T12:47:26Z</time>
      </trkpt>
      <trkpt lat="42.69161" lon="0.64085">
        <ele>2442</ele>
        <time>2026-06-30T12:47:44Z</time>
      </trkpt>
      <trkpt lat="42.69163" lon="0.6409">
        <ele>2442</ele>
        <time>2026-06-30T12:48:06Z</time>
      </trkpt>
      <trkpt lat="42.69164" lon="0.64092">
        <ele>2443</ele>
        <time>2026-06-30T12:48:21Z</time>
      </trkpt>
      <trkpt lat="42.69171" lon="0.64088">
        <ele>2442</ele>
        <time>2026-06-30T12:48:25Z</time>
      </trkpt>
      <trkpt lat="42.69163" lon="0.64088">
        <ele>2441</ele>
        <time>2026-06-30T12:48:29Z</time>
      </trkpt>
      <trkpt lat="42.69164" lon="0.6409">
        <ele>2438</ele>
        <time>2026-06-30T12:48:51Z</time>
      </trkpt>
      <trkpt lat="42.69173" lon="0.64091">
        <ele>2436</ele>
        <time>2026-06-30T12:48:55Z</time>
      </trkpt>
      <trkpt lat="42.69169" lon="0.64086">
        <ele>2437</ele>
        <time>2026-06-30T12:48:59Z</time>
      </trkpt>
      <trkpt lat="42.69169" lon="0.64086">
        <ele>2435</ele>
        <time>2026-06-30T12:49:23Z</time>
      </trkpt>
      <trkpt lat="42.69172" lon="0.64092">
        <ele>2434</ele>
        <time>2026-06-30T12:49:26Z</time>
      </trkpt>
      <trkpt lat="42.69165" lon="0.64091">
        <ele>2434</ele>
        <time>2026-06-30T12:49:31Z</time>
      </trkpt>
      <trkpt lat="42.69164" lon="0.64093">
        <ele>2435</ele>
        <time>2026-06-30T12:49:56Z</time>
      </trkpt>
      <trkpt lat="42.69167" lon="0.64076">
        <ele>2436</ele>
        <time>2026-06-30T12:49:58Z</time>
      </trkpt>
      <trkpt lat="42.69167" lon="0.64091">
        <ele>2436</ele>
        <time>2026-06-30T12:50:02Z</time>
      </trkpt>
      <trkpt lat="42.69213" lon="0.64104">
        <ele>2472</ele>
        <time>2026-06-30T12:54:12Z</time>
      </trkpt>
      <trkpt lat="42.69217" lon="0.64108">
        <ele>2475</ele>
        <time>2026-06-30T12:54:19Z</time>
      </trkpt>
      <trkpt lat="42.69221" lon="0.64106">
        <ele>2477</ele>
        <time>2026-06-30T12:54:34Z</time>
      </trkpt>
      <trkpt lat="42.69225" lon="0.64101">
        <ele>2480</ele>
        <time>2026-06-30T12:54:43Z</time>
      </trkpt>
      <trkpt lat="42.6923" lon="0.64103">
        <ele>2482</ele>
        <time>2026-06-30T12:54:59Z</time>
      </trkpt>
      <trkpt lat="42.69233" lon="0.64108">
        <ele>2484</ele>
        <time>2026-06-30T12:55:13Z</time>
      </trkpt>
      <trkpt lat="42.69236" lon="0.64112">
        <ele>2487</ele>
        <time>2026-06-30T12:55:19Z</time>
      </trkpt>
      <trkpt lat="42.69239" lon="0.64116">
        <ele>2488</ele>
        <time>2026-06-30T12:55:25Z</time>
      </trkpt>
      <trkpt lat="42.69242" lon="0.64122">
        <ele>2491</ele>
        <time>2026-06-30T12:55:33Z</time>
      </trkpt>
      <trkpt lat="42.69246" lon="0.64125">
        <ele>2492</ele>
        <time>2026-06-30T12:55:41Z</time>
      </trkpt>
      <trkpt lat="42.6925" lon="0.6413">
        <ele>2494</ele>
        <time>2026-06-30T12:55:50Z</time>
      </trkpt>
      <trkpt lat="42.69254" lon="0.64129">
        <ele>2495</ele>
        <time>2026-06-30T12:56:03Z</time>
      </trkpt>
      <trkpt lat="42.69257" lon="0.64129">
        <ele>2496</ele>
        <time>2026-06-30T12:56:21Z</time>
      </trkpt>
      <trkpt lat="42.69256" lon="0.64126">
        <ele>2498</ele>
        <time>2026-06-30T12:56:25Z</time>
      </trkpt>
      <trkpt lat="42.69259" lon="0.64127">
        <ele>2498</ele>
        <time>2026-06-30T12:56:53Z</time>
      </trkpt>
      <trkpt lat="42.69264" lon="0.64121">
        <ele>2500</ele>
        <time>2026-06-30T12:56:56Z</time>
      </trkpt>
      <trkpt lat="42.69265" lon="0.64128">
        <ele>2499</ele>
        <time>2026-06-30T12:57:01Z</time>
      </trkpt>
      <trkpt lat="42.69268" lon="0.64125">
        <ele>2498</ele>
        <time>2026-06-30T12:57:10Z</time>
      </trkpt>
      <trkpt lat="42.69273" lon="0.64122">
        <ele>2497</ele>
        <time>2026-06-30T12:57:18Z</time>
      </trkpt>
      <trkpt lat="42.69276" lon="0.64118">
        <ele>2497</ele>
        <time>2026-06-30T12:57:31Z</time>
      </trkpt>
      <trkpt lat="42.69278" lon="0.64115">
        <ele>2494</ele>
        <time>2026-06-30T12:57:57Z</time>
      </trkpt>
      <trkpt lat="42.69283" lon="0.64114">
        <ele>2497</ele>
        <time>2026-06-30T12:58:00Z</time>
      </trkpt>
      <trkpt lat="42.69286" lon="0.64125">
        <ele>2497</ele>
        <time>2026-06-30T12:58:48Z</time>
      </trkpt>
      <trkpt lat="42.69282" lon="0.64117">
        <ele>2496</ele>
        <time>2026-06-30T12:58:52Z</time>
      </trkpt>
      <trkpt lat="42.69281" lon="0.64117">
        <ele>2492</ele>
        <time>2026-06-30T12:59:17Z</time>
      </trkpt>
      <trkpt lat="42.69286" lon="0.64121">
        <ele>2493</ele>
        <time>2026-06-30T12:59:20Z</time>
      </trkpt>
      <trkpt lat="42.69279" lon="0.64118">
        <ele>2494</ele>
        <time>2026-06-30T12:59:25Z</time>
      </trkpt>
      <trkpt lat="42.69274" lon="0.64116">
        <ele>2490</ele>
        <time>2026-06-30T12:59:38Z</time>
      </trkpt>
      <trkpt lat="42.69274" lon="0.64115">
        <ele>2490</ele>
        <time>2026-06-30T13:00:06Z</time>
      </trkpt>
      <trkpt lat="42.69283" lon="0.64117">
        <ele>2492</ele>
        <time>2026-06-30T13:00:09Z</time>
      </trkpt>
      <trkpt lat="42.69276" lon="0.64113">
        <ele>2490</ele>
        <time>2026-06-30T13:00:13Z</time>
      </trkpt>
      <trkpt lat="42.69273" lon="0.64109">
        <ele>2490</ele>
        <time>2026-06-30T13:00:39Z</time>
      </trkpt>
      <trkpt lat="42.69277" lon="0.64114">
        <ele>2490</ele>
        <time>2026-06-30T13:00:43Z</time>
      </trkpt>
      <trkpt lat="42.69275" lon="0.64112">
        <ele>2490</ele>
        <time>2026-06-30T13:01:12Z</time>
      </trkpt>
      <trkpt lat="42.69299" lon="0.64132">
        <ele>2491</ele>
        <time>2026-06-30T13:01:14Z</time>
      </trkpt>
      <trkpt lat="42.69286" lon="0.64119">
        <ele>2494</ele>
        <time>2026-06-30T13:01:18Z</time>
      </trkpt>
      <trkpt lat="42.69286" lon="0.6412">
        <ele>2495</ele>
        <time>2026-06-30T13:01:44Z</time>
      </trkpt>
      <trkpt lat="42.69283" lon="0.6412">
        <ele>2500</ele>
        <time>2026-06-30T13:01:47Z</time>
      </trkpt>
      <trkpt lat="42.69308" lon="0.64065">
        <ele>2444</ele>
        <time>2026-06-30T13:15:19Z</time>
      </trkpt>
      <trkpt lat="42.69303" lon="0.64055">
        <ele>2446</ele>
        <time>2026-06-30T13:15:24Z</time>
      </trkpt>
      <trkpt lat="42.69309" lon="0.64054">
        <ele>2447</ele>
        <time>2026-06-30T13:15:29Z</time>
      </trkpt>
      <trkpt lat="42.69323" lon="0.64055">
        <ele>2448</ele>
        <time>2026-06-30T13:15:34Z</time>
      </trkpt>
      <trkpt lat="42.69327" lon="0.64064">
        <ele>2449</ele>
        <time>2026-06-30T13:15:39Z</time>
      </trkpt>
      <trkpt lat="42.69329" lon="0.64057">
        <ele>2448</ele>
        <time>2026-06-30T13:15:47Z</time>
      </trkpt>
      <trkpt lat="42.69321" lon="0.64046">
        <ele>2446</ele>
        <time>2026-06-30T13:15:52Z</time>
      </trkpt>
      <trkpt lat="42.69323" lon="0.64038">
        <ele>2445</ele>
        <time>2026-06-30T13:15:57Z</time>
      </trkpt>
      <trkpt lat="42.69336" lon="0.64046">
        <ele>2442</ele>
        <time>2026-06-30T13:16:02Z</time>
      </trkpt>
      <trkpt lat="42.69339" lon="0.64057">
        <ele>2440</ele>
        <time>2026-06-30T13:16:07Z</time>
      </trkpt>
      <trkpt lat="42.69342" lon="0.64066">
        <ele>2437</ele>
        <time>2026-06-30T13:16:12Z</time>
      </trkpt>
      <trkpt lat="42.69347" lon="0.64065">
        <ele>2434</ele>
        <time>2026-06-30T13:16:19Z</time>
      </trkpt>
      <trkpt lat="42.69347" lon="0.64056">
        <ele>2432</ele>
        <time>2026-06-30T13:16:24Z</time>
      </trkpt>
      <trkpt lat="42.69345" lon="0.64048">
        <ele>2429</ele>
        <time>2026-06-30T13:16:29Z</time>
      </trkpt>
      <trkpt lat="42.6934" lon="0.64041">
        <ele>2428</ele>
        <time>2026-06-30T13:16:38Z</time>
      </trkpt>
      <trkpt lat="42.69342" lon="0.64033">
        <ele>2427</ele>
        <time>2026-06-30T13:16:43Z</time>
      </trkpt>
      <trkpt lat="42.69343" lon="0.64034">
        <ele>2426</ele>
        <time>2026-06-30T13:16:59Z</time>
      </trkpt>
      <trkpt lat="42.69348" lon="0.64029">
        <ele>2429</ele>
        <time>2026-06-30T13:17:02Z</time>
      </trkpt>
      <trkpt lat="42.69343" lon="0.64033">
        <ele>2426</ele>
        <time>2026-06-30T13:17:31Z</time>
      </trkpt>
      <trkpt lat="42.6935" lon="0.64035">
        <ele>2423</ele>
        <time>2026-06-30T13:17:42Z</time>
      </trkpt>
      <trkpt lat="42.69357" lon="0.64048">
        <ele>2419</ele>
        <time>2026-06-30T13:17:47Z</time>
      </trkpt>
      <trkpt lat="42.69357" lon="0.64047">
        <ele>2416</ele>
        <time>2026-06-30T13:18:04Z</time>
      </trkpt>
      <trkpt lat="42.69363" lon="0.64043">
        <ele>2415</ele>
        <time>2026-06-30T13:18:07Z</time>
      </trkpt>
      <trkpt lat="42.69357" lon="0.64049">
        <ele>2416</ele>
        <time>2026-06-30T13:18:11Z</time>
      </trkpt>
      <trkpt lat="42.6937" lon="0.64077">
        <ele>2422</ele>
        <time>2026-06-30T13:18:49Z</time>
      </trkpt>
      <trkpt lat="42.69375" lon="0.64097">
        <ele>2421</ele>
        <time>2026-06-30T13:18:54Z</time>
      </trkpt>
      <trkpt lat="42.69377" lon="0.64109">
        <ele>2419</ele>
        <time>2026-06-30T13:18:59Z</time>
      </trkpt>
      <trkpt lat="42.69382" lon="0.64109">
        <ele>2414</ele>
        <time>2026-06-30T13:19:04Z</time>
      </trkpt>
      <trkpt lat="42.69383" lon="0.64092">
        <ele>2411</ele>
        <time>2026-06-30T13:19:09Z</time>
      </trkpt>
      <trkpt lat="42.69385" lon="0.64072">
        <ele>2408</ele>
        <time>2026-06-30T13:19:14Z</time>
      </trkpt>
      <trkpt lat="42.69385" lon="0.64055">
        <ele>2405</ele>
        <time>2026-06-30T13:19:19Z</time>
      </trkpt>
      <trkpt lat="42.69387" lon="0.64063">
        <ele>2403</ele>
        <time>2026-06-30T13:19:27Z</time>
      </trkpt>
      <trkpt lat="42.69395" lon="0.64079">
        <ele>2400</ele>
        <time>2026-06-30T13:19:32Z</time>
      </trkpt>
      <trkpt lat="42.694" lon="0.64099">
        <ele>2398</ele>
        <time>2026-06-30T13:19:37Z</time>
      </trkpt>
      <trkpt lat="42.6941" lon="0.64124">
        <ele>2396</ele>
        <time>2026-06-30T13:19:42Z</time>
      </trkpt>
      <trkpt lat="42.69422" lon="0.6415">
        <ele>2393</ele>
        <time>2026-06-30T13:19:47Z</time>
      </trkpt>
      <trkpt lat="42.6943" lon="0.64164">
        <ele>2389</ele>
        <time>2026-06-30T13:19:52Z</time>
      </trkpt>
      <trkpt lat="42.69443" lon="0.64174">
        <ele>2386</ele>
        <time>2026-06-30T13:19:57Z</time>
      </trkpt>
      <trkpt lat="42.69479" lon="0.64178">
        <ele>2382</ele>
        <time>2026-06-30T13:20:02Z</time>
      </trkpt>
      <trkpt lat="42.69511" lon="0.64189">
        <ele>2378</ele>
        <time>2026-06-30T13:20:07Z</time>
      </trkpt>
      <trkpt lat="42.69547" lon="0.64175">
        <ele>2376</ele>
        <time>2026-06-30T13:20:12Z</time>
      </trkpt>
      <trkpt lat="42.69571" lon="0.64174">
        <ele>2373</ele>
        <time>2026-06-30T13:20:17Z</time>
      </trkpt>
      <trkpt lat="42.69588" lon="0.64179">
        <ele>2370</ele>
        <time>2026-06-30T13:20:22Z</time>
      </trkpt>
      <trkpt lat="42.69598" lon="0.6419">
        <ele>2368</ele>
        <time>2026-06-30T13:20:27Z</time>
      </trkpt>
      <trkpt lat="42.69614" lon="0.64211">
        <ele>2366</ele>
        <time>2026-06-30T13:20:32Z</time>
      </trkpt>
      <trkpt lat="42.69642" lon="0.64239">
        <ele>2364</ele>
        <time>2026-06-30T13:20:37Z</time>
      </trkpt>
      <trkpt lat="42.69657" lon="0.6426">
        <ele>2363</ele>
        <time>2026-06-30T13:20:42Z</time>
      </trkpt>
      <trkpt lat="42.69686" lon="0.64266">
        <ele>2361</ele>
        <time>2026-06-30T13:20:47Z</time>
      </trkpt>
      <trkpt lat="42.6971" lon="0.64255">
        <ele>2359</ele>
        <time>2026-06-30T13:20:52Z</time>
      </trkpt>
      <trkpt lat="42.69739" lon="0.6424">
        <ele>2357</ele>
        <time>2026-06-30T13:20:57Z</time>
      </trkpt>
      <trkpt lat="42.69757" lon="0.64237">
        <ele>2353</ele>
        <time>2026-06-30T13:21:02Z</time>
      </trkpt>
      <trkpt lat="42.69775" lon="0.64227">
        <ele>2350</ele>
        <time>2026-06-30T13:21:07Z</time>
      </trkpt>
      <trkpt lat="42.69789" lon="0.64236">
        <ele>2346</ele>
        <time>2026-06-30T13:21:12Z</time>
      </trkpt>
      <trkpt lat="42.69793" lon="0.64239">
        <ele>2344</ele>
        <time>2026-06-30T13:21:17Z</time>
      </trkpt>
      <trkpt lat="42.69793" lon="0.6424">
        <ele>2343</ele>
        <time>2026-06-30T13:21:34Z</time>
      </trkpt>
      <trkpt lat="42.69805" lon="0.64234">
        <ele>2341</ele>
        <time>2026-06-30T13:21:37Z</time>
      </trkpt>
      <trkpt lat="42.69801" lon="0.64238">
        <ele>2337</ele>
        <time>2026-06-30T13:21:41Z</time>
      </trkpt>
      <trkpt lat="42.69795" lon="0.64238">
        <ele>2335</ele>
        <time>2026-06-30T13:21:53Z</time>
      </trkpt>
      <trkpt lat="42.69801" lon="0.64242">
        <ele>2335</ele>
        <time>2026-06-30T13:22:09Z</time>
      </trkpt>
      <trkpt lat="42.69817" lon="0.64247">
        <ele>2334</ele>
        <time>2026-06-30T13:22:14Z</time>
      </trkpt>
      <trkpt lat="42.69836" lon="0.64248">
        <ele>2335</ele>
        <time>2026-06-30T13:22:19Z</time>
      </trkpt>
      <trkpt lat="42.69852" lon="0.6425">
        <ele>2337</ele>
        <time>2026-06-30T13:22:24Z</time>
      </trkpt>
      <trkpt lat="42.69869" lon="0.64252">
        <ele>2337</ele>
        <time>2026-06-30T13:22:29Z</time>
      </trkpt>
      <trkpt lat="42.6988" lon="0.64249">
        <ele>2335</ele>
        <time>2026-06-30T13:22:34Z</time>
      </trkpt>
      <trkpt lat="42.69889" lon="0.64252">
        <ele>2333</ele>
        <time>2026-06-30T13:22:39Z</time>
      </trkpt>
      <trkpt lat="42.69893" lon="0.64266">
        <ele>2331</ele>
        <time>2026-06-30T13:22:44Z</time>
      </trkpt>
      <trkpt lat="42.69886" lon="0.6428">
        <ele>2329</ele>
        <time>2026-06-30T13:22:49Z</time>
      </trkpt>
      <trkpt lat="42.69882" lon="0.6429">
        <ele>2326</ele>
        <time>2026-06-30T13:22:54Z</time>
      </trkpt>
      <trkpt lat="42.69905" lon="0.64286">
        <ele>2323</ele>
        <time>2026-06-30T13:22:59Z</time>
      </trkpt>
      <trkpt lat="42.69931" lon="0.64276">
        <ele>2320</ele>
        <time>2026-06-30T13:23:04Z</time>
      </trkpt>
      <trkpt lat="42.69951" lon="0.64267">
        <ele>2316</ele>
        <time>2026-06-30T13:23:09Z</time>
      </trkpt>
      <trkpt lat="42.69963" lon="0.64264">
        <ele>2312</ele>
        <time>2026-06-30T13:23:14Z</time>
      </trkpt>
      <trkpt lat="42.69973" lon="0.64259">
        <ele>2309</ele>
        <time>2026-06-30T13:23:19Z</time>
      </trkpt>
      <trkpt lat="42.69975" lon="0.64254">
        <ele>2307</ele>
        <time>2026-06-30T13:23:44Z</time>
      </trkpt>
      <trkpt lat="42.69974" lon="0.64245">
        <ele>2304</ele>
        <time>2026-06-30T13:23:47Z</time>
      </trkpt>
      <trkpt lat="42.69979" lon="0.64254">
        <ele>2302</ele>
        <time>2026-06-30T13:23:51Z</time>
      </trkpt>
      <trkpt lat="42.69984" lon="0.6425">
        <ele>2301</ele>
        <time>2026-06-30T13:23:57Z</time>
      </trkpt>
      <trkpt lat="42.69989" lon="0.64249">
        <ele>2302</ele>
        <time>2026-06-30T13:24:02Z</time>
      </trkpt>
      <trkpt lat="42.69992" lon="0.64244">
        <ele>2302</ele>
        <time>2026-06-30T13:24:09Z</time>
      </trkpt>
      <trkpt lat="42.69998" lon="0.64241">
        <ele>2304</ele>
        <time>2026-06-30T13:24:15Z</time>
      </trkpt>
      <trkpt lat="42.70015" lon="0.64218">
        <ele>2305</ele>
        <time>2026-06-30T13:24:20Z</time>
      </trkpt>
      <trkpt lat="42.70017" lon="0.6422">
        <ele>2306</ele>
        <time>2026-06-30T13:24:49Z</time>
      </trkpt>
      <trkpt lat="42.70015" lon="0.64241">
        <ele>2313</ele>
        <time>2026-06-30T13:24:52Z</time>
      </trkpt>
      <trkpt lat="42.70018" lon="0.64231">
        <ele>2317</ele>
        <time>2026-06-30T13:25:08Z</time>
      </trkpt>
      <trkpt lat="42.70017" lon="0.64231">
        <ele>2321</ele>
        <time>2026-06-30T13:25:38Z</time>
      </trkpt>
      <trkpt lat="42.7002" lon="0.64241">
        <ele>2329</ele>
        <time>2026-06-30T13:25:41Z</time>
      </trkpt>
      <trkpt lat="42.70019" lon="0.64232">
        <ele>2333</ele>
        <time>2026-06-30T13:25:46Z</time>
      </trkpt>
      <trkpt lat="42.70019" lon="0.64232">
        <ele>2330</ele>
        <time>2026-06-30T13:26:11Z</time>
      </trkpt>
      <trkpt lat="42.70022" lon="0.64234">
        <ele>2330</ele>
        <time>2026-06-30T13:26:13Z</time>
      </trkpt>
      <trkpt lat="42.7001" lon="0.64237">
        <ele>2331</ele>
        <time>2026-06-30T13:26:18Z</time>
      </trkpt>
      <trkpt lat="42.70021" lon="0.64245">
        <ele>2336</ele>
        <time>2026-06-30T13:26:52Z</time>
      </trkpt>
      <trkpt lat="42.70018" lon="0.64243">
        <ele>2339</ele>
        <time>2026-06-30T13:27:17Z</time>
      </trkpt>
      <trkpt lat="42.70027" lon="0.6421">
        <ele>2335</ele>
        <time>2026-06-30T13:27:20Z</time>
      </trkpt>
      <trkpt lat="42.70015" lon="0.64235">
        <ele>2333</ele>
        <time>2026-06-30T13:27:25Z</time>
      </trkpt>
      <trkpt lat="42.70014" lon="0.64233">
        <ele>2328</ele>
        <time>2026-06-30T13:27:50Z</time>
      </trkpt>
      <trkpt lat="42.70009" lon="0.64226">
        <ele>2325</ele>
        <time>2026-06-30T13:27:53Z</time>
      </trkpt>
      <trkpt lat="42.70017" lon="0.6421">
        <ele>2320</ele>
        <time>2026-06-30T13:27:58Z</time>
      </trkpt>
      <trkpt lat="42.70015" lon="0.64212">
        <ele>2321</ele>
        <time>2026-06-30T13:28:23Z</time>
      </trkpt>
      <trkpt lat="42.70021" lon="0.64216">
        <ele>2321</ele>
        <time>2026-06-30T13:28:27Z</time>
      </trkpt>
      <trkpt lat="42.70022" lon="0.64227">
        <ele>2323</ele>
        <time>2026-06-30T13:28:31Z</time>
      </trkpt>
      <trkpt lat="42.7002" lon="0.64226">
        <ele>2323</ele>
        <time>2026-06-30T13:28:57Z</time>
      </trkpt>
      <trkpt lat="42.70021" lon="0.64261">
        <ele>2328</ele>
        <time>2026-06-30T13:29:00Z</time>
      </trkpt>
      <trkpt lat="42.70015" lon="0.64217">
        <ele>2327</ele>
        <time>2026-06-30T13:29:05Z</time>
      </trkpt>
      <trkpt lat="42.70015" lon="0.64218">
        <ele>2324</ele>
        <time>2026-06-30T13:29:29Z</time>
      </trkpt>
      <trkpt lat="42.70018" lon="0.64242">
        <ele>2325</ele>
        <time>2026-06-30T13:29:32Z</time>
      </trkpt>
      <trkpt lat="42.70017" lon="0.64232">
        <ele>2324</ele>
        <time>2026-06-30T13:29:36Z</time>
      </trkpt>
      <trkpt lat="42.70017" lon="0.64229">
        <ele>2321</ele>
        <time>2026-06-30T13:30:01Z</time>
      </trkpt>
      <trkpt lat="42.70018" lon="0.64244">
        <ele>2327</ele>
        <time>2026-06-30T13:30:08Z</time>
      </trkpt>
      <trkpt lat="42.70016" lon="0.64236">
        <ele>2325</ele>
        <time>2026-06-30T13:30:13Z</time>
      </trkpt>
      <trkpt lat="42.69939" lon="0.64463">
        <ele>2378</ele>
        <time>2026-06-30T13:38:18Z</time>
      </trkpt>
      <trkpt lat="42.70015" lon="0.64235">
        <ele>2381</ele>
        <time>2026-06-30T13:38:46Z</time>
      </trkpt>
      <trkpt lat="42.70015" lon="0.64237">
        <ele>2384</ele>
        <time>2026-06-30T13:39:03Z</time>
      </trkpt>
      <trkpt lat="42.70016" lon="0.64228">
        <ele>2334</ele>
        <time>2026-06-30T13:39:06Z</time>
      </trkpt>
      <trkpt lat="42.70014" lon="0.64216">
        <ele>2334</ele>
        <time>2026-06-30T13:39:10Z</time>
      </trkpt>
      <trkpt lat="42.7001" lon="0.64226">
        <ele>2330</ele>
        <time>2026-06-30T13:39:16Z</time>
      </trkpt>
      <trkpt lat="42.70012" lon="0.6422">
        <ele>2326</ele>
        <time>2026-06-30T13:39:26Z</time>
      </trkpt>
      <trkpt lat="42.70012" lon="0.64228">
        <ele>2324</ele>
        <time>2026-06-30T13:39:31Z</time>
      </trkpt>
      <trkpt lat="42.70013" lon="0.64227">
        <ele>2321</ele>
        <time>2026-06-30T13:39:53Z</time>
      </trkpt>
      <trkpt lat="42.70014" lon="0.64238">
        <ele>2324</ele>
        <time>2026-06-30T13:39:56Z</time>
      </trkpt>
      <trkpt lat="42.70014" lon="0.64222">
        <ele>2326</ele>
        <time>2026-06-30T13:40:00Z</time>
      </trkpt>
      <trkpt lat="42.70015" lon="0.64228">
        <ele>2328</ele>
        <time>2026-06-30T13:40:12Z</time>
      </trkpt>
      <trkpt lat="42.70016" lon="0.64225">
        <ele>2328</ele>
        <time>2026-06-30T13:40:41Z</time>
      </trkpt>
      <trkpt lat="42.70012" lon="0.64259">
        <ele>2335</ele>
        <time>2026-06-30T13:40:44Z</time>
      </trkpt>
      <trkpt lat="42.70018" lon="0.64209">
        <ele>2332</ele>
        <time>2026-06-30T13:40:49Z</time>
      </trkpt>
      <trkpt lat="42.70017" lon="0.64214">
        <ele>2330</ele>
        <time>2026-06-30T13:41:14Z</time>
      </trkpt>
      <trkpt lat="42.70012" lon="0.64239">
        <ele>2330</ele>
        <time>2026-06-30T13:41:18Z</time>
      </trkpt>
      <trkpt lat="42.70011" lon="0.64232">
        <ele>2330</ele>
        <time>2026-06-30T13:41:26Z</time>
      </trkpt>
      <trkpt lat="42.70022" lon="0.64305">
        <ele>2289</ele>
        <time>2026-06-30T13:46:26Z</time>
      </trkpt>
      <trkpt lat="42.70034" lon="0.64318">
        <ele>2290</ele>
        <time>2026-06-30T13:46:31Z</time>
      </trkpt>
      <trkpt lat="42.70047" lon="0.64331">
        <ele>2289</ele>
        <time>2026-06-30T13:46:36Z</time>
      </trkpt>
      <trkpt lat="42.70063" lon="0.6436">
        <ele>2286</ele>
        <time>2026-06-30T13:46:41Z</time>
      </trkpt>
      <trkpt lat="42.70075" lon="0.64373">
        <ele>2284</ele>
        <time>2026-06-30T13:46:46Z</time>
      </trkpt>
      <trkpt lat="42.70083" lon="0.6438">
        <ele>2281</ele>
        <time>2026-06-30T13:46:51Z</time>
      </trkpt>
      <trkpt lat="42.70067" lon="0.64386">
        <ele>2278</ele>
        <time>2026-06-30T13:46:56Z</time>
      </trkpt>
      <trkpt lat="42.70054" lon="0.64381">
        <ele>2276</ele>
        <time>2026-06-30T13:47:01Z</time>
      </trkpt>
      <trkpt lat="42.70061" lon="0.64393">
        <ele>2275</ele>
        <time>2026-06-30T13:47:06Z</time>
      </trkpt>
      <trkpt lat="42.70077" lon="0.64407">
        <ele>2273</ele>
        <time>2026-06-30T13:47:11Z</time>
      </trkpt>
      <trkpt lat="42.70084" lon="0.6441">
        <ele>2271</ele>
        <time>2026-06-30T13:47:16Z</time>
      </trkpt>
      <trkpt lat="42.70067" lon="0.64421">
        <ele>2269</ele>
        <time>2026-06-30T13:47:21Z</time>
      </trkpt>
      <trkpt lat="42.70055" lon="0.64415">
        <ele>2267</ele>
        <time>2026-06-30T13:47:26Z</time>
      </trkpt>
      <trkpt lat="42.70051" lon="0.64422">
        <ele>2265</ele>
        <time>2026-06-30T13:47:31Z</time>
      </trkpt>
      <trkpt lat="42.70058" lon="0.64444">
        <ele>2263</ele>
        <time>2026-06-30T13:47:36Z</time>
      </trkpt>
      <trkpt lat="42.70069" lon="0.64448">
        <ele>2261</ele>
        <time>2026-06-30T13:47:41Z</time>
      </trkpt>
      <trkpt lat="42.7006" lon="0.64455">
        <ele>2260</ele>
        <time>2026-06-30T13:47:46Z</time>
      </trkpt>
      <trkpt lat="42.70056" lon="0.64461">
        <ele>2257</ele>
        <time>2026-06-30T13:47:53Z</time>
      </trkpt>
      <trkpt lat="42.70062" lon="0.64467">
        <ele>2255</ele>
        <time>2026-06-30T13:47:58Z</time>
      </trkpt>
      <trkpt lat="42.70073" lon="0.64466">
        <ele>2252</ele>
        <time>2026-06-30T13:48:03Z</time>
      </trkpt>
      <trkpt lat="42.70078" lon="0.64464">
        <ele>2250</ele>
        <time>2026-06-30T13:48:11Z</time>
      </trkpt>
      <trkpt lat="42.701" lon="0.64456">
        <ele>2247</ele>
        <time>2026-06-30T13:48:16Z</time>
      </trkpt>
      <trkpt lat="42.70128" lon="0.64448">
        <ele>2243</ele>
        <time>2026-06-30T13:48:21Z</time>
      </trkpt>
      <trkpt lat="42.70151" lon="0.64441">
        <ele>2239</ele>
        <time>2026-06-30T13:48:26Z</time>
      </trkpt>
      <trkpt lat="42.70166" lon="0.64447">
        <ele>2236</ele>
        <time>2026-06-30T13:48:31Z</time>
      </trkpt>
      <trkpt lat="42.70178" lon="0.64457">
        <ele>2232</ele>
        <time>2026-06-30T13:48:36Z</time>
      </trkpt>
      <trkpt lat="42.70182" lon="0.64465">
        <ele>2229</ele>
        <time>2026-06-30T13:48:41Z</time>
      </trkpt>
      <trkpt lat="42.70188" lon="0.64471">
        <ele>2227</ele>
        <time>2026-06-30T13:48:46Z</time>
      </trkpt>
      <trkpt lat="42.70192" lon="0.64478">
        <ele>2225</ele>
        <time>2026-06-30T13:48:51Z</time>
      </trkpt>
      <trkpt lat="42.70196" lon="0.64487">
        <ele>2223</ele>
        <time>2026-06-30T13:48:56Z</time>
      </trkpt>
      <trkpt lat="42.702" lon="0.64495">
        <ele>2222</ele>
        <time>2026-06-30T13:49:01Z</time>
      </trkpt>
      <trkpt lat="42.70203" lon="0.64503">
        <ele>2221</ele>
        <time>2026-06-30T13:49:06Z</time>
      </trkpt>
      <trkpt lat="42.70208" lon="0.64508">
        <ele>2219</ele>
        <time>2026-06-30T13:49:11Z</time>
      </trkpt>
      <trkpt lat="42.70216" lon="0.64511">
        <ele>2218</ele>
        <time>2026-06-30T13:49:16Z</time>
      </trkpt>
      <trkpt lat="42.70224" lon="0.64516">
        <ele>2216</ele>
        <time>2026-06-30T13:49:21Z</time>
      </trkpt>
      <trkpt lat="42.70225" lon="0.64518">
        <ele>2214</ele>
        <time>2026-06-30T13:49:43Z</time>
      </trkpt>
      <trkpt lat="42.70221" lon="0.64509">
        <ele>2212</ele>
        <time>2026-06-30T13:49:45Z</time>
      </trkpt>
      <trkpt lat="42.70223" lon="0.64515">
        <ele>2210</ele>
        <time>2026-06-30T13:49:50Z</time>
      </trkpt>
      <trkpt lat="42.70228" lon="0.6452">
        <ele>2209</ele>
        <time>2026-06-30T13:50:00Z</time>
      </trkpt>
      <trkpt lat="42.7024" lon="0.64533">
        <ele>2207</ele>
        <time>2026-06-30T13:50:05Z</time>
      </trkpt>
      <trkpt lat="42.70246" lon="0.64543">
        <ele>2206</ele>
        <time>2026-06-30T13:50:10Z</time>
      </trkpt>
      <trkpt lat="42.70253" lon="0.64552">
        <ele>2205</ele>
        <time>2026-06-30T13:50:15Z</time>
      </trkpt>
      <trkpt lat="42.7026" lon="0.64555">
        <ele>2203</ele>
        <time>2026-06-30T13:50:20Z</time>
      </trkpt>
      <trkpt lat="42.70268" lon="0.64549">
        <ele>2201</ele>
        <time>2026-06-30T13:50:25Z</time>
      </trkpt>
      <trkpt lat="42.70273" lon="0.64541">
        <ele>2199</ele>
        <time>2026-06-30T13:50:30Z</time>
      </trkpt>
      <trkpt lat="42.70273" lon="0.64548">
        <ele>2198</ele>
        <time>2026-06-30T13:50:45Z</time>
      </trkpt>
      <trkpt lat="42.70272" lon="0.64564">
        <ele>2197</ele>
        <time>2026-06-30T13:50:50Z</time>
      </trkpt>
      <trkpt lat="42.70276" lon="0.64555">
        <ele>2196</ele>
        <time>2026-06-30T13:50:55Z</time>
      </trkpt>
      <trkpt lat="42.7028" lon="0.64545">
        <ele>2194</ele>
        <time>2026-06-30T13:51:00Z</time>
      </trkpt>
      <trkpt lat="42.70286" lon="0.64532">
        <ele>2192</ele>
        <time>2026-06-30T13:51:05Z</time>
      </trkpt>
      <trkpt lat="42.70288" lon="0.64526">
        <ele>2191</ele>
        <time>2026-06-30T13:51:17Z</time>
      </trkpt>
      <trkpt lat="42.70292" lon="0.64515">
        <ele>2189</ele>
        <time>2026-06-30T13:51:22Z</time>
      </trkpt>
      <trkpt lat="42.70294" lon="0.64506">
        <ele>2188</ele>
        <time>2026-06-30T13:51:27Z</time>
      </trkpt>
      <trkpt lat="42.70294" lon="0.64514">
        <ele>2186</ele>
        <time>2026-06-30T13:51:36Z</time>
      </trkpt>
      <trkpt lat="42.70292" lon="0.64527">
        <ele>2185</ele>
        <time>2026-06-30T13:51:41Z</time>
      </trkpt>
      <trkpt lat="42.70297" lon="0.64524">
        <ele>2183</ele>
        <time>2026-06-30T13:51:49Z</time>
      </trkpt>
      <trkpt lat="42.70301" lon="0.6451">
        <ele>2181</ele>
        <time>2026-06-30T13:51:54Z</time>
      </trkpt>
      <trkpt lat="42.70304" lon="0.64518">
        <ele>2180</ele>
        <time>2026-06-30T13:51:59Z</time>
      </trkpt>
      <trkpt lat="42.70301" lon="0.64535">
        <ele>2178</ele>
        <time>2026-06-30T13:52:04Z</time>
      </trkpt>
      <trkpt lat="42.70304" lon="0.6454">
        <ele>2176</ele>
        <time>2026-06-30T13:52:13Z</time>
      </trkpt>
      <trkpt lat="42.70308" lon="0.64533">
        <ele>2174</ele>
        <time>2026-06-30T13:52:22Z</time>
      </trkpt>
      <trkpt lat="42.70314" lon="0.64517">
        <ele>2172</ele>
        <time>2026-06-30T13:52:27Z</time>
      </trkpt>
      <trkpt lat="42.70316" lon="0.64524">
        <ele>2170</ele>
        <time>2026-06-30T13:52:34Z</time>
      </trkpt>
      <trkpt lat="42.70312" lon="0.64543">
        <ele>2168</ele>
        <time>2026-06-30T13:52:39Z</time>
      </trkpt>
      <trkpt lat="42.70319" lon="0.64543">
        <ele>2166</ele>
        <time>2026-06-30T13:52:44Z</time>
      </trkpt>
      <trkpt lat="42.70331" lon="0.64519">
        <ele>2164</ele>
        <time>2026-06-30T13:52:49Z</time>
      </trkpt>
      <trkpt lat="42.70331" lon="0.6453">
        <ele>2161</ele>
        <time>2026-06-30T13:53:00Z</time>
      </trkpt>
      <trkpt lat="42.70329" lon="0.64562">
        <ele>2158</ele>
        <time>2026-06-30T13:53:05Z</time>
      </trkpt>
      <trkpt lat="42.70334" lon="0.64582">
        <ele>2155</ele>
        <time>2026-06-30T13:53:10Z</time>
      </trkpt>
      <trkpt lat="42.70339" lon="0.64573">
        <ele>2152</ele>
        <time>2026-06-30T13:53:15Z</time>
      </trkpt>
      <trkpt lat="42.70343" lon="0.64549">
        <ele>2150</ele>
        <time>2026-06-30T13:53:20Z</time>
      </trkpt>
      <trkpt lat="42.70346" lon="0.64539">
        <ele>2148</ele>
        <time>2026-06-30T13:53:25Z</time>
      </trkpt>
      <trkpt lat="42.70355" lon="0.64535">
        <ele>2146</ele>
        <time>2026-06-30T13:53:30Z</time>
      </trkpt>
      <trkpt lat="42.70361" lon="0.64521">
        <ele>2145</ele>
        <time>2026-06-30T13:53:35Z</time>
      </trkpt>
      <trkpt lat="42.70365" lon="0.64527">
        <ele>2144</ele>
        <time>2026-06-30T13:53:41Z</time>
      </trkpt>
      <trkpt lat="42.70364" lon="0.64527">
        <ele>2143</ele>
        <time>2026-06-30T13:53:59Z</time>
      </trkpt>
      <trkpt lat="42.70361" lon="0.64522">
        <ele>2139</ele>
        <time>2026-06-30T13:54:03Z</time>
      </trkpt>
      <trkpt lat="42.70367" lon="0.64521">
        <ele>2138</ele>
        <time>2026-06-30T13:54:07Z</time>
      </trkpt>
      <trkpt lat="42.70367" lon="0.64521">
        <ele>2136</ele>
        <time>2026-06-30T13:54:31Z</time>
      </trkpt>
      <trkpt lat="42.70362" lon="0.64523">
        <ele>2134</ele>
        <time>2026-06-30T13:54:34Z</time>
      </trkpt>
      <trkpt lat="42.70368" lon="0.64523">
        <ele>2134</ele>
        <time>2026-06-30T13:54:39Z</time>
      </trkpt>
      <trkpt lat="42.70365" lon="0.64529">
        <ele>2135</ele>
        <time>2026-06-30T13:54:50Z</time>
      </trkpt>
      <trkpt lat="42.70359" lon="0.64543">
        <ele>2134</ele>
        <time>2026-06-30T13:54:55Z</time>
      </trkpt>
      <trkpt lat="42.70362" lon="0.64544">
        <ele>2132</ele>
        <time>2026-06-30T13:55:20Z</time>
      </trkpt>
      <trkpt lat="42.70369" lon="0.64546">
        <ele>2132</ele>
        <time>2026-06-30T13:55:23Z</time>
      </trkpt>
      <trkpt lat="42.70375" lon="0.6453">
        <ele>2131</ele>
        <time>2026-06-30T13:55:28Z</time>
      </trkpt>
      <trkpt lat="42.70376" lon="0.64539">
        <ele>2129</ele>
        <time>2026-06-30T13:55:33Z</time>
      </trkpt>
      <trkpt lat="42.7038" lon="0.64544">
        <ele>2127</ele>
        <time>2026-06-30T13:55:38Z</time>
      </trkpt>
      <trkpt lat="42.70382" lon="0.64533">
        <ele>2125</ele>
        <time>2026-06-30T13:55:43Z</time>
      </trkpt>
      <trkpt lat="42.70386" lon="0.64534">
        <ele>2124</ele>
        <time>2026-06-30T13:56:03Z</time>
      </trkpt>
      <trkpt lat="42.70387" lon="0.64545">
        <ele>2121</ele>
        <time>2026-06-30T13:56:08Z</time>
      </trkpt>
      <trkpt lat="42.70384" lon="0.64561">
        <ele>2120</ele>
        <time>2026-06-30T13:56:13Z</time>
      </trkpt>
      <trkpt lat="42.70383" lon="0.64584">
        <ele>2119</ele>
        <time>2026-06-30T13:56:18Z</time>
      </trkpt>
      <trkpt lat="42.70391" lon="0.64619">
        <ele>2116</ele>
        <time>2026-06-30T13:56:23Z</time>
      </trkpt>
      <trkpt lat="42.70396" lon="0.64658">
        <ele>2113</ele>
        <time>2026-06-30T13:56:28Z</time>
      </trkpt>
      <trkpt lat="42.70399" lon="0.64672">
        <ele>2111</ele>
        <time>2026-06-30T13:56:33Z</time>
      </trkpt>
      <trkpt lat="42.70398" lon="0.64666">
        <ele>2108</ele>
        <time>2026-06-30T13:56:44Z</time>
      </trkpt>
      <trkpt lat="42.70399" lon="0.64674">
        <ele>2107</ele>
        <time>2026-06-30T13:56:57Z</time>
      </trkpt>
      <trkpt lat="42.70397" lon="0.64689">
        <ele>2106</ele>
        <time>2026-06-30T13:57:02Z</time>
      </trkpt>
      <trkpt lat="42.70384" lon="0.64704">
        <ele>2104</ele>
        <time>2026-06-30T13:57:07Z</time>
      </trkpt>
      <trkpt lat="42.70379" lon="0.64714">
        <ele>2103</ele>
        <time>2026-06-30T13:57:12Z</time>
      </trkpt>
      <trkpt lat="42.7038" lon="0.6473">
        <ele>2102</ele>
        <time>2026-06-30T13:57:17Z</time>
      </trkpt>
      <trkpt lat="42.70381" lon="0.64744">
        <ele>2101</ele>
        <time>2026-06-30T13:57:22Z</time>
      </trkpt>
      <trkpt lat="42.7039" lon="0.64768">
        <ele>2099</ele>
        <time>2026-06-30T13:57:27Z</time>
      </trkpt>
      <trkpt lat="42.70403" lon="0.64788">
        <ele>2096</ele>
        <time>2026-06-30T13:57:32Z</time>
      </trkpt>
      <trkpt lat="42.70409" lon="0.64785">
        <ele>2094</ele>
        <time>2026-06-30T13:57:37Z</time>
      </trkpt>
      <trkpt lat="42.70406" lon="0.64768">
        <ele>2092</ele>
        <time>2026-06-30T13:57:42Z</time>
      </trkpt>
      <trkpt lat="42.70414" lon="0.64779">
        <ele>2089</ele>
        <time>2026-06-30T13:57:47Z</time>
      </trkpt>
      <trkpt lat="42.70417" lon="0.64792">
        <ele>2087</ele>
        <time>2026-06-30T13:57:52Z</time>
      </trkpt>
      <trkpt lat="42.70423" lon="0.64783">
        <ele>2085</ele>
        <time>2026-06-30T13:57:57Z</time>
      </trkpt>
      <trkpt lat="42.70421" lon="0.64766">
        <ele>2083</ele>
        <time>2026-06-30T13:58:02Z</time>
      </trkpt>
      <trkpt lat="42.70418" lon="0.6476">
        <ele>2081</ele>
        <time>2026-06-30T13:58:07Z</time>
      </trkpt>
      <trkpt lat="42.70426" lon="0.6477">
        <ele>2079</ele>
        <time>2026-06-30T13:58:12Z</time>
      </trkpt>
      <trkpt lat="42.70428" lon="0.64776">
        <ele>2077</ele>
        <time>2026-06-30T13:58:17Z</time>
      </trkpt>
      <trkpt lat="42.70429" lon="0.64777">
        <ele>2076</ele>
        <time>2026-06-30T13:58:46Z</time>
      </trkpt>
      <trkpt lat="42.7043" lon="0.64777">
        <ele>2075</ele>
        <time>2026-06-30T13:58:49Z</time>
      </trkpt>
      <trkpt lat="42.70435" lon="0.64767">
        <ele>2076</ele>
        <time>2026-06-30T13:58:54Z</time>
      </trkpt>
      <trkpt lat="42.70433" lon="0.64775">
        <ele>2076</ele>
        <time>2026-06-30T13:59:12Z</time>
      </trkpt>
      <trkpt lat="42.70433" lon="0.64784">
        <ele>2076</ele>
        <time>2026-06-30T13:59:17Z</time>
      </trkpt>
      <trkpt lat="42.70435" lon="0.64769">
        <ele>2075</ele>
        <time>2026-06-30T13:59:22Z</time>
      </trkpt>
      <trkpt lat="42.70435" lon="0.64753">
        <ele>2073</ele>
        <time>2026-06-30T13:59:27Z</time>
      </trkpt>
      <trkpt lat="42.70432" lon="0.64744">
        <ele>2070</ele>
        <time>2026-06-30T13:59:32Z</time>
      </trkpt>
      <trkpt lat="42.70443" lon="0.64762">
        <ele>2067</ele>
        <time>2026-06-30T13:59:37Z</time>
      </trkpt>
      <trkpt lat="42.70446" lon="0.64781">
        <ele>2065</ele>
        <time>2026-06-30T13:59:42Z</time>
      </trkpt>
      <trkpt lat="42.70449" lon="0.64777">
        <ele>2063</ele>
        <time>2026-06-30T13:59:48Z</time>
      </trkpt>
      <trkpt lat="42.70452" lon="0.64752">
        <ele>2061</ele>
        <time>2026-06-30T13:59:53Z</time>
      </trkpt>
      <trkpt lat="42.70451" lon="0.64735">
        <ele>2060</ele>
        <time>2026-06-30T13:59:58Z</time>
      </trkpt>
      <trkpt lat="42.70459" lon="0.64744">
        <ele>2058</ele>
        <time>2026-06-30T14:00:03Z</time>
      </trkpt>
      <trkpt lat="42.70468" lon="0.64766">
        <ele>2056</ele>
        <time>2026-06-30T14:00:08Z</time>
      </trkpt>
      <trkpt lat="42.70466" lon="0.64777">
        <ele>2055</ele>
        <time>2026-06-30T14:00:13Z</time>
      </trkpt>
      <trkpt lat="42.70471" lon="0.64771">
        <ele>2053</ele>
        <time>2026-06-30T14:00:18Z</time>
      </trkpt>
      <trkpt lat="42.70474" lon="0.64748">
        <ele>2051</ele>
        <time>2026-06-30T14:00:23Z</time>
      </trkpt>
      <trkpt lat="42.70474" lon="0.64733">
        <ele>2049</ele>
        <time>2026-06-30T14:00:28Z</time>
      </trkpt>
      <trkpt lat="42.7047" lon="0.64727">
        <ele>2047</ele>
        <time>2026-06-30T14:00:33Z</time>
      </trkpt>
      <trkpt lat="42.70475" lon="0.64729">
        <ele>2045</ele>
        <time>2026-06-30T14:00:39Z</time>
      </trkpt>
      <trkpt lat="42.7048" lon="0.64741">
        <ele>2043</ele>
        <time>2026-06-30T14:00:44Z</time>
      </trkpt>
      <trkpt lat="42.70487" lon="0.6476">
        <ele>2041</ele>
        <time>2026-06-30T14:00:49Z</time>
      </trkpt>
      <trkpt lat="42.70487" lon="0.64776">
        <ele>2039</ele>
        <time>2026-06-30T14:00:54Z</time>
      </trkpt>
      <trkpt lat="42.70492" lon="0.64772">
        <ele>2038</ele>
        <time>2026-06-30T14:00:59Z</time>
      </trkpt>
      <trkpt lat="42.70496" lon="0.64755">
        <ele>2036</ele>
        <time>2026-06-30T14:01:04Z</time>
      </trkpt>
      <trkpt lat="42.70493" lon="0.64738">
        <ele>2034</ele>
        <time>2026-06-30T14:01:09Z</time>
      </trkpt>
      <trkpt lat="42.70496" lon="0.64729">
        <ele>2033</ele>
        <time>2026-06-30T14:01:14Z</time>
      </trkpt>
      <trkpt lat="42.70503" lon="0.64729">
        <ele>2033</ele>
        <time>2026-06-30T14:01:19Z</time>
      </trkpt>
      <trkpt lat="42.70504" lon="0.64736">
        <ele>2032</ele>
        <time>2026-06-30T14:01:32Z</time>
      </trkpt>
      <trkpt lat="42.70507" lon="0.64752">
        <ele>2032</ele>
        <time>2026-06-30T14:01:37Z</time>
      </trkpt>
      <trkpt lat="42.70511" lon="0.64771">
        <ele>2031</ele>
        <time>2026-06-30T14:01:42Z</time>
      </trkpt>
      <trkpt lat="42.70509" lon="0.6479">
        <ele>2029</ele>
        <time>2026-06-30T14:01:47Z</time>
      </trkpt>
      <trkpt lat="42.70507" lon="0.64797">
        <ele>2028</ele>
        <time>2026-06-30T14:01:52Z</time>
      </trkpt>
      <trkpt lat="42.70513" lon="0.64804">
        <ele>2025</ele>
        <time>2026-06-30T14:01:57Z</time>
      </trkpt>
      <trkpt lat="42.70527" lon="0.6481">
        <ele>2023</ele>
        <time>2026-06-30T14:02:02Z</time>
      </trkpt>
      <trkpt lat="42.70538" lon="0.64822">
        <ele>2020</ele>
        <time>2026-06-30T14:02:07Z</time>
      </trkpt>
      <trkpt lat="42.70538" lon="0.64825">
        <ele>2018</ele>
        <time>2026-06-30T14:02:23Z</time>
      </trkpt>
      <trkpt lat="42.70547" lon="0.64816">
        <ele>2020</ele>
        <time>2026-06-30T14:02:26Z</time>
      </trkpt>
      <trkpt lat="42.70538" lon="0.64821">
        <ele>2019</ele>
        <time>2026-06-30T14:02:31Z</time>
      </trkpt>
      <trkpt lat="42.7054" lon="0.64828">
        <ele>2018</ele>
        <time>2026-06-30T14:02:51Z</time>
      </trkpt>
      <trkpt lat="42.70543" lon="0.64834">
        <ele>2017</ele>
        <time>2026-06-30T14:02:56Z</time>
      </trkpt>
      <trkpt lat="42.70543" lon="0.64826">
        <ele>2016</ele>
        <time>2026-06-30T14:03:02Z</time>
      </trkpt>
      <trkpt lat="42.70543" lon="0.64815">
        <ele>2012</ele>
        <time>2026-06-30T14:03:07Z</time>
      </trkpt>
      <trkpt lat="42.70535" lon="0.64798">
        <ele>2010</ele>
        <time>2026-06-30T14:03:12Z</time>
      </trkpt>
      <trkpt lat="42.70531" lon="0.64781">
        <ele>2009</ele>
        <time>2026-06-30T14:03:17Z</time>
      </trkpt>
      <trkpt lat="42.70536" lon="0.64767">
        <ele>2008</ele>
        <time>2026-06-30T14:03:22Z</time>
      </trkpt>
      <trkpt lat="42.7054" lon="0.64758">
        <ele>2007</ele>
        <time>2026-06-30T14:03:27Z</time>
      </trkpt>
      <trkpt lat="42.70553" lon="0.64736">
        <ele>2005</ele>
        <time>2026-06-30T14:03:32Z</time>
      </trkpt>
      <trkpt lat="42.70557" lon="0.64725">
        <ele>2003</ele>
        <time>2026-06-30T14:03:37Z</time>
      </trkpt>
      <trkpt lat="42.70559" lon="0.64735">
        <ele>2001</ele>
        <time>2026-06-30T14:03:44Z</time>
      </trkpt>
      <trkpt lat="42.70562" lon="0.64759">
        <ele>1997</ele>
        <time>2026-06-30T14:03:49Z</time>
      </trkpt>
      <trkpt lat="42.70565" lon="0.6478">
        <ele>1994</ele>
        <time>2026-06-30T14:03:54Z</time>
      </trkpt>
      <trkpt lat="42.70573" lon="0.64787">
        <ele>1991</ele>
        <time>2026-06-30T14:03:59Z</time>
      </trkpt>
      <trkpt lat="42.70577" lon="0.6479">
        <ele>1988</ele>
        <time>2026-06-30T14:04:12Z</time>
      </trkpt>
      <trkpt lat="42.70581" lon="0.64794">
        <ele>1986</ele>
        <time>2026-06-30T14:04:20Z</time>
      </trkpt>
      <trkpt lat="42.70581" lon="0.64801">
        <ele>1984</ele>
        <time>2026-06-30T14:04:30Z</time>
      </trkpt>
      <trkpt lat="42.70579" lon="0.64794">
        <ele>1983</ele>
        <time>2026-06-30T14:04:44Z</time>
      </trkpt>
      <trkpt lat="42.70577" lon="0.64786">
        <ele>1982</ele>
        <time>2026-06-30T14:04:49Z</time>
      </trkpt>
      <trkpt lat="42.70579" lon="0.6478">
        <ele>1980</ele>
        <time>2026-06-30T14:04:59Z</time>
      </trkpt>
      <trkpt lat="42.70583" lon="0.64783">
        <ele>1978</ele>
        <time>2026-06-30T14:05:08Z</time>
      </trkpt>
      <trkpt lat="42.70587" lon="0.64787">
        <ele>1976</ele>
        <time>2026-06-30T14:05:19Z</time>
      </trkpt>
      <trkpt lat="42.70587" lon="0.64787">
        <ele>1974</ele>
        <time>2026-06-30T14:05:48Z</time>
      </trkpt>
      <trkpt lat="42.70602" lon="0.64772">
        <ele>1977</ele>
        <time>2026-06-30T14:05:51Z</time>
      </trkpt>
      <trkpt lat="42.70585" lon="0.64786">
        <ele>1974</ele>
        <time>2026-06-30T14:05:56Z</time>
      </trkpt>
      <trkpt lat="42.70585" lon="0.64786">
        <ele>1971</ele>
        <time>2026-06-30T14:06:20Z</time>
      </trkpt>
      <trkpt lat="42.70586" lon="0.64776">
        <ele>1969</ele>
        <time>2026-06-30T14:06:23Z</time>
      </trkpt>
      <trkpt lat="42.7059" lon="0.64785">
        <ele>1967</ele>
        <time>2026-06-30T14:06:28Z</time>
      </trkpt>
      <trkpt lat="42.7061" lon="0.64751">
        <ele>1950</ele>
        <time>2026-06-30T14:08:55Z</time>
      </trkpt>
      <trkpt lat="42.70611" lon="0.64734">
        <ele>1948</ele>
        <time>2026-06-30T14:09:00Z</time>
      </trkpt>
      <trkpt lat="42.70614" lon="0.64722">
        <ele>1947</ele>
        <time>2026-06-30T14:09:05Z</time>
      </trkpt>
      <trkpt lat="42.7062" lon="0.64725">
        <ele>1944</ele>
        <time>2026-06-30T14:09:13Z</time>
      </trkpt>
      <trkpt lat="42.7062" lon="0.64746">
        <ele>1943</ele>
        <time>2026-06-30T14:09:18Z</time>
      </trkpt>
      <trkpt lat="42.70625" lon="0.64757">
        <ele>1941</ele>
        <time>2026-06-30T14:09:23Z</time>
      </trkpt>
      <trkpt lat="42.70626" lon="0.64766">
        <ele>1940</ele>
        <time>2026-06-30T14:09:28Z</time>
      </trkpt>
      <trkpt lat="42.70626" lon="0.64773">
        <ele>1938</ele>
        <time>2026-06-30T14:09:33Z</time>
      </trkpt>
      <trkpt lat="42.70628" lon="0.64773">
        <ele>1938</ele>
        <time>2026-06-30T14:09:48Z</time>
      </trkpt>
      <trkpt lat="42.70626" lon="0.64766">
        <ele>1937</ele>
        <time>2026-06-30T14:09:51Z</time>
      </trkpt>
      <trkpt lat="42.70626" lon="0.64778">
        <ele>1936</ele>
        <time>2026-06-30T14:09:56Z</time>
      </trkpt>
      <trkpt lat="42.70631" lon="0.64778">
        <ele>1934</ele>
        <time>2026-06-30T14:10:05Z</time>
      </trkpt>
      <trkpt lat="42.70636" lon="0.64782">
        <ele>1932</ele>
        <time>2026-06-30T14:10:14Z</time>
      </trkpt>
      <trkpt lat="42.7065" lon="0.64788">
        <ele>1929</ele>
        <time>2026-06-30T14:10:19Z</time>
      </trkpt>
      <trkpt lat="42.7066" lon="0.64795">
        <ele>1926</ele>
        <time>2026-06-30T14:10:24Z</time>
      </trkpt>
      <trkpt lat="42.70667" lon="0.64817">
        <ele>1923</ele>
        <time>2026-06-30T14:10:29Z</time>
      </trkpt>
      <trkpt lat="42.70678" lon="0.64833">
        <ele>1919</ele>
        <time>2026-06-30T14:10:34Z</time>
      </trkpt>
      <trkpt lat="42.70693" lon="0.64833">
        <ele>1917</ele>
        <time>2026-06-30T14:10:39Z</time>
      </trkpt>
      <trkpt lat="42.70698" lon="0.64833">
        <ele>1915</ele>
        <time>2026-06-30T14:10:44Z</time>
      </trkpt>
      <trkpt lat="42.70692" lon="0.64828">
        <ele>1914</ele>
        <time>2026-06-30T14:10:49Z</time>
      </trkpt>
      <trkpt lat="42.70691" lon="0.64829">
        <ele>1913</ele>
        <time>2026-06-30T14:11:09Z</time>
      </trkpt>
      <trkpt lat="42.70691" lon="0.64831">
        <ele>1912</ele>
        <time>2026-06-30T14:11:12Z</time>
      </trkpt>
      <trkpt lat="42.70688" lon="0.64842">
        <ele>1912</ele>
        <time>2026-06-30T14:11:17Z</time>
      </trkpt>
      <trkpt lat="42.70685" lon="0.64839">
        <ele>1910</ele>
        <time>2026-06-30T14:11:41Z</time>
      </trkpt>
      <trkpt lat="42.70689" lon="0.64831">
        <ele>1909</ele>
        <time>2026-06-30T14:11:45Z</time>
      </trkpt>
      <trkpt lat="42.70691" lon="0.64832">
        <ele>1908</ele>
        <time>2026-06-30T14:12:14Z</time>
      </trkpt>
      <trkpt lat="42.70684" lon="0.64828">
        <ele>1906</ele>
        <time>2026-06-30T14:12:17Z</time>
      </trkpt>
      <trkpt lat="42.70693" lon="0.64822">
        <ele>1904</ele>
        <time>2026-06-30T14:12:22Z</time>
      </trkpt>
      <trkpt lat="42.70693" lon="0.64822">
        <ele>1904</ele>
        <time>2026-06-30T14:12:47Z</time>
      </trkpt>
      <trkpt lat="42.7069" lon="0.64826">
        <ele>1906</ele>
        <time>2026-06-30T14:12:50Z</time>
      </trkpt>
      <trkpt lat="42.70685" lon="0.64826">
        <ele>1905</ele>
        <time>2026-06-30T14:13:13Z</time>
      </trkpt>
      <trkpt lat="42.70684" lon="0.6481">
        <ele>1905</ele>
        <time>2026-06-30T14:13:18Z</time>
      </trkpt>
      <trkpt lat="42.70694" lon="0.64787">
        <ele>1903</ele>
        <time>2026-06-30T14:13:23Z</time>
      </trkpt>
      <trkpt lat="42.70695" lon="0.64767">
        <ele>1901</ele>
        <time>2026-06-30T14:13:28Z</time>
      </trkpt>
      <trkpt lat="42.70702" lon="0.64773">
        <ele>1897</ele>
        <time>2026-06-30T14:13:33Z</time>
      </trkpt>
      <trkpt lat="42.70705" lon="0.64799">
        <ele>1894</ele>
        <time>2026-06-30T14:13:38Z</time>
      </trkpt>
      <trkpt lat="42.70717" lon="0.64805">
        <ele>1892</ele>
        <time>2026-06-30T14:13:43Z</time>
      </trkpt>
      <trkpt lat="42.70726" lon="0.64807">
        <ele>1890</ele>
        <time>2026-06-30T14:13:48Z</time>
      </trkpt>
      <trkpt lat="42.70721" lon="0.648">
        <ele>1888</ele>
        <time>2026-06-30T14:13:53Z</time>
      </trkpt>
      <trkpt lat="42.70717" lon="0.64784">
        <ele>1887</ele>
        <time>2026-06-30T14:13:58Z</time>
      </trkpt>
      <trkpt lat="42.7072" lon="0.64766">
        <ele>1885</ele>
        <time>2026-06-30T14:14:03Z</time>
      </trkpt>
      <trkpt lat="42.70725" lon="0.6476">
        <ele>1884</ele>
        <time>2026-06-30T14:14:08Z</time>
      </trkpt>
      <trkpt lat="42.70732" lon="0.64776">
        <ele>1882</ele>
        <time>2026-06-30T14:14:13Z</time>
      </trkpt>
      <trkpt lat="42.70747" lon="0.64783">
        <ele>1880</ele>
        <time>2026-06-30T14:14:18Z</time>
      </trkpt>
      <trkpt lat="42.70753" lon="0.64782">
        <ele>1878</ele>
        <time>2026-06-30T14:14:23Z</time>
      </trkpt>
      <trkpt lat="42.70746" lon="0.64768">
        <ele>1875</ele>
        <time>2026-06-30T14:14:28Z</time>
      </trkpt>
      <trkpt lat="42.70747" lon="0.64749">
        <ele>1873</ele>
        <time>2026-06-30T14:14:33Z</time>
      </trkpt>
      <trkpt lat="42.70746" lon="0.64735">
        <ele>1872</ele>
        <time>2026-06-30T14:14:38Z</time>
      </trkpt>
      <trkpt lat="42.7075" lon="0.6474">
        <ele>1870</ele>
        <time>2026-06-30T14:14:44Z</time>
      </trkpt>
      <trkpt lat="42.70764" lon="0.64759">
        <ele>1868</ele>
        <time>2026-06-30T14:14:49Z</time>
      </trkpt>
      <trkpt lat="42.70777" lon="0.64768">
        <ele>1865</ele>
        <time>2026-06-30T14:14:54Z</time>
      </trkpt>
      <trkpt lat="42.70773" lon="0.64751">
        <ele>1863</ele>
        <time>2026-06-30T14:14:59Z</time>
      </trkpt>
      <trkpt lat="42.70765" lon="0.6472">
        <ele>1860</ele>
        <time>2026-06-30T14:15:04Z</time>
      </trkpt>
      <trkpt lat="42.70761" lon="0.64686">
        <ele>1858</ele>
        <time>2026-06-30T14:15:09Z</time>
      </trkpt>
      <trkpt lat="42.70756" lon="0.64658">
        <ele>1855</ele>
        <time>2026-06-30T14:15:14Z</time>
      </trkpt>
      <trkpt lat="42.70755" lon="0.64657">
        <ele>1853</ele>
        <time>2026-06-30T14:15:29Z</time>
      </trkpt>
      <trkpt lat="42.7076" lon="0.64641">
        <ele>1849</ele>
        <time>2026-06-30T14:15:33Z</time>
      </trkpt>
      <trkpt lat="42.70754" lon="0.64651">
        <ele>1845</ele>
        <time>2026-06-30T14:15:37Z</time>
      </trkpt>
      <trkpt lat="42.70754" lon="0.64645">
        <ele>1840</ele>
        <time>2026-06-30T14:15:48Z</time>
      </trkpt>
      <trkpt lat="42.70755" lon="0.64638">
        <ele>1837</ele>
        <time>2026-06-30T14:16:01Z</time>
      </trkpt>
      <trkpt lat="42.70766" lon="0.64633">
        <ele>1833</ele>
        <time>2026-06-30T14:16:06Z</time>
      </trkpt>
      <trkpt lat="42.70766" lon="0.64634">
        <ele>1831</ele>
        <time>2026-06-30T14:16:34Z</time>
      </trkpt>
      <trkpt lat="42.70761" lon="0.6461">
        <ele>1825</ele>
        <time>2026-06-30T14:16:37Z</time>
      </trkpt>
      <trkpt lat="42.70774" lon="0.64622">
        <ele>1827</ele>
        <time>2026-06-30T14:16:42Z</time>
      </trkpt>
      <trkpt lat="42.70779" lon="0.64621">
        <ele>1828</ele>
        <time>2026-06-30T14:16:56Z</time>
      </trkpt>
      <trkpt lat="42.70791" lon="0.64616">
        <ele>1829</ele>
        <time>2026-06-30T14:17:01Z</time>
      </trkpt>
      <trkpt lat="42.70797" lon="0.64617">
        <ele>1830</ele>
        <time>2026-06-30T14:17:17Z</time>
      </trkpt>
      <trkpt lat="42.70805" lon="0.64617">
        <ele>1837</ele>
        <time>2026-06-30T14:17:22Z</time>
      </trkpt>
      <trkpt lat="42.7082" lon="0.64618">
        <ele>1836</ele>
        <time>2026-06-30T14:17:27Z</time>
      </trkpt>
      <trkpt lat="42.70845" lon="0.64628">
        <ele>1834</ele>
        <time>2026-06-30T14:17:32Z</time>
      </trkpt>
      <trkpt lat="42.70853" lon="0.64627">
        <ele>1833</ele>
        <time>2026-06-30T14:17:37Z</time>
      </trkpt>
      <trkpt lat="42.70863" lon="0.64623">
        <ele>1832</ele>
        <time>2026-06-30T14:17:42Z</time>
      </trkpt>
      <trkpt lat="42.70871" lon="0.64605">
        <ele>1831</ele>
        <time>2026-06-30T14:17:47Z</time>
      </trkpt>
      <trkpt lat="42.70885" lon="0.64589">
        <ele>1829</ele>
        <time>2026-06-30T14:17:52Z</time>
      </trkpt>
      <trkpt lat="42.70903" lon="0.64589">
        <ele>1828</ele>
        <time>2026-06-30T14:17:57Z</time>
      </trkpt>
      <trkpt lat="42.7093" lon="0.64592">
        <ele>1826</ele>
        <time>2026-06-30T14:18:02Z</time>
      </trkpt>
      <trkpt lat="42.70944" lon="0.64601">
        <ele>1822</ele>
        <time>2026-06-30T14:18:07Z</time>
      </trkpt>
      <trkpt lat="42.70958" lon="0.64603">
        <ele>1818</ele>
        <time>2026-06-30T14:18:12Z</time>
      </trkpt>
      <trkpt lat="42.70958" lon="0.64612">
        <ele>1815</ele>
        <time>2026-06-30T14:18:17Z</time>
      </trkpt>
      <trkpt lat="42.70948" lon="0.6462">
        <ele>1810</ele>
        <time>2026-06-30T14:18:22Z</time>
      </trkpt>
      <trkpt lat="42.70942" lon="0.64622">
        <ele>1807</ele>
        <time>2026-06-30T14:18:39Z</time>
      </trkpt>
      <trkpt lat="42.70931" lon="0.64625">
        <ele>1804</ele>
        <time>2026-06-30T14:18:44Z</time>
      </trkpt>
      <trkpt lat="42.70927" lon="0.6463">
        <ele>1802</ele>
        <time>2026-06-30T14:18:53Z</time>
      </trkpt>
      <trkpt lat="42.70936" lon="0.64638">
        <ele>1801</ele>
        <time>2026-06-30T14:18:58Z</time>
      </trkpt>
      <trkpt lat="42.70947" lon="0.64637">
        <ele>1800</ele>
        <time>2026-06-30T14:19:03Z</time>
      </trkpt>
      <trkpt lat="42.70958" lon="0.64642">
        <ele>1798</ele>
        <time>2026-06-30T14:19:08Z</time>
      </trkpt>
      <trkpt lat="42.70977" lon="0.64648">
        <ele>1797</ele>
        <time>2026-06-30T14:19:13Z</time>
      </trkpt>
      <trkpt lat="42.70992" lon="0.64641">
        <ele>1795</ele>
        <time>2026-06-30T14:19:18Z</time>
      </trkpt>
      <trkpt lat="42.70998" lon="0.64633">
        <ele>1793</ele>
        <time>2026-06-30T14:19:23Z</time>
      </trkpt>
      <trkpt lat="42.71007" lon="0.6464">
        <ele>1790</ele>
        <time>2026-06-30T14:19:28Z</time>
      </trkpt>
      <trkpt lat="42.71022" lon="0.64642">
        <ele>1787</ele>
        <time>2026-06-30T14:19:33Z</time>
      </trkpt>
      <trkpt lat="42.71037" lon="0.64649">
        <ele>1784</ele>
        <time>2026-06-30T14:19:38Z</time>
      </trkpt>
      <trkpt lat="42.71029" lon="0.64657">
        <ele>1781</ele>
        <time>2026-06-30T14:19:43Z</time>
      </trkpt>
      <trkpt lat="42.71014" lon="0.64662">
        <ele>1778</ele>
        <time>2026-06-30T14:19:48Z</time>
      </trkpt>
      <trkpt lat="42.71012" lon="0.64669">
        <ele>1775</ele>
        <time>2026-06-30T14:19:53Z</time>
      </trkpt>
      <trkpt lat="42.71031" lon="0.64676">
        <ele>1771</ele>
        <time>2026-06-30T14:19:58Z</time>
      </trkpt>
      <trkpt lat="42.71053" lon="0.64685">
        <ele>1768</ele>
        <time>2026-06-30T14:20:03Z</time>
      </trkpt>
      <trkpt lat="42.71049" lon="0.64693">
        <ele>1765</ele>
        <time>2026-06-30T14:20:08Z</time>
      </trkpt>
      <trkpt lat="42.71037" lon="0.64695">
        <ele>1762</ele>
        <time>2026-06-30T14:20:13Z</time>
      </trkpt>
      <trkpt lat="42.71024" lon="0.64698">
        <ele>1759</ele>
        <time>2026-06-30T14:20:18Z</time>
      </trkpt>
      <trkpt lat="42.7104" lon="0.64704">
        <ele>1756</ele>
        <time>2026-06-30T14:20:23Z</time>
      </trkpt>
      <trkpt lat="42.71056" lon="0.64718">
        <ele>1753</ele>
        <time>2026-06-30T14:20:28Z</time>
      </trkpt>
      <trkpt lat="42.71063" lon="0.64726">
        <ele>1750</ele>
        <time>2026-06-30T14:20:33Z</time>
      </trkpt>
      <trkpt lat="42.71057" lon="0.64734">
        <ele>1747</ele>
        <time>2026-06-30T14:20:38Z</time>
      </trkpt>
      <trkpt lat="42.71042" lon="0.64732">
        <ele>1743</ele>
        <time>2026-06-30T14:20:43Z</time>
      </trkpt>
      <trkpt lat="42.71045" lon="0.64736">
        <ele>1740</ele>
        <time>2026-06-30T14:20:48Z</time>
      </trkpt>
      <trkpt lat="42.71065" lon="0.64747">
        <ele>1737</ele>
        <time>2026-06-30T14:20:53Z</time>
      </trkpt>
      <trkpt lat="42.71063" lon="0.64748">
        <ele>1734</ele>
        <time>2026-06-30T14:21:24Z</time>
      </trkpt>
      <trkpt lat="42.71067" lon="0.64737">
        <ele>1730</ele>
        <time>2026-06-30T14:21:27Z</time>
      </trkpt>
      <trkpt lat="42.71065" lon="0.64749">
        <ele>1726</ele>
        <time>2026-06-30T14:21:31Z</time>
      </trkpt>
      <trkpt lat="42.71064" lon="0.64746">
        <ele>1723</ele>
        <time>2026-06-30T14:21:57Z</time>
      </trkpt>
      <trkpt lat="42.71066" lon="0.64739">
        <ele>1722</ele>
        <time>2026-06-30T14:22:00Z</time>
      </trkpt>
      <trkpt lat="42.71072" lon="0.64739">
        <ele>1723</ele>
        <time>2026-06-30T14:22:28Z</time>
      </trkpt>
      <trkpt lat="42.71085" lon="0.64746">
        <ele>1724</ele>
        <time>2026-06-30T14:22:33Z</time>
      </trkpt>
      <trkpt lat="42.71095" lon="0.6476">
        <ele>1726</ele>
        <time>2026-06-30T14:22:38Z</time>
      </trkpt>
      <trkpt lat="42.71108" lon="0.64771">
        <ele>1727</ele>
        <time>2026-06-30T14:22:43Z</time>
      </trkpt>
      <trkpt lat="42.71117" lon="0.64775">
        <ele>1725</ele>
        <time>2026-06-30T14:22:48Z</time>
      </trkpt>
      <trkpt lat="42.71113" lon="0.6478">
        <ele>1722</ele>
        <time>2026-06-30T14:22:54Z</time>
      </trkpt>
      <trkpt lat="42.71108" lon="0.64782">
        <ele>1719</ele>
        <time>2026-06-30T14:22:59Z</time>
      </trkpt>
      <trkpt lat="42.71117" lon="0.6479">
        <ele>1716</ele>
        <time>2026-06-30T14:23:04Z</time>
      </trkpt>
      <trkpt lat="42.71126" lon="0.64791">
        <ele>1714</ele>
        <time>2026-06-30T14:23:09Z</time>
      </trkpt>
      <trkpt lat="42.71126" lon="0.648">
        <ele>1711</ele>
        <time>2026-06-30T14:23:14Z</time>
      </trkpt>
      <trkpt lat="42.7112" lon="0.64805">
        <ele>1709</ele>
        <time>2026-06-30T14:23:19Z</time>
      </trkpt>
      <trkpt lat="42.71123" lon="0.64811">
        <ele>1707</ele>
        <time>2026-06-30T14:23:26Z</time>
      </trkpt>
      <trkpt lat="42.71132" lon="0.64813">
        <ele>1704</ele>
        <time>2026-06-30T14:23:31Z</time>
      </trkpt>
      <trkpt lat="42.7113" lon="0.64822">
        <ele>1702</ele>
        <time>2026-06-30T14:23:36Z</time>
      </trkpt>
      <trkpt lat="42.71122" lon="0.64827">
        <ele>1700</ele>
        <time>2026-06-30T14:23:41Z</time>
      </trkpt>
      <trkpt lat="42.71123" lon="0.64834">
        <ele>1696</ele>
        <time>2026-06-30T14:23:48Z</time>
      </trkpt>
      <trkpt lat="42.71139" lon="0.64842">
        <ele>1693</ele>
        <time>2026-06-30T14:23:53Z</time>
      </trkpt>
      <trkpt lat="42.71145" lon="0.64843">
        <ele>1689</ele>
        <time>2026-06-30T14:23:58Z</time>
      </trkpt>
      <trkpt lat="42.71141" lon="0.64849">
        <ele>1685</ele>
        <time>2026-06-30T14:24:03Z</time>
      </trkpt>
      <trkpt lat="42.71133" lon="0.64855">
        <ele>1682</ele>
        <time>2026-06-30T14:24:08Z</time>
      </trkpt>
      <trkpt lat="42.71146" lon="0.6486">
        <ele>1679</ele>
        <time>2026-06-30T14:24:13Z</time>
      </trkpt>
      <trkpt lat="42.71163" lon="0.64857">
        <ele>1676</ele>
        <time>2026-06-30T14:24:18Z</time>
      </trkpt>
      <trkpt lat="42.71187" lon="0.64852">
        <ele>1673</ele>
        <time>2026-06-30T14:24:23Z</time>
      </trkpt>
      <trkpt lat="42.71202" lon="0.64874">
        <ele>1670</ele>
        <time>2026-06-30T14:24:28Z</time>
      </trkpt>
      <trkpt lat="42.71221" lon="0.64879">
        <ele>1665</ele>
        <time>2026-06-30T14:24:33Z</time>
      </trkpt>
      <trkpt lat="42.71233" lon="0.64875">
        <ele>1661</ele>
        <time>2026-06-30T14:24:38Z</time>
      </trkpt>
      <trkpt lat="42.71253" lon="0.6488">
        <ele>1657</ele>
        <time>2026-06-30T14:24:43Z</time>
      </trkpt>
      <trkpt lat="42.71281" lon="0.64891">
        <ele>1652</ele>
        <time>2026-06-30T14:24:48Z</time>
      </trkpt>
      <trkpt lat="42.71306" lon="0.64894">
        <ele>1648</ele>
        <time>2026-06-30T14:24:53Z</time>
      </trkpt>
      <trkpt lat="42.71309" lon="0.649">
        <ele>1643</ele>
        <time>2026-06-30T14:24:58Z</time>
      </trkpt>
      <trkpt lat="42.71292" lon="0.64918">
        <ele>1638</ele>
        <time>2026-06-30T14:25:03Z</time>
      </trkpt>
      <trkpt lat="42.71262" lon="0.64939">
        <ele>1633</ele>
        <time>2026-06-30T14:25:08Z</time>
      </trkpt>
      <trkpt lat="42.71248" lon="0.64981">
        <ele>1627</ele>
        <time>2026-06-30T14:25:13Z</time>
      </trkpt>
      <trkpt lat="42.71263" lon="0.6498">
        <ele>1622</ele>
        <time>2026-06-30T14:25:18Z</time>
      </trkpt>
      <trkpt lat="42.71264" lon="0.64978">
        <ele>1618</ele>
        <time>2026-06-30T14:25:42Z</time>
      </trkpt>
      <trkpt lat="42.71257" lon="0.64975">
        <ele>1621</ele>
        <time>2026-06-30T14:25:46Z</time>
      </trkpt>
      <trkpt lat="42.71261" lon="0.64981">
        <ele>1617</ele>
        <time>2026-06-30T14:25:50Z</time>
      </trkpt>
      <trkpt lat="42.71262" lon="0.64982">
        <ele>1614</ele>
        <time>2026-06-30T14:26:15Z</time>
      </trkpt>
      <trkpt lat="42.71271" lon="0.64969">
        <ele>1617</ele>
        <time>2026-06-30T14:26:18Z</time>
      </trkpt>
      <trkpt lat="42.71266" lon="0.64973">
        <ele>1613</ele>
        <time>2026-06-30T14:26:22Z</time>
      </trkpt>
      <trkpt lat="42.71266" lon="0.64973">
        <ele>1601</ele>
        <time>2026-06-30T14:26:47Z</time>
      </trkpt>
      <trkpt lat="42.71268" lon="0.64971">
        <ele>1599</ele>
        <time>2026-06-30T14:26:50Z</time>
      </trkpt>
      <trkpt lat="42.71262" lon="0.6497">
        <ele>1598</ele>
        <time>2026-06-30T14:26:55Z</time>
      </trkpt>
      <trkpt lat="42.71263" lon="0.64972">
        <ele>1594</ele>
        <time>2026-06-30T14:27:20Z</time>
      </trkpt>
      <trkpt lat="42.71264" lon="0.64964">
        <ele>1594</ele>
        <time>2026-06-30T14:27:23Z</time>
      </trkpt>
      <trkpt lat="42.71269" lon="0.64973">
        <ele>1594</ele>
        <time>2026-06-30T14:27:27Z</time>
      </trkpt>
      <trkpt lat="42.71269" lon="0.64973">
        <ele>1592</ele>
        <time>2026-06-30T14:27:52Z</time>
      </trkpt>
      <trkpt lat="42.71263" lon="0.64971">
        <ele>1597</ele>
        <time>2026-06-30T14:27:54Z</time>
      </trkpt>
      <trkpt lat="42.71299" lon="0.65035">
        <ele>1585</ele>
        <time>2026-06-30T14:28:41Z</time>
      </trkpt>
      <trkpt lat="42.7131" lon="0.65041">
        <ele>1583</ele>
        <time>2026-06-30T14:28:46Z</time>
      </trkpt>
      <trkpt lat="42.71316" lon="0.65038">
        <ele>1580</ele>
        <time>2026-06-30T14:28:57Z</time>
      </trkpt>
      <trkpt lat="42.71336" lon="0.65055">
        <ele>1577</ele>
        <time>2026-06-30T14:29:02Z</time>
      </trkpt>
      <trkpt lat="42.71351" lon="0.65067">
        <ele>1575</ele>
        <time>2026-06-30T14:29:07Z</time>
      </trkpt>
      <trkpt lat="42.71373" lon="0.65067">
        <ele>1572</ele>
        <time>2026-06-30T14:29:12Z</time>
      </trkpt>
      <trkpt lat="42.71399" lon="0.65041">
        <ele>1570</ele>
        <time>2026-06-30T14:29:17Z</time>
      </trkpt>
      <trkpt lat="42.71423" lon="0.65029">
        <ele>1567</ele>
        <time>2026-06-30T14:29:22Z</time>
      </trkpt>
      <trkpt lat="42.71444" lon="0.65049">
        <ele>1563</ele>
        <time>2026-06-30T14:29:27Z</time>
      </trkpt>
      <trkpt lat="42.71462" lon="0.65062">
        <ele>1559</ele>
        <time>2026-06-30T14:29:32Z</time>
      </trkpt>
      <trkpt lat="42.71473" lon="0.65072">
        <ele>1555</ele>
        <time>2026-06-30T14:29:37Z</time>
      </trkpt>
      <trkpt lat="42.71487" lon="0.65086">
        <ele>1551</ele>
        <time>2026-06-30T14:29:42Z</time>
      </trkpt>
      <trkpt lat="42.71506" lon="0.65101">
        <ele>1547</ele>
        <time>2026-06-30T14:29:47Z</time>
      </trkpt>
      <trkpt lat="42.71528" lon="0.65116">
        <ele>1543</ele>
        <time>2026-06-30T14:29:52Z</time>
      </trkpt>
      <trkpt lat="42.71549" lon="0.65122">
        <ele>1539</ele>
        <time>2026-06-30T14:29:57Z</time>
      </trkpt>
      <trkpt lat="42.71571" lon="0.65126">
        <ele>1534</ele>
        <time>2026-06-30T14:30:02Z</time>
      </trkpt>
      <trkpt lat="42.71599" lon="0.6513">
        <ele>1529</ele>
        <time>2026-06-30T14:30:07Z</time>
      </trkpt>
      <trkpt lat="42.71595" lon="0.65158">
        <ele>1523</ele>
        <time>2026-06-30T14:30:12Z</time>
      </trkpt>
      <trkpt lat="42.71595" lon="0.65165">
        <ele>1518</ele>
        <time>2026-06-30T14:30:20Z</time>
      </trkpt>
      <trkpt lat="42.71594" lon="0.65179">
        <ele>1514</ele>
        <time>2026-06-30T14:30:25Z</time>
      </trkpt>
      <trkpt lat="42.71599" lon="0.6519">
        <ele>1511</ele>
        <time>2026-06-30T14:30:30Z</time>
      </trkpt>
      <trkpt lat="42.71603" lon="0.65196">
        <ele>1509</ele>
        <time>2026-06-30T14:30:44Z</time>
      </trkpt>
      <trkpt lat="42.71624" lon="0.65215">
        <ele>1508</ele>
        <time>2026-06-30T14:30:49Z</time>
      </trkpt>
      <trkpt lat="42.71659" lon="0.65232">
        <ele>1506</ele>
        <time>2026-06-30T14:30:54Z</time>
      </trkpt>
      <trkpt lat="42.71701" lon="0.65245">
        <ele>1503</ele>
        <time>2026-06-30T14:30:59Z</time>
      </trkpt>
      <trkpt lat="42.71737" lon="0.65263">
        <ele>1501</ele>
        <time>2026-06-30T14:31:04Z</time>
      </trkpt>
      <trkpt lat="42.71773" lon="0.6528">
        <ele>1498</ele>
        <time>2026-06-30T14:31:09Z</time>
      </trkpt>
      <trkpt lat="42.71799" lon="0.6532">
        <ele>1495</ele>
        <time>2026-06-30T14:31:14Z</time>
      </trkpt>
      <trkpt lat="42.71832" lon="0.6534">
        <ele>1492</ele>
        <time>2026-06-30T14:31:19Z</time>
      </trkpt>
      <trkpt lat="42.71857" lon="0.65363">
        <ele>1489</ele>
        <time>2026-06-30T14:31:24Z</time>
      </trkpt>
      <trkpt lat="42.71875" lon="0.65383">
        <ele>1486</ele>
        <time>2026-06-30T14:31:29Z</time>
      </trkpt>
      <trkpt lat="42.71906" lon="0.65389">
        <ele>1483</ele>
        <time>2026-06-30T14:31:34Z</time>
      </trkpt>
      <trkpt lat="42.71916" lon="0.65393">
        <ele>1481</ele>
        <time>2026-06-30T14:31:39Z</time>
      </trkpt>
      <trkpt lat="42.71922" lon="0.65388">
        <ele>1480</ele>
        <time>2026-06-30T14:31:54Z</time>
      </trkpt>
      <trkpt lat="42.71939" lon="0.65378">
        <ele>1478</ele>
        <time>2026-06-30T14:31:59Z</time>
      </trkpt>
      <trkpt lat="42.71966" lon="0.65389">
        <ele>1476</ele>
        <time>2026-06-30T14:32:04Z</time>
      </trkpt>
      <trkpt lat="42.71995" lon="0.65405">
        <ele>1472</ele>
        <time>2026-06-30T14:32:09Z</time>
      </trkpt>
      <trkpt lat="42.72004" lon="0.65428">
        <ele>1468</ele>
        <time>2026-06-30T14:32:14Z</time>
      </trkpt>
      <trkpt lat="42.72015" lon="0.65437">
        <ele>1463</ele>
        <time>2026-06-30T14:32:19Z</time>
      </trkpt>
      <trkpt lat="42.72026" lon="0.65444">
        <ele>1459</ele>
        <time>2026-06-30T14:32:24Z</time>
      </trkpt>
      <trkpt lat="42.72032" lon="0.65446">
        <ele>1456</ele>
        <time>2026-06-30T14:32:29Z</time>
      </trkpt>
      <trkpt lat="42.72038" lon="0.65455">
        <ele>1454</ele>
        <time>2026-06-30T14:32:34Z</time>
      </trkpt>
      <trkpt lat="42.72046" lon="0.65462">
        <ele>1452</ele>
        <time>2026-06-30T14:32:39Z</time>
      </trkpt>
      <trkpt lat="42.7206" lon="0.65476">
        <ele>1450</ele>
        <time>2026-06-30T14:32:44Z</time>
      </trkpt>
      <trkpt lat="42.72068" lon="0.65491">
        <ele>1449</ele>
        <time>2026-06-30T14:32:49Z</time>
      </trkpt>
      <trkpt lat="42.72074" lon="0.65497">
        <ele>1448</ele>
        <time>2026-06-30T14:32:54Z</time>
      </trkpt>
      <trkpt lat="42.72082" lon="0.655">
        <ele>1448</ele>
        <time>2026-06-30T14:32:59Z</time>
      </trkpt>
      <trkpt lat="42.72088" lon="0.65499">
        <ele>1447</ele>
        <time>2026-06-30T14:33:04Z</time>
      </trkpt>
      <trkpt lat="42.72089" lon="0.65499">
        <ele>1448</ele>
        <time>2026-06-30T14:33:26Z</time>
      </trkpt>
      <trkpt lat="42.72087" lon="0.65486">
        <ele>1450</ele>
        <time>2026-06-30T14:33:29Z</time>
      </trkpt>
      <trkpt lat="42.72089" lon="0.65499">
        <ele>1450</ele>
        <time>2026-06-30T14:33:34Z</time>
      </trkpt>
      <trkpt lat="42.72089" lon="0.65499">
        <ele>1451</ele>
        <time>2026-06-30T14:33:56Z</time>
      </trkpt>
      <trkpt lat="42.72091" lon="0.65493">
        <ele>1453</ele>
        <time>2026-06-30T14:33:59Z</time>
      </trkpt>
      <trkpt lat="42.72092" lon="0.65494">
        <ele>1453</ele>
        <time>2026-06-30T14:34:26Z</time>
      </trkpt>
      <trkpt lat="42.72091" lon="0.65482">
        <ele>1450</ele>
        <time>2026-06-30T14:34:29Z</time>
      </trkpt>
      <trkpt lat="42.72097" lon="0.65476">
        <ele>1449</ele>
        <time>2026-06-30T14:34:34Z</time>
      </trkpt>
      <trkpt lat="42.72102" lon="0.65463">
        <ele>1449</ele>
        <time>2026-06-30T14:34:39Z</time>
      </trkpt>
      <trkpt lat="42.72113" lon="0.65439">
        <ele>1445</ele>
        <time>2026-06-30T14:34:44Z</time>
      </trkpt>
      <trkpt lat="42.72136" lon="0.65409">
        <ele>1442</ele>
        <time>2026-06-30T14:34:49Z</time>
      </trkpt>
      <trkpt lat="42.72151" lon="0.65367">
        <ele>1440</ele>
        <time>2026-06-30T14:34:54Z</time>
      </trkpt>
      <trkpt lat="42.72184" lon="0.65341">
        <ele>1438</ele>
        <time>2026-06-30T14:34:59Z</time>
      </trkpt>
      <trkpt lat="42.72226" lon="0.65323">
        <ele>1434</ele>
        <time>2026-06-30T14:35:04Z</time>
      </trkpt>
      <trkpt lat="42.72264" lon="0.65311">
        <ele>1429</ele>
        <time>2026-06-30T14:35:09Z</time>
      </trkpt>
      <trkpt lat="42.72278" lon="0.65301">
        <ele>1426</ele>
        <time>2026-06-30T14:35:14Z</time>
      </trkpt>
      <trkpt lat="42.72276" lon="0.653">
        <ele>1422</ele>
        <time>2026-06-30T14:35:42Z</time>
      </trkpt>
      <trkpt lat="42.72275" lon="0.65328">
        <ele>1421</ele>
        <time>2026-06-30T14:35:45Z</time>
      </trkpt>
      <trkpt lat="42.72273" lon="0.65321">
        <ele>1418</ele>
        <time>2026-06-30T14:35:50Z</time>
      </trkpt>
      <trkpt lat="42.72273" lon="0.65321">
        <ele>1417</ele>
        <time>2026-06-30T14:36:13Z</time>
      </trkpt>
      <trkpt lat="42.72269" lon="0.65308">
        <ele>1419</ele>
        <time>2026-06-30T14:36:16Z</time>
      </trkpt>
      <trkpt lat="42.72274" lon="0.65307">
        <ele>1419</ele>
        <time>2026-06-30T14:36:23Z</time>
      </trkpt>
      <trkpt lat="42.72274" lon="0.65302">
        <ele>1418</ele>
        <time>2026-06-30T14:36:43Z</time>
      </trkpt>
      <trkpt lat="42.72271" lon="0.65305">
        <ele>1426</ele>
        <time>2026-06-30T14:36:47Z</time>
      </trkpt>
      <trkpt lat="42.72285" lon="0.65313">
        <ele>1427</ele>
        <time>2026-06-30T14:36:51Z</time>
        <extensions>
          <visugpx:TrkExtension xmlns:visugpx="https://www.visugpx.com/editgpx/">
            <visugpx:node>1</visugpx:node>
            </visugpx:TrkExtension>
        </extensions>
      </trkpt>
    </trkseg>
  </trk>
</gpx>